<?xml version="1.0" encoding="UTF-8" standalone="no" ?>
<gpx xmlns="http://www.topografix.com/GPX/1/1" xmlns:xsi="http://www.w3.org/2001/XMLSchema-instance" xsi:schemaLocation="http://www.topografix.com/GPX/1/1 http://www.topografix.com/GPX/1/1/gpx.xsd" version="1.1" creator="VisuGPX - https://www.visugpx.com">
  <metadata>
    <name>2015-03-29 14h35 Balade Solo</name>
    <desc><![CDATA[Balade Solo]]></desc>
  </metadata>
  <trk>
    <name><![CDATA[2015-03-29 14:35 Balade Solo]]></name>
    <trkseg>
      <trkpt lat="43.61836" lon="3.84414">
        <ele>73.2</ele>
        <time>2015-03-29T12:37:39Z</time>
      </trkpt>
      <trkpt lat="43.61835" lon="3.84416">
        <ele>79.93</ele>
        <time>2015-03-29T12:38:18Z</time>
      </trkpt>
      <trkpt lat="43.61823" lon="3.84414">
        <ele>79.93</ele>
        <time>2015-03-29T12:38:23Z</time>
      </trkpt>
      <trkpt lat="43.6182" lon="3.84406">
        <ele>79.45</ele>
        <time>2015-03-29T12:38:24Z</time>
      </trkpt>
      <trkpt lat="43.61817" lon="3.84398">
        <ele>79.45</ele>
        <time>2015-03-29T12:38:25Z</time>
      </trkpt>
      <trkpt lat="43.61787" lon="3.84313">
        <ele>82.81</ele>
        <time>2015-03-29T12:38:32Z</time>
      </trkpt>
      <trkpt lat="43.61785" lon="3.84299">
        <ele>83.29</ele>
        <time>2015-03-29T12:38:33Z</time>
      </trkpt>
      <trkpt lat="43.61786" lon="3.84281">
        <ele>83.29</ele>
        <time>2015-03-29T12:38:34Z</time>
      </trkpt>
      <trkpt lat="43.61792" lon="3.84265">
        <ele>83.77</ele>
        <time>2015-03-29T12:38:35Z</time>
      </trkpt>
      <trkpt lat="43.61798" lon="3.84249">
        <ele>84.25</ele>
        <time>2015-03-29T12:38:36Z</time>
      </trkpt>
      <trkpt lat="43.61804" lon="3.84233">
        <ele>85.21</ele>
        <time>2015-03-29T12:38:37Z</time>
      </trkpt>
      <trkpt lat="43.61825" lon="3.84156">
        <ele>89.54</ele>
        <time>2015-03-29T12:38:42Z</time>
      </trkpt>
      <trkpt lat="43.61827" lon="3.8414">
        <ele>89.06</ele>
        <time>2015-03-29T12:38:43Z</time>
      </trkpt>
      <trkpt lat="43.61827" lon="3.84123">
        <ele>89.06</ele>
        <time>2015-03-29T12:38:44Z</time>
      </trkpt>
      <trkpt lat="43.6182" lon="3.84021">
        <ele>90.5</ele>
        <time>2015-03-29T12:38:50Z</time>
      </trkpt>
      <trkpt lat="43.61817" lon="3.84008">
        <ele>90.98</ele>
        <time>2015-03-29T12:38:51Z</time>
      </trkpt>
      <trkpt lat="43.61813" lon="3.83997">
        <ele>90.98</ele>
        <time>2015-03-29T12:38:52Z</time>
      </trkpt>
      <trkpt lat="43.61799" lon="3.83966">
        <ele>91.94</ele>
        <time>2015-03-29T12:38:58Z</time>
      </trkpt>
      <trkpt lat="43.61795" lon="3.83959">
        <ele>90.98</ele>
        <time>2015-03-29T12:39:32Z</time>
      </trkpt>
      <trkpt lat="43.61797" lon="3.83951">
        <ele>90.98</ele>
        <time>2015-03-29T12:39:33Z</time>
      </trkpt>
      <trkpt lat="43.61802" lon="3.83945">
        <ele>90.98</ele>
        <time>2015-03-29T12:39:34Z</time>
      </trkpt>
      <trkpt lat="43.61808" lon="3.8394">
        <ele>90.5</ele>
        <time>2015-03-29T12:39:35Z</time>
      </trkpt>
      <trkpt lat="43.61816" lon="3.83933">
        <ele>90.5</ele>
        <time>2015-03-29T12:39:36Z</time>
      </trkpt>
      <trkpt lat="43.61893" lon="3.83862">
        <ele>90.98</ele>
        <time>2015-03-29T12:39:44Z</time>
      </trkpt>
      <trkpt lat="43.61954" lon="3.83813">
        <ele>89.06</ele>
        <time>2015-03-29T12:39:52Z</time>
      </trkpt>
      <trkpt lat="43.61965" lon="3.83807">
        <ele>86.18</ele>
        <time>2015-03-29T12:40:00Z</time>
      </trkpt>
      <trkpt lat="43.61993" lon="3.83782">
        <ele>81.85</ele>
        <time>2015-03-29T12:40:08Z</time>
      </trkpt>
      <trkpt lat="43.62072" lon="3.83709">
        <ele>81.37</ele>
        <time>2015-03-29T12:40:15Z</time>
      </trkpt>
      <trkpt lat="43.62196" lon="3.83612">
        <ele>81.85</ele>
        <time>2015-03-29T12:40:26Z</time>
      </trkpt>
      <trkpt lat="43.6223" lon="3.83584">
        <ele>81.85</ele>
        <time>2015-03-29T12:40:31Z</time>
      </trkpt>
      <trkpt lat="43.62235" lon="3.83578">
        <ele>81.85</ele>
        <time>2015-03-29T12:40:32Z</time>
      </trkpt>
      <trkpt lat="43.62239" lon="3.83571">
        <ele>81.85</ele>
        <time>2015-03-29T12:40:33Z</time>
      </trkpt>
      <trkpt lat="43.62243" lon="3.83564">
        <ele>81.85</ele>
        <time>2015-03-29T12:40:34Z</time>
      </trkpt>
      <trkpt lat="43.62246" lon="3.83557">
        <ele>81.85</ele>
        <time>2015-03-29T12:40:35Z</time>
      </trkpt>
      <trkpt lat="43.62286" lon="3.83466">
        <ele>79.45</ele>
        <time>2015-03-29T12:40:44Z</time>
      </trkpt>
      <trkpt lat="43.62298" lon="3.83442">
        <ele>78</ele>
        <time>2015-03-29T12:40:46Z</time>
      </trkpt>
      <trkpt lat="43.62306" lon="3.83431">
        <ele>77.52</ele>
        <time>2015-03-29T12:40:47Z</time>
      </trkpt>
      <trkpt lat="43.62315" lon="3.83423">
        <ele>77.04</ele>
        <time>2015-03-29T12:40:48Z</time>
      </trkpt>
      <trkpt lat="43.62325" lon="3.83418">
        <ele>76.56</ele>
        <time>2015-03-29T12:40:49Z</time>
      </trkpt>
      <trkpt lat="43.62335" lon="3.83413">
        <ele>76.08</ele>
        <time>2015-03-29T12:40:50Z</time>
      </trkpt>
      <trkpt lat="43.62357" lon="3.83406">
        <ele>74.64</ele>
        <time>2015-03-29T12:40:52Z</time>
      </trkpt>
      <trkpt lat="43.62369" lon="3.83405">
        <ele>74.64</ele>
        <time>2015-03-29T12:40:53Z</time>
      </trkpt>
      <trkpt lat="43.62381" lon="3.83409">
        <ele>74.16</ele>
        <time>2015-03-29T12:40:54Z</time>
      </trkpt>
      <trkpt lat="43.62394" lon="3.83415">
        <ele>74.16</ele>
        <time>2015-03-29T12:40:55Z</time>
      </trkpt>
      <trkpt lat="43.62406" lon="3.83423">
        <ele>74.16</ele>
        <time>2015-03-29T12:40:56Z</time>
      </trkpt>
      <trkpt lat="43.62439" lon="3.83449">
        <ele>73.68</ele>
        <time>2015-03-29T12:40:59Z</time>
      </trkpt>
      <trkpt lat="43.62448" lon="3.83459">
        <ele>73.2</ele>
        <time>2015-03-29T12:41:00Z</time>
      </trkpt>
      <trkpt lat="43.62456" lon="3.8347">
        <ele>73.2</ele>
        <time>2015-03-29T12:41:01Z</time>
      </trkpt>
      <trkpt lat="43.62498" lon="3.83556">
        <ele>73.2</ele>
        <time>2015-03-29T12:41:09Z</time>
      </trkpt>
      <trkpt lat="43.62499" lon="3.83566">
        <ele>73.2</ele>
        <time>2015-03-29T12:41:10Z</time>
      </trkpt>
      <trkpt lat="43.62498" lon="3.83575">
        <ele>73.68</ele>
        <time>2015-03-29T12:41:11Z</time>
      </trkpt>
      <trkpt lat="43.62495" lon="3.83584">
        <ele>73.68</ele>
        <time>2015-03-29T12:41:12Z</time>
      </trkpt>
      <trkpt lat="43.62491" lon="3.83592">
        <ele>74.16</ele>
        <time>2015-03-29T12:41:13Z</time>
      </trkpt>
      <trkpt lat="43.62486" lon="3.83602">
        <ele>74.16</ele>
        <time>2015-03-29T12:41:14Z</time>
      </trkpt>
      <trkpt lat="43.62481" lon="3.83612">
        <ele>74.16</ele>
        <time>2015-03-29T12:41:15Z</time>
      </trkpt>
      <trkpt lat="43.62478" lon="3.83625">
        <ele>74.16</ele>
        <time>2015-03-29T12:41:16Z</time>
      </trkpt>
      <trkpt lat="43.62476" lon="3.83637">
        <ele>74.16</ele>
        <time>2015-03-29T12:41:17Z</time>
      </trkpt>
      <trkpt lat="43.62477" lon="3.8365">
        <ele>74.16</ele>
        <time>2015-03-29T12:41:18Z</time>
      </trkpt>
      <trkpt lat="43.62478" lon="3.83661">
        <ele>73.68</ele>
        <time>2015-03-29T12:41:19Z</time>
      </trkpt>
      <trkpt lat="43.6248" lon="3.83672">
        <ele>73.68</ele>
        <time>2015-03-29T12:41:20Z</time>
      </trkpt>
      <trkpt lat="43.62485" lon="3.83681">
        <ele>73.2</ele>
        <time>2015-03-29T12:41:21Z</time>
      </trkpt>
      <trkpt lat="43.62491" lon="3.83689">
        <ele>73.2</ele>
        <time>2015-03-29T12:41:22Z</time>
      </trkpt>
      <trkpt lat="43.62498" lon="3.83695">
        <ele>73.2</ele>
        <time>2015-03-29T12:41:23Z</time>
      </trkpt>
      <trkpt lat="43.62506" lon="3.837">
        <ele>73.2</ele>
        <time>2015-03-29T12:41:24Z</time>
      </trkpt>
      <trkpt lat="43.62514" lon="3.83702">
        <ele>72.72</ele>
        <time>2015-03-29T12:41:25Z</time>
      </trkpt>
      <trkpt lat="43.62523" lon="3.83702">
        <ele>72.72</ele>
        <time>2015-03-29T12:41:26Z</time>
      </trkpt>
      <trkpt lat="43.62532" lon="3.83701">
        <ele>72.72</ele>
        <time>2015-03-29T12:41:27Z</time>
      </trkpt>
      <trkpt lat="43.62541" lon="3.83702">
        <ele>72.24</ele>
        <time>2015-03-29T12:41:28Z</time>
      </trkpt>
      <trkpt lat="43.62551" lon="3.83706">
        <ele>72.24</ele>
        <time>2015-03-29T12:41:29Z</time>
      </trkpt>
      <trkpt lat="43.6256" lon="3.83712">
        <ele>71.76</ele>
        <time>2015-03-29T12:41:30Z</time>
      </trkpt>
      <trkpt lat="43.6257" lon="3.83722">
        <ele>71.76</ele>
        <time>2015-03-29T12:41:31Z</time>
      </trkpt>
      <trkpt lat="43.6258" lon="3.83732">
        <ele>70.79</ele>
        <time>2015-03-29T12:41:32Z</time>
      </trkpt>
      <trkpt lat="43.6259" lon="3.83745">
        <ele>70.31</ele>
        <time>2015-03-29T12:41:33Z</time>
      </trkpt>
      <trkpt lat="43.626" lon="3.83758">
        <ele>70.31</ele>
        <time>2015-03-29T12:41:34Z</time>
      </trkpt>
      <trkpt lat="43.62671" lon="3.83874">
        <ele>66.47</ele>
        <time>2015-03-29T12:41:40Z</time>
      </trkpt>
      <trkpt lat="43.62821" lon="3.84076">
        <ele>60.7</ele>
        <time>2015-03-29T12:41:50Z</time>
      </trkpt>
      <trkpt lat="43.62943" lon="3.84171">
        <ele>57.82</ele>
        <time>2015-03-29T12:41:57Z</time>
      </trkpt>
      <trkpt lat="43.6296" lon="3.84178">
        <ele>57.34</ele>
        <time>2015-03-29T12:41:58Z</time>
      </trkpt>
      <trkpt lat="43.63035" lon="3.84207">
        <ele>56.86</ele>
        <time>2015-03-29T12:42:04Z</time>
      </trkpt>
      <trkpt lat="43.63037" lon="3.84207">
        <ele>57.34</ele>
        <time>2015-03-29T12:42:09Z</time>
      </trkpt>
      <trkpt lat="43.63059" lon="3.84217">
        <ele>57.82</ele>
        <time>2015-03-29T12:42:31Z</time>
      </trkpt>
      <trkpt lat="43.63067" lon="3.84226">
        <ele>57.82</ele>
        <time>2015-03-29T12:42:32Z</time>
      </trkpt>
      <trkpt lat="43.63074" lon="3.84239">
        <ele>57.82</ele>
        <time>2015-03-29T12:42:33Z</time>
      </trkpt>
      <trkpt lat="43.6308" lon="3.84254">
        <ele>57.34</ele>
        <time>2015-03-29T12:42:34Z</time>
      </trkpt>
      <trkpt lat="43.63088" lon="3.84269">
        <ele>56.86</ele>
        <time>2015-03-29T12:42:35Z</time>
      </trkpt>
      <trkpt lat="43.63097" lon="3.8428">
        <ele>56.37</ele>
        <time>2015-03-29T12:42:36Z</time>
      </trkpt>
      <trkpt lat="43.63109" lon="3.84287">
        <ele>55.89</ele>
        <time>2015-03-29T12:42:37Z</time>
      </trkpt>
      <trkpt lat="43.6312" lon="3.84289">
        <ele>55.41</ele>
        <time>2015-03-29T12:42:38Z</time>
      </trkpt>
      <trkpt lat="43.63135" lon="3.84287">
        <ele>54.93</ele>
        <time>2015-03-29T12:42:39Z</time>
      </trkpt>
      <trkpt lat="43.63149" lon="3.84282">
        <ele>54.45</ele>
        <time>2015-03-29T12:42:40Z</time>
      </trkpt>
      <trkpt lat="43.63164" lon="3.84276">
        <ele>53.97</ele>
        <time>2015-03-29T12:42:41Z</time>
      </trkpt>
      <trkpt lat="43.63181" lon="3.84272">
        <ele>54.45</ele>
        <time>2015-03-29T12:42:42Z</time>
      </trkpt>
      <trkpt lat="43.63199" lon="3.84274">
        <ele>53.97</ele>
        <time>2015-03-29T12:42:43Z</time>
      </trkpt>
      <trkpt lat="43.63217" lon="3.8428">
        <ele>53.49</ele>
        <time>2015-03-29T12:42:44Z</time>
      </trkpt>
      <trkpt lat="43.63234" lon="3.84288">
        <ele>53.49</ele>
        <time>2015-03-29T12:42:45Z</time>
      </trkpt>
      <trkpt lat="43.6325" lon="3.84295">
        <ele>53.49</ele>
        <time>2015-03-29T12:42:46Z</time>
      </trkpt>
      <trkpt lat="43.63331" lon="3.84318">
        <ele>53.97</ele>
        <time>2015-03-29T12:42:53Z</time>
      </trkpt>
      <trkpt lat="43.63344" lon="3.84321">
        <ele>54.45</ele>
        <time>2015-03-29T12:42:58Z</time>
      </trkpt>
      <trkpt lat="43.63376" lon="3.8433">
        <ele>54.93</ele>
        <time>2015-03-29T12:43:12Z</time>
      </trkpt>
      <trkpt lat="43.63463" lon="3.84364">
        <ele>55.41</ele>
        <time>2015-03-29T12:43:18Z</time>
      </trkpt>
      <trkpt lat="43.63583" lon="3.84437">
        <ele>52.53</ele>
        <time>2015-03-29T12:43:27Z</time>
      </trkpt>
      <trkpt lat="43.6362" lon="3.84457">
        <ele>52.05</ele>
        <time>2015-03-29T12:43:33Z</time>
      </trkpt>
      <trkpt lat="43.63672" lon="3.8449">
        <ele>54.45</ele>
        <time>2015-03-29T12:43:39Z</time>
      </trkpt>
      <trkpt lat="43.63756" lon="3.8457">
        <ele>56.86</ele>
        <time>2015-03-29T12:43:45Z</time>
      </trkpt>
      <trkpt lat="43.63873" lon="3.84658">
        <ele>56.86</ele>
        <time>2015-03-29T12:43:50Z</time>
      </trkpt>
      <trkpt lat="43.64045" lon="3.84707">
        <ele>58.3</ele>
        <time>2015-03-29T12:43:55Z</time>
      </trkpt>
      <trkpt lat="43.64263" lon="3.84792">
        <ele>64.07</ele>
        <time>2015-03-29T12:44:02Z</time>
      </trkpt>
      <trkpt lat="43.64285" lon="3.84818">
        <ele>65.99</ele>
        <time>2015-03-29T12:44:03Z</time>
      </trkpt>
      <trkpt lat="43.64307" lon="3.84849">
        <ele>67.43</ele>
        <time>2015-03-29T12:44:04Z</time>
      </trkpt>
      <trkpt lat="43.64326" lon="3.84883">
        <ele>69.35</ele>
        <time>2015-03-29T12:44:05Z</time>
      </trkpt>
      <trkpt lat="43.64344" lon="3.84919">
        <ele>71.76</ele>
        <time>2015-03-29T12:44:06Z</time>
      </trkpt>
      <trkpt lat="43.64358" lon="3.84955">
        <ele>73.2</ele>
        <time>2015-03-29T12:44:07Z</time>
      </trkpt>
      <trkpt lat="43.6437" lon="3.84989">
        <ele>73.68</ele>
        <time>2015-03-29T12:44:08Z</time>
      </trkpt>
      <trkpt lat="43.64383" lon="3.85021">
        <ele>74.16</ele>
        <time>2015-03-29T12:44:09Z</time>
      </trkpt>
      <trkpt lat="43.6446" lon="3.85161">
        <ele>71.27</ele>
        <time>2015-03-29T12:44:15Z</time>
      </trkpt>
      <trkpt lat="43.64491" lon="3.85221">
        <ele>70.79</ele>
        <time>2015-03-29T12:44:19Z</time>
      </trkpt>
      <trkpt lat="43.64495" lon="3.85235">
        <ele>70.79</ele>
        <time>2015-03-29T12:44:20Z</time>
      </trkpt>
      <trkpt lat="43.64497" lon="3.85251">
        <ele>71.27</ele>
        <time>2015-03-29T12:44:21Z</time>
      </trkpt>
      <trkpt lat="43.64498" lon="3.85266">
        <ele>71.27</ele>
        <time>2015-03-29T12:44:22Z</time>
      </trkpt>
      <trkpt lat="43.64501" lon="3.85276">
        <ele>71.76</ele>
        <time>2015-03-29T12:44:23Z</time>
      </trkpt>
      <trkpt lat="43.64507" lon="3.85283">
        <ele>71.76</ele>
        <time>2015-03-29T12:44:24Z</time>
      </trkpt>
      <trkpt lat="43.64516" lon="3.85289">
        <ele>71.76</ele>
        <time>2015-03-29T12:44:25Z</time>
      </trkpt>
      <trkpt lat="43.64528" lon="3.85296">
        <ele>72.24</ele>
        <time>2015-03-29T12:44:26Z</time>
      </trkpt>
      <trkpt lat="43.6454" lon="3.85308">
        <ele>72.72</ele>
        <time>2015-03-29T12:44:27Z</time>
      </trkpt>
      <trkpt lat="43.64553" lon="3.85325">
        <ele>72.72</ele>
        <time>2015-03-29T12:44:28Z</time>
      </trkpt>
      <trkpt lat="43.64606" lon="3.85384">
        <ele>72.24</ele>
        <time>2015-03-29T12:44:31Z</time>
      </trkpt>
      <trkpt lat="43.64628" lon="3.85401">
        <ele>71.27</ele>
        <time>2015-03-29T12:44:32Z</time>
      </trkpt>
      <trkpt lat="43.64652" lon="3.85415">
        <ele>69.83</ele>
        <time>2015-03-29T12:44:33Z</time>
      </trkpt>
      <trkpt lat="43.64826" lon="3.85508">
        <ele>61.66</ele>
        <time>2015-03-29T12:44:40Z</time>
      </trkpt>
      <trkpt lat="43.64895" lon="3.85583">
        <ele>58.3</ele>
        <time>2015-03-29T12:44:43Z</time>
      </trkpt>
      <trkpt lat="43.64915" lon="3.85613">
        <ele>58.3</ele>
        <time>2015-03-29T12:44:44Z</time>
      </trkpt>
      <trkpt lat="43.64933" lon="3.85644">
        <ele>57.82</ele>
        <time>2015-03-29T12:44:45Z</time>
      </trkpt>
      <trkpt lat="43.64949" lon="3.85677">
        <ele>58.3</ele>
        <time>2015-03-29T12:44:46Z</time>
      </trkpt>
      <trkpt lat="43.64963" lon="3.85711">
        <ele>58.3</ele>
        <time>2015-03-29T12:44:47Z</time>
      </trkpt>
      <trkpt lat="43.64975" lon="3.85746">
        <ele>57.82</ele>
        <time>2015-03-29T12:44:48Z</time>
      </trkpt>
      <trkpt lat="43.64984" lon="3.85783">
        <ele>57.34</ele>
        <time>2015-03-29T12:44:49Z</time>
      </trkpt>
      <trkpt lat="43.64993" lon="3.85819">
        <ele>56.86</ele>
        <time>2015-03-29T12:44:50Z</time>
      </trkpt>
      <trkpt lat="43.65039" lon="3.86108">
        <ele>50.61</ele>
        <time>2015-03-29T12:44:58Z</time>
      </trkpt>
      <trkpt lat="43.6505" lon="3.86268">
        <ele>45.32</ele>
        <time>2015-03-29T12:45:04Z</time>
      </trkpt>
      <trkpt lat="43.65057" lon="3.86422">
        <ele>44.36</ele>
        <time>2015-03-29T12:45:11Z</time>
      </trkpt>
      <trkpt lat="43.65065" lon="3.86533">
        <ele>44.36</ele>
        <time>2015-03-29T12:45:18Z</time>
      </trkpt>
      <trkpt lat="43.65065" lon="3.86548">
        <ele>44.36</ele>
        <time>2015-03-29T12:45:19Z</time>
      </trkpt>
      <trkpt lat="43.65061" lon="3.86594">
        <ele>45.32</ele>
        <time>2015-03-29T12:45:25Z</time>
      </trkpt>
      <trkpt lat="43.65059" lon="3.866">
        <ele>45.32</ele>
        <time>2015-03-29T12:45:28Z</time>
      </trkpt>
      <trkpt lat="43.65056" lon="3.86608">
        <ele>45.32</ele>
        <time>2015-03-29T12:45:29Z</time>
      </trkpt>
      <trkpt lat="43.65055" lon="3.86618">
        <ele>45.32</ele>
        <time>2015-03-29T12:45:30Z</time>
      </trkpt>
      <trkpt lat="43.65056" lon="3.86628">
        <ele>45.32</ele>
        <time>2015-03-29T12:45:31Z</time>
      </trkpt>
      <trkpt lat="43.6506" lon="3.86636">
        <ele>45.32</ele>
        <time>2015-03-29T12:45:32Z</time>
      </trkpt>
      <trkpt lat="43.65067" lon="3.86642">
        <ele>45.32</ele>
        <time>2015-03-29T12:45:33Z</time>
      </trkpt>
      <trkpt lat="43.65077" lon="3.86644">
        <ele>45.32</ele>
        <time>2015-03-29T12:45:34Z</time>
      </trkpt>
      <trkpt lat="43.65088" lon="3.86646">
        <ele>45.8</ele>
        <time>2015-03-29T12:45:35Z</time>
      </trkpt>
      <trkpt lat="43.65099" lon="3.86647">
        <ele>46.28</ele>
        <time>2015-03-29T12:45:36Z</time>
      </trkpt>
      <trkpt lat="43.65111" lon="3.86645">
        <ele>46.76</ele>
        <time>2015-03-29T12:45:37Z</time>
      </trkpt>
      <trkpt lat="43.65122" lon="3.86639">
        <ele>46.76</ele>
        <time>2015-03-29T12:45:38Z</time>
      </trkpt>
      <trkpt lat="43.65133" lon="3.8663">
        <ele>46.76</ele>
        <time>2015-03-29T12:45:39Z</time>
      </trkpt>
      <trkpt lat="43.65144" lon="3.86619">
        <ele>46.76</ele>
        <time>2015-03-29T12:45:40Z</time>
      </trkpt>
      <trkpt lat="43.65157" lon="3.86608">
        <ele>47.24</ele>
        <time>2015-03-29T12:45:41Z</time>
      </trkpt>
      <trkpt lat="43.65171" lon="3.86597">
        <ele>47.24</ele>
        <time>2015-03-29T12:45:42Z</time>
      </trkpt>
      <trkpt lat="43.65186" lon="3.86587">
        <ele>47.24</ele>
        <time>2015-03-29T12:45:43Z</time>
      </trkpt>
      <trkpt lat="43.65316" lon="3.86511">
        <ele>46.28</ele>
        <time>2015-03-29T12:45:51Z</time>
      </trkpt>
      <trkpt lat="43.65446" lon="3.86477">
        <ele>45.32</ele>
        <time>2015-03-29T12:46:00Z</time>
      </trkpt>
      <trkpt lat="43.65556" lon="3.86434">
        <ele>45.32</ele>
        <time>2015-03-29T12:46:08Z</time>
      </trkpt>
      <trkpt lat="43.65727" lon="3.8637">
        <ele>45.32</ele>
        <time>2015-03-29T12:46:20Z</time>
      </trkpt>
      <trkpt lat="43.65839" lon="3.86339">
        <ele>46.76</ele>
        <time>2015-03-29T12:46:29Z</time>
      </trkpt>
      <trkpt lat="43.65968" lon="3.86317">
        <ele>47.24</ele>
        <time>2015-03-29T12:46:37Z</time>
      </trkpt>
      <trkpt lat="43.65984" lon="3.86319">
        <ele>47.24</ele>
        <time>2015-03-29T12:46:38Z</time>
      </trkpt>
      <trkpt lat="43.66067" lon="3.86324">
        <ele>47.24</ele>
        <time>2015-03-29T12:46:43Z</time>
      </trkpt>
      <trkpt lat="43.66084" lon="3.8632">
        <ele>47.24</ele>
        <time>2015-03-29T12:46:44Z</time>
      </trkpt>
      <trkpt lat="43.661" lon="3.86314">
        <ele>46.76</ele>
        <time>2015-03-29T12:46:45Z</time>
      </trkpt>
      <trkpt lat="43.66133" lon="3.86301">
        <ele>46.76</ele>
        <time>2015-03-29T12:46:47Z</time>
      </trkpt>
      <trkpt lat="43.6615" lon="3.86299">
        <ele>46.76</ele>
        <time>2015-03-29T12:46:48Z</time>
      </trkpt>
      <trkpt lat="43.66236" lon="3.86291">
        <ele>46.76</ele>
        <time>2015-03-29T12:46:55Z</time>
      </trkpt>
      <trkpt lat="43.66317" lon="3.86304">
        <ele>47.72</ele>
        <time>2015-03-29T12:47:01Z</time>
      </trkpt>
      <trkpt lat="43.66331" lon="3.86312">
        <ele>48.2</ele>
        <time>2015-03-29T12:47:02Z</time>
      </trkpt>
      <trkpt lat="43.66345" lon="3.86321">
        <ele>48.68</ele>
        <time>2015-03-29T12:47:03Z</time>
      </trkpt>
      <trkpt lat="43.66387" lon="3.8635">
        <ele>49.16</ele>
        <time>2015-03-29T12:47:06Z</time>
      </trkpt>
      <trkpt lat="43.66402" lon="3.86356">
        <ele>49.16</ele>
        <time>2015-03-29T12:47:07Z</time>
      </trkpt>
      <trkpt lat="43.66415" lon="3.86358">
        <ele>49.16</ele>
        <time>2015-03-29T12:47:08Z</time>
      </trkpt>
      <trkpt lat="43.6643" lon="3.86358">
        <ele>48.68</ele>
        <time>2015-03-29T12:47:09Z</time>
      </trkpt>
      <trkpt lat="43.66443" lon="3.86355">
        <ele>48.68</ele>
        <time>2015-03-29T12:47:10Z</time>
      </trkpt>
      <trkpt lat="43.66453" lon="3.8635">
        <ele>49.16</ele>
        <time>2015-03-29T12:47:11Z</time>
      </trkpt>
      <trkpt lat="43.66463" lon="3.86346">
        <ele>49.65</ele>
        <time>2015-03-29T12:47:12Z</time>
      </trkpt>
      <trkpt lat="43.66554" lon="3.86318">
        <ele>50.61</ele>
        <time>2015-03-29T12:47:19Z</time>
      </trkpt>
      <trkpt lat="43.66668" lon="3.86334">
        <ele>49.16</ele>
        <time>2015-03-29T12:47:26Z</time>
      </trkpt>
      <trkpt lat="43.66779" lon="3.86349">
        <ele>49.65</ele>
        <time>2015-03-29T12:47:33Z</time>
      </trkpt>
      <trkpt lat="43.66828" lon="3.86332">
        <ele>50.61</ele>
        <time>2015-03-29T12:47:36Z</time>
      </trkpt>
      <trkpt lat="43.66843" lon="3.8632">
        <ele>50.61</ele>
        <time>2015-03-29T12:47:37Z</time>
      </trkpt>
      <trkpt lat="43.66856" lon="3.86305">
        <ele>51.09</ele>
        <time>2015-03-29T12:47:38Z</time>
      </trkpt>
      <trkpt lat="43.66973" lon="3.86182">
        <ele>55.41</ele>
        <time>2015-03-29T12:47:48Z</time>
      </trkpt>
      <trkpt lat="43.66986" lon="3.86173">
        <ele>56.37</ele>
        <time>2015-03-29T12:47:49Z</time>
      </trkpt>
      <trkpt lat="43.66999" lon="3.86167">
        <ele>57.34</ele>
        <time>2015-03-29T12:47:50Z</time>
      </trkpt>
      <trkpt lat="43.67012" lon="3.86163">
        <ele>57.34</ele>
        <time>2015-03-29T12:47:51Z</time>
      </trkpt>
      <trkpt lat="43.67024" lon="3.86162">
        <ele>57.82</ele>
        <time>2015-03-29T12:47:52Z</time>
      </trkpt>
      <trkpt lat="43.67035" lon="3.86163">
        <ele>57.34</ele>
        <time>2015-03-29T12:47:53Z</time>
      </trkpt>
      <trkpt lat="43.67045" lon="3.86166">
        <ele>56.86</ele>
        <time>2015-03-29T12:47:54Z</time>
      </trkpt>
      <trkpt lat="43.67053" lon="3.8617">
        <ele>56.86</ele>
        <time>2015-03-29T12:47:55Z</time>
      </trkpt>
      <trkpt lat="43.67059" lon="3.86176">
        <ele>56.86</ele>
        <time>2015-03-29T12:47:56Z</time>
      </trkpt>
      <trkpt lat="43.67064" lon="3.8618">
        <ele>56.86</ele>
        <time>2015-03-29T12:47:57Z</time>
      </trkpt>
      <trkpt lat="43.6707" lon="3.8618">
        <ele>56.86</ele>
        <time>2015-03-29T12:47:58Z</time>
      </trkpt>
      <trkpt lat="43.67072" lon="3.86176">
        <ele>57.34</ele>
        <time>2015-03-29T12:47:59Z</time>
      </trkpt>
      <trkpt lat="43.67075" lon="3.86168">
        <ele>56.86</ele>
        <time>2015-03-29T12:48:00Z</time>
      </trkpt>
      <trkpt lat="43.6708" lon="3.86158">
        <ele>56.86</ele>
        <time>2015-03-29T12:48:01Z</time>
      </trkpt>
      <trkpt lat="43.67085" lon="3.86148">
        <ele>57.34</ele>
        <time>2015-03-29T12:48:02Z</time>
      </trkpt>
      <trkpt lat="43.67092" lon="3.86139">
        <ele>57.34</ele>
        <time>2015-03-29T12:48:03Z</time>
      </trkpt>
      <trkpt lat="43.67107" lon="3.86121">
        <ele>57.82</ele>
        <time>2015-03-29T12:48:05Z</time>
      </trkpt>
      <trkpt lat="43.67115" lon="3.86116">
        <ele>58.3</ele>
        <time>2015-03-29T12:48:06Z</time>
      </trkpt>
      <trkpt lat="43.67122" lon="3.86111">
        <ele>58.3</ele>
        <time>2015-03-29T12:48:07Z</time>
      </trkpt>
      <trkpt lat="43.67141" lon="3.86102">
        <ele>58.78</ele>
        <time>2015-03-29T12:48:13Z</time>
      </trkpt>
      <trkpt lat="43.67169" lon="3.86084">
        <ele>59.74</ele>
        <time>2015-03-29T12:50:39Z</time>
      </trkpt>
      <trkpt lat="43.67254" lon="3.86024">
        <ele>61.18</ele>
        <time>2015-03-29T12:50:46Z</time>
      </trkpt>
      <trkpt lat="43.67315" lon="3.85974">
        <ele>61.66</ele>
        <time>2015-03-29T12:50:53Z</time>
      </trkpt>
      <trkpt lat="43.67325" lon="3.85969">
        <ele>62.14</ele>
        <time>2015-03-29T12:50:54Z</time>
      </trkpt>
      <trkpt lat="43.6739" lon="3.85938">
        <ele>63.1</ele>
        <time>2015-03-29T12:51:01Z</time>
      </trkpt>
      <trkpt lat="43.67401" lon="3.85928">
        <ele>63.58</ele>
        <time>2015-03-29T12:51:02Z</time>
      </trkpt>
      <trkpt lat="43.67509" lon="3.85815">
        <ele>62.14</ele>
        <time>2015-03-29T12:51:10Z</time>
      </trkpt>
      <trkpt lat="43.6766" lon="3.85659">
        <ele>62.62</ele>
        <time>2015-03-29T12:51:19Z</time>
      </trkpt>
      <trkpt lat="43.67705" lon="3.85617">
        <ele>63.1</ele>
        <time>2015-03-29T12:51:22Z</time>
      </trkpt>
      <trkpt lat="43.67719" lon="3.85609">
        <ele>63.58</ele>
        <time>2015-03-29T12:51:23Z</time>
      </trkpt>
      <trkpt lat="43.67735" lon="3.85605">
        <ele>64.55</ele>
        <time>2015-03-29T12:51:24Z</time>
      </trkpt>
      <trkpt lat="43.67753" lon="3.85603">
        <ele>65.03</ele>
        <time>2015-03-29T12:51:25Z</time>
      </trkpt>
      <trkpt lat="43.67773" lon="3.85604">
        <ele>65.51</ele>
        <time>2015-03-29T12:51:26Z</time>
      </trkpt>
      <trkpt lat="43.67794" lon="3.85608">
        <ele>65.51</ele>
        <time>2015-03-29T12:51:27Z</time>
      </trkpt>
      <trkpt lat="43.67816" lon="3.85616">
        <ele>65.51</ele>
        <time>2015-03-29T12:51:28Z</time>
      </trkpt>
      <trkpt lat="43.67838" lon="3.85625">
        <ele>65.51</ele>
        <time>2015-03-29T12:51:29Z</time>
      </trkpt>
      <trkpt lat="43.68074" lon="3.85696">
        <ele>62.62</ele>
        <time>2015-03-29T12:51:39Z</time>
      </trkpt>
      <trkpt lat="43.68125" lon="3.85699">
        <ele>62.62</ele>
        <time>2015-03-29T12:51:41Z</time>
      </trkpt>
      <trkpt lat="43.6815" lon="3.85695">
        <ele>62.62</ele>
        <time>2015-03-29T12:51:42Z</time>
      </trkpt>
      <trkpt lat="43.68449" lon="3.85643">
        <ele>60.22</ele>
        <time>2015-03-29T12:51:54Z</time>
      </trkpt>
      <trkpt lat="43.6852" lon="3.85654">
        <ele>59.26</ele>
        <time>2015-03-29T12:51:57Z</time>
      </trkpt>
      <trkpt lat="43.68543" lon="3.85658">
        <ele>58.78</ele>
        <time>2015-03-29T12:51:58Z</time>
      </trkpt>
      <trkpt lat="43.68566" lon="3.85655">
        <ele>58.78</ele>
        <time>2015-03-29T12:51:59Z</time>
      </trkpt>
      <trkpt lat="43.68592" lon="3.85649">
        <ele>58.3</ele>
        <time>2015-03-29T12:52:00Z</time>
      </trkpt>
      <trkpt lat="43.68618" lon="3.85641">
        <ele>58.78</ele>
        <time>2015-03-29T12:52:01Z</time>
      </trkpt>
      <trkpt lat="43.68752" lon="3.85601">
        <ele>59.74</ele>
        <time>2015-03-29T12:52:06Z</time>
      </trkpt>
      <trkpt lat="43.68777" lon="3.85587">
        <ele>60.22</ele>
        <time>2015-03-29T12:52:07Z</time>
      </trkpt>
      <trkpt lat="43.68873" lon="3.85517">
        <ele>61.66</ele>
        <time>2015-03-29T12:52:12Z</time>
      </trkpt>
      <trkpt lat="43.68986" lon="3.85394">
        <ele>63.58</ele>
        <time>2015-03-29T12:52:19Z</time>
      </trkpt>
      <trkpt lat="43.69106" lon="3.85286">
        <ele>64.07</ele>
        <time>2015-03-29T12:52:26Z</time>
      </trkpt>
      <trkpt lat="43.69126" lon="3.85278">
        <ele>64.07</ele>
        <time>2015-03-29T12:52:27Z</time>
      </trkpt>
      <trkpt lat="43.69147" lon="3.85276">
        <ele>64.07</ele>
        <time>2015-03-29T12:52:28Z</time>
      </trkpt>
      <trkpt lat="43.69169" lon="3.85279">
        <ele>64.07</ele>
        <time>2015-03-29T12:52:29Z</time>
      </trkpt>
      <trkpt lat="43.69192" lon="3.85289">
        <ele>64.07</ele>
        <time>2015-03-29T12:52:30Z</time>
      </trkpt>
      <trkpt lat="43.69215" lon="3.853">
        <ele>64.07</ele>
        <time>2015-03-29T12:52:31Z</time>
      </trkpt>
      <trkpt lat="43.69239" lon="3.85311">
        <ele>64.07</ele>
        <time>2015-03-29T12:52:32Z</time>
      </trkpt>
      <trkpt lat="43.69464" lon="3.85369">
        <ele>62.62</ele>
        <time>2015-03-29T12:52:41Z</time>
      </trkpt>
      <trkpt lat="43.69623" lon="3.85373">
        <ele>61.66</ele>
        <time>2015-03-29T12:52:47Z</time>
      </trkpt>
      <trkpt lat="43.69893" lon="3.85386">
        <ele>64.07</ele>
        <time>2015-03-29T12:52:57Z</time>
      </trkpt>
      <trkpt lat="43.69956" lon="3.85384">
        <ele>65.51</ele>
        <time>2015-03-29T12:53:00Z</time>
      </trkpt>
      <trkpt lat="43.69977" lon="3.85377">
        <ele>65.99</ele>
        <time>2015-03-29T12:53:01Z</time>
      </trkpt>
      <trkpt lat="43.69997" lon="3.85367">
        <ele>65.99</ele>
        <time>2015-03-29T12:53:02Z</time>
      </trkpt>
      <trkpt lat="43.70037" lon="3.85353">
        <ele>66.47</ele>
        <time>2015-03-29T12:53:04Z</time>
      </trkpt>
      <trkpt lat="43.70057" lon="3.8535">
        <ele>66.47</ele>
        <time>2015-03-29T12:53:05Z</time>
      </trkpt>
      <trkpt lat="43.70076" lon="3.85352">
        <ele>65.99</ele>
        <time>2015-03-29T12:53:06Z</time>
      </trkpt>
      <trkpt lat="43.70094" lon="3.85355">
        <ele>65.99</ele>
        <time>2015-03-29T12:53:07Z</time>
      </trkpt>
      <trkpt lat="43.70111" lon="3.85358">
        <ele>65.99</ele>
        <time>2015-03-29T12:53:08Z</time>
      </trkpt>
      <trkpt lat="43.70163" lon="3.85368">
        <ele>66.47</ele>
        <time>2015-03-29T12:53:12Z</time>
      </trkpt>
      <trkpt lat="43.70171" lon="3.85372">
        <ele>66.95</ele>
        <time>2015-03-29T12:53:13Z</time>
      </trkpt>
      <trkpt lat="43.70176" lon="3.85379">
        <ele>67.91</ele>
        <time>2015-03-29T12:53:14Z</time>
      </trkpt>
      <trkpt lat="43.7018" lon="3.85387">
        <ele>67.43</ele>
        <time>2015-03-29T12:53:15Z</time>
      </trkpt>
      <trkpt lat="43.70184" lon="3.85396">
        <ele>66.95</ele>
        <time>2015-03-29T12:53:16Z</time>
      </trkpt>
      <trkpt lat="43.70187" lon="3.85404">
        <ele>66.95</ele>
        <time>2015-03-29T12:53:17Z</time>
      </trkpt>
      <trkpt lat="43.70192" lon="3.85407">
        <ele>66.47</ele>
        <time>2015-03-29T12:53:18Z</time>
      </trkpt>
      <trkpt lat="43.70199" lon="3.85405">
        <ele>65.99</ele>
        <time>2015-03-29T12:53:19Z</time>
      </trkpt>
      <trkpt lat="43.70205" lon="3.85399">
        <ele>65.51</ele>
        <time>2015-03-29T12:53:20Z</time>
      </trkpt>
      <trkpt lat="43.70212" lon="3.85392">
        <ele>65.51</ele>
        <time>2015-03-29T12:53:21Z</time>
      </trkpt>
      <trkpt lat="43.7022" lon="3.85385">
        <ele>66.47</ele>
        <time>2015-03-29T12:53:22Z</time>
      </trkpt>
      <trkpt lat="43.7023" lon="3.85381">
        <ele>66.95</ele>
        <time>2015-03-29T12:53:23Z</time>
      </trkpt>
      <trkpt lat="43.7024" lon="3.85379">
        <ele>67.91</ele>
        <time>2015-03-29T12:53:24Z</time>
      </trkpt>
      <trkpt lat="43.70251" lon="3.85382">
        <ele>67.91</ele>
        <time>2015-03-29T12:53:25Z</time>
      </trkpt>
      <trkpt lat="43.70262" lon="3.85385">
        <ele>68.39</ele>
        <time>2015-03-29T12:53:26Z</time>
      </trkpt>
      <trkpt lat="43.70372" lon="3.85386">
        <ele>68.39</ele>
        <time>2015-03-29T12:53:34Z</time>
      </trkpt>
      <trkpt lat="43.70526" lon="3.85368">
        <ele>66.47</ele>
        <time>2015-03-29T12:53:42Z</time>
      </trkpt>
      <trkpt lat="43.70682" lon="3.85336">
        <ele>66.95</ele>
        <time>2015-03-29T12:53:50Z</time>
      </trkpt>
      <trkpt lat="43.70791" lon="3.85327">
        <ele>65.99</ele>
        <time>2015-03-29T12:53:57Z</time>
      </trkpt>
      <trkpt lat="43.70974" lon="3.85281">
        <ele>65.03</ele>
        <time>2015-03-29T12:54:06Z</time>
      </trkpt>
      <trkpt lat="43.71157" lon="3.85226">
        <ele>67.43</ele>
        <time>2015-03-29T12:54:15Z</time>
      </trkpt>
      <trkpt lat="43.71341" lon="3.85152">
        <ele>65.51</ele>
        <time>2015-03-29T12:54:25Z</time>
      </trkpt>
      <trkpt lat="43.71358" lon="3.8514">
        <ele>65.03</ele>
        <time>2015-03-29T12:54:26Z</time>
      </trkpt>
      <trkpt lat="43.71373" lon="3.85123">
        <ele>65.03</ele>
        <time>2015-03-29T12:54:27Z</time>
      </trkpt>
      <trkpt lat="43.71388" lon="3.85103">
        <ele>64.55</ele>
        <time>2015-03-29T12:54:28Z</time>
      </trkpt>
      <trkpt lat="43.71483" lon="3.84995">
        <ele>65.03</ele>
        <time>2015-03-29T12:54:34Z</time>
      </trkpt>
      <trkpt lat="43.71559" lon="3.84919">
        <ele>68.39</ele>
        <time>2015-03-29T12:54:41Z</time>
      </trkpt>
      <trkpt lat="43.71575" lon="3.84898">
        <ele>69.35</ele>
        <time>2015-03-29T12:54:43Z</time>
      </trkpt>
      <trkpt lat="43.71582" lon="3.84885">
        <ele>69.35</ele>
        <time>2015-03-29T12:54:44Z</time>
      </trkpt>
      <trkpt lat="43.71588" lon="3.8487">
        <ele>69.35</ele>
        <time>2015-03-29T12:54:45Z</time>
      </trkpt>
      <trkpt lat="43.71592" lon="3.84854">
        <ele>69.35</ele>
        <time>2015-03-29T12:54:46Z</time>
      </trkpt>
      <trkpt lat="43.71596" lon="3.84837">
        <ele>69.35</ele>
        <time>2015-03-29T12:54:47Z</time>
      </trkpt>
      <trkpt lat="43.71599" lon="3.84819">
        <ele>69.35</ele>
        <time>2015-03-29T12:54:48Z</time>
      </trkpt>
      <trkpt lat="43.71607" lon="3.84766">
        <ele>69.35</ele>
        <time>2015-03-29T12:54:51Z</time>
      </trkpt>
      <trkpt lat="43.71611" lon="3.8475">
        <ele>69.35</ele>
        <time>2015-03-29T12:54:52Z</time>
      </trkpt>
      <trkpt lat="43.71617" lon="3.84736">
        <ele>69.35</ele>
        <time>2015-03-29T12:54:53Z</time>
      </trkpt>
      <trkpt lat="43.71624" lon="3.84723">
        <ele>69.35</ele>
        <time>2015-03-29T12:54:54Z</time>
      </trkpt>
      <trkpt lat="43.71632" lon="3.84712">
        <ele>69.83</ele>
        <time>2015-03-29T12:54:55Z</time>
      </trkpt>
      <trkpt lat="43.7164" lon="3.847">
        <ele>69.83</ele>
        <time>2015-03-29T12:54:56Z</time>
      </trkpt>
      <trkpt lat="43.71647" lon="3.84688">
        <ele>70.31</ele>
        <time>2015-03-29T12:54:57Z</time>
      </trkpt>
      <trkpt lat="43.71651" lon="3.84674">
        <ele>70.79</ele>
        <time>2015-03-29T12:54:58Z</time>
      </trkpt>
      <trkpt lat="43.71652" lon="3.84657">
        <ele>70.79</ele>
        <time>2015-03-29T12:54:59Z</time>
      </trkpt>
      <trkpt lat="43.71652" lon="3.84638">
        <ele>70.79</ele>
        <time>2015-03-29T12:55:00Z</time>
      </trkpt>
      <trkpt lat="43.7165" lon="3.8462">
        <ele>70.79</ele>
        <time>2015-03-29T12:55:01Z</time>
      </trkpt>
      <trkpt lat="43.71648" lon="3.84601">
        <ele>70.79</ele>
        <time>2015-03-29T12:55:02Z</time>
      </trkpt>
      <trkpt lat="43.71648" lon="3.84583">
        <ele>70.79</ele>
        <time>2015-03-29T12:55:03Z</time>
      </trkpt>
      <trkpt lat="43.7165" lon="3.84566">
        <ele>70.79</ele>
        <time>2015-03-29T12:55:04Z</time>
      </trkpt>
      <trkpt lat="43.71653" lon="3.84549">
        <ele>70.79</ele>
        <time>2015-03-29T12:55:05Z</time>
      </trkpt>
      <trkpt lat="43.71657" lon="3.84531">
        <ele>70.79</ele>
        <time>2015-03-29T12:55:06Z</time>
      </trkpt>
      <trkpt lat="43.71662" lon="3.84515">
        <ele>70.31</ele>
        <time>2015-03-29T12:55:07Z</time>
      </trkpt>
      <trkpt lat="43.71672" lon="3.84485">
        <ele>69.83</ele>
        <time>2015-03-29T12:55:09Z</time>
      </trkpt>
      <trkpt lat="43.71678" lon="3.84472">
        <ele>69.83</ele>
        <time>2015-03-29T12:55:10Z</time>
      </trkpt>
      <trkpt lat="43.71685" lon="3.8446">
        <ele>69.83</ele>
        <time>2015-03-29T12:55:11Z</time>
      </trkpt>
      <trkpt lat="43.71694" lon="3.8445">
        <ele>69.83</ele>
        <time>2015-03-29T12:55:12Z</time>
      </trkpt>
      <trkpt lat="43.71705" lon="3.84443">
        <ele>70.31</ele>
        <time>2015-03-29T12:55:13Z</time>
      </trkpt>
      <trkpt lat="43.71718" lon="3.84439">
        <ele>70.31</ele>
        <time>2015-03-29T12:55:14Z</time>
      </trkpt>
      <trkpt lat="43.71729" lon="3.84436">
        <ele>70.79</ele>
        <time>2015-03-29T12:55:15Z</time>
      </trkpt>
      <trkpt lat="43.71753" lon="3.84429">
        <ele>71.27</ele>
        <time>2015-03-29T12:55:17Z</time>
      </trkpt>
      <trkpt lat="43.71764" lon="3.84422">
        <ele>70.79</ele>
        <time>2015-03-29T12:55:18Z</time>
      </trkpt>
      <trkpt lat="43.71774" lon="3.84412">
        <ele>70.79</ele>
        <time>2015-03-29T12:55:19Z</time>
      </trkpt>
      <trkpt lat="43.71782" lon="3.84401">
        <ele>70.79</ele>
        <time>2015-03-29T12:55:20Z</time>
      </trkpt>
      <trkpt lat="43.71789" lon="3.8439">
        <ele>70.79</ele>
        <time>2015-03-29T12:55:21Z</time>
      </trkpt>
      <trkpt lat="43.71796" lon="3.84379">
        <ele>70.31</ele>
        <time>2015-03-29T12:55:22Z</time>
      </trkpt>
      <trkpt lat="43.71801" lon="3.84366">
        <ele>69.83</ele>
        <time>2015-03-29T12:55:23Z</time>
      </trkpt>
      <trkpt lat="43.71805" lon="3.84352">
        <ele>69.35</ele>
        <time>2015-03-29T12:55:24Z</time>
      </trkpt>
      <trkpt lat="43.71805" lon="3.84334">
        <ele>68.87</ele>
        <time>2015-03-29T12:55:25Z</time>
      </trkpt>
      <trkpt lat="43.71803" lon="3.84316">
        <ele>68.39</ele>
        <time>2015-03-29T12:55:26Z</time>
      </trkpt>
      <trkpt lat="43.718" lon="3.84296">
        <ele>68.87</ele>
        <time>2015-03-29T12:55:27Z</time>
      </trkpt>
      <trkpt lat="43.71796" lon="3.84276">
        <ele>68.87</ele>
        <time>2015-03-29T12:55:28Z</time>
      </trkpt>
      <trkpt lat="43.71787" lon="3.8422">
        <ele>69.35</ele>
        <time>2015-03-29T12:55:31Z</time>
      </trkpt>
      <trkpt lat="43.71787" lon="3.84203">
        <ele>69.35</ele>
        <time>2015-03-29T12:55:32Z</time>
      </trkpt>
      <trkpt lat="43.7179" lon="3.84186">
        <ele>70.31</ele>
        <time>2015-03-29T12:55:33Z</time>
      </trkpt>
      <trkpt lat="43.71793" lon="3.84169">
        <ele>70.79</ele>
        <time>2015-03-29T12:55:34Z</time>
      </trkpt>
      <trkpt lat="43.71797" lon="3.84152">
        <ele>71.27</ele>
        <time>2015-03-29T12:55:35Z</time>
      </trkpt>
      <trkpt lat="43.71808" lon="3.84083">
        <ele>73.2</ele>
        <time>2015-03-29T12:55:39Z</time>
      </trkpt>
      <trkpt lat="43.71817" lon="3.84068">
        <ele>73.68</ele>
        <time>2015-03-29T12:55:40Z</time>
      </trkpt>
      <trkpt lat="43.71829" lon="3.84055">
        <ele>74.64</ele>
        <time>2015-03-29T12:55:41Z</time>
      </trkpt>
      <trkpt lat="43.71844" lon="3.84042">
        <ele>76.56</ele>
        <time>2015-03-29T12:55:42Z</time>
      </trkpt>
      <trkpt lat="43.7186" lon="3.8403">
        <ele>78</ele>
        <time>2015-03-29T12:55:43Z</time>
      </trkpt>
      <trkpt lat="43.71951" lon="3.83931">
        <ele>86.18</ele>
        <time>2015-03-29T12:55:50Z</time>
      </trkpt>
      <trkpt lat="43.71975" lon="3.83902">
        <ele>88.58</ele>
        <time>2015-03-29T12:55:53Z</time>
      </trkpt>
      <trkpt lat="43.71983" lon="3.83899">
        <ele>89.54</ele>
        <time>2015-03-29T12:55:54Z</time>
      </trkpt>
      <trkpt lat="43.71992" lon="3.83903">
        <ele>90.02</ele>
        <time>2015-03-29T12:55:55Z</time>
      </trkpt>
      <trkpt lat="43.71998" lon="3.8393">
        <ele>91.94</ele>
        <time>2015-03-29T12:55:57Z</time>
      </trkpt>
      <trkpt lat="43.71999" lon="3.83948">
        <ele>93.39</ele>
        <time>2015-03-29T12:55:58Z</time>
      </trkpt>
      <trkpt lat="43.71999" lon="3.83966">
        <ele>93.87</ele>
        <time>2015-03-29T12:55:59Z</time>
      </trkpt>
      <trkpt lat="43.71999" lon="3.83981">
        <ele>94.35</ele>
        <time>2015-03-29T12:56:00Z</time>
      </trkpt>
      <trkpt lat="43.72003" lon="3.83996">
        <ele>95.31</ele>
        <time>2015-03-29T12:56:01Z</time>
      </trkpt>
      <trkpt lat="43.7201" lon="3.84008">
        <ele>96.27</ele>
        <time>2015-03-29T12:56:02Z</time>
      </trkpt>
      <trkpt lat="43.72023" lon="3.84014">
        <ele>96.75</ele>
        <time>2015-03-29T12:56:03Z</time>
      </trkpt>
      <trkpt lat="43.72037" lon="3.84013">
        <ele>97.23</ele>
        <time>2015-03-29T12:56:04Z</time>
      </trkpt>
      <trkpt lat="43.72051" lon="3.84005">
        <ele>98.19</ele>
        <time>2015-03-29T12:56:05Z</time>
      </trkpt>
      <trkpt lat="43.72067" lon="3.84">
        <ele>100.6</ele>
        <time>2015-03-29T12:56:06Z</time>
      </trkpt>
      <trkpt lat="43.72085" lon="3.83994">
        <ele>101.08</ele>
        <time>2015-03-29T12:56:07Z</time>
      </trkpt>
      <trkpt lat="43.72103" lon="3.83993">
        <ele>102.04</ele>
        <time>2015-03-29T12:56:08Z</time>
      </trkpt>
      <trkpt lat="43.72135" lon="3.83991">
        <ele>103.48</ele>
        <time>2015-03-29T12:56:10Z</time>
      </trkpt>
      <trkpt lat="43.72148" lon="3.83987">
        <ele>104.44</ele>
        <time>2015-03-29T12:56:11Z</time>
      </trkpt>
      <trkpt lat="43.7216" lon="3.8398">
        <ele>104.92</ele>
        <time>2015-03-29T12:56:12Z</time>
      </trkpt>
      <trkpt lat="43.72169" lon="3.83972">
        <ele>105.88</ele>
        <time>2015-03-29T12:56:13Z</time>
      </trkpt>
      <trkpt lat="43.72177" lon="3.83961">
        <ele>106.84</ele>
        <time>2015-03-29T12:56:14Z</time>
      </trkpt>
      <trkpt lat="43.72184" lon="3.83949">
        <ele>106.84</ele>
        <time>2015-03-29T12:56:15Z</time>
      </trkpt>
      <trkpt lat="43.7219" lon="3.83935">
        <ele>107.32</ele>
        <time>2015-03-29T12:56:16Z</time>
      </trkpt>
      <trkpt lat="43.72197" lon="3.83919">
        <ele>106.84</ele>
        <time>2015-03-29T12:56:17Z</time>
      </trkpt>
      <trkpt lat="43.72225" lon="3.83862">
        <ele>105.4</ele>
        <time>2015-03-29T12:56:21Z</time>
      </trkpt>
      <trkpt lat="43.72234" lon="3.83851">
        <ele>104.92</ele>
        <time>2015-03-29T12:56:22Z</time>
      </trkpt>
      <trkpt lat="43.72246" lon="3.8384">
        <ele>104.44</ele>
        <time>2015-03-29T12:56:23Z</time>
      </trkpt>
      <trkpt lat="43.72259" lon="3.83832">
        <ele>103.48</ele>
        <time>2015-03-29T12:56:24Z</time>
      </trkpt>
      <trkpt lat="43.72272" lon="3.83826">
        <ele>103</ele>
        <time>2015-03-29T12:56:25Z</time>
      </trkpt>
      <trkpt lat="43.72409" lon="3.83737">
        <ele>94.83</ele>
        <time>2015-03-29T12:56:35Z</time>
      </trkpt>
      <trkpt lat="43.72578" lon="3.83611">
        <ele>90.5</ele>
        <time>2015-03-29T12:56:47Z</time>
      </trkpt>
      <trkpt lat="43.72612" lon="3.83584">
        <ele>89.54</ele>
        <time>2015-03-29T12:56:50Z</time>
      </trkpt>
      <trkpt lat="43.72622" lon="3.83569">
        <ele>89.06</ele>
        <time>2015-03-29T12:56:51Z</time>
      </trkpt>
      <trkpt lat="43.7263" lon="3.83549">
        <ele>88.58</ele>
        <time>2015-03-29T12:56:52Z</time>
      </trkpt>
      <trkpt lat="43.72636" lon="3.83528">
        <ele>88.58</ele>
        <time>2015-03-29T12:56:53Z</time>
      </trkpt>
      <trkpt lat="43.72642" lon="3.83505">
        <ele>89.06</ele>
        <time>2015-03-29T12:56:54Z</time>
      </trkpt>
      <trkpt lat="43.72657" lon="3.8346">
        <ele>89.06</ele>
        <time>2015-03-29T12:56:56Z</time>
      </trkpt>
      <trkpt lat="43.72666" lon="3.8344">
        <ele>89.06</ele>
        <time>2015-03-29T12:56:57Z</time>
      </trkpt>
      <trkpt lat="43.72677" lon="3.8342">
        <ele>89.06</ele>
        <time>2015-03-29T12:56:58Z</time>
      </trkpt>
      <trkpt lat="43.72801" lon="3.83231">
        <ele>90.5</ele>
        <time>2015-03-29T12:57:08Z</time>
      </trkpt>
      <trkpt lat="43.72883" lon="3.83137">
        <ele>90.5</ele>
        <time>2015-03-29T12:57:14Z</time>
      </trkpt>
      <trkpt lat="43.72897" lon="3.83127">
        <ele>90.5</ele>
        <time>2015-03-29T12:57:15Z</time>
      </trkpt>
      <trkpt lat="43.72911" lon="3.8312">
        <ele>90.5</ele>
        <time>2015-03-29T12:57:16Z</time>
      </trkpt>
      <trkpt lat="43.72936" lon="3.83108">
        <ele>90.02</ele>
        <time>2015-03-29T12:57:18Z</time>
      </trkpt>
      <trkpt lat="43.72945" lon="3.83099">
        <ele>90.02</ele>
        <time>2015-03-29T12:57:19Z</time>
      </trkpt>
      <trkpt lat="43.72951" lon="3.83086">
        <ele>89.54</ele>
        <time>2015-03-29T12:57:20Z</time>
      </trkpt>
      <trkpt lat="43.72953" lon="3.8307">
        <ele>89.06</ele>
        <time>2015-03-29T12:57:21Z</time>
      </trkpt>
      <trkpt lat="43.72953" lon="3.83053">
        <ele>88.58</ele>
        <time>2015-03-29T12:57:22Z</time>
      </trkpt>
      <trkpt lat="43.72951" lon="3.83035">
        <ele>88.1</ele>
        <time>2015-03-29T12:57:23Z</time>
      </trkpt>
      <trkpt lat="43.72947" lon="3.83016">
        <ele>88.1</ele>
        <time>2015-03-29T12:57:24Z</time>
      </trkpt>
      <trkpt lat="43.72938" lon="3.82995">
        <ele>88.1</ele>
        <time>2015-03-29T12:57:25Z</time>
      </trkpt>
      <trkpt lat="43.72928" lon="3.82974">
        <ele>88.1</ele>
        <time>2015-03-29T12:57:26Z</time>
      </trkpt>
      <trkpt lat="43.7292" lon="3.82953">
        <ele>88.1</ele>
        <time>2015-03-29T12:57:27Z</time>
      </trkpt>
      <trkpt lat="43.72853" lon="3.82776">
        <ele>88.58</ele>
        <time>2015-03-29T12:57:37Z</time>
      </trkpt>
      <trkpt lat="43.72852" lon="3.82757">
        <ele>89.06</ele>
        <time>2015-03-29T12:57:38Z</time>
      </trkpt>
      <trkpt lat="43.72853" lon="3.82739">
        <ele>89.06</ele>
        <time>2015-03-29T12:57:39Z</time>
      </trkpt>
      <trkpt lat="43.72856" lon="3.82721">
        <ele>89.06</ele>
        <time>2015-03-29T12:57:40Z</time>
      </trkpt>
      <trkpt lat="43.72859" lon="3.82703">
        <ele>89.06</ele>
        <time>2015-03-29T12:57:41Z</time>
      </trkpt>
      <trkpt lat="43.72863" lon="3.82668">
        <ele>88.58</ele>
        <time>2015-03-29T12:57:43Z</time>
      </trkpt>
      <trkpt lat="43.72863" lon="3.8265">
        <ele>88.58</ele>
        <time>2015-03-29T12:57:44Z</time>
      </trkpt>
      <trkpt lat="43.72861" lon="3.82633">
        <ele>88.58</ele>
        <time>2015-03-29T12:57:45Z</time>
      </trkpt>
      <trkpt lat="43.72859" lon="3.82616">
        <ele>89.06</ele>
        <time>2015-03-29T12:57:46Z</time>
      </trkpt>
      <trkpt lat="43.72857" lon="3.82601">
        <ele>89.06</ele>
        <time>2015-03-29T12:57:47Z</time>
      </trkpt>
      <trkpt lat="43.72842" lon="3.82525">
        <ele>90.5</ele>
        <time>2015-03-29T12:57:54Z</time>
      </trkpt>
      <trkpt lat="43.72821" lon="3.82401">
        <ele>92.9</ele>
        <time>2015-03-29T12:58:02Z</time>
      </trkpt>
      <trkpt lat="43.72812" lon="3.82215">
        <ele>95.31</ele>
        <time>2015-03-29T12:58:14Z</time>
      </trkpt>
      <trkpt lat="43.72814" lon="3.82124">
        <ele>97.23</ele>
        <time>2015-03-29T12:58:23Z</time>
      </trkpt>
      <trkpt lat="43.72818" lon="3.82057">
        <ele>97.71</ele>
        <time>2015-03-29T12:58:30Z</time>
      </trkpt>
      <trkpt lat="43.72812" lon="3.81937">
        <ele>98.67</ele>
        <time>2015-03-29T12:58:39Z</time>
      </trkpt>
      <trkpt lat="43.72805" lon="3.8184">
        <ele>100.6</ele>
        <time>2015-03-29T12:58:47Z</time>
      </trkpt>
      <trkpt lat="43.72805" lon="3.81829">
        <ele>100.6</ele>
        <time>2015-03-29T12:58:48Z</time>
      </trkpt>
      <trkpt lat="43.72806" lon="3.81818">
        <ele>100.6</ele>
        <time>2015-03-29T12:58:49Z</time>
      </trkpt>
      <trkpt lat="43.72809" lon="3.81807">
        <ele>100.6</ele>
        <time>2015-03-29T12:58:50Z</time>
      </trkpt>
      <trkpt lat="43.72812" lon="3.81796">
        <ele>100.6</ele>
        <time>2015-03-29T12:58:51Z</time>
      </trkpt>
      <trkpt lat="43.72817" lon="3.81785">
        <ele>101.08</ele>
        <time>2015-03-29T12:58:52Z</time>
      </trkpt>
      <trkpt lat="43.72823" lon="3.81774">
        <ele>101.08</ele>
        <time>2015-03-29T12:58:53Z</time>
      </trkpt>
      <trkpt lat="43.72829" lon="3.81764">
        <ele>101.08</ele>
        <time>2015-03-29T12:58:54Z</time>
      </trkpt>
      <trkpt lat="43.72893" lon="3.81643">
        <ele>101.08</ele>
        <time>2015-03-29T12:59:04Z</time>
      </trkpt>
      <trkpt lat="43.72943" lon="3.81517">
        <ele>101.56</ele>
        <time>2015-03-29T12:59:13Z</time>
      </trkpt>
      <trkpt lat="43.72971" lon="3.8138">
        <ele>100.6</ele>
        <time>2015-03-29T12:59:22Z</time>
      </trkpt>
      <trkpt lat="43.72994" lon="3.81257">
        <ele>98.19</ele>
        <time>2015-03-29T12:59:30Z</time>
      </trkpt>
      <trkpt lat="43.72999" lon="3.81244">
        <ele>98.19</ele>
        <time>2015-03-29T12:59:31Z</time>
      </trkpt>
      <trkpt lat="43.73004" lon="3.81233">
        <ele>98.19</ele>
        <time>2015-03-29T12:59:32Z</time>
      </trkpt>
      <trkpt lat="43.73011" lon="3.81223">
        <ele>98.67</ele>
        <time>2015-03-29T12:59:33Z</time>
      </trkpt>
      <trkpt lat="43.73019" lon="3.81216">
        <ele>99.15</ele>
        <time>2015-03-29T12:59:34Z</time>
      </trkpt>
      <trkpt lat="43.73028" lon="3.81209">
        <ele>99.15</ele>
        <time>2015-03-29T12:59:35Z</time>
      </trkpt>
      <trkpt lat="43.73062" lon="3.81184">
        <ele>99.15</ele>
        <time>2015-03-29T12:59:40Z</time>
      </trkpt>
      <trkpt lat="43.73065" lon="3.81183">
        <ele>99.15</ele>
        <time>2015-03-29T12:59:41Z</time>
      </trkpt>
      <trkpt lat="43.73068" lon="3.81184">
        <ele>99.15</ele>
        <time>2015-03-29T12:59:42Z</time>
      </trkpt>
      <trkpt lat="43.7307" lon="3.81189">
        <ele>98.67</ele>
        <time>2015-03-29T12:59:47Z</time>
      </trkpt>
      <trkpt lat="43.73073" lon="3.81196">
        <ele>98.19</ele>
        <time>2015-03-29T12:59:48Z</time>
      </trkpt>
      <trkpt lat="43.73075" lon="3.81208">
        <ele>98.19</ele>
        <time>2015-03-29T12:59:49Z</time>
      </trkpt>
      <trkpt lat="43.73077" lon="3.8122">
        <ele>97.71</ele>
        <time>2015-03-29T12:59:50Z</time>
      </trkpt>
      <trkpt lat="43.73078" lon="3.81233">
        <ele>97.71</ele>
        <time>2015-03-29T12:59:51Z</time>
      </trkpt>
      <trkpt lat="43.73092" lon="3.81359">
        <ele>96.75</ele>
        <time>2015-03-29T12:59:58Z</time>
      </trkpt>
      <trkpt lat="43.73117" lon="3.81545">
        <ele>96.75</ele>
        <time>2015-03-29T13:00:07Z</time>
      </trkpt>
      <trkpt lat="43.7312" lon="3.81562">
        <ele>96.27</ele>
        <time>2015-03-29T13:00:08Z</time>
      </trkpt>
      <trkpt lat="43.73129" lon="3.81596">
        <ele>96.27</ele>
        <time>2015-03-29T13:00:13Z</time>
      </trkpt>
      <trkpt lat="43.73138" lon="3.81636">
        <ele>96.75</ele>
        <time>2015-03-29T13:00:20Z</time>
      </trkpt>
      <trkpt lat="43.73167" lon="3.81748">
        <ele>99.15</ele>
        <time>2015-03-29T13:00:27Z</time>
      </trkpt>
      <trkpt lat="43.73214" lon="3.81913">
        <ele>101.08</ele>
        <time>2015-03-29T13:00:34Z</time>
      </trkpt>
      <trkpt lat="43.73284" lon="3.82124">
        <ele>103.96</ele>
        <time>2015-03-29T13:00:40Z</time>
      </trkpt>
      <trkpt lat="43.73493" lon="3.82624">
        <ele>102.52</ele>
        <time>2015-03-29T13:00:54Z</time>
      </trkpt>
      <trkpt lat="43.73624" lon="3.82932">
        <ele>102.52</ele>
        <time>2015-03-29T13:01:01Z</time>
      </trkpt>
      <trkpt lat="43.73912" lon="3.83612">
        <ele>103.48</ele>
        <time>2015-03-29T13:01:16Z</time>
      </trkpt>
      <trkpt lat="43.7397" lon="3.83777">
        <ele>102.52</ele>
        <time>2015-03-29T13:01:20Z</time>
      </trkpt>
      <trkpt lat="43.73978" lon="3.83824">
        <ele>101.56</ele>
        <time>2015-03-29T13:01:21Z</time>
      </trkpt>
      <trkpt lat="43.73983" lon="3.83873">
        <ele>100.11</ele>
        <time>2015-03-29T13:01:22Z</time>
      </trkpt>
      <trkpt lat="43.73995" lon="3.84094">
        <ele>95.31</ele>
        <time>2015-03-29T13:01:27Z</time>
      </trkpt>
      <trkpt lat="43.74002" lon="3.84279">
        <ele>93.87</ele>
        <time>2015-03-29T13:01:33Z</time>
      </trkpt>
      <trkpt lat="43.74041" lon="3.84596">
        <ele>91.46</ele>
        <time>2015-03-29T13:01:43Z</time>
      </trkpt>
      <trkpt lat="43.74173" lon="3.85021">
        <ele>85.69</ele>
        <time>2015-03-29T13:01:56Z</time>
      </trkpt>
      <trkpt lat="43.74297" lon="3.85411">
        <ele>85.21</ele>
        <time>2015-03-29T13:02:08Z</time>
      </trkpt>
      <trkpt lat="43.74351" lon="3.85561">
        <ele>85.69</ele>
        <time>2015-03-29T13:02:13Z</time>
      </trkpt>
      <trkpt lat="43.74367" lon="3.85584">
        <ele>85.69</ele>
        <time>2015-03-29T13:02:14Z</time>
      </trkpt>
      <trkpt lat="43.74389" lon="3.85606">
        <ele>85.69</ele>
        <time>2015-03-29T13:02:15Z</time>
      </trkpt>
      <trkpt lat="43.7441" lon="3.85626">
        <ele>85.69</ele>
        <time>2015-03-29T13:02:16Z</time>
      </trkpt>
      <trkpt lat="43.74434" lon="3.85645">
        <ele>85.69</ele>
        <time>2015-03-29T13:02:17Z</time>
      </trkpt>
      <trkpt lat="43.74458" lon="3.85663">
        <ele>85.21</ele>
        <time>2015-03-29T13:02:18Z</time>
      </trkpt>
      <trkpt lat="43.74544" lon="3.85739">
        <ele>84.73</ele>
        <time>2015-03-29T13:02:22Z</time>
      </trkpt>
      <trkpt lat="43.74562" lon="3.85762">
        <ele>84.25</ele>
        <time>2015-03-29T13:02:23Z</time>
      </trkpt>
      <trkpt lat="43.74578" lon="3.85788">
        <ele>83.77</ele>
        <time>2015-03-29T13:02:24Z</time>
      </trkpt>
      <trkpt lat="43.74591" lon="3.85817">
        <ele>83.77</ele>
        <time>2015-03-29T13:02:25Z</time>
      </trkpt>
      <trkpt lat="43.74601" lon="3.85847">
        <ele>83.77</ele>
        <time>2015-03-29T13:02:26Z</time>
      </trkpt>
      <trkpt lat="43.7461" lon="3.85876">
        <ele>83.77</ele>
        <time>2015-03-29T13:02:27Z</time>
      </trkpt>
      <trkpt lat="43.74637" lon="3.85976">
        <ele>84.25</ele>
        <time>2015-03-29T13:02:32Z</time>
      </trkpt>
      <trkpt lat="43.74642" lon="3.85991">
        <ele>84.25</ele>
        <time>2015-03-29T13:02:34Z</time>
      </trkpt>
      <trkpt lat="43.74645" lon="3.85997">
        <ele>84.25</ele>
        <time>2015-03-29T13:02:35Z</time>
      </trkpt>
      <trkpt lat="43.74649" lon="3.86003">
        <ele>84.73</ele>
        <time>2015-03-29T13:02:42Z</time>
      </trkpt>
      <trkpt lat="43.7465" lon="3.86004">
        <ele>84.73</ele>
        <time>2015-03-29T13:02:48Z</time>
      </trkpt>
      <trkpt lat="43.74654" lon="3.86006">
        <ele>84.73</ele>
        <time>2015-03-29T13:02:49Z</time>
      </trkpt>
      <trkpt lat="43.74662" lon="3.86003">
        <ele>84.73</ele>
        <time>2015-03-29T13:02:50Z</time>
      </trkpt>
      <trkpt lat="43.74671" lon="3.85995">
        <ele>84.73</ele>
        <time>2015-03-29T13:02:51Z</time>
      </trkpt>
      <trkpt lat="43.74681" lon="3.85986">
        <ele>84.73</ele>
        <time>2015-03-29T13:02:52Z</time>
      </trkpt>
      <trkpt lat="43.74693" lon="3.85974">
        <ele>84.73</ele>
        <time>2015-03-29T13:02:53Z</time>
      </trkpt>
      <trkpt lat="43.74789" lon="3.8589">
        <ele>86.18</ele>
        <time>2015-03-29T13:02:59Z</time>
      </trkpt>
      <trkpt lat="43.7481" lon="3.85878">
        <ele>86.66</ele>
        <time>2015-03-29T13:03:00Z</time>
      </trkpt>
      <trkpt lat="43.74831" lon="3.8587">
        <ele>86.66</ele>
        <time>2015-03-29T13:03:01Z</time>
      </trkpt>
      <trkpt lat="43.74856" lon="3.85866">
        <ele>87.14</ele>
        <time>2015-03-29T13:03:02Z</time>
      </trkpt>
      <trkpt lat="43.7488" lon="3.85865">
        <ele>87.62</ele>
        <time>2015-03-29T13:03:03Z</time>
      </trkpt>
      <trkpt lat="43.74903" lon="3.85867">
        <ele>87.62</ele>
        <time>2015-03-29T13:03:04Z</time>
      </trkpt>
      <trkpt lat="43.74926" lon="3.8587">
        <ele>87.62</ele>
        <time>2015-03-29T13:03:05Z</time>
      </trkpt>
      <trkpt lat="43.75261" lon="3.85934">
        <ele>90.5</ele>
        <time>2015-03-29T13:03:20Z</time>
      </trkpt>
      <trkpt lat="43.75418" lon="3.85964">
        <ele>93.39</ele>
        <time>2015-03-29T13:03:27Z</time>
      </trkpt>
      <trkpt lat="43.75537" lon="3.85988">
        <ele>94.35</ele>
        <time>2015-03-29T13:03:33Z</time>
      </trkpt>
      <trkpt lat="43.75711" lon="3.86053">
        <ele>93.87</ele>
        <time>2015-03-29T13:03:43Z</time>
      </trkpt>
      <trkpt lat="43.75987" lon="3.86238">
        <ele>97.23</ele>
        <time>2015-03-29T13:04:00Z</time>
      </trkpt>
      <trkpt lat="43.76071" lon="3.86292">
        <ele>97.23</ele>
        <time>2015-03-29T13:04:08Z</time>
      </trkpt>
      <trkpt lat="43.76102" lon="3.86315">
        <ele>97.71</ele>
        <time>2015-03-29T13:04:12Z</time>
      </trkpt>
      <trkpt lat="43.76108" lon="3.86321">
        <ele>97.71</ele>
        <time>2015-03-29T13:04:13Z</time>
      </trkpt>
      <trkpt lat="43.76114" lon="3.86329">
        <ele>97.71</ele>
        <time>2015-03-29T13:04:14Z</time>
      </trkpt>
      <trkpt lat="43.76118" lon="3.8634">
        <ele>97.71</ele>
        <time>2015-03-29T13:04:15Z</time>
      </trkpt>
      <trkpt lat="43.76122" lon="3.86351">
        <ele>97.71</ele>
        <time>2015-03-29T13:04:16Z</time>
      </trkpt>
      <trkpt lat="43.76128" lon="3.8636">
        <ele>97.71</ele>
        <time>2015-03-29T13:04:17Z</time>
      </trkpt>
      <trkpt lat="43.76136" lon="3.86366">
        <ele>97.23</ele>
        <time>2015-03-29T13:04:18Z</time>
      </trkpt>
      <trkpt lat="43.76145" lon="3.86367">
        <ele>97.23</ele>
        <time>2015-03-29T13:04:19Z</time>
      </trkpt>
      <trkpt lat="43.76153" lon="3.86365">
        <ele>97.23</ele>
        <time>2015-03-29T13:04:20Z</time>
      </trkpt>
      <trkpt lat="43.76163" lon="3.86363">
        <ele>96.75</ele>
        <time>2015-03-29T13:04:21Z</time>
      </trkpt>
      <trkpt lat="43.76174" lon="3.86366">
        <ele>96.75</ele>
        <time>2015-03-29T13:04:22Z</time>
      </trkpt>
      <trkpt lat="43.76186" lon="3.86371">
        <ele>96.75</ele>
        <time>2015-03-29T13:04:23Z</time>
      </trkpt>
      <trkpt lat="43.76197" lon="3.86378">
        <ele>97.23</ele>
        <time>2015-03-29T13:04:24Z</time>
      </trkpt>
      <trkpt lat="43.76208" lon="3.86385">
        <ele>97.23</ele>
        <time>2015-03-29T13:04:25Z</time>
      </trkpt>
      <trkpt lat="43.76357" lon="3.86484">
        <ele>97.71</ele>
        <time>2015-03-29T13:04:39Z</time>
      </trkpt>
      <trkpt lat="43.76446" lon="3.86543">
        <ele>99.15</ele>
        <time>2015-03-29T13:04:49Z</time>
      </trkpt>
      <trkpt lat="43.76559" lon="3.86619">
        <ele>101.08</ele>
        <time>2015-03-29T13:05:01Z</time>
      </trkpt>
      <trkpt lat="43.76589" lon="3.86645">
        <ele>102.52</ele>
        <time>2015-03-29T13:05:08Z</time>
      </trkpt>
      <trkpt lat="43.76594" lon="3.8665">
        <ele>102.52</ele>
        <time>2015-03-29T13:05:09Z</time>
      </trkpt>
      <trkpt lat="43.76601" lon="3.86653">
        <ele>102.52</ele>
        <time>2015-03-29T13:05:10Z</time>
      </trkpt>
      <trkpt lat="43.76616" lon="3.8666">
        <ele>103</ele>
        <time>2015-03-29T13:05:12Z</time>
      </trkpt>
      <trkpt lat="43.76692" lon="3.86707">
        <ele>104.44</ele>
        <time>2015-03-29T13:05:20Z</time>
      </trkpt>
      <trkpt lat="43.76765" lon="3.86735">
        <ele>108.29</ele>
        <time>2015-03-29T13:05:30Z</time>
      </trkpt>
      <trkpt lat="43.76847" lon="3.86764">
        <ele>108.29</ele>
        <time>2015-03-29T13:05:42Z</time>
      </trkpt>
      <trkpt lat="43.76933" lon="3.86792">
        <ele>107.81</ele>
        <time>2015-03-29T13:05:53Z</time>
      </trkpt>
      <trkpt lat="43.77013" lon="3.86823">
        <ele>107.32</ele>
        <time>2015-03-29T13:06:04Z</time>
      </trkpt>
      <trkpt lat="43.77094" lon="3.86854">
        <ele>108.29</ele>
        <time>2015-03-29T13:06:14Z</time>
      </trkpt>
      <trkpt lat="43.77192" lon="3.86891">
        <ele>109.73</ele>
        <time>2015-03-29T13:06:24Z</time>
      </trkpt>
      <trkpt lat="43.77328" lon="3.8694">
        <ele>114.05</ele>
        <time>2015-03-29T13:06:35Z</time>
      </trkpt>
      <trkpt lat="43.77384" lon="3.86955">
        <ele>117.42</ele>
        <time>2015-03-29T13:06:40Z</time>
      </trkpt>
      <trkpt lat="43.7739" lon="3.86961">
        <ele>117.9</ele>
        <time>2015-03-29T13:06:41Z</time>
      </trkpt>
      <trkpt lat="43.77394" lon="3.86971">
        <ele>117.9</ele>
        <time>2015-03-29T13:06:42Z</time>
      </trkpt>
      <trkpt lat="43.77396" lon="3.86985">
        <ele>117.9</ele>
        <time>2015-03-29T13:06:43Z</time>
      </trkpt>
      <trkpt lat="43.77399" lon="3.86999">
        <ele>118.38</ele>
        <time>2015-03-29T13:06:44Z</time>
      </trkpt>
      <trkpt lat="43.77404" lon="3.87015">
        <ele>118.38</ele>
        <time>2015-03-29T13:06:45Z</time>
      </trkpt>
      <trkpt lat="43.77412" lon="3.87024">
        <ele>117.9</ele>
        <time>2015-03-29T13:06:46Z</time>
      </trkpt>
      <trkpt lat="43.77422" lon="3.87029">
        <ele>117.9</ele>
        <time>2015-03-29T13:06:47Z</time>
      </trkpt>
      <trkpt lat="43.77434" lon="3.87028">
        <ele>116.94</ele>
        <time>2015-03-29T13:06:48Z</time>
      </trkpt>
      <trkpt lat="43.77445" lon="3.87021">
        <ele>116.46</ele>
        <time>2015-03-29T13:06:49Z</time>
      </trkpt>
      <trkpt lat="43.77454" lon="3.87011">
        <ele>116.46</ele>
        <time>2015-03-29T13:06:50Z</time>
      </trkpt>
      <trkpt lat="43.77461" lon="3.86996">
        <ele>116.46</ele>
        <time>2015-03-29T13:06:51Z</time>
      </trkpt>
      <trkpt lat="43.77463" lon="3.8698">
        <ele>115.98</ele>
        <time>2015-03-29T13:06:52Z</time>
      </trkpt>
      <trkpt lat="43.77462" lon="3.86965">
        <ele>115.5</ele>
        <time>2015-03-29T13:06:53Z</time>
      </trkpt>
      <trkpt lat="43.77458" lon="3.86952">
        <ele>115.5</ele>
        <time>2015-03-29T13:06:54Z</time>
      </trkpt>
      <trkpt lat="43.77454" lon="3.86938">
        <ele>115.01</ele>
        <time>2015-03-29T13:06:55Z</time>
      </trkpt>
      <trkpt lat="43.77452" lon="3.86921">
        <ele>115.01</ele>
        <time>2015-03-29T13:06:56Z</time>
      </trkpt>
      <trkpt lat="43.77453" lon="3.869">
        <ele>114.53</ele>
        <time>2015-03-29T13:06:57Z</time>
      </trkpt>
      <trkpt lat="43.77456" lon="3.86878">
        <ele>114.53</ele>
        <time>2015-03-29T13:06:58Z</time>
      </trkpt>
      <trkpt lat="43.77461" lon="3.86855">
        <ele>114.53</ele>
        <time>2015-03-29T13:06:59Z</time>
      </trkpt>
      <trkpt lat="43.77467" lon="3.8683">
        <ele>114.53</ele>
        <time>2015-03-29T13:07:00Z</time>
      </trkpt>
      <trkpt lat="43.77523" lon="3.86646">
        <ele>112.13</ele>
        <time>2015-03-29T13:07:07Z</time>
      </trkpt>
      <trkpt lat="43.77612" lon="3.86354">
        <ele>109.25</ele>
        <time>2015-03-29T13:07:19Z</time>
      </trkpt>
      <trkpt lat="43.77737" lon="3.85943">
        <ele>116.94</ele>
        <time>2015-03-29T13:07:34Z</time>
      </trkpt>
      <trkpt lat="43.77769" lon="3.85842">
        <ele>118.86</ele>
        <time>2015-03-29T13:07:38Z</time>
      </trkpt>
      <trkpt lat="43.77779" lon="3.85819">
        <ele>119.34</ele>
        <time>2015-03-29T13:07:39Z</time>
      </trkpt>
      <trkpt lat="43.77792" lon="3.85799">
        <ele>119.82</ele>
        <time>2015-03-29T13:07:40Z</time>
      </trkpt>
      <trkpt lat="43.77809" lon="3.85781">
        <ele>119.82</ele>
        <time>2015-03-29T13:07:41Z</time>
      </trkpt>
      <trkpt lat="43.77826" lon="3.85763">
        <ele>119.82</ele>
        <time>2015-03-29T13:07:42Z</time>
      </trkpt>
      <trkpt lat="43.77942" lon="3.85666">
        <ele>120.78</ele>
        <time>2015-03-29T13:07:49Z</time>
      </trkpt>
      <trkpt lat="43.77962" lon="3.85671">
        <ele>120.78</ele>
        <time>2015-03-29T13:07:50Z</time>
      </trkpt>
      <trkpt lat="43.77985" lon="3.85683">
        <ele>121.74</ele>
        <time>2015-03-29T13:07:51Z</time>
      </trkpt>
      <trkpt lat="43.78007" lon="3.85693">
        <ele>121.74</ele>
        <time>2015-03-29T13:07:52Z</time>
      </trkpt>
      <trkpt lat="43.78029" lon="3.85704">
        <ele>121.74</ele>
        <time>2015-03-29T13:07:53Z</time>
      </trkpt>
      <trkpt lat="43.78051" lon="3.85716">
        <ele>121.74</ele>
        <time>2015-03-29T13:07:54Z</time>
      </trkpt>
      <trkpt lat="43.78261" lon="3.85783">
        <ele>125.59</ele>
        <time>2015-03-29T13:08:03Z</time>
      </trkpt>
      <trkpt lat="43.78396" lon="3.85808">
        <ele>125.59</ele>
        <time>2015-03-29T13:08:10Z</time>
      </trkpt>
      <trkpt lat="43.78413" lon="3.8581">
        <ele>125.59</ele>
        <time>2015-03-29T13:08:11Z</time>
      </trkpt>
      <trkpt lat="43.7843" lon="3.85808">
        <ele>126.07</ele>
        <time>2015-03-29T13:08:12Z</time>
      </trkpt>
      <trkpt lat="43.78449" lon="3.85803">
        <ele>125.59</ele>
        <time>2015-03-29T13:08:13Z</time>
      </trkpt>
      <trkpt lat="43.78577" lon="3.85766">
        <ele>125.59</ele>
        <time>2015-03-29T13:08:18Z</time>
      </trkpt>
      <trkpt lat="43.78704" lon="3.85741">
        <ele>125.11</ele>
        <time>2015-03-29T13:08:24Z</time>
      </trkpt>
      <trkpt lat="43.78911" lon="3.85693">
        <ele>125.59</ele>
        <time>2015-03-29T13:08:37Z</time>
      </trkpt>
      <trkpt lat="43.78959" lon="3.85672">
        <ele>127.51</ele>
        <time>2015-03-29T13:08:42Z</time>
      </trkpt>
      <trkpt lat="43.78981" lon="3.85659">
        <ele>127.03</ele>
        <time>2015-03-29T13:08:44Z</time>
      </trkpt>
      <trkpt lat="43.78992" lon="3.8565">
        <ele>127.03</ele>
        <time>2015-03-29T13:08:45Z</time>
      </trkpt>
      <trkpt lat="43.79003" lon="3.85639">
        <ele>127.03</ele>
        <time>2015-03-29T13:08:46Z</time>
      </trkpt>
      <trkpt lat="43.79014" lon="3.85626">
        <ele>127.03</ele>
        <time>2015-03-29T13:08:47Z</time>
      </trkpt>
      <trkpt lat="43.79025" lon="3.85611">
        <ele>127.03</ele>
        <time>2015-03-29T13:08:48Z</time>
      </trkpt>
      <trkpt lat="43.79035" lon="3.85595">
        <ele>127.51</ele>
        <time>2015-03-29T13:08:49Z</time>
      </trkpt>
      <trkpt lat="43.79044" lon="3.85576">
        <ele>127.03</ele>
        <time>2015-03-29T13:08:50Z</time>
      </trkpt>
      <trkpt lat="43.79052" lon="3.85556">
        <ele>127.03</ele>
        <time>2015-03-29T13:08:51Z</time>
      </trkpt>
      <trkpt lat="43.79058" lon="3.85534">
        <ele>127.03</ele>
        <time>2015-03-29T13:08:52Z</time>
      </trkpt>
      <trkpt lat="43.79064" lon="3.85511">
        <ele>127.03</ele>
        <time>2015-03-29T13:08:53Z</time>
      </trkpt>
      <trkpt lat="43.79068" lon="3.85487">
        <ele>126.55</ele>
        <time>2015-03-29T13:08:54Z</time>
      </trkpt>
      <trkpt lat="43.79071" lon="3.85456">
        <ele>127.03</ele>
        <time>2015-03-29T13:08:55Z</time>
      </trkpt>
      <trkpt lat="43.79072" lon="3.85421">
        <ele>127.03</ele>
        <time>2015-03-29T13:08:56Z</time>
      </trkpt>
      <trkpt lat="43.79074" lon="3.85386">
        <ele>127.03</ele>
        <time>2015-03-29T13:08:57Z</time>
      </trkpt>
      <trkpt lat="43.791" lon="3.851">
        <ele>128.95</ele>
        <time>2015-03-29T13:09:06Z</time>
      </trkpt>
      <trkpt lat="43.79101" lon="3.85017">
        <ele>129.92</ele>
        <time>2015-03-29T13:09:09Z</time>
      </trkpt>
      <trkpt lat="43.79095" lon="3.84986">
        <ele>129.92</ele>
        <time>2015-03-29T13:09:10Z</time>
      </trkpt>
      <trkpt lat="43.79088" lon="3.84954">
        <ele>129.92</ele>
        <time>2015-03-29T13:09:11Z</time>
      </trkpt>
      <trkpt lat="43.79015" lon="3.84688">
        <ele>131.36</ele>
        <time>2015-03-29T13:09:19Z</time>
      </trkpt>
      <trkpt lat="43.78914" lon="3.84296">
        <ele>138.57</ele>
        <time>2015-03-29T13:09:31Z</time>
      </trkpt>
      <trkpt lat="43.78834" lon="3.83826">
        <ele>151.54</ele>
        <time>2015-03-29T13:09:44Z</time>
      </trkpt>
      <trkpt lat="43.78787" lon="3.83544">
        <ele>160.2</ele>
        <time>2015-03-29T13:09:52Z</time>
      </trkpt>
      <trkpt lat="43.78788" lon="3.83507">
        <ele>161.16</ele>
        <time>2015-03-29T13:09:53Z</time>
      </trkpt>
      <trkpt lat="43.78794" lon="3.83469">
        <ele>162.6</ele>
        <time>2015-03-29T13:09:54Z</time>
      </trkpt>
      <trkpt lat="43.78801" lon="3.83432">
        <ele>163.56</ele>
        <time>2015-03-29T13:09:55Z</time>
      </trkpt>
      <trkpt lat="43.78809" lon="3.83393">
        <ele>164.52</ele>
        <time>2015-03-29T13:09:56Z</time>
      </trkpt>
      <trkpt lat="43.78835" lon="3.83162">
        <ele>170.77</ele>
        <time>2015-03-29T13:10:02Z</time>
      </trkpt>
      <trkpt lat="43.78885" lon="3.82949">
        <ele>177.02</ele>
        <time>2015-03-29T13:10:08Z</time>
      </trkpt>
      <trkpt lat="43.79006" lon="3.82607">
        <ele>190.48</ele>
        <time>2015-03-29T13:10:19Z</time>
      </trkpt>
      <trkpt lat="43.79062" lon="3.82313">
        <ele>199.61</ele>
        <time>2015-03-29T13:10:28Z</time>
      </trkpt>
      <trkpt lat="43.79106" lon="3.81985">
        <ele>207.3</ele>
        <time>2015-03-29T13:10:37Z</time>
      </trkpt>
      <trkpt lat="43.79114" lon="3.81551">
        <ele>216.91</ele>
        <time>2015-03-29T13:10:48Z</time>
      </trkpt>
      <trkpt lat="43.7909" lon="3.8117">
        <ele>227.97</ele>
        <time>2015-03-29T13:10:58Z</time>
      </trkpt>
      <trkpt lat="43.79037" lon="3.80907">
        <ele>237.1</ele>
        <time>2015-03-29T13:11:06Z</time>
      </trkpt>
      <trkpt lat="43.79028" lon="3.80884">
        <ele>238.06</ele>
        <time>2015-03-29T13:11:07Z</time>
      </trkpt>
      <trkpt lat="43.79017" lon="3.80865">
        <ele>238.54</ele>
        <time>2015-03-29T13:11:08Z</time>
      </trkpt>
      <trkpt lat="43.79004" lon="3.80847">
        <ele>239.02</ele>
        <time>2015-03-29T13:11:09Z</time>
      </trkpt>
      <trkpt lat="43.78989" lon="3.80831">
        <ele>239.51</ele>
        <time>2015-03-29T13:11:10Z</time>
      </trkpt>
      <trkpt lat="43.78974" lon="3.80818">
        <ele>239.99</ele>
        <time>2015-03-29T13:11:11Z</time>
      </trkpt>
      <trkpt lat="43.78921" lon="3.80768">
        <ele>242.87</ele>
        <time>2015-03-29T13:11:15Z</time>
      </trkpt>
      <trkpt lat="43.7891" lon="3.80751">
        <ele>243.35</ele>
        <time>2015-03-29T13:11:16Z</time>
      </trkpt>
      <trkpt lat="43.789" lon="3.80732">
        <ele>244.31</ele>
        <time>2015-03-29T13:11:17Z</time>
      </trkpt>
      <trkpt lat="43.78893" lon="3.80711">
        <ele>245.27</ele>
        <time>2015-03-29T13:11:18Z</time>
      </trkpt>
      <trkpt lat="43.78886" lon="3.80691">
        <ele>246.23</ele>
        <time>2015-03-29T13:11:19Z</time>
      </trkpt>
      <trkpt lat="43.78872" lon="3.80656">
        <ele>247.68</ele>
        <time>2015-03-29T13:11:21Z</time>
      </trkpt>
      <trkpt lat="43.78862" lon="3.8065">
        <ele>248.16</ele>
        <time>2015-03-29T13:11:22Z</time>
      </trkpt>
      <trkpt lat="43.78851" lon="3.80642">
        <ele>248.16</ele>
        <time>2015-03-29T13:11:23Z</time>
      </trkpt>
      <trkpt lat="43.78839" lon="3.80637">
        <ele>249.12</ele>
        <time>2015-03-29T13:11:24Z</time>
      </trkpt>
      <trkpt lat="43.7883" lon="3.80633">
        <ele>248.64</ele>
        <time>2015-03-29T13:11:25Z</time>
      </trkpt>
      <trkpt lat="43.78814" lon="3.80622">
        <ele>248.16</ele>
        <time>2015-03-29T13:11:27Z</time>
      </trkpt>
      <trkpt lat="43.7881" lon="3.80614">
        <ele>248.16</ele>
        <time>2015-03-29T13:11:28Z</time>
      </trkpt>
      <trkpt lat="43.78809" lon="3.80603">
        <ele>247.68</ele>
        <time>2015-03-29T13:11:29Z</time>
      </trkpt>
      <trkpt lat="43.78813" lon="3.80596">
        <ele>246.23</ele>
        <time>2015-03-29T13:11:30Z</time>
      </trkpt>
      <trkpt lat="43.78826" lon="3.80589">
        <ele>246.23</ele>
        <time>2015-03-29T13:11:31Z</time>
      </trkpt>
      <trkpt lat="43.78837" lon="3.80582">
        <ele>245.75</ele>
        <time>2015-03-29T13:11:32Z</time>
      </trkpt>
      <trkpt lat="43.78852" lon="3.80577">
        <ele>245.75</ele>
        <time>2015-03-29T13:11:33Z</time>
      </trkpt>
      <trkpt lat="43.78869" lon="3.80578">
        <ele>244.79</ele>
        <time>2015-03-29T13:11:34Z</time>
      </trkpt>
      <trkpt lat="43.78884" lon="3.80582">
        <ele>243.83</ele>
        <time>2015-03-29T13:11:35Z</time>
      </trkpt>
      <trkpt lat="43.78897" lon="3.8059">
        <ele>243.83</ele>
        <time>2015-03-29T13:11:36Z</time>
      </trkpt>
      <trkpt lat="43.78909" lon="3.80597">
        <ele>243.83</ele>
        <time>2015-03-29T13:11:37Z</time>
      </trkpt>
      <trkpt lat="43.78917" lon="3.80603">
        <ele>243.35</ele>
        <time>2015-03-29T13:11:38Z</time>
      </trkpt>
      <trkpt lat="43.78923" lon="3.80606">
        <ele>242.39</ele>
        <time>2015-03-29T13:11:39Z</time>
      </trkpt>
      <trkpt lat="43.78928" lon="3.80602">
        <ele>241.43</ele>
        <time>2015-03-29T13:11:40Z</time>
      </trkpt>
      <trkpt lat="43.78931" lon="3.80594">
        <ele>240.95</ele>
        <time>2015-03-29T13:11:41Z</time>
      </trkpt>
      <trkpt lat="43.7893" lon="3.80582">
        <ele>240.95</ele>
        <time>2015-03-29T13:11:42Z</time>
      </trkpt>
      <trkpt lat="43.78927" lon="3.80572">
        <ele>239.51</ele>
        <time>2015-03-29T13:11:43Z</time>
      </trkpt>
      <trkpt lat="43.78912" lon="3.80559">
        <ele>238.54</ele>
        <time>2015-03-29T13:11:44Z</time>
      </trkpt>
      <trkpt lat="43.78899" lon="3.80546">
        <ele>238.06</ele>
        <time>2015-03-29T13:11:45Z</time>
      </trkpt>
      <trkpt lat="43.78882" lon="3.8053">
        <ele>237.58</ele>
        <time>2015-03-29T13:11:46Z</time>
      </trkpt>
      <trkpt lat="43.78866" lon="3.80513">
        <ele>236.14</ele>
        <time>2015-03-29T13:11:47Z</time>
      </trkpt>
      <trkpt lat="43.78853" lon="3.80493">
        <ele>235.18</ele>
        <time>2015-03-29T13:11:48Z</time>
      </trkpt>
      <trkpt lat="43.78841" lon="3.80474">
        <ele>234.22</ele>
        <time>2015-03-29T13:11:49Z</time>
      </trkpt>
      <trkpt lat="43.78832" lon="3.80454">
        <ele>233.26</ele>
        <time>2015-03-29T13:11:50Z</time>
      </trkpt>
      <trkpt lat="43.78826" lon="3.80437">
        <ele>232.78</ele>
        <time>2015-03-29T13:11:51Z</time>
      </trkpt>
      <trkpt lat="43.78821" lon="3.80414">
        <ele>230.85</ele>
        <time>2015-03-29T13:11:53Z</time>
      </trkpt>
      <trkpt lat="43.78824" lon="3.80406">
        <ele>229.89</ele>
        <time>2015-03-29T13:11:54Z</time>
      </trkpt>
      <trkpt lat="43.78847" lon="3.80403">
        <ele>228.45</ele>
        <time>2015-03-29T13:11:56Z</time>
      </trkpt>
      <trkpt lat="43.7886" lon="3.80417">
        <ele>227.97</ele>
        <time>2015-03-29T13:11:57Z</time>
      </trkpt>
      <trkpt lat="43.78874" lon="3.8043">
        <ele>227.49</ele>
        <time>2015-03-29T13:11:58Z</time>
      </trkpt>
      <trkpt lat="43.78887" lon="3.80443">
        <ele>226.53</ele>
        <time>2015-03-29T13:11:59Z</time>
      </trkpt>
      <trkpt lat="43.78931" lon="3.80491">
        <ele>224.12</ele>
        <time>2015-03-29T13:12:02Z</time>
      </trkpt>
      <trkpt lat="43.78979" lon="3.80554">
        <ele>220.76</ele>
        <time>2015-03-29T13:12:06Z</time>
      </trkpt>
      <trkpt lat="43.78991" lon="3.80559">
        <ele>220.28</ele>
        <time>2015-03-29T13:12:07Z</time>
      </trkpt>
      <trkpt lat="43.79004" lon="3.80559">
        <ele>219.8</ele>
        <time>2015-03-29T13:12:08Z</time>
      </trkpt>
      <trkpt lat="43.79017" lon="3.80552">
        <ele>218.84</ele>
        <time>2015-03-29T13:12:09Z</time>
      </trkpt>
      <trkpt lat="43.79029" lon="3.80538">
        <ele>218.36</ele>
        <time>2015-03-29T13:12:10Z</time>
      </trkpt>
      <trkpt lat="43.79042" lon="3.80522">
        <ele>217.88</ele>
        <time>2015-03-29T13:12:11Z</time>
      </trkpt>
      <trkpt lat="43.79053" lon="3.80505">
        <ele>216.43</ele>
        <time>2015-03-29T13:12:12Z</time>
      </trkpt>
      <trkpt lat="43.79065" lon="3.80487">
        <ele>215.47</ele>
        <time>2015-03-29T13:12:13Z</time>
      </trkpt>
      <trkpt lat="43.79111" lon="3.80413">
        <ele>212.11</ele>
        <time>2015-03-29T13:12:17Z</time>
      </trkpt>
      <trkpt lat="43.79124" lon="3.80398">
        <ele>211.15</ele>
        <time>2015-03-29T13:12:18Z</time>
      </trkpt>
      <trkpt lat="43.79141" lon="3.80385">
        <ele>210.19</ele>
        <time>2015-03-29T13:12:19Z</time>
      </trkpt>
      <trkpt lat="43.79308" lon="3.80271">
        <ele>202.01</ele>
        <time>2015-03-29T13:12:29Z</time>
      </trkpt>
      <trkpt lat="43.79322" lon="3.80255">
        <ele>200.57</ele>
        <time>2015-03-29T13:12:30Z</time>
      </trkpt>
      <trkpt lat="43.79335" lon="3.80237">
        <ele>199.61</ele>
        <time>2015-03-29T13:12:31Z</time>
      </trkpt>
      <trkpt lat="43.79347" lon="3.80216">
        <ele>198.65</ele>
        <time>2015-03-29T13:12:32Z</time>
      </trkpt>
      <trkpt lat="43.79356" lon="3.80195">
        <ele>197.69</ele>
        <time>2015-03-29T13:12:33Z</time>
      </trkpt>
      <trkpt lat="43.79364" lon="3.80173">
        <ele>196.73</ele>
        <time>2015-03-29T13:12:34Z</time>
      </trkpt>
      <trkpt lat="43.7937" lon="3.80149">
        <ele>195.77</ele>
        <time>2015-03-29T13:12:35Z</time>
      </trkpt>
      <trkpt lat="43.79375" lon="3.80124">
        <ele>194.8</ele>
        <time>2015-03-29T13:12:36Z</time>
      </trkpt>
      <trkpt lat="43.79378" lon="3.801">
        <ele>193.84</ele>
        <time>2015-03-29T13:12:37Z</time>
      </trkpt>
      <trkpt lat="43.7938" lon="3.80074">
        <ele>192.88</ele>
        <time>2015-03-29T13:12:38Z</time>
      </trkpt>
      <trkpt lat="43.79379" lon="3.80048">
        <ele>191.92</ele>
        <time>2015-03-29T13:12:39Z</time>
      </trkpt>
      <trkpt lat="43.79376" lon="3.80022">
        <ele>190.96</ele>
        <time>2015-03-29T13:12:40Z</time>
      </trkpt>
      <trkpt lat="43.79371" lon="3.79995">
        <ele>190.48</ele>
        <time>2015-03-29T13:12:41Z</time>
      </trkpt>
      <trkpt lat="43.79321" lon="3.79731">
        <ele>190.48</ele>
        <time>2015-03-29T13:12:50Z</time>
      </trkpt>
      <trkpt lat="43.7931" lon="3.79703">
        <ele>190.96</ele>
        <time>2015-03-29T13:12:51Z</time>
      </trkpt>
      <trkpt lat="43.79297" lon="3.79677">
        <ele>190.96</ele>
        <time>2015-03-29T13:12:52Z</time>
      </trkpt>
      <trkpt lat="43.79283" lon="3.79653">
        <ele>190.96</ele>
        <time>2015-03-29T13:12:53Z</time>
      </trkpt>
      <trkpt lat="43.79269" lon="3.79632">
        <ele>190.96</ele>
        <time>2015-03-29T13:12:54Z</time>
      </trkpt>
      <trkpt lat="43.79256" lon="3.79614">
        <ele>190.48</ele>
        <time>2015-03-29T13:12:55Z</time>
      </trkpt>
      <trkpt lat="43.79202" lon="3.79522">
        <ele>190.48</ele>
        <time>2015-03-29T13:13:00Z</time>
      </trkpt>
      <trkpt lat="43.79195" lon="3.795">
        <ele>190.48</ele>
        <time>2015-03-29T13:13:01Z</time>
      </trkpt>
      <trkpt lat="43.7919" lon="3.79477">
        <ele>190.48</ele>
        <time>2015-03-29T13:13:02Z</time>
      </trkpt>
      <trkpt lat="43.79188" lon="3.79452">
        <ele>190.96</ele>
        <time>2015-03-29T13:13:03Z</time>
      </trkpt>
      <trkpt lat="43.79187" lon="3.79428">
        <ele>190.96</ele>
        <time>2015-03-29T13:13:04Z</time>
      </trkpt>
      <trkpt lat="43.79187" lon="3.79403">
        <ele>190.96</ele>
        <time>2015-03-29T13:13:05Z</time>
      </trkpt>
      <trkpt lat="43.7919" lon="3.79378">
        <ele>191.44</ele>
        <time>2015-03-29T13:13:06Z</time>
      </trkpt>
      <trkpt lat="43.79195" lon="3.79352">
        <ele>191.44</ele>
        <time>2015-03-29T13:13:07Z</time>
      </trkpt>
      <trkpt lat="43.79201" lon="3.79325">
        <ele>191.44</ele>
        <time>2015-03-29T13:13:08Z</time>
      </trkpt>
      <trkpt lat="43.79244" lon="3.79129">
        <ele>190</ele>
        <time>2015-03-29T13:13:15Z</time>
      </trkpt>
      <trkpt lat="43.79247" lon="3.79095">
        <ele>190</ele>
        <time>2015-03-29T13:13:16Z</time>
      </trkpt>
      <trkpt lat="43.79247" lon="3.79058">
        <ele>189.52</ele>
        <time>2015-03-29T13:13:17Z</time>
      </trkpt>
      <trkpt lat="43.79244" lon="3.7902">
        <ele>189.52</ele>
        <time>2015-03-29T13:13:18Z</time>
      </trkpt>
      <trkpt lat="43.7924" lon="3.78982">
        <ele>189.52</ele>
        <time>2015-03-29T13:13:19Z</time>
      </trkpt>
      <trkpt lat="43.79235" lon="3.78944">
        <ele>189.52</ele>
        <time>2015-03-29T13:13:20Z</time>
      </trkpt>
      <trkpt lat="43.79227" lon="3.78794">
        <ele>190</ele>
        <time>2015-03-29T13:13:24Z</time>
      </trkpt>
      <trkpt lat="43.79231" lon="3.78757">
        <ele>190.48</ele>
        <time>2015-03-29T13:13:25Z</time>
      </trkpt>
      <trkpt lat="43.79238" lon="3.78722">
        <ele>190.48</ele>
        <time>2015-03-29T13:13:26Z</time>
      </trkpt>
      <trkpt lat="43.79247" lon="3.78688">
        <ele>191.44</ele>
        <time>2015-03-29T13:13:27Z</time>
      </trkpt>
      <trkpt lat="43.79257" lon="3.78658">
        <ele>191.92</ele>
        <time>2015-03-29T13:13:28Z</time>
      </trkpt>
      <trkpt lat="43.79269" lon="3.78634">
        <ele>192.4</ele>
        <time>2015-03-29T13:13:29Z</time>
      </trkpt>
      <trkpt lat="43.79312" lon="3.7852">
        <ele>194.32</ele>
        <time>2015-03-29T13:13:35Z</time>
      </trkpt>
      <trkpt lat="43.7937" lon="3.78412">
        <ele>192.88</ele>
        <time>2015-03-29T13:13:42Z</time>
      </trkpt>
      <trkpt lat="43.79377" lon="3.78405">
        <ele>192.88</ele>
        <time>2015-03-29T13:13:43Z</time>
      </trkpt>
      <trkpt lat="43.79382" lon="3.78402">
        <ele>192.88</ele>
        <time>2015-03-29T13:13:44Z</time>
      </trkpt>
      <trkpt lat="43.79387" lon="3.78402">
        <ele>192.88</ele>
        <time>2015-03-29T13:13:45Z</time>
      </trkpt>
      <trkpt lat="43.79444" lon="3.78392">
        <ele>192.88</ele>
        <time>2015-03-29T13:13:53Z</time>
      </trkpt>
      <trkpt lat="43.79549" lon="3.78342">
        <ele>191.92</ele>
        <time>2015-03-29T13:14:04Z</time>
      </trkpt>
      <trkpt lat="43.79624" lon="3.78303">
        <ele>191.92</ele>
        <time>2015-03-29T13:14:13Z</time>
      </trkpt>
      <trkpt lat="43.79689" lon="3.78282">
        <ele>191.92</ele>
        <time>2015-03-29T13:14:22Z</time>
      </trkpt>
      <trkpt lat="43.79695" lon="3.78277">
        <ele>191.92</ele>
        <time>2015-03-29T13:14:23Z</time>
      </trkpt>
      <trkpt lat="43.79723" lon="3.78246">
        <ele>191.92</ele>
        <time>2015-03-29T13:14:28Z</time>
      </trkpt>
      <trkpt lat="43.79728" lon="3.78237">
        <ele>191.92</ele>
        <time>2015-03-29T13:14:29Z</time>
      </trkpt>
      <trkpt lat="43.798" lon="3.78086">
        <ele>193.36</ele>
        <time>2015-03-29T13:14:46Z</time>
      </trkpt>
      <trkpt lat="43.79829" lon="3.78042">
        <ele>194.8</ele>
        <time>2015-03-29T13:14:55Z</time>
      </trkpt>
      <trkpt lat="43.79832" lon="3.7804">
        <ele>194.8</ele>
        <time>2015-03-29T13:14:57Z</time>
      </trkpt>
      <trkpt lat="43.79832" lon="3.78038">
        <ele>194.8</ele>
        <time>2015-03-29T13:14:58Z</time>
      </trkpt>
      <trkpt lat="43.79833" lon="3.78036">
        <ele>194.8</ele>
        <time>2015-03-29T13:14:59Z</time>
      </trkpt>
      <trkpt lat="43.79833" lon="3.78033">
        <ele>194.8</ele>
        <time>2015-03-29T13:15:00Z</time>
      </trkpt>
      <trkpt lat="43.79834" lon="3.7803">
        <ele>194.8</ele>
        <time>2015-03-29T13:15:01Z</time>
      </trkpt>
      <trkpt lat="43.79836" lon="3.78029">
        <ele>194.8</ele>
        <time>2015-03-29T13:15:02Z</time>
      </trkpt>
      <trkpt lat="43.79838" lon="3.78028">
        <ele>194.8</ele>
        <time>2015-03-29T13:15:03Z</time>
      </trkpt>
      <trkpt lat="43.7984" lon="3.78028">
        <ele>194.8</ele>
        <time>2015-03-29T13:15:04Z</time>
      </trkpt>
      <trkpt lat="43.7984" lon="3.78028">
        <ele>195.77</ele>
        <time>2015-03-29T13:15:16Z</time>
      </trkpt>
      <trkpt lat="43.79837" lon="3.78028">
        <ele>199.61</ele>
        <time>2015-03-29T13:15:42Z</time>
      </trkpt>
      <trkpt lat="43.7984" lon="3.78025">
        <ele>192.88</ele>
        <time>2015-03-29T13:17:59Z</time>
      </trkpt>
      <trkpt lat="43.7984" lon="3.78025">
        <ele>192.4</ele>
        <time>2015-03-29T13:18:00Z</time>
      </trkpt>
      <trkpt lat="43.79814" lon="3.78067">
        <ele>192.88</ele>
        <time>2015-03-29T13:18:11Z</time>
      </trkpt>
      <trkpt lat="43.79765" lon="3.78162">
        <ele>190.48</ele>
        <time>2015-03-29T13:18:24Z</time>
      </trkpt>
      <trkpt lat="43.79724" lon="3.78245">
        <ele>190.96</ele>
        <time>2015-03-29T13:18:32Z</time>
      </trkpt>
      <trkpt lat="43.79718" lon="3.78254">
        <ele>190.96</ele>
        <time>2015-03-29T13:18:33Z</time>
      </trkpt>
      <trkpt lat="43.79712" lon="3.78262">
        <ele>190.96</ele>
        <time>2015-03-29T13:18:34Z</time>
      </trkpt>
      <trkpt lat="43.79705" lon="3.78269">
        <ele>190.96</ele>
        <time>2015-03-29T13:18:35Z</time>
      </trkpt>
      <trkpt lat="43.79698" lon="3.78276">
        <ele>190.96</ele>
        <time>2015-03-29T13:18:36Z</time>
      </trkpt>
      <trkpt lat="43.79685" lon="3.78287">
        <ele>190.96</ele>
        <time>2015-03-29T13:18:38Z</time>
      </trkpt>
      <trkpt lat="43.79679" lon="3.78291">
        <ele>190.96</ele>
        <time>2015-03-29T13:18:39Z</time>
      </trkpt>
      <trkpt lat="43.79668" lon="3.78299">
        <ele>190.96</ele>
        <time>2015-03-29T13:18:42Z</time>
      </trkpt>
      <trkpt lat="43.7968" lon="3.78317">
        <ele>190.48</ele>
        <time>2015-03-29T13:18:49Z</time>
      </trkpt>
      <trkpt lat="43.79705" lon="3.78332">
        <ele>190.48</ele>
        <time>2015-03-29T13:18:55Z</time>
      </trkpt>
      <trkpt lat="43.79713" lon="3.78345">
        <ele>190</ele>
        <time>2015-03-29T13:18:58Z</time>
      </trkpt>
      <trkpt lat="43.79725" lon="3.78375">
        <ele>190</ele>
        <time>2015-03-29T13:19:04Z</time>
      </trkpt>
      <trkpt lat="43.79729" lon="3.78386">
        <ele>190</ele>
        <time>2015-03-29T13:19:06Z</time>
      </trkpt>
      <trkpt lat="43.7974" lon="3.78424">
        <ele>190.48</ele>
        <time>2015-03-29T13:19:12Z</time>
      </trkpt>
      <trkpt lat="43.79751" lon="3.78442">
        <ele>190.48</ele>
        <time>2015-03-29T13:19:17Z</time>
      </trkpt>
      <trkpt lat="43.79777" lon="3.78452">
        <ele>190</ele>
        <time>2015-03-29T13:19:34Z</time>
      </trkpt>
      <trkpt lat="43.79777" lon="3.78451">
        <ele>191.44</ele>
        <time>2015-03-29T13:21:17Z</time>
      </trkpt>
      <trkpt lat="43.79776" lon="3.78449">
        <ele>188.56</ele>
        <time>2015-03-29T13:32:34Z</time>
      </trkpt>
      <trkpt lat="43.79777" lon="3.78451">
        <ele>190.48</ele>
        <time>2015-03-29T13:33:21Z</time>
      </trkpt>
      <trkpt lat="43.79787" lon="3.78455">
        <ele>190.48</ele>
        <time>2015-03-29T13:33:32Z</time>
      </trkpt>
      <trkpt lat="43.79765" lon="3.78446">
        <ele>191.92</ele>
        <time>2015-03-29T13:33:42Z</time>
      </trkpt>
      <trkpt lat="43.79762" lon="3.78445">
        <ele>191.92</ele>
        <time>2015-03-29T13:33:43Z</time>
      </trkpt>
      <trkpt lat="43.79735" lon="3.78405">
        <ele>193.36</ele>
        <time>2015-03-29T13:33:54Z</time>
      </trkpt>
      <trkpt lat="43.79709" lon="3.7833">
        <ele>194.32</ele>
        <time>2015-03-29T13:34:09Z</time>
      </trkpt>
      <trkpt lat="43.79712" lon="3.78305">
        <ele>194.32</ele>
        <time>2015-03-29T13:34:15Z</time>
      </trkpt>
      <trkpt lat="43.79712" lon="3.78299">
        <ele>194.32</ele>
        <time>2015-03-29T13:34:16Z</time>
      </trkpt>
      <trkpt lat="43.7972" lon="3.78258">
        <ele>194.8</ele>
        <time>2015-03-29T13:34:24Z</time>
      </trkpt>
      <trkpt lat="43.79722" lon="3.78252">
        <ele>194.8</ele>
        <time>2015-03-29T13:34:25Z</time>
      </trkpt>
      <trkpt lat="43.79725" lon="3.78246">
        <ele>194.8</ele>
        <time>2015-03-29T13:34:26Z</time>
      </trkpt>
      <trkpt lat="43.79763" lon="3.78167">
        <ele>194.32</ele>
        <time>2015-03-29T13:34:37Z</time>
      </trkpt>
      <trkpt lat="43.79769" lon="3.78157">
        <ele>194.32</ele>
        <time>2015-03-29T13:34:39Z</time>
      </trkpt>
      <trkpt lat="43.79772" lon="3.78154">
        <ele>194.32</ele>
        <time>2015-03-29T13:34:40Z</time>
      </trkpt>
      <trkpt lat="43.79776" lon="3.78153">
        <ele>193.84</ele>
        <time>2015-03-29T13:34:41Z</time>
      </trkpt>
      <trkpt lat="43.7978" lon="3.78152">
        <ele>193.84</ele>
        <time>2015-03-29T13:34:42Z</time>
      </trkpt>
      <trkpt lat="43.79783" lon="3.78153">
        <ele>193.84</ele>
        <time>2015-03-29T13:34:43Z</time>
      </trkpt>
      <trkpt lat="43.79787" lon="3.78154">
        <ele>193.36</ele>
        <time>2015-03-29T13:34:44Z</time>
      </trkpt>
      <trkpt lat="43.79791" lon="3.78155">
        <ele>193.36</ele>
        <time>2015-03-29T13:34:45Z</time>
      </trkpt>
      <trkpt lat="43.79795" lon="3.78157">
        <ele>192.88</ele>
        <time>2015-03-29T13:34:46Z</time>
      </trkpt>
      <trkpt lat="43.79799" lon="3.78161">
        <ele>192.88</ele>
        <time>2015-03-29T13:34:47Z</time>
      </trkpt>
      <trkpt lat="43.79803" lon="3.78164">
        <ele>192.4</ele>
        <time>2015-03-29T13:34:48Z</time>
      </trkpt>
      <trkpt lat="43.79806" lon="3.78167">
        <ele>192.4</ele>
        <time>2015-03-29T13:34:49Z</time>
      </trkpt>
      <trkpt lat="43.79839" lon="3.78196">
        <ele>190.48</ele>
        <time>2015-03-29T13:35:04Z</time>
      </trkpt>
      <trkpt lat="43.7984" lon="3.78196">
        <ele>190.48</ele>
        <time>2015-03-29T13:35:43Z</time>
      </trkpt>
      <trkpt lat="43.79842" lon="3.78195">
        <ele>190.48</ele>
        <time>2015-03-29T13:35:44Z</time>
      </trkpt>
      <trkpt lat="43.79836" lon="3.78184">
        <ele>190</ele>
        <time>2015-03-29T13:35:49Z</time>
      </trkpt>
      <trkpt lat="43.79831" lon="3.78183">
        <ele>190</ele>
        <time>2015-03-29T13:35:50Z</time>
      </trkpt>
      <trkpt lat="43.79826" lon="3.78181">
        <ele>190.48</ele>
        <time>2015-03-29T13:35:51Z</time>
      </trkpt>
      <trkpt lat="43.7982" lon="3.78178">
        <ele>190.96</ele>
        <time>2015-03-29T13:35:52Z</time>
      </trkpt>
      <trkpt lat="43.79815" lon="3.78174">
        <ele>191.44</ele>
        <time>2015-03-29T13:35:53Z</time>
      </trkpt>
      <trkpt lat="43.79786" lon="3.78151">
        <ele>193.84</ele>
        <time>2015-03-29T13:35:59Z</time>
      </trkpt>
      <trkpt lat="43.79782" lon="3.7815">
        <ele>193.84</ele>
        <time>2015-03-29T13:36:00Z</time>
      </trkpt>
      <trkpt lat="43.79778" lon="3.7815">
        <ele>194.32</ele>
        <time>2015-03-29T13:36:01Z</time>
      </trkpt>
      <trkpt lat="43.79774" lon="3.78152">
        <ele>194.32</ele>
        <time>2015-03-29T13:36:02Z</time>
      </trkpt>
      <trkpt lat="43.79769" lon="3.78156">
        <ele>194.32</ele>
        <time>2015-03-29T13:36:03Z</time>
      </trkpt>
      <trkpt lat="43.79765" lon="3.78162">
        <ele>194.32</ele>
        <time>2015-03-29T13:36:04Z</time>
      </trkpt>
      <trkpt lat="43.7976" lon="3.7817">
        <ele>194.32</ele>
        <time>2015-03-29T13:36:05Z</time>
      </trkpt>
      <trkpt lat="43.79755" lon="3.7818">
        <ele>194.32</ele>
        <time>2015-03-29T13:36:06Z</time>
      </trkpt>
      <trkpt lat="43.79717" lon="3.78256">
        <ele>194.32</ele>
        <time>2015-03-29T13:36:13Z</time>
      </trkpt>
      <trkpt lat="43.79708" lon="3.78267">
        <ele>194.32</ele>
        <time>2015-03-29T13:36:14Z</time>
      </trkpt>
      <trkpt lat="43.79699" lon="3.78276">
        <ele>194.32</ele>
        <time>2015-03-29T13:36:15Z</time>
      </trkpt>
      <trkpt lat="43.7969" lon="3.78284">
        <ele>194.32</ele>
        <time>2015-03-29T13:36:16Z</time>
      </trkpt>
      <trkpt lat="43.79681" lon="3.78291">
        <ele>194.8</ele>
        <time>2015-03-29T13:36:17Z</time>
      </trkpt>
      <trkpt lat="43.79671" lon="3.78296">
        <ele>194.8</ele>
        <time>2015-03-29T13:36:18Z</time>
      </trkpt>
      <trkpt lat="43.79662" lon="3.783">
        <ele>194.8</ele>
        <time>2015-03-29T13:36:19Z</time>
      </trkpt>
      <trkpt lat="43.79651" lon="3.78302">
        <ele>194.8</ele>
        <time>2015-03-29T13:36:20Z</time>
      </trkpt>
      <trkpt lat="43.79641" lon="3.78303">
        <ele>195.28</ele>
        <time>2015-03-29T13:36:21Z</time>
      </trkpt>
      <trkpt lat="43.7963" lon="3.78305">
        <ele>195.28</ele>
        <time>2015-03-29T13:36:22Z</time>
      </trkpt>
      <trkpt lat="43.7962" lon="3.78308">
        <ele>195.28</ele>
        <time>2015-03-29T13:36:23Z</time>
      </trkpt>
      <trkpt lat="43.79535" lon="3.78358">
        <ele>194.32</ele>
        <time>2015-03-29T13:36:32Z</time>
      </trkpt>
      <trkpt lat="43.79449" lon="3.78398">
        <ele>195.77</ele>
        <time>2015-03-29T13:36:41Z</time>
      </trkpt>
      <trkpt lat="43.79407" lon="3.78409">
        <ele>196.25</ele>
        <time>2015-03-29T13:36:46Z</time>
      </trkpt>
      <trkpt lat="43.79402" lon="3.78409">
        <ele>196.25</ele>
        <time>2015-03-29T13:36:47Z</time>
      </trkpt>
      <trkpt lat="43.79398" lon="3.78407">
        <ele>196.25</ele>
        <time>2015-03-29T13:36:48Z</time>
      </trkpt>
      <trkpt lat="43.79396" lon="3.78405">
        <ele>196.25</ele>
        <time>2015-03-29T13:36:49Z</time>
      </trkpt>
      <trkpt lat="43.79395" lon="3.78402">
        <ele>196.25</ele>
        <time>2015-03-29T13:36:50Z</time>
      </trkpt>
      <trkpt lat="43.79395" lon="3.784">
        <ele>195.77</ele>
        <time>2015-03-29T13:37:04Z</time>
      </trkpt>
      <trkpt lat="43.79396" lon="3.78395">
        <ele>196.73</ele>
        <time>2015-03-29T13:38:44Z</time>
      </trkpt>
      <trkpt lat="43.79398" lon="3.78386">
        <ele>196.25</ele>
        <time>2015-03-29T13:38:46Z</time>
      </trkpt>
      <trkpt lat="43.79404" lon="3.78381">
        <ele>196.25</ele>
        <time>2015-03-29T13:38:47Z</time>
      </trkpt>
      <trkpt lat="43.79459" lon="3.78315">
        <ele>196.73</ele>
        <time>2015-03-29T13:38:53Z</time>
      </trkpt>
      <trkpt lat="43.79469" lon="3.7829">
        <ele>196.73</ele>
        <time>2015-03-29T13:38:54Z</time>
      </trkpt>
      <trkpt lat="43.79477" lon="3.78266">
        <ele>196.73</ele>
        <time>2015-03-29T13:38:55Z</time>
      </trkpt>
      <trkpt lat="43.79481" lon="3.78238">
        <ele>196.73</ele>
        <time>2015-03-29T13:38:56Z</time>
      </trkpt>
      <trkpt lat="43.79482" lon="3.78209">
        <ele>196.73</ele>
        <time>2015-03-29T13:38:57Z</time>
      </trkpt>
      <trkpt lat="43.79477" lon="3.7818">
        <ele>196.73</ele>
        <time>2015-03-29T13:38:58Z</time>
      </trkpt>
      <trkpt lat="43.79472" lon="3.7815">
        <ele>196.25</ele>
        <time>2015-03-29T13:38:59Z</time>
      </trkpt>
      <trkpt lat="43.79468" lon="3.78118">
        <ele>196.25</ele>
        <time>2015-03-29T13:39:00Z</time>
      </trkpt>
      <trkpt lat="43.79468" lon="3.78085">
        <ele>196.73</ele>
        <time>2015-03-29T13:39:01Z</time>
      </trkpt>
      <trkpt lat="43.7947" lon="3.78053">
        <ele>196.73</ele>
        <time>2015-03-29T13:39:02Z</time>
      </trkpt>
      <trkpt lat="43.79473" lon="3.78022">
        <ele>196.73</ele>
        <time>2015-03-29T13:39:03Z</time>
      </trkpt>
      <trkpt lat="43.79497" lon="3.77857">
        <ele>195.77</ele>
        <time>2015-03-29T13:39:08Z</time>
      </trkpt>
      <trkpt lat="43.79506" lon="3.77824">
        <ele>195.77</ele>
        <time>2015-03-29T13:39:09Z</time>
      </trkpt>
      <trkpt lat="43.79538" lon="3.77702">
        <ele>194.8</ele>
        <time>2015-03-29T13:39:13Z</time>
      </trkpt>
      <trkpt lat="43.79538" lon="3.77669">
        <ele>194.8</ele>
        <time>2015-03-29T13:39:14Z</time>
      </trkpt>
      <trkpt lat="43.79536" lon="3.77634">
        <ele>194.32</ele>
        <time>2015-03-29T13:39:15Z</time>
      </trkpt>
      <trkpt lat="43.79529" lon="3.77596">
        <ele>194.32</ele>
        <time>2015-03-29T13:39:16Z</time>
      </trkpt>
      <trkpt lat="43.79521" lon="3.77556">
        <ele>193.84</ele>
        <time>2015-03-29T13:39:17Z</time>
      </trkpt>
      <trkpt lat="43.79513" lon="3.77517">
        <ele>193.36</ele>
        <time>2015-03-29T13:39:18Z</time>
      </trkpt>
      <trkpt lat="43.79422" lon="3.77082">
        <ele>188.08</ele>
        <time>2015-03-29T13:39:29Z</time>
      </trkpt>
      <trkpt lat="43.79399" lon="3.76846">
        <ele>187.59</ele>
        <time>2015-03-29T13:39:35Z</time>
      </trkpt>
      <trkpt lat="43.79394" lon="3.76811">
        <ele>187.59</ele>
        <time>2015-03-29T13:39:36Z</time>
      </trkpt>
      <trkpt lat="43.79385" lon="3.76778">
        <ele>187.59</ele>
        <time>2015-03-29T13:39:37Z</time>
      </trkpt>
      <trkpt lat="43.79373" lon="3.76745">
        <ele>187.59</ele>
        <time>2015-03-29T13:39:38Z</time>
      </trkpt>
      <trkpt lat="43.79256" lon="3.76434">
        <ele>190.48</ele>
        <time>2015-03-29T13:39:47Z</time>
      </trkpt>
      <trkpt lat="43.7915" lon="3.76167">
        <ele>189.52</ele>
        <time>2015-03-29T13:39:55Z</time>
      </trkpt>
      <trkpt lat="43.79118" lon="3.76117">
        <ele>190.48</ele>
        <time>2015-03-29T13:39:57Z</time>
      </trkpt>
      <trkpt lat="43.791" lon="3.76096">
        <ele>191.44</ele>
        <time>2015-03-29T13:39:58Z</time>
      </trkpt>
      <trkpt lat="43.79081" lon="3.76078">
        <ele>191.92</ele>
        <time>2015-03-29T13:39:59Z</time>
      </trkpt>
      <trkpt lat="43.79059" lon="3.76063">
        <ele>192.4</ele>
        <time>2015-03-29T13:40:00Z</time>
      </trkpt>
      <trkpt lat="43.79036" lon="3.7605">
        <ele>193.84</ele>
        <time>2015-03-29T13:40:01Z</time>
      </trkpt>
      <trkpt lat="43.79012" lon="3.76038">
        <ele>194.32</ele>
        <time>2015-03-29T13:40:02Z</time>
      </trkpt>
      <trkpt lat="43.78894" lon="3.75948">
        <ele>198.65</ele>
        <time>2015-03-29T13:40:08Z</time>
      </trkpt>
      <trkpt lat="43.78803" lon="3.7587">
        <ele>201.05</ele>
        <time>2015-03-29T13:40:15Z</time>
      </trkpt>
      <trkpt lat="43.7871" lon="3.75822">
        <ele>204.42</ele>
        <time>2015-03-29T13:40:24Z</time>
      </trkpt>
      <trkpt lat="43.78614" lon="3.75769">
        <ele>208.74</ele>
        <time>2015-03-29T13:40:35Z</time>
      </trkpt>
      <trkpt lat="43.78607" lon="3.75762">
        <ele>209.22</ele>
        <time>2015-03-29T13:40:36Z</time>
      </trkpt>
      <trkpt lat="43.786" lon="3.75753">
        <ele>209.7</ele>
        <time>2015-03-29T13:40:37Z</time>
      </trkpt>
      <trkpt lat="43.78595" lon="3.75744">
        <ele>210.19</ele>
        <time>2015-03-29T13:40:38Z</time>
      </trkpt>
      <trkpt lat="43.7859" lon="3.75734">
        <ele>210.67</ele>
        <time>2015-03-29T13:40:39Z</time>
      </trkpt>
      <trkpt lat="43.78586" lon="3.75723">
        <ele>210.67</ele>
        <time>2015-03-29T13:40:40Z</time>
      </trkpt>
      <trkpt lat="43.78551" lon="3.75622">
        <ele>211.15</ele>
        <time>2015-03-29T13:40:47Z</time>
      </trkpt>
      <trkpt lat="43.78532" lon="3.75559">
        <ele>210.67</ele>
        <time>2015-03-29T13:40:51Z</time>
      </trkpt>
      <trkpt lat="43.7853" lon="3.75542">
        <ele>211.15</ele>
        <time>2015-03-29T13:40:52Z</time>
      </trkpt>
      <trkpt lat="43.785" lon="3.75361">
        <ele>211.15</ele>
        <time>2015-03-29T13:41:02Z</time>
      </trkpt>
      <trkpt lat="43.78474" lon="3.75213">
        <ele>210.67</ele>
        <time>2015-03-29T13:41:08Z</time>
      </trkpt>
      <trkpt lat="43.78435" lon="3.75041">
        <ele>214.51</ele>
        <time>2015-03-29T13:41:14Z</time>
      </trkpt>
      <trkpt lat="43.78433" lon="3.75013">
        <ele>214.99</ele>
        <time>2015-03-29T13:41:15Z</time>
      </trkpt>
      <trkpt lat="43.78435" lon="3.74981">
        <ele>215.47</ele>
        <time>2015-03-29T13:41:16Z</time>
      </trkpt>
      <trkpt lat="43.78442" lon="3.74951">
        <ele>215.47</ele>
        <time>2015-03-29T13:41:17Z</time>
      </trkpt>
      <trkpt lat="43.78454" lon="3.74925">
        <ele>215.47</ele>
        <time>2015-03-29T13:41:18Z</time>
      </trkpt>
      <trkpt lat="43.78467" lon="3.749">
        <ele>214.99</ele>
        <time>2015-03-29T13:41:19Z</time>
      </trkpt>
      <trkpt lat="43.78479" lon="3.74873">
        <ele>214.03</ele>
        <time>2015-03-29T13:41:20Z</time>
      </trkpt>
      <trkpt lat="43.7849" lon="3.74845">
        <ele>213.07</ele>
        <time>2015-03-29T13:41:21Z</time>
      </trkpt>
      <trkpt lat="43.78497" lon="3.74814">
        <ele>212.59</ele>
        <time>2015-03-29T13:41:22Z</time>
      </trkpt>
      <trkpt lat="43.78502" lon="3.74781">
        <ele>211.63</ele>
        <time>2015-03-29T13:41:23Z</time>
      </trkpt>
      <trkpt lat="43.78507" lon="3.74746">
        <ele>210.67</ele>
        <time>2015-03-29T13:41:24Z</time>
      </trkpt>
      <trkpt lat="43.78559" lon="3.74491">
        <ele>208.26</ele>
        <time>2015-03-29T13:41:31Z</time>
      </trkpt>
      <trkpt lat="43.78647" lon="3.74188">
        <ele>207.78</ele>
        <time>2015-03-29T13:41:39Z</time>
      </trkpt>
      <trkpt lat="43.78684" lon="3.74105">
        <ele>208.74</ele>
        <time>2015-03-29T13:41:42Z</time>
      </trkpt>
      <trkpt lat="43.78702" lon="3.74084">
        <ele>209.22</ele>
        <time>2015-03-29T13:41:43Z</time>
      </trkpt>
      <trkpt lat="43.7872" lon="3.74064">
        <ele>208.74</ele>
        <time>2015-03-29T13:41:44Z</time>
      </trkpt>
      <trkpt lat="43.7874" lon="3.74046">
        <ele>207.78</ele>
        <time>2015-03-29T13:41:45Z</time>
      </trkpt>
      <trkpt lat="43.78763" lon="3.74031">
        <ele>207.3</ele>
        <time>2015-03-29T13:41:46Z</time>
      </trkpt>
      <trkpt lat="43.78787" lon="3.7402">
        <ele>206.34</ele>
        <time>2015-03-29T13:41:47Z</time>
      </trkpt>
      <trkpt lat="43.78811" lon="3.74008">
        <ele>204.9</ele>
        <time>2015-03-29T13:41:48Z</time>
      </trkpt>
      <trkpt lat="43.78833" lon="3.73993">
        <ele>203.94</ele>
        <time>2015-03-29T13:41:49Z</time>
      </trkpt>
      <trkpt lat="43.78853" lon="3.73976">
        <ele>202.98</ele>
        <time>2015-03-29T13:41:50Z</time>
      </trkpt>
      <trkpt lat="43.78929" lon="3.7389">
        <ele>199.13</ele>
        <time>2015-03-29T13:41:55Z</time>
      </trkpt>
      <trkpt lat="43.78937" lon="3.73871">
        <ele>198.17</ele>
        <time>2015-03-29T13:41:56Z</time>
      </trkpt>
      <trkpt lat="43.78943" lon="3.73851">
        <ele>197.69</ele>
        <time>2015-03-29T13:41:57Z</time>
      </trkpt>
      <trkpt lat="43.78946" lon="3.7383">
        <ele>197.21</ele>
        <time>2015-03-29T13:41:58Z</time>
      </trkpt>
      <trkpt lat="43.78948" lon="3.73809">
        <ele>197.21</ele>
        <time>2015-03-29T13:41:59Z</time>
      </trkpt>
      <trkpt lat="43.78949" lon="3.7379">
        <ele>197.21</ele>
        <time>2015-03-29T13:42:00Z</time>
      </trkpt>
      <trkpt lat="43.78956" lon="3.73699">
        <ele>196.25</ele>
        <time>2015-03-29T13:42:07Z</time>
      </trkpt>
      <trkpt lat="43.7896" lon="3.73691">
        <ele>196.73</ele>
        <time>2015-03-29T13:42:09Z</time>
      </trkpt>
      <trkpt lat="43.78966" lon="3.73676">
        <ele>196.73</ele>
        <time>2015-03-29T13:42:11Z</time>
      </trkpt>
      <trkpt lat="43.78968" lon="3.73667">
        <ele>196.73</ele>
        <time>2015-03-29T13:42:12Z</time>
      </trkpt>
      <trkpt lat="43.78968" lon="3.73656">
        <ele>196.73</ele>
        <time>2015-03-29T13:42:13Z</time>
      </trkpt>
      <trkpt lat="43.78967" lon="3.73644">
        <ele>196.73</ele>
        <time>2015-03-29T13:42:14Z</time>
      </trkpt>
      <trkpt lat="43.78969" lon="3.73631">
        <ele>196.73</ele>
        <time>2015-03-29T13:42:15Z</time>
      </trkpt>
      <trkpt lat="43.78973" lon="3.73618">
        <ele>196.73</ele>
        <time>2015-03-29T13:42:16Z</time>
      </trkpt>
      <trkpt lat="43.78979" lon="3.73607">
        <ele>196.25</ele>
        <time>2015-03-29T13:42:17Z</time>
      </trkpt>
      <trkpt lat="43.78986" lon="3.73596">
        <ele>195.77</ele>
        <time>2015-03-29T13:42:18Z</time>
      </trkpt>
      <trkpt lat="43.78993" lon="3.73584">
        <ele>195.28</ele>
        <time>2015-03-29T13:42:19Z</time>
      </trkpt>
      <trkpt lat="43.78999" lon="3.73572">
        <ele>195.28</ele>
        <time>2015-03-29T13:42:20Z</time>
      </trkpt>
      <trkpt lat="43.79004" lon="3.73558">
        <ele>195.28</ele>
        <time>2015-03-29T13:42:21Z</time>
      </trkpt>
      <trkpt lat="43.79068" lon="3.73395">
        <ele>193.36</ele>
        <time>2015-03-29T13:42:35Z</time>
      </trkpt>
      <trkpt lat="43.79092" lon="3.73351">
        <ele>193.36</ele>
        <time>2015-03-29T13:42:40Z</time>
      </trkpt>
      <trkpt lat="43.79095" lon="3.73341">
        <ele>193.36</ele>
        <time>2015-03-29T13:42:41Z</time>
      </trkpt>
      <trkpt lat="43.79098" lon="3.73331">
        <ele>193.36</ele>
        <time>2015-03-29T13:42:42Z</time>
      </trkpt>
      <trkpt lat="43.79098" lon="3.73321">
        <ele>192.88</ele>
        <time>2015-03-29T13:42:43Z</time>
      </trkpt>
      <trkpt lat="43.79096" lon="3.73312">
        <ele>192.88</ele>
        <time>2015-03-29T13:42:44Z</time>
      </trkpt>
      <trkpt lat="43.79095" lon="3.73303">
        <ele>192.4</ele>
        <time>2015-03-29T13:42:45Z</time>
      </trkpt>
      <trkpt lat="43.79091" lon="3.73264">
        <ele>191.44</ele>
        <time>2015-03-29T13:42:52Z</time>
      </trkpt>
      <trkpt lat="43.79106" lon="3.73255">
        <ele>196.73</ele>
        <time>2015-03-29T13:43:01Z</time>
      </trkpt>
      <trkpt lat="43.79116" lon="3.7326">
        <ele>197.21</ele>
        <time>2015-03-29T13:43:02Z</time>
      </trkpt>
      <trkpt lat="43.79125" lon="3.73264">
        <ele>197.69</ele>
        <time>2015-03-29T13:43:03Z</time>
      </trkpt>
      <trkpt lat="43.79135" lon="3.7327">
        <ele>197.69</ele>
        <time>2015-03-29T13:43:04Z</time>
      </trkpt>
      <trkpt lat="43.7922" lon="3.73309">
        <ele>198.17</ele>
        <time>2015-03-29T13:43:12Z</time>
      </trkpt>
      <trkpt lat="43.79306" lon="3.73339">
        <ele>199.13</ele>
        <time>2015-03-29T13:43:21Z</time>
      </trkpt>
      <trkpt lat="43.79405" lon="3.73355">
        <ele>200.09</ele>
        <time>2015-03-29T13:43:30Z</time>
      </trkpt>
      <trkpt lat="43.7944" lon="3.7336">
        <ele>200.57</ele>
        <time>2015-03-29T13:43:35Z</time>
      </trkpt>
      <trkpt lat="43.79444" lon="3.73358">
        <ele>200.57</ele>
        <time>2015-03-29T13:43:36Z</time>
      </trkpt>
      <trkpt lat="43.79447" lon="3.73353">
        <ele>201.05</ele>
        <time>2015-03-29T13:43:37Z</time>
      </trkpt>
      <trkpt lat="43.79447" lon="3.73347">
        <ele>201.05</ele>
        <time>2015-03-29T13:43:38Z</time>
      </trkpt>
      <trkpt lat="43.79446" lon="3.7334">
        <ele>201.05</ele>
        <time>2015-03-29T13:43:39Z</time>
      </trkpt>
      <trkpt lat="43.79443" lon="3.73332">
        <ele>200.57</ele>
        <time>2015-03-29T13:43:40Z</time>
      </trkpt>
      <trkpt lat="43.79431" lon="3.73323">
        <ele>200.57</ele>
        <time>2015-03-29T13:43:41Z</time>
      </trkpt>
      <trkpt lat="43.79419" lon="3.73317">
        <ele>200.57</ele>
        <time>2015-03-29T13:43:42Z</time>
      </trkpt>
      <trkpt lat="43.79404" lon="3.73312">
        <ele>201.53</ele>
        <time>2015-03-29T13:43:43Z</time>
      </trkpt>
      <trkpt lat="43.79301" lon="3.73237">
        <ele>206.34</ele>
        <time>2015-03-29T13:43:51Z</time>
      </trkpt>
      <trkpt lat="43.79271" lon="3.73206">
        <ele>207.3</ele>
        <time>2015-03-29T13:43:54Z</time>
      </trkpt>
      <trkpt lat="43.79265" lon="3.7319">
        <ele>207.78</ele>
        <time>2015-03-29T13:43:55Z</time>
      </trkpt>
      <trkpt lat="43.79262" lon="3.73171">
        <ele>208.74</ele>
        <time>2015-03-29T13:43:56Z</time>
      </trkpt>
      <trkpt lat="43.79261" lon="3.7315">
        <ele>209.22</ele>
        <time>2015-03-29T13:43:57Z</time>
      </trkpt>
      <trkpt lat="43.79259" lon="3.7313">
        <ele>210.19</ele>
        <time>2015-03-29T13:43:58Z</time>
      </trkpt>
      <trkpt lat="43.79253" lon="3.73057">
        <ele>213.55</ele>
        <time>2015-03-29T13:44:02Z</time>
      </trkpt>
      <trkpt lat="43.7926" lon="3.73042">
        <ele>214.51</ele>
        <time>2015-03-29T13:44:03Z</time>
      </trkpt>
      <trkpt lat="43.79269" lon="3.73032">
        <ele>214.99</ele>
        <time>2015-03-29T13:44:04Z</time>
      </trkpt>
      <trkpt lat="43.79279" lon="3.73029">
        <ele>214.99</ele>
        <time>2015-03-29T13:44:05Z</time>
      </trkpt>
      <trkpt lat="43.79295" lon="3.73029">
        <ele>215.95</ele>
        <time>2015-03-29T13:44:06Z</time>
      </trkpt>
      <trkpt lat="43.79312" lon="3.73027">
        <ele>217.4</ele>
        <time>2015-03-29T13:44:07Z</time>
      </trkpt>
      <trkpt lat="43.79332" lon="3.73024">
        <ele>217.88</ele>
        <time>2015-03-29T13:44:08Z</time>
      </trkpt>
      <trkpt lat="43.79434" lon="3.72973">
        <ele>225.57</ele>
        <time>2015-03-29T13:44:14Z</time>
      </trkpt>
      <trkpt lat="43.79507" lon="3.72934">
        <ele>230.85</ele>
        <time>2015-03-29T13:44:21Z</time>
      </trkpt>
      <trkpt lat="43.796" lon="3.72865">
        <ele>237.1</ele>
        <time>2015-03-29T13:44:27Z</time>
      </trkpt>
      <trkpt lat="43.79714" lon="3.72818">
        <ele>244.31</ele>
        <time>2015-03-29T13:44:33Z</time>
      </trkpt>
      <trkpt lat="43.7973" lon="3.72808">
        <ele>245.75</ele>
        <time>2015-03-29T13:44:34Z</time>
      </trkpt>
      <trkpt lat="43.79746" lon="3.72793">
        <ele>246.72</ele>
        <time>2015-03-29T13:44:35Z</time>
      </trkpt>
      <trkpt lat="43.79762" lon="3.72774">
        <ele>248.16</ele>
        <time>2015-03-29T13:44:36Z</time>
      </trkpt>
      <trkpt lat="43.79776" lon="3.7275">
        <ele>249.6</ele>
        <time>2015-03-29T13:44:37Z</time>
      </trkpt>
      <trkpt lat="43.79791" lon="3.72726">
        <ele>251.04</ele>
        <time>2015-03-29T13:44:38Z</time>
      </trkpt>
      <trkpt lat="43.79942" lon="3.72532">
        <ele>256.81</ele>
        <time>2015-03-29T13:44:47Z</time>
      </trkpt>
      <trkpt lat="43.80092" lon="3.72378">
        <ele>261.14</ele>
        <time>2015-03-29T13:44:56Z</time>
      </trkpt>
      <trkpt lat="43.80117" lon="3.72377">
        <ele>262.58</ele>
        <time>2015-03-29T13:44:57Z</time>
      </trkpt>
      <trkpt lat="43.80142" lon="3.72376">
        <ele>264.02</ele>
        <time>2015-03-29T13:44:58Z</time>
      </trkpt>
      <trkpt lat="43.80187" lon="3.72377">
        <ele>266.9</ele>
        <time>2015-03-29T13:45:00Z</time>
      </trkpt>
      <trkpt lat="43.80207" lon="3.72384">
        <ele>268.35</ele>
        <time>2015-03-29T13:45:01Z</time>
      </trkpt>
      <trkpt lat="43.80226" lon="3.72396">
        <ele>269.79</ele>
        <time>2015-03-29T13:45:02Z</time>
      </trkpt>
      <trkpt lat="43.80242" lon="3.72413">
        <ele>270.75</ele>
        <time>2015-03-29T13:45:03Z</time>
      </trkpt>
      <trkpt lat="43.80259" lon="3.72432">
        <ele>272.19</ele>
        <time>2015-03-29T13:45:04Z</time>
      </trkpt>
      <trkpt lat="43.80279" lon="3.72446">
        <ele>273.63</ele>
        <time>2015-03-29T13:45:05Z</time>
      </trkpt>
      <trkpt lat="43.80299" lon="3.72455">
        <ele>275.07</ele>
        <time>2015-03-29T13:45:06Z</time>
      </trkpt>
      <trkpt lat="43.80318" lon="3.72459">
        <ele>276.52</ele>
        <time>2015-03-29T13:45:07Z</time>
      </trkpt>
      <trkpt lat="43.80336" lon="3.72458">
        <ele>277.96</ele>
        <time>2015-03-29T13:45:08Z</time>
      </trkpt>
      <trkpt lat="43.80354" lon="3.7245">
        <ele>279.88</ele>
        <time>2015-03-29T13:45:09Z</time>
      </trkpt>
      <trkpt lat="43.80371" lon="3.72434">
        <ele>281.32</ele>
        <time>2015-03-29T13:45:10Z</time>
      </trkpt>
      <trkpt lat="43.80387" lon="3.72412">
        <ele>282.77</ele>
        <time>2015-03-29T13:45:11Z</time>
      </trkpt>
      <trkpt lat="43.80401" lon="3.72389">
        <ele>284.21</ele>
        <time>2015-03-29T13:45:12Z</time>
      </trkpt>
      <trkpt lat="43.80416" lon="3.72368">
        <ele>286.13</ele>
        <time>2015-03-29T13:45:13Z</time>
      </trkpt>
      <trkpt lat="43.80431" lon="3.72353">
        <ele>287.09</ele>
        <time>2015-03-29T13:45:14Z</time>
      </trkpt>
      <trkpt lat="43.80449" lon="3.72344">
        <ele>288.05</ele>
        <time>2015-03-29T13:45:15Z</time>
      </trkpt>
      <trkpt lat="43.80466" lon="3.72335">
        <ele>289.49</ele>
        <time>2015-03-29T13:45:16Z</time>
      </trkpt>
      <trkpt lat="43.80479" lon="3.72324">
        <ele>290.94</ele>
        <time>2015-03-29T13:45:17Z</time>
      </trkpt>
      <trkpt lat="43.80489" lon="3.72308">
        <ele>292.38</ele>
        <time>2015-03-29T13:45:18Z</time>
      </trkpt>
      <trkpt lat="43.80495" lon="3.72287">
        <ele>293.82</ele>
        <time>2015-03-29T13:45:19Z</time>
      </trkpt>
      <trkpt lat="43.80498" lon="3.7226">
        <ele>294.78</ele>
        <time>2015-03-29T13:45:20Z</time>
      </trkpt>
      <trkpt lat="43.80498" lon="3.72234">
        <ele>296.22</ele>
        <time>2015-03-29T13:45:21Z</time>
      </trkpt>
      <trkpt lat="43.80496" lon="3.72206">
        <ele>297.18</ele>
        <time>2015-03-29T13:45:22Z</time>
      </trkpt>
      <trkpt lat="43.80493" lon="3.7218">
        <ele>298.15</ele>
        <time>2015-03-29T13:45:23Z</time>
      </trkpt>
      <trkpt lat="43.8049" lon="3.72157">
        <ele>299.59</ele>
        <time>2015-03-29T13:45:24Z</time>
      </trkpt>
      <trkpt lat="43.80484" lon="3.72118">
        <ele>301.03</ele>
        <time>2015-03-29T13:45:26Z</time>
      </trkpt>
      <trkpt lat="43.80477" lon="3.72101">
        <ele>301.99</ele>
        <time>2015-03-29T13:45:27Z</time>
      </trkpt>
      <trkpt lat="43.8047" lon="3.72085">
        <ele>303.91</ele>
        <time>2015-03-29T13:45:28Z</time>
      </trkpt>
      <trkpt lat="43.80457" lon="3.72055">
        <ele>306.32</ele>
        <time>2015-03-29T13:45:30Z</time>
      </trkpt>
      <trkpt lat="43.80454" lon="3.72041">
        <ele>307.28</ele>
        <time>2015-03-29T13:45:31Z</time>
      </trkpt>
      <trkpt lat="43.80452" lon="3.72025">
        <ele>308.24</ele>
        <time>2015-03-29T13:45:32Z</time>
      </trkpt>
      <trkpt lat="43.80453" lon="3.72009">
        <ele>309.2</ele>
        <time>2015-03-29T13:45:33Z</time>
      </trkpt>
      <trkpt lat="43.80455" lon="3.71994">
        <ele>309.68</ele>
        <time>2015-03-29T13:45:34Z</time>
      </trkpt>
      <trkpt lat="43.80459" lon="3.7198">
        <ele>310.64</ele>
        <time>2015-03-29T13:45:35Z</time>
      </trkpt>
      <trkpt lat="43.80464" lon="3.71966">
        <ele>311.12</ele>
        <time>2015-03-29T13:45:36Z</time>
      </trkpt>
      <trkpt lat="43.8047" lon="3.71954">
        <ele>311.6</ele>
        <time>2015-03-29T13:45:37Z</time>
      </trkpt>
      <trkpt lat="43.80477" lon="3.71944">
        <ele>312.09</ele>
        <time>2015-03-29T13:45:38Z</time>
      </trkpt>
      <trkpt lat="43.80487" lon="3.71937">
        <ele>312.57</ele>
        <time>2015-03-29T13:45:39Z</time>
      </trkpt>
      <trkpt lat="43.80499" lon="3.71937">
        <ele>313.53</ele>
        <time>2015-03-29T13:45:40Z</time>
      </trkpt>
      <trkpt lat="43.80511" lon="3.71937">
        <ele>314.49</ele>
        <time>2015-03-29T13:45:41Z</time>
      </trkpt>
      <trkpt lat="43.80527" lon="3.71942">
        <ele>315.93</ele>
        <time>2015-03-29T13:45:42Z</time>
      </trkpt>
      <trkpt lat="43.80544" lon="3.71949">
        <ele>316.41</ele>
        <time>2015-03-29T13:45:43Z</time>
      </trkpt>
      <trkpt lat="43.80564" lon="3.71959">
        <ele>316.89</ele>
        <time>2015-03-29T13:45:44Z</time>
      </trkpt>
      <trkpt lat="43.80585" lon="3.71972">
        <ele>319.3</ele>
        <time>2015-03-29T13:45:45Z</time>
      </trkpt>
      <trkpt lat="43.80603" lon="3.7199">
        <ele>319.78</ele>
        <time>2015-03-29T13:45:46Z</time>
      </trkpt>
      <trkpt lat="43.80618" lon="3.72008">
        <ele>321.7</ele>
        <time>2015-03-29T13:45:47Z</time>
      </trkpt>
      <trkpt lat="43.80634" lon="3.72025">
        <ele>323.14</ele>
        <time>2015-03-29T13:45:48Z</time>
      </trkpt>
      <trkpt lat="43.80652" lon="3.72039">
        <ele>324.58</ele>
        <time>2015-03-29T13:45:49Z</time>
      </trkpt>
      <trkpt lat="43.80671" lon="3.7205">
        <ele>326.02</ele>
        <time>2015-03-29T13:45:50Z</time>
      </trkpt>
      <trkpt lat="43.80689" lon="3.72055">
        <ele>327.47</ele>
        <time>2015-03-29T13:45:51Z</time>
      </trkpt>
      <trkpt lat="43.80707" lon="3.72055">
        <ele>329.39</ele>
        <time>2015-03-29T13:45:52Z</time>
      </trkpt>
      <trkpt lat="43.80724" lon="3.72048">
        <ele>330.83</ele>
        <time>2015-03-29T13:45:53Z</time>
      </trkpt>
      <trkpt lat="43.80742" lon="3.72033">
        <ele>332.75</ele>
        <time>2015-03-29T13:45:54Z</time>
      </trkpt>
      <trkpt lat="43.80758" lon="3.72011">
        <ele>335.16</ele>
        <time>2015-03-29T13:45:55Z</time>
      </trkpt>
      <trkpt lat="43.80775" lon="3.71988">
        <ele>336.6</ele>
        <time>2015-03-29T13:45:56Z</time>
      </trkpt>
      <trkpt lat="43.8086" lon="3.71866">
        <ele>344.29</ele>
        <time>2015-03-29T13:46:02Z</time>
      </trkpt>
      <trkpt lat="43.8087" lon="3.71843">
        <ele>344.29</ele>
        <time>2015-03-29T13:46:03Z</time>
      </trkpt>
      <trkpt lat="43.8088" lon="3.71821">
        <ele>344.29</ele>
        <time>2015-03-29T13:46:04Z</time>
      </trkpt>
      <trkpt lat="43.80966" lon="3.71707">
        <ele>338.52</ele>
        <time>2015-03-29T13:46:10Z</time>
      </trkpt>
      <trkpt lat="43.80983" lon="3.71694">
        <ele>337.08</ele>
        <time>2015-03-29T13:46:11Z</time>
      </trkpt>
      <trkpt lat="43.81002" lon="3.71682">
        <ele>335.64</ele>
        <time>2015-03-29T13:46:12Z</time>
      </trkpt>
      <trkpt lat="43.81022" lon="3.71674">
        <ele>334.2</ele>
        <time>2015-03-29T13:46:13Z</time>
      </trkpt>
      <trkpt lat="43.81042" lon="3.71667">
        <ele>332.75</ele>
        <time>2015-03-29T13:46:14Z</time>
      </trkpt>
      <trkpt lat="43.81062" lon="3.71662">
        <ele>331.31</ele>
        <time>2015-03-29T13:46:15Z</time>
      </trkpt>
      <trkpt lat="43.81129" lon="3.71644">
        <ele>326.5</ele>
        <time>2015-03-29T13:46:19Z</time>
      </trkpt>
      <trkpt lat="43.81142" lon="3.71635">
        <ele>325.06</ele>
        <time>2015-03-29T13:46:20Z</time>
      </trkpt>
      <trkpt lat="43.81152" lon="3.71622">
        <ele>323.62</ele>
        <time>2015-03-29T13:46:21Z</time>
      </trkpt>
      <trkpt lat="43.81157" lon="3.71607">
        <ele>322.18</ele>
        <time>2015-03-29T13:46:22Z</time>
      </trkpt>
      <trkpt lat="43.81157" lon="3.7159">
        <ele>320.74</ele>
        <time>2015-03-29T13:46:23Z</time>
      </trkpt>
      <trkpt lat="43.81153" lon="3.71569">
        <ele>319.78</ele>
        <time>2015-03-29T13:46:24Z</time>
      </trkpt>
      <trkpt lat="43.81147" lon="3.71551">
        <ele>318.81</ele>
        <time>2015-03-29T13:46:25Z</time>
      </trkpt>
      <trkpt lat="43.81141" lon="3.71531">
        <ele>317.37</ele>
        <time>2015-03-29T13:46:26Z</time>
      </trkpt>
      <trkpt lat="43.81133" lon="3.71506">
        <ele>316.89</ele>
        <time>2015-03-29T13:46:27Z</time>
      </trkpt>
      <trkpt lat="43.81128" lon="3.71478">
        <ele>316.89</ele>
        <time>2015-03-29T13:46:28Z</time>
      </trkpt>
      <trkpt lat="43.81125" lon="3.71449">
        <ele>315.93</ele>
        <time>2015-03-29T13:46:29Z</time>
      </trkpt>
      <trkpt lat="43.81121" lon="3.7142">
        <ele>314.49</ele>
        <time>2015-03-29T13:46:30Z</time>
      </trkpt>
      <trkpt lat="43.81117" lon="3.71391">
        <ele>313.05</ele>
        <time>2015-03-29T13:46:31Z</time>
      </trkpt>
      <trkpt lat="43.81111" lon="3.71363">
        <ele>311.6</ele>
        <time>2015-03-29T13:46:32Z</time>
      </trkpt>
      <trkpt lat="43.81104" lon="3.71338">
        <ele>310.16</ele>
        <time>2015-03-29T13:46:33Z</time>
      </trkpt>
      <trkpt lat="43.81094" lon="3.71317">
        <ele>308.72</ele>
        <time>2015-03-29T13:46:34Z</time>
      </trkpt>
      <trkpt lat="43.8108" lon="3.713">
        <ele>306.8</ele>
        <time>2015-03-29T13:46:35Z</time>
      </trkpt>
      <trkpt lat="43.81064" lon="3.71283">
        <ele>306.32</ele>
        <time>2015-03-29T13:46:36Z</time>
      </trkpt>
      <trkpt lat="43.81049" lon="3.71266">
        <ele>305.84</ele>
        <time>2015-03-29T13:46:37Z</time>
      </trkpt>
      <trkpt lat="43.81035" lon="3.71246">
        <ele>304.88</ele>
        <time>2015-03-29T13:46:38Z</time>
      </trkpt>
      <trkpt lat="43.81024" lon="3.71221">
        <ele>303.43</ele>
        <time>2015-03-29T13:46:39Z</time>
      </trkpt>
      <trkpt lat="43.81015" lon="3.71193">
        <ele>302.47</ele>
        <time>2015-03-29T13:46:40Z</time>
      </trkpt>
      <trkpt lat="43.81007" lon="3.71162">
        <ele>301.03</ele>
        <time>2015-03-29T13:46:41Z</time>
      </trkpt>
      <trkpt lat="43.81002" lon="3.7113">
        <ele>299.59</ele>
        <time>2015-03-29T13:46:42Z</time>
      </trkpt>
      <trkpt lat="43.80998" lon="3.71096">
        <ele>298.63</ele>
        <time>2015-03-29T13:46:43Z</time>
      </trkpt>
      <trkpt lat="43.80996" lon="3.71062">
        <ele>297.18</ele>
        <time>2015-03-29T13:46:44Z</time>
      </trkpt>
      <trkpt lat="43.80995" lon="3.71032">
        <ele>295.26</ele>
        <time>2015-03-29T13:46:45Z</time>
      </trkpt>
      <trkpt lat="43.81002" lon="3.70965">
        <ele>292.38</ele>
        <time>2015-03-29T13:46:48Z</time>
      </trkpt>
      <trkpt lat="43.8101" lon="3.70943">
        <ele>291.42</ele>
        <time>2015-03-29T13:46:49Z</time>
      </trkpt>
      <trkpt lat="43.81019" lon="3.7092">
        <ele>290.46</ele>
        <time>2015-03-29T13:46:50Z</time>
      </trkpt>
      <trkpt lat="43.81031" lon="3.70898">
        <ele>289.01</ele>
        <time>2015-03-29T13:46:51Z</time>
      </trkpt>
      <trkpt lat="43.81045" lon="3.70877">
        <ele>288.53</ele>
        <time>2015-03-29T13:46:52Z</time>
      </trkpt>
      <trkpt lat="43.81059" lon="3.70856">
        <ele>287.57</ele>
        <time>2015-03-29T13:46:53Z</time>
      </trkpt>
      <trkpt lat="43.81102" lon="3.70805">
        <ele>284.21</ele>
        <time>2015-03-29T13:46:56Z</time>
      </trkpt>
      <trkpt lat="43.81118" lon="3.70797">
        <ele>283.25</ele>
        <time>2015-03-29T13:46:57Z</time>
      </trkpt>
      <trkpt lat="43.81139" lon="3.70794">
        <ele>281.8</ele>
        <time>2015-03-29T13:46:58Z</time>
      </trkpt>
      <trkpt lat="43.81159" lon="3.70794">
        <ele>280.36</ele>
        <time>2015-03-29T13:46:59Z</time>
      </trkpt>
      <trkpt lat="43.81181" lon="3.70798">
        <ele>279.88</ele>
        <time>2015-03-29T13:47:00Z</time>
      </trkpt>
      <trkpt lat="43.81201" lon="3.70805">
        <ele>278.92</ele>
        <time>2015-03-29T13:47:01Z</time>
      </trkpt>
      <trkpt lat="43.81218" lon="3.70815">
        <ele>277.96</ele>
        <time>2015-03-29T13:47:02Z</time>
      </trkpt>
      <trkpt lat="43.81233" lon="3.70823">
        <ele>277</ele>
        <time>2015-03-29T13:47:03Z</time>
      </trkpt>
      <trkpt lat="43.81246" lon="3.70827">
        <ele>276.52</ele>
        <time>2015-03-29T13:47:04Z</time>
      </trkpt>
      <trkpt lat="43.81258" lon="3.70825">
        <ele>275.56</ele>
        <time>2015-03-29T13:47:05Z</time>
      </trkpt>
      <trkpt lat="43.81269" lon="3.70817">
        <ele>274.59</ele>
        <time>2015-03-29T13:47:06Z</time>
      </trkpt>
      <trkpt lat="43.8128" lon="3.70804">
        <ele>273.15</ele>
        <time>2015-03-29T13:47:07Z</time>
      </trkpt>
      <trkpt lat="43.81287" lon="3.70788">
        <ele>271.71</ele>
        <time>2015-03-29T13:47:08Z</time>
      </trkpt>
      <trkpt lat="43.81287" lon="3.70762">
        <ele>272.19</ele>
        <time>2015-03-29T13:47:09Z</time>
      </trkpt>
      <trkpt lat="43.81291" lon="3.70738">
        <ele>271.23</ele>
        <time>2015-03-29T13:47:10Z</time>
      </trkpt>
      <trkpt lat="43.81299" lon="3.70711">
        <ele>270.75</ele>
        <time>2015-03-29T13:47:11Z</time>
      </trkpt>
      <trkpt lat="43.81312" lon="3.70686">
        <ele>269.79</ele>
        <time>2015-03-29T13:47:12Z</time>
      </trkpt>
      <trkpt lat="43.81325" lon="3.70661">
        <ele>268.35</ele>
        <time>2015-03-29T13:47:13Z</time>
      </trkpt>
      <trkpt lat="43.8137" lon="3.70514">
        <ele>262.1</ele>
        <time>2015-03-29T13:47:18Z</time>
      </trkpt>
      <trkpt lat="43.81374" lon="3.70478">
        <ele>260.17</ele>
        <time>2015-03-29T13:47:19Z</time>
      </trkpt>
      <trkpt lat="43.81408" lon="3.70261">
        <ele>250.08</ele>
        <time>2015-03-29T13:47:25Z</time>
      </trkpt>
      <trkpt lat="43.81503" lon="3.69934">
        <ele>238.54</ele>
        <time>2015-03-29T13:47:35Z</time>
      </trkpt>
      <trkpt lat="43.81539" lon="3.69848">
        <ele>235.66</ele>
        <time>2015-03-29T13:47:39Z</time>
      </trkpt>
      <trkpt lat="43.81544" lon="3.69828">
        <ele>235.18</ele>
        <time>2015-03-29T13:47:40Z</time>
      </trkpt>
      <trkpt lat="43.81547" lon="3.69808">
        <ele>234.7</ele>
        <time>2015-03-29T13:47:41Z</time>
      </trkpt>
      <trkpt lat="43.81549" lon="3.69789">
        <ele>234.22</ele>
        <time>2015-03-29T13:47:42Z</time>
      </trkpt>
      <trkpt lat="43.8155" lon="3.69771">
        <ele>233.74</ele>
        <time>2015-03-29T13:47:43Z</time>
      </trkpt>
      <trkpt lat="43.81564" lon="3.69673">
        <ele>230.37</ele>
        <time>2015-03-29T13:47:51Z</time>
      </trkpt>
      <trkpt lat="43.8158" lon="3.69604">
        <ele>228.45</ele>
        <time>2015-03-29T13:47:57Z</time>
      </trkpt>
      <trkpt lat="43.81614" lon="3.69413">
        <ele>223.16</ele>
        <time>2015-03-29T13:48:07Z</time>
      </trkpt>
      <trkpt lat="43.81619" lon="3.69372">
        <ele>222.2</ele>
        <time>2015-03-29T13:48:12Z</time>
      </trkpt>
      <trkpt lat="43.81623" lon="3.69305">
        <ele>223.16</ele>
        <time>2015-03-29T13:48:17Z</time>
      </trkpt>
      <trkpt lat="43.81622" lon="3.69289">
        <ele>223.16</ele>
        <time>2015-03-29T13:48:18Z</time>
      </trkpt>
      <trkpt lat="43.8162" lon="3.69275">
        <ele>223.64</ele>
        <time>2015-03-29T13:48:19Z</time>
      </trkpt>
      <trkpt lat="43.81615" lon="3.69248">
        <ele>225.09</ele>
        <time>2015-03-29T13:48:21Z</time>
      </trkpt>
      <trkpt lat="43.81615" lon="3.69235">
        <ele>226.05</ele>
        <time>2015-03-29T13:48:22Z</time>
      </trkpt>
      <trkpt lat="43.81616" lon="3.69221">
        <ele>226.53</ele>
        <time>2015-03-29T13:48:23Z</time>
      </trkpt>
      <trkpt lat="43.81618" lon="3.69209">
        <ele>227.01</ele>
        <time>2015-03-29T13:48:24Z</time>
      </trkpt>
      <trkpt lat="43.8162" lon="3.69196">
        <ele>227.97</ele>
        <time>2015-03-29T13:48:25Z</time>
      </trkpt>
      <trkpt lat="43.81623" lon="3.69183">
        <ele>228.45</ele>
        <time>2015-03-29T13:48:26Z</time>
      </trkpt>
      <trkpt lat="43.81623" lon="3.6917">
        <ele>229.41</ele>
        <time>2015-03-29T13:48:27Z</time>
      </trkpt>
      <trkpt lat="43.81622" lon="3.69155">
        <ele>229.89</ele>
        <time>2015-03-29T13:48:28Z</time>
      </trkpt>
      <trkpt lat="43.8161" lon="3.6903">
        <ele>231.81</ele>
        <time>2015-03-29T13:48:37Z</time>
      </trkpt>
      <trkpt lat="43.81598" lon="3.68877">
        <ele>234.7</ele>
        <time>2015-03-29T13:48:43Z</time>
      </trkpt>
      <trkpt lat="43.8159" lon="3.68808">
        <ele>235.66</ele>
        <time>2015-03-29T13:48:46Z</time>
      </trkpt>
      <trkpt lat="43.81583" lon="3.68789">
        <ele>236.14</ele>
        <time>2015-03-29T13:48:47Z</time>
      </trkpt>
      <trkpt lat="43.81573" lon="3.68772">
        <ele>236.14</ele>
        <time>2015-03-29T13:48:48Z</time>
      </trkpt>
      <trkpt lat="43.81561" lon="3.68754">
        <ele>236.62</ele>
        <time>2015-03-29T13:48:49Z</time>
      </trkpt>
      <trkpt lat="43.81544" lon="3.68735">
        <ele>236.62</ele>
        <time>2015-03-29T13:48:50Z</time>
      </trkpt>
      <trkpt lat="43.81527" lon="3.68715">
        <ele>237.1</ele>
        <time>2015-03-29T13:48:51Z</time>
      </trkpt>
      <trkpt lat="43.81513" lon="3.68691">
        <ele>238.06</ele>
        <time>2015-03-29T13:48:52Z</time>
      </trkpt>
      <trkpt lat="43.815" lon="3.68668">
        <ele>238.06</ele>
        <time>2015-03-29T13:48:53Z</time>
      </trkpt>
      <trkpt lat="43.81468" lon="3.68624">
        <ele>238.54</ele>
        <time>2015-03-29T13:48:55Z</time>
      </trkpt>
      <trkpt lat="43.81393" lon="3.68561">
        <ele>237.1</ele>
        <time>2015-03-29T13:48:59Z</time>
      </trkpt>
      <trkpt lat="43.81373" lon="3.68555">
        <ele>237.1</ele>
        <time>2015-03-29T13:49:00Z</time>
      </trkpt>
      <trkpt lat="43.81351" lon="3.68548">
        <ele>237.1</ele>
        <time>2015-03-29T13:49:01Z</time>
      </trkpt>
      <trkpt lat="43.81233" lon="3.68519">
        <ele>239.02</ele>
        <time>2015-03-29T13:49:06Z</time>
      </trkpt>
      <trkpt lat="43.81209" lon="3.68521">
        <ele>239.02</ele>
        <time>2015-03-29T13:49:07Z</time>
      </trkpt>
      <trkpt lat="43.81187" lon="3.68525">
        <ele>238.06</ele>
        <time>2015-03-29T13:49:08Z</time>
      </trkpt>
      <trkpt lat="43.81143" lon="3.68527">
        <ele>237.58</ele>
        <time>2015-03-29T13:49:10Z</time>
      </trkpt>
      <trkpt lat="43.81123" lon="3.68519">
        <ele>236.14</ele>
        <time>2015-03-29T13:49:11Z</time>
      </trkpt>
      <trkpt lat="43.81104" lon="3.68506">
        <ele>234.7</ele>
        <time>2015-03-29T13:49:12Z</time>
      </trkpt>
      <trkpt lat="43.81086" lon="3.68493">
        <ele>234.22</ele>
        <time>2015-03-29T13:49:13Z</time>
      </trkpt>
      <trkpt lat="43.81073" lon="3.68467">
        <ele>233.26</ele>
        <time>2015-03-29T13:49:14Z</time>
      </trkpt>
      <trkpt lat="43.81066" lon="3.68437">
        <ele>231.33</ele>
        <time>2015-03-29T13:49:15Z</time>
      </trkpt>
      <trkpt lat="43.81063" lon="3.68406">
        <ele>229.41</ele>
        <time>2015-03-29T13:49:16Z</time>
      </trkpt>
      <trkpt lat="43.81063" lon="3.68375">
        <ele>227.97</ele>
        <time>2015-03-29T13:49:17Z</time>
      </trkpt>
      <trkpt lat="43.81067" lon="3.68345">
        <ele>226.53</ele>
        <time>2015-03-29T13:49:18Z</time>
      </trkpt>
      <trkpt lat="43.81077" lon="3.68316">
        <ele>225.09</ele>
        <time>2015-03-29T13:49:19Z</time>
      </trkpt>
      <trkpt lat="43.81091" lon="3.68291">
        <ele>223.16</ele>
        <time>2015-03-29T13:49:20Z</time>
      </trkpt>
      <trkpt lat="43.81109" lon="3.68274">
        <ele>222.2</ele>
        <time>2015-03-29T13:49:21Z</time>
      </trkpt>
      <trkpt lat="43.8113" lon="3.68261">
        <ele>220.76</ele>
        <time>2015-03-29T13:49:22Z</time>
      </trkpt>
      <trkpt lat="43.81155" lon="3.68255">
        <ele>218.84</ele>
        <time>2015-03-29T13:49:23Z</time>
      </trkpt>
      <trkpt lat="43.81179" lon="3.68249">
        <ele>217.88</ele>
        <time>2015-03-29T13:49:24Z</time>
      </trkpt>
      <trkpt lat="43.81205" lon="3.68243">
        <ele>217.4</ele>
        <time>2015-03-29T13:49:25Z</time>
      </trkpt>
      <trkpt lat="43.81228" lon="3.68236">
        <ele>215.95</ele>
        <time>2015-03-29T13:49:26Z</time>
      </trkpt>
      <trkpt lat="43.81281" lon="3.68207">
        <ele>214.03</ele>
        <time>2015-03-29T13:49:29Z</time>
      </trkpt>
      <trkpt lat="43.81292" lon="3.68184">
        <ele>214.51</ele>
        <time>2015-03-29T13:49:30Z</time>
      </trkpt>
      <trkpt lat="43.81304" lon="3.68162">
        <ele>214.51</ele>
        <time>2015-03-29T13:49:31Z</time>
      </trkpt>
      <trkpt lat="43.81368" lon="3.68054">
        <ele>209.7</ele>
        <time>2015-03-29T13:49:37Z</time>
      </trkpt>
      <trkpt lat="43.81374" lon="3.68031">
        <ele>209.22</ele>
        <time>2015-03-29T13:49:38Z</time>
      </trkpt>
      <trkpt lat="43.81377" lon="3.68008">
        <ele>208.26</ele>
        <time>2015-03-29T13:49:39Z</time>
      </trkpt>
      <trkpt lat="43.81382" lon="3.67986">
        <ele>207.3</ele>
        <time>2015-03-29T13:49:40Z</time>
      </trkpt>
      <trkpt lat="43.81389" lon="3.67966">
        <ele>205.86</ele>
        <time>2015-03-29T13:49:41Z</time>
      </trkpt>
      <trkpt lat="43.81399" lon="3.67947">
        <ele>204.9</ele>
        <time>2015-03-29T13:49:42Z</time>
      </trkpt>
      <trkpt lat="43.81407" lon="3.67926">
        <ele>203.94</ele>
        <time>2015-03-29T13:49:43Z</time>
      </trkpt>
      <trkpt lat="43.81415" lon="3.67905">
        <ele>202.98</ele>
        <time>2015-03-29T13:49:44Z</time>
      </trkpt>
      <trkpt lat="43.81423" lon="3.67886">
        <ele>202.01</ele>
        <time>2015-03-29T13:49:45Z</time>
      </trkpt>
      <trkpt lat="43.81439" lon="3.67851">
        <ele>200.09</ele>
        <time>2015-03-29T13:49:47Z</time>
      </trkpt>
      <trkpt lat="43.81442" lon="3.67832">
        <ele>199.13</ele>
        <time>2015-03-29T13:49:48Z</time>
      </trkpt>
      <trkpt lat="43.81441" lon="3.6781">
        <ele>197.69</ele>
        <time>2015-03-29T13:49:49Z</time>
      </trkpt>
      <trkpt lat="43.81437" lon="3.67784">
        <ele>196.25</ele>
        <time>2015-03-29T13:49:50Z</time>
      </trkpt>
      <trkpt lat="43.81434" lon="3.67758">
        <ele>195.28</ele>
        <time>2015-03-29T13:49:51Z</time>
      </trkpt>
      <trkpt lat="43.81424" lon="3.67718">
        <ele>192.88</ele>
        <time>2015-03-29T13:49:53Z</time>
      </trkpt>
      <trkpt lat="43.81416" lon="3.67708">
        <ele>191.92</ele>
        <time>2015-03-29T13:49:54Z</time>
      </trkpt>
      <trkpt lat="43.81405" lon="3.67699">
        <ele>190.96</ele>
        <time>2015-03-29T13:49:55Z</time>
      </trkpt>
      <trkpt lat="43.81388" lon="3.67697">
        <ele>190.48</ele>
        <time>2015-03-29T13:49:56Z</time>
      </trkpt>
      <trkpt lat="43.8137" lon="3.67695">
        <ele>190.48</ele>
        <time>2015-03-29T13:49:57Z</time>
      </trkpt>
      <trkpt lat="43.81352" lon="3.67692">
        <ele>190</ele>
        <time>2015-03-29T13:49:58Z</time>
      </trkpt>
      <trkpt lat="43.81335" lon="3.67684">
        <ele>189.52</ele>
        <time>2015-03-29T13:49:59Z</time>
      </trkpt>
      <trkpt lat="43.8132" lon="3.67673">
        <ele>189.04</ele>
        <time>2015-03-29T13:50:00Z</time>
      </trkpt>
      <trkpt lat="43.81291" lon="3.67652">
        <ele>187.11</ele>
        <time>2015-03-29T13:50:02Z</time>
      </trkpt>
      <trkpt lat="43.81268" lon="3.67636">
        <ele>186.15</ele>
        <time>2015-03-29T13:50:04Z</time>
      </trkpt>
      <trkpt lat="43.81261" lon="3.67627">
        <ele>185.19</ele>
        <time>2015-03-29T13:50:05Z</time>
      </trkpt>
      <trkpt lat="43.81257" lon="3.67613">
        <ele>184.23</ele>
        <time>2015-03-29T13:50:06Z</time>
      </trkpt>
      <trkpt lat="43.81257" lon="3.67599">
        <ele>183.27</ele>
        <time>2015-03-29T13:50:07Z</time>
      </trkpt>
      <trkpt lat="43.81264" lon="3.67581">
        <ele>182.31</ele>
        <time>2015-03-29T13:50:08Z</time>
      </trkpt>
      <trkpt lat="43.81271" lon="3.67565">
        <ele>181.35</ele>
        <time>2015-03-29T13:50:09Z</time>
      </trkpt>
      <trkpt lat="43.81279" lon="3.67546">
        <ele>180.87</ele>
        <time>2015-03-29T13:50:10Z</time>
      </trkpt>
      <trkpt lat="43.81287" lon="3.67527">
        <ele>180.87</ele>
        <time>2015-03-29T13:50:11Z</time>
      </trkpt>
      <trkpt lat="43.81297" lon="3.67488">
        <ele>179.42</ele>
        <time>2015-03-29T13:50:13Z</time>
      </trkpt>
      <trkpt lat="43.81298" lon="3.67466">
        <ele>178.94</ele>
        <time>2015-03-29T13:50:14Z</time>
      </trkpt>
      <trkpt lat="43.81298" lon="3.67445">
        <ele>177.98</ele>
        <time>2015-03-29T13:50:15Z</time>
      </trkpt>
      <trkpt lat="43.81294" lon="3.67426">
        <ele>177.5</ele>
        <time>2015-03-29T13:50:16Z</time>
      </trkpt>
      <trkpt lat="43.81289" lon="3.67411">
        <ele>176.54</ele>
        <time>2015-03-29T13:50:17Z</time>
      </trkpt>
      <trkpt lat="43.8128" lon="3.67397">
        <ele>175.58</ele>
        <time>2015-03-29T13:50:18Z</time>
      </trkpt>
      <trkpt lat="43.81265" lon="3.6738">
        <ele>175.1</ele>
        <time>2015-03-29T13:50:19Z</time>
      </trkpt>
      <trkpt lat="43.8125" lon="3.67365">
        <ele>174.62</ele>
        <time>2015-03-29T13:50:20Z</time>
      </trkpt>
      <trkpt lat="43.81233" lon="3.67352">
        <ele>173.66</ele>
        <time>2015-03-29T13:50:21Z</time>
      </trkpt>
      <trkpt lat="43.81217" lon="3.6734">
        <ele>173.17</ele>
        <time>2015-03-29T13:50:22Z</time>
      </trkpt>
      <trkpt lat="43.81201" lon="3.6733">
        <ele>172.21</ele>
        <time>2015-03-29T13:50:23Z</time>
      </trkpt>
      <trkpt lat="43.81185" lon="3.67323">
        <ele>171.25</ele>
        <time>2015-03-29T13:50:24Z</time>
      </trkpt>
      <trkpt lat="43.81168" lon="3.67319">
        <ele>170.29</ele>
        <time>2015-03-29T13:50:25Z</time>
      </trkpt>
      <trkpt lat="43.81149" lon="3.67318">
        <ele>170.29</ele>
        <time>2015-03-29T13:50:26Z</time>
      </trkpt>
      <trkpt lat="43.81131" lon="3.67316">
        <ele>169.33</ele>
        <time>2015-03-29T13:50:27Z</time>
      </trkpt>
      <trkpt lat="43.81114" lon="3.67314">
        <ele>168.85</ele>
        <time>2015-03-29T13:50:28Z</time>
      </trkpt>
      <trkpt lat="43.81099" lon="3.67313">
        <ele>167.89</ele>
        <time>2015-03-29T13:50:29Z</time>
      </trkpt>
      <trkpt lat="43.81085" lon="3.67319">
        <ele>166.93</ele>
        <time>2015-03-29T13:50:30Z</time>
      </trkpt>
      <trkpt lat="43.81069" lon="3.67333">
        <ele>165.96</ele>
        <time>2015-03-29T13:50:31Z</time>
      </trkpt>
      <trkpt lat="43.81054" lon="3.67345">
        <ele>164.52</ele>
        <time>2015-03-29T13:50:32Z</time>
      </trkpt>
      <trkpt lat="43.81038" lon="3.67359">
        <ele>164.04</ele>
        <time>2015-03-29T13:50:33Z</time>
      </trkpt>
      <trkpt lat="43.81022" lon="3.67363">
        <ele>163.08</ele>
        <time>2015-03-29T13:50:34Z</time>
      </trkpt>
      <trkpt lat="43.81002" lon="3.67362">
        <ele>162.6</ele>
        <time>2015-03-29T13:50:35Z</time>
      </trkpt>
      <trkpt lat="43.80984" lon="3.67362">
        <ele>162.12</ele>
        <time>2015-03-29T13:50:36Z</time>
      </trkpt>
      <trkpt lat="43.80966" lon="3.67359">
        <ele>161.16</ele>
        <time>2015-03-29T13:50:37Z</time>
      </trkpt>
      <trkpt lat="43.80947" lon="3.67353">
        <ele>160.2</ele>
        <time>2015-03-29T13:50:38Z</time>
      </trkpt>
      <trkpt lat="43.80929" lon="3.67348">
        <ele>159.72</ele>
        <time>2015-03-29T13:50:39Z</time>
      </trkpt>
      <trkpt lat="43.80913" lon="3.67344">
        <ele>158.75</ele>
        <time>2015-03-29T13:50:40Z</time>
      </trkpt>
      <trkpt lat="43.80899" lon="3.67345">
        <ele>157.79</ele>
        <time>2015-03-29T13:50:41Z</time>
      </trkpt>
      <trkpt lat="43.80886" lon="3.67352">
        <ele>156.83</ele>
        <time>2015-03-29T13:50:42Z</time>
      </trkpt>
      <trkpt lat="43.80875" lon="3.67359">
        <ele>156.35</ele>
        <time>2015-03-29T13:50:43Z</time>
      </trkpt>
      <trkpt lat="43.80864" lon="3.67366">
        <ele>155.87</ele>
        <time>2015-03-29T13:50:44Z</time>
      </trkpt>
      <trkpt lat="43.80855" lon="3.67365">
        <ele>156.35</ele>
        <time>2015-03-29T13:50:45Z</time>
      </trkpt>
      <trkpt lat="43.80847" lon="3.67362">
        <ele>155.87</ele>
        <time>2015-03-29T13:50:46Z</time>
      </trkpt>
      <trkpt lat="43.8084" lon="3.67355">
        <ele>154.91</ele>
        <time>2015-03-29T13:50:47Z</time>
      </trkpt>
      <trkpt lat="43.80831" lon="3.67341">
        <ele>154.91</ele>
        <time>2015-03-29T13:50:48Z</time>
      </trkpt>
      <trkpt lat="43.80823" lon="3.67327">
        <ele>154.43</ele>
        <time>2015-03-29T13:50:49Z</time>
      </trkpt>
      <trkpt lat="43.80815" lon="3.67312">
        <ele>153.47</ele>
        <time>2015-03-29T13:50:50Z</time>
      </trkpt>
      <trkpt lat="43.80813" lon="3.67296">
        <ele>151.54</ele>
        <time>2015-03-29T13:50:51Z</time>
      </trkpt>
      <trkpt lat="43.80814" lon="3.6728">
        <ele>150.1</ele>
        <time>2015-03-29T13:50:52Z</time>
      </trkpt>
      <trkpt lat="43.80816" lon="3.67265">
        <ele>149.14</ele>
        <time>2015-03-29T13:50:53Z</time>
      </trkpt>
      <trkpt lat="43.80816" lon="3.67251">
        <ele>147.7</ele>
        <time>2015-03-29T13:50:54Z</time>
      </trkpt>
      <trkpt lat="43.80813" lon="3.67238">
        <ele>146.26</ele>
        <time>2015-03-29T13:50:55Z</time>
      </trkpt>
      <trkpt lat="43.80807" lon="3.67226">
        <ele>145.3</ele>
        <time>2015-03-29T13:50:56Z</time>
      </trkpt>
      <trkpt lat="43.808" lon="3.67212">
        <ele>145.3</ele>
        <time>2015-03-29T13:50:57Z</time>
      </trkpt>
      <trkpt lat="43.80798" lon="3.67197">
        <ele>144.82</ele>
        <time>2015-03-29T13:50:58Z</time>
      </trkpt>
      <trkpt lat="43.80796" lon="3.67181">
        <ele>143.85</ele>
        <time>2015-03-29T13:50:59Z</time>
      </trkpt>
      <trkpt lat="43.80791" lon="3.67165">
        <ele>142.89</ele>
        <time>2015-03-29T13:51:00Z</time>
      </trkpt>
      <trkpt lat="43.80784" lon="3.67149">
        <ele>141.93</ele>
        <time>2015-03-29T13:51:01Z</time>
      </trkpt>
      <trkpt lat="43.80778" lon="3.67132">
        <ele>141.45</ele>
        <time>2015-03-29T13:51:02Z</time>
      </trkpt>
      <trkpt lat="43.80743" lon="3.66998">
        <ele>135.68</ele>
        <time>2015-03-29T13:51:08Z</time>
      </trkpt>
      <trkpt lat="43.80738" lon="3.66977">
        <ele>135.2</ele>
        <time>2015-03-29T13:51:09Z</time>
      </trkpt>
      <trkpt lat="43.80736" lon="3.66953">
        <ele>134.24</ele>
        <time>2015-03-29T13:51:10Z</time>
      </trkpt>
      <trkpt lat="43.80737" lon="3.66928">
        <ele>133.76</ele>
        <time>2015-03-29T13:51:11Z</time>
      </trkpt>
      <trkpt lat="43.8074" lon="3.66904">
        <ele>133.28</ele>
        <time>2015-03-29T13:51:12Z</time>
      </trkpt>
      <trkpt lat="43.80745" lon="3.66885">
        <ele>132.8</ele>
        <time>2015-03-29T13:51:13Z</time>
      </trkpt>
      <trkpt lat="43.8075" lon="3.66872">
        <ele>130.88</ele>
        <time>2015-03-29T13:51:14Z</time>
      </trkpt>
      <trkpt lat="43.80757" lon="3.6686">
        <ele>130.4</ele>
        <time>2015-03-29T13:51:15Z</time>
      </trkpt>
      <trkpt lat="43.80765" lon="3.6685">
        <ele>129.43</ele>
        <time>2015-03-29T13:51:16Z</time>
      </trkpt>
      <trkpt lat="43.80772" lon="3.66839">
        <ele>128.95</ele>
        <time>2015-03-29T13:51:17Z</time>
      </trkpt>
      <trkpt lat="43.80775" lon="3.66825">
        <ele>127.51</ele>
        <time>2015-03-29T13:51:18Z</time>
      </trkpt>
      <trkpt lat="43.80777" lon="3.66809">
        <ele>127.03</ele>
        <time>2015-03-29T13:51:19Z</time>
      </trkpt>
      <trkpt lat="43.80772" lon="3.66789">
        <ele>126.55</ele>
        <time>2015-03-29T13:51:20Z</time>
      </trkpt>
      <trkpt lat="43.80765" lon="3.66766">
        <ele>125.11</ele>
        <time>2015-03-29T13:51:21Z</time>
      </trkpt>
      <trkpt lat="43.80762" lon="3.66741">
        <ele>124.63</ele>
        <time>2015-03-29T13:51:22Z</time>
      </trkpt>
      <trkpt lat="43.8076" lon="3.66716">
        <ele>123.19</ele>
        <time>2015-03-29T13:51:23Z</time>
      </trkpt>
      <trkpt lat="43.80756" lon="3.66676">
        <ele>121.74</ele>
        <time>2015-03-29T13:51:25Z</time>
      </trkpt>
      <trkpt lat="43.80753" lon="3.66658">
        <ele>121.26</ele>
        <time>2015-03-29T13:51:26Z</time>
      </trkpt>
      <trkpt lat="43.80745" lon="3.6664">
        <ele>120.3</ele>
        <time>2015-03-29T13:51:27Z</time>
      </trkpt>
      <trkpt lat="43.80734" lon="3.66622">
        <ele>118.86</ele>
        <time>2015-03-29T13:51:28Z</time>
      </trkpt>
      <trkpt lat="43.8072" lon="3.66603">
        <ele>117.42</ele>
        <time>2015-03-29T13:51:29Z</time>
      </trkpt>
      <trkpt lat="43.80701" lon="3.66583">
        <ele>115.98</ele>
        <time>2015-03-29T13:51:30Z</time>
      </trkpt>
      <trkpt lat="43.80684" lon="3.66565">
        <ele>114.53</ele>
        <time>2015-03-29T13:51:31Z</time>
      </trkpt>
      <trkpt lat="43.80667" lon="3.66551">
        <ele>114.05</ele>
        <time>2015-03-29T13:51:32Z</time>
      </trkpt>
      <trkpt lat="43.80649" lon="3.66541">
        <ele>114.05</ele>
        <time>2015-03-29T13:51:33Z</time>
      </trkpt>
      <trkpt lat="43.80627" lon="3.66538">
        <ele>114.05</ele>
        <time>2015-03-29T13:51:34Z</time>
      </trkpt>
      <trkpt lat="43.80608" lon="3.66534">
        <ele>114.05</ele>
        <time>2015-03-29T13:51:35Z</time>
      </trkpt>
      <trkpt lat="43.80588" lon="3.66532">
        <ele>113.09</ele>
        <time>2015-03-29T13:51:36Z</time>
      </trkpt>
      <trkpt lat="43.80571" lon="3.66532">
        <ele>112.61</ele>
        <time>2015-03-29T13:51:37Z</time>
      </trkpt>
      <trkpt lat="43.80554" lon="3.66534">
        <ele>111.65</ele>
        <time>2015-03-29T13:51:38Z</time>
      </trkpt>
      <trkpt lat="43.80538" lon="3.66536">
        <ele>111.17</ele>
        <time>2015-03-29T13:51:39Z</time>
      </trkpt>
      <trkpt lat="43.805" lon="3.6654">
        <ele>109.25</ele>
        <time>2015-03-29T13:51:43Z</time>
      </trkpt>
      <trkpt lat="43.80495" lon="3.66537">
        <ele>109.73</ele>
        <time>2015-03-29T13:51:44Z</time>
      </trkpt>
      <trkpt lat="43.80492" lon="3.66531">
        <ele>109.73</ele>
        <time>2015-03-29T13:51:45Z</time>
      </trkpt>
      <trkpt lat="43.80489" lon="3.66523">
        <ele>109.73</ele>
        <time>2015-03-29T13:51:46Z</time>
      </trkpt>
      <trkpt lat="43.80488" lon="3.66515">
        <ele>109.73</ele>
        <time>2015-03-29T13:51:47Z</time>
      </trkpt>
      <trkpt lat="43.80486" lon="3.66506">
        <ele>110.21</ele>
        <time>2015-03-29T13:51:48Z</time>
      </trkpt>
      <trkpt lat="43.80464" lon="3.66414">
        <ele>110.21</ele>
        <time>2015-03-29T13:51:58Z</time>
      </trkpt>
      <trkpt lat="43.80461" lon="3.66409">
        <ele>110.21</ele>
        <time>2015-03-29T13:51:59Z</time>
      </trkpt>
      <trkpt lat="43.80457" lon="3.66405">
        <ele>110.21</ele>
        <time>2015-03-29T13:52:00Z</time>
      </trkpt>
      <trkpt lat="43.80451" lon="3.66405">
        <ele>110.21</ele>
        <time>2015-03-29T13:52:01Z</time>
      </trkpt>
      <trkpt lat="43.80442" lon="3.66406">
        <ele>109.73</ele>
        <time>2015-03-29T13:52:02Z</time>
      </trkpt>
      <trkpt lat="43.80428" lon="3.66412">
        <ele>109.73</ele>
        <time>2015-03-29T13:52:03Z</time>
      </trkpt>
      <trkpt lat="43.80411" lon="3.66421">
        <ele>110.21</ele>
        <time>2015-03-29T13:52:04Z</time>
      </trkpt>
      <trkpt lat="43.80302" lon="3.66476">
        <ele>113.57</ele>
        <time>2015-03-29T13:52:09Z</time>
      </trkpt>
      <trkpt lat="43.80123" lon="3.66538">
        <ele>127.03</ele>
        <time>2015-03-29T13:52:16Z</time>
      </trkpt>
      <trkpt lat="43.80039" lon="3.66555">
        <ele>134.24</ele>
        <time>2015-03-29T13:52:20Z</time>
      </trkpt>
      <trkpt lat="43.79935" lon="3.66579">
        <ele>144.34</ele>
        <time>2015-03-29T13:52:25Z</time>
      </trkpt>
      <trkpt lat="43.79902" lon="3.66559">
        <ele>152.03</ele>
        <time>2015-03-29T13:52:28Z</time>
      </trkpt>
      <trkpt lat="43.79896" lon="3.6654">
        <ele>152.99</ele>
        <time>2015-03-29T13:52:29Z</time>
      </trkpt>
      <trkpt lat="43.79887" lon="3.66529">
        <ele>154.43</ele>
        <time>2015-03-29T13:52:30Z</time>
      </trkpt>
      <trkpt lat="43.79876" lon="3.66526">
        <ele>155.87</ele>
        <time>2015-03-29T13:52:31Z</time>
      </trkpt>
      <trkpt lat="43.79863" lon="3.66525">
        <ele>157.79</ele>
        <time>2015-03-29T13:52:32Z</time>
      </trkpt>
      <trkpt lat="43.79845" lon="3.66527">
        <ele>159.72</ele>
        <time>2015-03-29T13:52:33Z</time>
      </trkpt>
      <trkpt lat="43.79824" lon="3.66525">
        <ele>160.68</ele>
        <time>2015-03-29T13:52:34Z</time>
      </trkpt>
      <trkpt lat="43.79801" lon="3.66519">
        <ele>162.12</ele>
        <time>2015-03-29T13:52:35Z</time>
      </trkpt>
      <trkpt lat="43.79779" lon="3.66511">
        <ele>164.52</ele>
        <time>2015-03-29T13:52:36Z</time>
      </trkpt>
      <trkpt lat="43.79755" lon="3.66501">
        <ele>166.45</ele>
        <time>2015-03-29T13:52:37Z</time>
      </trkpt>
      <trkpt lat="43.79733" lon="3.6649">
        <ele>167.89</ele>
        <time>2015-03-29T13:52:38Z</time>
      </trkpt>
      <trkpt lat="43.79714" lon="3.66477">
        <ele>169.81</ele>
        <time>2015-03-29T13:52:39Z</time>
      </trkpt>
      <trkpt lat="43.79696" lon="3.66464">
        <ele>171.73</ele>
        <time>2015-03-29T13:52:40Z</time>
      </trkpt>
      <trkpt lat="43.79664" lon="3.66455">
        <ele>174.62</ele>
        <time>2015-03-29T13:52:42Z</time>
      </trkpt>
      <trkpt lat="43.7965" lon="3.66458">
        <ele>176.06</ele>
        <time>2015-03-29T13:52:43Z</time>
      </trkpt>
      <trkpt lat="43.79634" lon="3.66462">
        <ele>178.94</ele>
        <time>2015-03-29T13:52:45Z</time>
      </trkpt>
      <trkpt lat="43.79629" lon="3.66457">
        <ele>179.9</ele>
        <time>2015-03-29T13:52:46Z</time>
      </trkpt>
      <trkpt lat="43.79628" lon="3.6645">
        <ele>180.38</ele>
        <time>2015-03-29T13:52:47Z</time>
      </trkpt>
      <trkpt lat="43.7963" lon="3.66443">
        <ele>180.87</ele>
        <time>2015-03-29T13:52:48Z</time>
      </trkpt>
      <trkpt lat="43.79642" lon="3.66439">
        <ele>180.87</ele>
        <time>2015-03-29T13:52:49Z</time>
      </trkpt>
      <trkpt lat="43.79655" lon="3.66433">
        <ele>181.83</ele>
        <time>2015-03-29T13:52:50Z</time>
      </trkpt>
      <trkpt lat="43.79671" lon="3.66427">
        <ele>182.79</ele>
        <time>2015-03-29T13:52:51Z</time>
      </trkpt>
      <trkpt lat="43.79689" lon="3.66422">
        <ele>183.27</ele>
        <time>2015-03-29T13:52:52Z</time>
      </trkpt>
      <trkpt lat="43.79807" lon="3.66387">
        <ele>195.28</ele>
        <time>2015-03-29T13:52:57Z</time>
      </trkpt>
      <trkpt lat="43.7989" lon="3.66353">
        <ele>202.49</ele>
        <time>2015-03-29T13:53:01Z</time>
      </trkpt>
      <trkpt lat="43.79909" lon="3.66337">
        <ele>204.42</ele>
        <time>2015-03-29T13:53:02Z</time>
      </trkpt>
      <trkpt lat="43.79928" lon="3.66316">
        <ele>205.86</ele>
        <time>2015-03-29T13:53:03Z</time>
      </trkpt>
      <trkpt lat="43.79947" lon="3.66294">
        <ele>207.78</ele>
        <time>2015-03-29T13:53:04Z</time>
      </trkpt>
      <trkpt lat="43.79964" lon="3.66268">
        <ele>210.19</ele>
        <time>2015-03-29T13:53:05Z</time>
      </trkpt>
      <trkpt lat="43.79979" lon="3.66243">
        <ele>212.11</ele>
        <time>2015-03-29T13:53:06Z</time>
      </trkpt>
      <trkpt lat="43.79992" lon="3.6622">
        <ele>214.03</ele>
        <time>2015-03-29T13:53:07Z</time>
      </trkpt>
      <trkpt lat="43.80011" lon="3.66179">
        <ele>217.4</ele>
        <time>2015-03-29T13:53:09Z</time>
      </trkpt>
      <trkpt lat="43.80013" lon="3.66155">
        <ele>218.84</ele>
        <time>2015-03-29T13:53:10Z</time>
      </trkpt>
      <trkpt lat="43.80011" lon="3.66131">
        <ele>220.76</ele>
        <time>2015-03-29T13:53:11Z</time>
      </trkpt>
      <trkpt lat="43.80009" lon="3.66112">
        <ele>222.2</ele>
        <time>2015-03-29T13:53:12Z</time>
      </trkpt>
      <trkpt lat="43.80003" lon="3.6609">
        <ele>223.64</ele>
        <time>2015-03-29T13:53:13Z</time>
      </trkpt>
      <trkpt lat="43.79992" lon="3.66067">
        <ele>225.57</ele>
        <time>2015-03-29T13:53:14Z</time>
      </trkpt>
      <trkpt lat="43.79982" lon="3.66042">
        <ele>227.01</ele>
        <time>2015-03-29T13:53:15Z</time>
      </trkpt>
      <trkpt lat="43.79948" lon="3.65885">
        <ele>230.37</ele>
        <time>2015-03-29T13:53:20Z</time>
      </trkpt>
      <trkpt lat="43.79948" lon="3.65823">
        <ele>230.85</ele>
        <time>2015-03-29T13:53:23Z</time>
      </trkpt>
      <trkpt lat="43.79956" lon="3.65805">
        <ele>230.85</ele>
        <time>2015-03-29T13:53:24Z</time>
      </trkpt>
      <trkpt lat="43.79968" lon="3.65789">
        <ele>230.37</ele>
        <time>2015-03-29T13:53:25Z</time>
      </trkpt>
      <trkpt lat="43.79981" lon="3.65772">
        <ele>231.33</ele>
        <time>2015-03-29T13:53:26Z</time>
      </trkpt>
      <trkpt lat="43.79998" lon="3.65756">
        <ele>231.81</ele>
        <time>2015-03-29T13:53:27Z</time>
      </trkpt>
      <trkpt lat="43.8002" lon="3.65741">
        <ele>231.81</ele>
        <time>2015-03-29T13:53:28Z</time>
      </trkpt>
      <trkpt lat="43.80041" lon="3.65725">
        <ele>230.85</ele>
        <time>2015-03-29T13:53:29Z</time>
      </trkpt>
      <trkpt lat="43.80062" lon="3.65708">
        <ele>230.85</ele>
        <time>2015-03-29T13:53:30Z</time>
      </trkpt>
      <trkpt lat="43.80147" lon="3.65624">
        <ele>232.78</ele>
        <time>2015-03-29T13:53:35Z</time>
      </trkpt>
      <trkpt lat="43.80161" lon="3.65601">
        <ele>233.26</ele>
        <time>2015-03-29T13:53:36Z</time>
      </trkpt>
      <trkpt lat="43.80172" lon="3.65574">
        <ele>233.74</ele>
        <time>2015-03-29T13:53:37Z</time>
      </trkpt>
      <trkpt lat="43.8018" lon="3.65544">
        <ele>234.7</ele>
        <time>2015-03-29T13:53:38Z</time>
      </trkpt>
      <trkpt lat="43.80188" lon="3.65517">
        <ele>235.18</ele>
        <time>2015-03-29T13:53:39Z</time>
      </trkpt>
      <trkpt lat="43.80196" lon="3.65492">
        <ele>236.14</ele>
        <time>2015-03-29T13:53:40Z</time>
      </trkpt>
      <trkpt lat="43.80213" lon="3.65451">
        <ele>237.58</ele>
        <time>2015-03-29T13:53:42Z</time>
      </trkpt>
      <trkpt lat="43.80223" lon="3.65434">
        <ele>238.54</ele>
        <time>2015-03-29T13:53:43Z</time>
      </trkpt>
      <trkpt lat="43.80235" lon="3.6542">
        <ele>239.51</ele>
        <time>2015-03-29T13:53:44Z</time>
      </trkpt>
      <trkpt lat="43.80247" lon="3.65407">
        <ele>240.47</ele>
        <time>2015-03-29T13:53:45Z</time>
      </trkpt>
      <trkpt lat="43.80261" lon="3.65395">
        <ele>240.95</ele>
        <time>2015-03-29T13:53:46Z</time>
      </trkpt>
      <trkpt lat="43.80325" lon="3.65348">
        <ele>241.43</ele>
        <time>2015-03-29T13:53:52Z</time>
      </trkpt>
      <trkpt lat="43.80359" lon="3.65315">
        <ele>240.95</ele>
        <time>2015-03-29T13:53:56Z</time>
      </trkpt>
      <trkpt lat="43.80367" lon="3.65301">
        <ele>240.95</ele>
        <time>2015-03-29T13:53:57Z</time>
      </trkpt>
      <trkpt lat="43.80374" lon="3.65286">
        <ele>241.43</ele>
        <time>2015-03-29T13:53:58Z</time>
      </trkpt>
      <trkpt lat="43.8038" lon="3.65271">
        <ele>241.43</ele>
        <time>2015-03-29T13:53:59Z</time>
      </trkpt>
      <trkpt lat="43.80385" lon="3.65256">
        <ele>241.43</ele>
        <time>2015-03-29T13:54:00Z</time>
      </trkpt>
      <trkpt lat="43.80388" lon="3.65241">
        <ele>241.91</ele>
        <time>2015-03-29T13:54:01Z</time>
      </trkpt>
      <trkpt lat="43.80416" lon="3.65124">
        <ele>245.27</ele>
        <time>2015-03-29T13:54:11Z</time>
      </trkpt>
      <trkpt lat="43.80431" lon="3.65067">
        <ele>246.23</ele>
        <time>2015-03-29T13:54:16Z</time>
      </trkpt>
      <trkpt lat="43.80437" lon="3.65056">
        <ele>246.72</ele>
        <time>2015-03-29T13:54:17Z</time>
      </trkpt>
      <trkpt lat="43.80443" lon="3.65045">
        <ele>247.2</ele>
        <time>2015-03-29T13:54:18Z</time>
      </trkpt>
      <trkpt lat="43.80449" lon="3.65036">
        <ele>247.68</ele>
        <time>2015-03-29T13:54:19Z</time>
      </trkpt>
      <trkpt lat="43.80456" lon="3.65027">
        <ele>248.16</ele>
        <time>2015-03-29T13:54:20Z</time>
      </trkpt>
      <trkpt lat="43.80464" lon="3.6502">
        <ele>248.64</ele>
        <time>2015-03-29T13:54:21Z</time>
      </trkpt>
      <trkpt lat="43.80472" lon="3.65012">
        <ele>248.64</ele>
        <time>2015-03-29T13:54:22Z</time>
      </trkpt>
      <trkpt lat="43.80482" lon="3.65006">
        <ele>249.12</ele>
        <time>2015-03-29T13:54:23Z</time>
      </trkpt>
      <trkpt lat="43.80492" lon="3.64999">
        <ele>249.12</ele>
        <time>2015-03-29T13:54:24Z</time>
      </trkpt>
      <trkpt lat="43.80542" lon="3.64942">
        <ele>250.08</ele>
        <time>2015-03-29T13:54:31Z</time>
      </trkpt>
      <trkpt lat="43.80578" lon="3.64895">
        <ele>250.08</ele>
        <time>2015-03-29T13:54:36Z</time>
      </trkpt>
      <trkpt lat="43.80584" lon="3.64889">
        <ele>250.08</ele>
        <time>2015-03-29T13:54:37Z</time>
      </trkpt>
      <trkpt lat="43.80591" lon="3.64885">
        <ele>250.08</ele>
        <time>2015-03-29T13:54:38Z</time>
      </trkpt>
      <trkpt lat="43.80597" lon="3.64881">
        <ele>250.08</ele>
        <time>2015-03-29T13:54:39Z</time>
      </trkpt>
      <trkpt lat="43.80601" lon="3.64874">
        <ele>250.56</ele>
        <time>2015-03-29T13:54:40Z</time>
      </trkpt>
      <trkpt lat="43.80604" lon="3.64865">
        <ele>250.56</ele>
        <time>2015-03-29T13:54:41Z</time>
      </trkpt>
      <trkpt lat="43.80608" lon="3.64853">
        <ele>250.56</ele>
        <time>2015-03-29T13:54:42Z</time>
      </trkpt>
      <trkpt lat="43.80615" lon="3.64841">
        <ele>250.56</ele>
        <time>2015-03-29T13:54:43Z</time>
      </trkpt>
      <trkpt lat="43.80625" lon="3.64828">
        <ele>250.56</ele>
        <time>2015-03-29T13:54:44Z</time>
      </trkpt>
      <trkpt lat="43.80748" lon="3.64656">
        <ele>252.96</ele>
        <time>2015-03-29T13:54:55Z</time>
      </trkpt>
      <trkpt lat="43.80806" lon="3.64603">
        <ele>254.41</ele>
        <time>2015-03-29T13:54:59Z</time>
      </trkpt>
      <trkpt lat="43.80824" lon="3.64595">
        <ele>254.41</ele>
        <time>2015-03-29T13:55:00Z</time>
      </trkpt>
      <trkpt lat="43.80918" lon="3.64553">
        <ele>258.73</ele>
        <time>2015-03-29T13:55:07Z</time>
      </trkpt>
      <trkpt lat="43.80977" lon="3.64506">
        <ele>262.1</ele>
        <time>2015-03-29T13:55:13Z</time>
      </trkpt>
      <trkpt lat="43.80987" lon="3.64492">
        <ele>263.06</ele>
        <time>2015-03-29T13:55:14Z</time>
      </trkpt>
      <trkpt lat="43.81035" lon="3.64419">
        <ele>267.38</ele>
        <time>2015-03-29T13:55:19Z</time>
      </trkpt>
      <trkpt lat="43.81045" lon="3.64411">
        <ele>268.35</ele>
        <time>2015-03-29T13:55:20Z</time>
      </trkpt>
      <trkpt lat="43.81057" lon="3.64403">
        <ele>269.31</ele>
        <time>2015-03-29T13:55:21Z</time>
      </trkpt>
      <trkpt lat="43.81093" lon="3.64378">
        <ele>271.23</ele>
        <time>2015-03-29T13:55:24Z</time>
      </trkpt>
      <trkpt lat="43.81104" lon="3.64362">
        <ele>272.19</ele>
        <time>2015-03-29T13:55:25Z</time>
      </trkpt>
      <trkpt lat="43.81114" lon="3.64347">
        <ele>272.67</ele>
        <time>2015-03-29T13:55:26Z</time>
      </trkpt>
      <trkpt lat="43.81123" lon="3.64328">
        <ele>273.15</ele>
        <time>2015-03-29T13:55:27Z</time>
      </trkpt>
      <trkpt lat="43.81132" lon="3.64311">
        <ele>273.63</ele>
        <time>2015-03-29T13:55:28Z</time>
      </trkpt>
      <trkpt lat="43.81143" lon="3.64295">
        <ele>273.63</ele>
        <time>2015-03-29T13:55:29Z</time>
      </trkpt>
      <trkpt lat="43.81155" lon="3.64282">
        <ele>274.11</ele>
        <time>2015-03-29T13:55:30Z</time>
      </trkpt>
      <trkpt lat="43.81167" lon="3.64275">
        <ele>274.11</ele>
        <time>2015-03-29T13:55:31Z</time>
      </trkpt>
      <trkpt lat="43.81178" lon="3.6427">
        <ele>274.59</ele>
        <time>2015-03-29T13:55:32Z</time>
      </trkpt>
      <trkpt lat="43.81188" lon="3.64267">
        <ele>275.07</ele>
        <time>2015-03-29T13:55:33Z</time>
      </trkpt>
      <trkpt lat="43.8127" lon="3.64249">
        <ele>277.48</ele>
        <time>2015-03-29T13:55:39Z</time>
      </trkpt>
      <trkpt lat="43.81329" lon="3.64239">
        <ele>280.36</ele>
        <time>2015-03-29T13:55:42Z</time>
      </trkpt>
      <trkpt lat="43.81349" lon="3.64241">
        <ele>281.32</ele>
        <time>2015-03-29T13:55:43Z</time>
      </trkpt>
      <trkpt lat="43.81408" lon="3.64249">
        <ele>283.73</ele>
        <time>2015-03-29T13:55:46Z</time>
      </trkpt>
      <trkpt lat="43.81426" lon="3.64246">
        <ele>284.21</ele>
        <time>2015-03-29T13:55:47Z</time>
      </trkpt>
      <trkpt lat="43.81446" lon="3.64237">
        <ele>284.69</ele>
        <time>2015-03-29T13:55:48Z</time>
      </trkpt>
      <trkpt lat="43.81467" lon="3.64225">
        <ele>285.65</ele>
        <time>2015-03-29T13:55:49Z</time>
      </trkpt>
      <trkpt lat="43.81488" lon="3.64213">
        <ele>286.61</ele>
        <time>2015-03-29T13:55:50Z</time>
      </trkpt>
      <trkpt lat="43.81632" lon="3.64116">
        <ele>290.94</ele>
        <time>2015-03-29T13:55:57Z</time>
      </trkpt>
      <trkpt lat="43.81645" lon="3.641">
        <ele>291.42</ele>
        <time>2015-03-29T13:55:58Z</time>
      </trkpt>
      <trkpt lat="43.81658" lon="3.6408">
        <ele>291.9</ele>
        <time>2015-03-29T13:55:59Z</time>
      </trkpt>
      <trkpt lat="43.81668" lon="3.64056">
        <ele>291.9</ele>
        <time>2015-03-29T13:56:00Z</time>
      </trkpt>
      <trkpt lat="43.81674" lon="3.64025">
        <ele>293.34</ele>
        <time>2015-03-29T13:56:01Z</time>
      </trkpt>
      <trkpt lat="43.81682" lon="3.63993">
        <ele>293.82</ele>
        <time>2015-03-29T13:56:02Z</time>
      </trkpt>
      <trkpt lat="43.81747" lon="3.63717">
        <ele>296.7</ele>
        <time>2015-03-29T13:56:10Z</time>
      </trkpt>
      <trkpt lat="43.8177" lon="3.63571">
        <ele>299.59</ele>
        <time>2015-03-29T13:56:15Z</time>
      </trkpt>
      <trkpt lat="43.81768" lon="3.63547">
        <ele>299.59</ele>
        <time>2015-03-29T13:56:16Z</time>
      </trkpt>
      <trkpt lat="43.81764" lon="3.63518">
        <ele>300.07</ele>
        <time>2015-03-29T13:56:17Z</time>
      </trkpt>
      <trkpt lat="43.81725" lon="3.63313">
        <ele>301.99</ele>
        <time>2015-03-29T13:56:23Z</time>
      </trkpt>
      <trkpt lat="43.81679" lon="3.63091">
        <ele>304.39</ele>
        <time>2015-03-29T13:56:28Z</time>
      </trkpt>
      <trkpt lat="43.81609" lon="3.62771">
        <ele>309.68</ele>
        <time>2015-03-29T13:56:34Z</time>
      </trkpt>
      <trkpt lat="43.81568" lon="3.62576">
        <ele>315.45</ele>
        <time>2015-03-29T13:56:39Z</time>
      </trkpt>
      <trkpt lat="43.81549" lon="3.62447">
        <ele>318.33</ele>
        <time>2015-03-29T13:56:43Z</time>
      </trkpt>
      <trkpt lat="43.81551" lon="3.62413">
        <ele>318.81</ele>
        <time>2015-03-29T13:56:44Z</time>
      </trkpt>
      <trkpt lat="43.81554" lon="3.62378">
        <ele>319.3</ele>
        <time>2015-03-29T13:56:45Z</time>
      </trkpt>
      <trkpt lat="43.8157" lon="3.62194">
        <ele>325.06</ele>
        <time>2015-03-29T13:56:51Z</time>
      </trkpt>
      <trkpt lat="43.81578" lon="3.62172">
        <ele>325.06</ele>
        <time>2015-03-29T13:56:52Z</time>
      </trkpt>
      <trkpt lat="43.81588" lon="3.62149">
        <ele>325.54</ele>
        <time>2015-03-29T13:56:53Z</time>
      </trkpt>
      <trkpt lat="43.81599" lon="3.62126">
        <ele>325.54</ele>
        <time>2015-03-29T13:56:54Z</time>
      </trkpt>
      <trkpt lat="43.81609" lon="3.62104">
        <ele>325.54</ele>
        <time>2015-03-29T13:56:55Z</time>
      </trkpt>
      <trkpt lat="43.81648" lon="3.61975">
        <ele>322.66</ele>
        <time>2015-03-29T13:57:01Z</time>
      </trkpt>
      <trkpt lat="43.8165" lon="3.61953">
        <ele>321.22</ele>
        <time>2015-03-29T13:57:03Z</time>
      </trkpt>
      <trkpt lat="43.81649" lon="3.61946">
        <ele>319.78</ele>
        <time>2015-03-29T13:57:04Z</time>
      </trkpt>
      <trkpt lat="43.81648" lon="3.61942">
        <ele>319.3</ele>
        <time>2015-03-29T13:57:05Z</time>
      </trkpt>
      <trkpt lat="43.81648" lon="3.6194">
        <ele>319.3</ele>
        <time>2015-03-29T13:57:06Z</time>
      </trkpt>
      <trkpt lat="43.81648" lon="3.61939">
        <ele>318.81</ele>
        <time>2015-03-29T13:57:07Z</time>
      </trkpt>
      <trkpt lat="43.81648" lon="3.61937">
        <ele>318.81</ele>
        <time>2015-03-29T13:57:08Z</time>
      </trkpt>
      <trkpt lat="43.81648" lon="3.61935">
        <ele>318.33</ele>
        <time>2015-03-29T13:57:09Z</time>
      </trkpt>
      <trkpt lat="43.81647" lon="3.61934">
        <ele>317.85</ele>
        <time>2015-03-29T13:57:10Z</time>
      </trkpt>
      <trkpt lat="43.81646" lon="3.61931">
        <ele>316.89</ele>
        <time>2015-03-29T13:57:16Z</time>
      </trkpt>
      <trkpt lat="43.81644" lon="3.61929">
        <ele>316.41</ele>
        <time>2015-03-29T13:57:17Z</time>
      </trkpt>
      <trkpt lat="43.81641" lon="3.61927">
        <ele>316.41</ele>
        <time>2015-03-29T13:57:18Z</time>
      </trkpt>
      <trkpt lat="43.81638" lon="3.61926">
        <ele>315.93</ele>
        <time>2015-03-29T13:57:19Z</time>
      </trkpt>
      <trkpt lat="43.81635" lon="3.61924">
        <ele>315.45</ele>
        <time>2015-03-29T13:57:20Z</time>
      </trkpt>
      <trkpt lat="43.81632" lon="3.61921">
        <ele>314.97</ele>
        <time>2015-03-29T13:57:21Z</time>
      </trkpt>
      <trkpt lat="43.81627" lon="3.61917">
        <ele>314.97</ele>
        <time>2015-03-29T13:57:22Z</time>
      </trkpt>
      <trkpt lat="43.81622" lon="3.61909">
        <ele>314.49</ele>
        <time>2015-03-29T13:57:23Z</time>
      </trkpt>
      <trkpt lat="43.81618" lon="3.61895">
        <ele>313.53</ele>
        <time>2015-03-29T13:57:24Z</time>
      </trkpt>
      <trkpt lat="43.81618" lon="3.61877">
        <ele>313.05</ele>
        <time>2015-03-29T13:57:25Z</time>
      </trkpt>
      <trkpt lat="43.81621" lon="3.61859">
        <ele>312.09</ele>
        <time>2015-03-29T13:57:26Z</time>
      </trkpt>
      <trkpt lat="43.81624" lon="3.6184">
        <ele>310.64</ele>
        <time>2015-03-29T13:57:27Z</time>
      </trkpt>
      <trkpt lat="43.81629" lon="3.61824">
        <ele>309.68</ele>
        <time>2015-03-29T13:57:28Z</time>
      </trkpt>
      <trkpt lat="43.81632" lon="3.61808">
        <ele>308.72</ele>
        <time>2015-03-29T13:57:29Z</time>
      </trkpt>
      <trkpt lat="43.81633" lon="3.61791">
        <ele>307.28</ele>
        <time>2015-03-29T13:57:30Z</time>
      </trkpt>
      <trkpt lat="43.81633" lon="3.61775">
        <ele>306.8</ele>
        <time>2015-03-29T13:57:31Z</time>
      </trkpt>
      <trkpt lat="43.81632" lon="3.61759">
        <ele>305.84</ele>
        <time>2015-03-29T13:57:32Z</time>
      </trkpt>
      <trkpt lat="43.81631" lon="3.61744">
        <ele>304.88</ele>
        <time>2015-03-29T13:57:33Z</time>
      </trkpt>
      <trkpt lat="43.81632" lon="3.61729">
        <ele>303.91</ele>
        <time>2015-03-29T13:57:34Z</time>
      </trkpt>
      <trkpt lat="43.81636" lon="3.61716">
        <ele>302.95</ele>
        <time>2015-03-29T13:57:35Z</time>
      </trkpt>
      <trkpt lat="43.81642" lon="3.61703">
        <ele>301.51</ele>
        <time>2015-03-29T13:57:36Z</time>
      </trkpt>
      <trkpt lat="43.81647" lon="3.61689">
        <ele>300.55</ele>
        <time>2015-03-29T13:57:37Z</time>
      </trkpt>
      <trkpt lat="43.81651" lon="3.61675">
        <ele>299.11</ele>
        <time>2015-03-29T13:57:38Z</time>
      </trkpt>
      <trkpt lat="43.81652" lon="3.6166">
        <ele>298.15</ele>
        <time>2015-03-29T13:57:39Z</time>
      </trkpt>
      <trkpt lat="43.8165" lon="3.61645">
        <ele>297.18</ele>
        <time>2015-03-29T13:57:40Z</time>
      </trkpt>
      <trkpt lat="43.8164" lon="3.61629">
        <ele>294.3</ele>
        <time>2015-03-29T13:57:41Z</time>
      </trkpt>
      <trkpt lat="43.8163" lon="3.61616">
        <ele>292.86</ele>
        <time>2015-03-29T13:57:42Z</time>
      </trkpt>
      <trkpt lat="43.81621" lon="3.61604">
        <ele>291.9</ele>
        <time>2015-03-29T13:57:43Z</time>
      </trkpt>
      <trkpt lat="43.81613" lon="3.61593">
        <ele>290.46</ele>
        <time>2015-03-29T13:57:44Z</time>
      </trkpt>
      <trkpt lat="43.81607" lon="3.61577">
        <ele>289.49</ele>
        <time>2015-03-29T13:57:45Z</time>
      </trkpt>
      <trkpt lat="43.81605" lon="3.61559">
        <ele>288.05</ele>
        <time>2015-03-29T13:57:46Z</time>
      </trkpt>
      <trkpt lat="43.81605" lon="3.6154">
        <ele>286.61</ele>
        <time>2015-03-29T13:57:47Z</time>
      </trkpt>
      <trkpt lat="43.81603" lon="3.61522">
        <ele>285.17</ele>
        <time>2015-03-29T13:57:48Z</time>
      </trkpt>
      <trkpt lat="43.81599" lon="3.61511">
        <ele>283.73</ele>
        <time>2015-03-29T13:57:49Z</time>
      </trkpt>
      <trkpt lat="43.81592" lon="3.61499">
        <ele>281.8</ele>
        <time>2015-03-29T13:57:50Z</time>
      </trkpt>
      <trkpt lat="43.81583" lon="3.6149">
        <ele>281.32</ele>
        <time>2015-03-29T13:57:51Z</time>
      </trkpt>
      <trkpt lat="43.81576" lon="3.61478">
        <ele>279.88</ele>
        <time>2015-03-29T13:57:52Z</time>
      </trkpt>
      <trkpt lat="43.81572" lon="3.61463">
        <ele>278.44</ele>
        <time>2015-03-29T13:57:53Z</time>
      </trkpt>
      <trkpt lat="43.81571" lon="3.61443">
        <ele>277.48</ele>
        <time>2015-03-29T13:57:54Z</time>
      </trkpt>
      <trkpt lat="43.81572" lon="3.61425">
        <ele>277</ele>
        <time>2015-03-29T13:57:55Z</time>
      </trkpt>
      <trkpt lat="43.81573" lon="3.61407">
        <ele>276.04</ele>
        <time>2015-03-29T13:57:56Z</time>
      </trkpt>
      <trkpt lat="43.81572" lon="3.61393">
        <ele>274.59</ele>
        <time>2015-03-29T13:57:57Z</time>
      </trkpt>
      <trkpt lat="43.81568" lon="3.61383">
        <ele>273.63</ele>
        <time>2015-03-29T13:57:58Z</time>
      </trkpt>
      <trkpt lat="43.81563" lon="3.61376">
        <ele>272.19</ele>
        <time>2015-03-29T13:57:59Z</time>
      </trkpt>
      <trkpt lat="43.81558" lon="3.61371">
        <ele>271.23</ele>
        <time>2015-03-29T13:58:00Z</time>
      </trkpt>
      <trkpt lat="43.81555" lon="3.61365">
        <ele>270.75</ele>
        <time>2015-03-29T13:58:01Z</time>
      </trkpt>
      <trkpt lat="43.81554" lon="3.61359">
        <ele>269.79</ele>
        <time>2015-03-29T13:58:02Z</time>
      </trkpt>
      <trkpt lat="43.81559" lon="3.61361">
        <ele>268.83</ele>
        <time>2015-03-29T13:58:03Z</time>
      </trkpt>
      <trkpt lat="43.81566" lon="3.61368">
        <ele>268.35</ele>
        <time>2015-03-29T13:58:04Z</time>
      </trkpt>
      <trkpt lat="43.81573" lon="3.61378">
        <ele>267.38</ele>
        <time>2015-03-29T13:58:05Z</time>
      </trkpt>
      <trkpt lat="43.81581" lon="3.61393">
        <ele>265.94</ele>
        <time>2015-03-29T13:58:06Z</time>
      </trkpt>
      <trkpt lat="43.81585" lon="3.61411">
        <ele>264.98</ele>
        <time>2015-03-29T13:58:07Z</time>
      </trkpt>
      <trkpt lat="43.81587" lon="3.6143">
        <ele>264.02</ele>
        <time>2015-03-29T13:58:08Z</time>
      </trkpt>
      <trkpt lat="43.8159" lon="3.61449">
        <ele>263.54</ele>
        <time>2015-03-29T13:58:09Z</time>
      </trkpt>
      <trkpt lat="43.81595" lon="3.61466">
        <ele>262.1</ele>
        <time>2015-03-29T13:58:10Z</time>
      </trkpt>
      <trkpt lat="43.81605" lon="3.6148">
        <ele>261.14</ele>
        <time>2015-03-29T13:58:11Z</time>
      </trkpt>
      <trkpt lat="43.81619" lon="3.61493">
        <ele>260.17</ele>
        <time>2015-03-29T13:58:12Z</time>
      </trkpt>
      <trkpt lat="43.81632" lon="3.61507">
        <ele>259.21</ele>
        <time>2015-03-29T13:58:13Z</time>
      </trkpt>
      <trkpt lat="43.81643" lon="3.61524">
        <ele>258.25</ele>
        <time>2015-03-29T13:58:14Z</time>
      </trkpt>
      <trkpt lat="43.81653" lon="3.61541">
        <ele>257.29</ele>
        <time>2015-03-29T13:58:15Z</time>
      </trkpt>
      <trkpt lat="43.81664" lon="3.61556">
        <ele>256.33</ele>
        <time>2015-03-29T13:58:16Z</time>
      </trkpt>
      <trkpt lat="43.81677" lon="3.61568">
        <ele>254.89</ele>
        <time>2015-03-29T13:58:17Z</time>
      </trkpt>
      <trkpt lat="43.81692" lon="3.61578">
        <ele>254.41</ele>
        <time>2015-03-29T13:58:18Z</time>
      </trkpt>
      <trkpt lat="43.81706" lon="3.61591">
        <ele>252.96</ele>
        <time>2015-03-29T13:58:19Z</time>
      </trkpt>
      <trkpt lat="43.81718" lon="3.61605">
        <ele>251.52</ele>
        <time>2015-03-29T13:58:20Z</time>
      </trkpt>
      <trkpt lat="43.81727" lon="3.61621">
        <ele>250.56</ele>
        <time>2015-03-29T13:58:21Z</time>
      </trkpt>
      <trkpt lat="43.81735" lon="3.61639">
        <ele>249.12</ele>
        <time>2015-03-29T13:58:22Z</time>
      </trkpt>
      <trkpt lat="43.81738" lon="3.61658">
        <ele>247.68</ele>
        <time>2015-03-29T13:58:23Z</time>
      </trkpt>
      <trkpt lat="43.81736" lon="3.61677">
        <ele>247.2</ele>
        <time>2015-03-29T13:58:24Z</time>
      </trkpt>
      <trkpt lat="43.8173" lon="3.61696">
        <ele>246.23</ele>
        <time>2015-03-29T13:58:25Z</time>
      </trkpt>
      <trkpt lat="43.81725" lon="3.61713">
        <ele>244.79</ele>
        <time>2015-03-29T13:58:26Z</time>
      </trkpt>
      <trkpt lat="43.81722" lon="3.61729">
        <ele>243.83</ele>
        <time>2015-03-29T13:58:27Z</time>
      </trkpt>
      <trkpt lat="43.81723" lon="3.61742">
        <ele>242.39</ele>
        <time>2015-03-29T13:58:28Z</time>
      </trkpt>
      <trkpt lat="43.81729" lon="3.61752">
        <ele>240.95</ele>
        <time>2015-03-29T13:58:29Z</time>
      </trkpt>
      <trkpt lat="43.81738" lon="3.61759">
        <ele>239.99</ele>
        <time>2015-03-29T13:58:30Z</time>
      </trkpt>
      <trkpt lat="43.81748" lon="3.61766">
        <ele>238.54</ele>
        <time>2015-03-29T13:58:31Z</time>
      </trkpt>
      <trkpt lat="43.81761" lon="3.61772">
        <ele>237.58</ele>
        <time>2015-03-29T13:58:32Z</time>
      </trkpt>
      <trkpt lat="43.81774" lon="3.61777">
        <ele>235.66</ele>
        <time>2015-03-29T13:58:33Z</time>
      </trkpt>
      <trkpt lat="43.81786" lon="3.61784">
        <ele>234.7</ele>
        <time>2015-03-29T13:58:34Z</time>
      </trkpt>
      <trkpt lat="43.81795" lon="3.61795">
        <ele>233.74</ele>
        <time>2015-03-29T13:58:35Z</time>
      </trkpt>
      <trkpt lat="43.818" lon="3.61811">
        <ele>232.3</ele>
        <time>2015-03-29T13:58:36Z</time>
      </trkpt>
      <trkpt lat="43.81803" lon="3.61828">
        <ele>231.33</ele>
        <time>2015-03-29T13:58:37Z</time>
      </trkpt>
      <trkpt lat="43.81805" lon="3.61843">
        <ele>229.89</ele>
        <time>2015-03-29T13:58:38Z</time>
      </trkpt>
      <trkpt lat="43.81811" lon="3.61854">
        <ele>228.93</ele>
        <time>2015-03-29T13:58:39Z</time>
      </trkpt>
      <trkpt lat="43.8182" lon="3.61861">
        <ele>227.49</ele>
        <time>2015-03-29T13:58:40Z</time>
      </trkpt>
      <trkpt lat="43.81832" lon="3.61861">
        <ele>227.01</ele>
        <time>2015-03-29T13:58:41Z</time>
      </trkpt>
      <trkpt lat="43.81843" lon="3.61859">
        <ele>226.05</ele>
        <time>2015-03-29T13:58:42Z</time>
      </trkpt>
      <trkpt lat="43.81854" lon="3.61858">
        <ele>225.09</ele>
        <time>2015-03-29T13:58:43Z</time>
      </trkpt>
      <trkpt lat="43.81863" lon="3.6186">
        <ele>224.12</ele>
        <time>2015-03-29T13:58:44Z</time>
      </trkpt>
      <trkpt lat="43.81869" lon="3.61869">
        <ele>223.16</ele>
        <time>2015-03-29T13:58:45Z</time>
      </trkpt>
      <trkpt lat="43.81871" lon="3.61882">
        <ele>222.68</ele>
        <time>2015-03-29T13:58:46Z</time>
      </trkpt>
      <trkpt lat="43.81869" lon="3.61897">
        <ele>222.2</ele>
        <time>2015-03-29T13:58:47Z</time>
      </trkpt>
      <trkpt lat="43.81864" lon="3.61911">
        <ele>221.72</ele>
        <time>2015-03-29T13:58:48Z</time>
      </trkpt>
      <trkpt lat="43.81856" lon="3.61925">
        <ele>221.24</ele>
        <time>2015-03-29T13:58:49Z</time>
      </trkpt>
      <trkpt lat="43.81847" lon="3.61939">
        <ele>220.28</ele>
        <time>2015-03-29T13:58:50Z</time>
      </trkpt>
      <trkpt lat="43.8184" lon="3.61952">
        <ele>219.8</ele>
        <time>2015-03-29T13:58:51Z</time>
      </trkpt>
      <trkpt lat="43.81836" lon="3.61964">
        <ele>218.36</ele>
        <time>2015-03-29T13:58:52Z</time>
      </trkpt>
      <trkpt lat="43.81836" lon="3.61974">
        <ele>217.4</ele>
        <time>2015-03-29T13:58:53Z</time>
      </trkpt>
      <trkpt lat="43.81841" lon="3.61982">
        <ele>215.95</ele>
        <time>2015-03-29T13:58:54Z</time>
      </trkpt>
      <trkpt lat="43.8185" lon="3.61982">
        <ele>215.95</ele>
        <time>2015-03-29T13:58:55Z</time>
      </trkpt>
      <trkpt lat="43.8186" lon="3.61985">
        <ele>214.99</ele>
        <time>2015-03-29T13:58:56Z</time>
      </trkpt>
      <trkpt lat="43.81873" lon="3.61985">
        <ele>214.51</ele>
        <time>2015-03-29T13:58:57Z</time>
      </trkpt>
      <trkpt lat="43.81888" lon="3.61982">
        <ele>214.03</ele>
        <time>2015-03-29T13:58:58Z</time>
      </trkpt>
      <trkpt lat="43.81903" lon="3.61977">
        <ele>213.07</ele>
        <time>2015-03-29T13:58:59Z</time>
      </trkpt>
      <trkpt lat="43.81916" lon="3.61973">
        <ele>212.11</ele>
        <time>2015-03-29T13:59:00Z</time>
      </trkpt>
      <trkpt lat="43.81929" lon="3.61971">
        <ele>210.67</ele>
        <time>2015-03-29T13:59:01Z</time>
      </trkpt>
      <trkpt lat="43.8194" lon="3.61967">
        <ele>209.22</ele>
        <time>2015-03-29T13:59:02Z</time>
      </trkpt>
      <trkpt lat="43.8195" lon="3.61961">
        <ele>207.78</ele>
        <time>2015-03-29T13:59:03Z</time>
      </trkpt>
      <trkpt lat="43.81959" lon="3.61952">
        <ele>206.82</ele>
        <time>2015-03-29T13:59:04Z</time>
      </trkpt>
      <trkpt lat="43.81969" lon="3.61944">
        <ele>205.86</ele>
        <time>2015-03-29T13:59:05Z</time>
      </trkpt>
      <trkpt lat="43.81979" lon="3.61938">
        <ele>204.42</ele>
        <time>2015-03-29T13:59:06Z</time>
      </trkpt>
      <trkpt lat="43.81992" lon="3.61935">
        <ele>202.49</ele>
        <time>2015-03-29T13:59:07Z</time>
      </trkpt>
      <trkpt lat="43.82006" lon="3.61935">
        <ele>201.05</ele>
        <time>2015-03-29T13:59:08Z</time>
      </trkpt>
      <trkpt lat="43.82022" lon="3.61936">
        <ele>200.09</ele>
        <time>2015-03-29T13:59:09Z</time>
      </trkpt>
      <trkpt lat="43.8204" lon="3.61934">
        <ele>199.13</ele>
        <time>2015-03-29T13:59:10Z</time>
      </trkpt>
      <trkpt lat="43.8206" lon="3.61926">
        <ele>197.69</ele>
        <time>2015-03-29T13:59:11Z</time>
      </trkpt>
      <trkpt lat="43.8208" lon="3.61917">
        <ele>196.25</ele>
        <time>2015-03-29T13:59:12Z</time>
      </trkpt>
      <trkpt lat="43.82129" lon="3.61902">
        <ele>191.92</ele>
        <time>2015-03-29T13:59:15Z</time>
      </trkpt>
      <trkpt lat="43.82144" lon="3.61906">
        <ele>190.96</ele>
        <time>2015-03-29T13:59:16Z</time>
      </trkpt>
      <trkpt lat="43.82156" lon="3.61914">
        <ele>189.52</ele>
        <time>2015-03-29T13:59:17Z</time>
      </trkpt>
      <trkpt lat="43.82166" lon="3.61924">
        <ele>188.08</ele>
        <time>2015-03-29T13:59:18Z</time>
      </trkpt>
      <trkpt lat="43.82172" lon="3.61941">
        <ele>187.59</ele>
        <time>2015-03-29T13:59:19Z</time>
      </trkpt>
      <trkpt lat="43.82179" lon="3.61956">
        <ele>186.63</ele>
        <time>2015-03-29T13:59:20Z</time>
      </trkpt>
      <trkpt lat="43.82187" lon="3.61967">
        <ele>186.63</ele>
        <time>2015-03-29T13:59:21Z</time>
      </trkpt>
      <trkpt lat="43.82196" lon="3.61977">
        <ele>185.19</ele>
        <time>2015-03-29T13:59:22Z</time>
      </trkpt>
      <trkpt lat="43.82206" lon="3.61977">
        <ele>185.19</ele>
        <time>2015-03-29T13:59:23Z</time>
      </trkpt>
      <trkpt lat="43.82219" lon="3.61972">
        <ele>184.23</ele>
        <time>2015-03-29T13:59:24Z</time>
      </trkpt>
      <trkpt lat="43.82236" lon="3.61967">
        <ele>183.27</ele>
        <time>2015-03-29T13:59:25Z</time>
      </trkpt>
      <trkpt lat="43.82253" lon="3.6196">
        <ele>181.83</ele>
        <time>2015-03-29T13:59:26Z</time>
      </trkpt>
      <trkpt lat="43.82272" lon="3.6195">
        <ele>180.38</ele>
        <time>2015-03-29T13:59:27Z</time>
      </trkpt>
      <trkpt lat="43.82292" lon="3.61942">
        <ele>178.46</ele>
        <time>2015-03-29T13:59:28Z</time>
      </trkpt>
      <trkpt lat="43.82449" lon="3.61886">
        <ele>166.93</ele>
        <time>2015-03-29T13:59:36Z</time>
      </trkpt>
      <trkpt lat="43.82484" lon="3.61845">
        <ele>164.52</ele>
        <time>2015-03-29T13:59:41Z</time>
      </trkpt>
      <trkpt lat="43.8248" lon="3.61842">
        <ele>170.29</ele>
        <time>2015-03-29T13:59:46Z</time>
      </trkpt>
      <trkpt lat="43.82501" lon="3.61822">
        <ele>176.54</ele>
        <time>2015-03-29T13:59:55Z</time>
      </trkpt>
      <trkpt lat="43.82513" lon="3.61818">
        <ele>176.06</ele>
        <time>2015-03-29T13:59:56Z</time>
      </trkpt>
      <trkpt lat="43.82569" lon="3.61811">
        <ele>176.54</ele>
        <time>2015-03-29T14:00:01Z</time>
      </trkpt>
      <trkpt lat="43.82577" lon="3.61808">
        <ele>176.06</ele>
        <time>2015-03-29T14:00:02Z</time>
      </trkpt>
      <trkpt lat="43.82581" lon="3.61801">
        <ele>175.58</ele>
        <time>2015-03-29T14:00:03Z</time>
      </trkpt>
      <trkpt lat="43.82585" lon="3.61793">
        <ele>174.62</ele>
        <time>2015-03-29T14:00:04Z</time>
      </trkpt>
      <trkpt lat="43.82587" lon="3.61784">
        <ele>174.62</ele>
        <time>2015-03-29T14:00:05Z</time>
      </trkpt>
      <trkpt lat="43.82588" lon="3.61775">
        <ele>173.66</ele>
        <time>2015-03-29T14:00:06Z</time>
      </trkpt>
      <trkpt lat="43.8259" lon="3.61767">
        <ele>172.69</ele>
        <time>2015-03-29T14:00:07Z</time>
      </trkpt>
      <trkpt lat="43.82593" lon="3.61761">
        <ele>171.73</ele>
        <time>2015-03-29T14:00:08Z</time>
      </trkpt>
      <trkpt lat="43.82598" lon="3.61759">
        <ele>170.77</ele>
        <time>2015-03-29T14:00:09Z</time>
      </trkpt>
      <trkpt lat="43.82604" lon="3.61759">
        <ele>169.81</ele>
        <time>2015-03-29T14:00:10Z</time>
      </trkpt>
      <trkpt lat="43.8261" lon="3.61761">
        <ele>169.33</ele>
        <time>2015-03-29T14:00:11Z</time>
      </trkpt>
      <trkpt lat="43.82616" lon="3.61764">
        <ele>168.85</ele>
        <time>2015-03-29T14:00:12Z</time>
      </trkpt>
      <trkpt lat="43.82622" lon="3.61768">
        <ele>168.37</ele>
        <time>2015-03-29T14:00:13Z</time>
      </trkpt>
      <trkpt lat="43.82628" lon="3.61772">
        <ele>167.89</ele>
        <time>2015-03-29T14:00:14Z</time>
      </trkpt>
      <trkpt lat="43.82662" lon="3.61798">
        <ele>165.48</ele>
        <time>2015-03-29T14:00:20Z</time>
      </trkpt>
      <trkpt lat="43.82668" lon="3.61801">
        <ele>165</ele>
        <time>2015-03-29T14:00:21Z</time>
      </trkpt>
      <trkpt lat="43.82675" lon="3.61803">
        <ele>165</ele>
        <time>2015-03-29T14:00:22Z</time>
      </trkpt>
      <trkpt lat="43.82681" lon="3.61803">
        <ele>165</ele>
        <time>2015-03-29T14:00:23Z</time>
      </trkpt>
      <trkpt lat="43.82687" lon="3.61803">
        <ele>165</ele>
        <time>2015-03-29T14:00:24Z</time>
      </trkpt>
      <trkpt lat="43.827" lon="3.61802">
        <ele>164.04</ele>
        <time>2015-03-29T14:00:26Z</time>
      </trkpt>
      <trkpt lat="43.82706" lon="3.618">
        <ele>164.04</ele>
        <time>2015-03-29T14:00:27Z</time>
      </trkpt>
      <trkpt lat="43.82712" lon="3.61798">
        <ele>164.04</ele>
        <time>2015-03-29T14:00:28Z</time>
      </trkpt>
      <trkpt lat="43.82718" lon="3.61795">
        <ele>164.04</ele>
        <time>2015-03-29T14:00:29Z</time>
      </trkpt>
      <trkpt lat="43.82723" lon="3.61791">
        <ele>164.04</ele>
        <time>2015-03-29T14:00:30Z</time>
      </trkpt>
      <trkpt lat="43.82728" lon="3.61787">
        <ele>164.04</ele>
        <time>2015-03-29T14:00:31Z</time>
      </trkpt>
      <trkpt lat="43.82755" lon="3.6176">
        <ele>164.52</ele>
        <time>2015-03-29T14:00:37Z</time>
      </trkpt>
      <trkpt lat="43.8276" lon="3.61758">
        <ele>164.52</ele>
        <time>2015-03-29T14:00:38Z</time>
      </trkpt>
      <trkpt lat="43.82766" lon="3.61756">
        <ele>165.48</ele>
        <time>2015-03-29T14:00:39Z</time>
      </trkpt>
      <trkpt lat="43.82814" lon="3.61745">
        <ele>176.06</ele>
        <time>2015-03-29T14:00:49Z</time>
      </trkpt>
      <trkpt lat="43.82831" lon="3.61745">
        <ele>180.87</ele>
        <time>2015-03-29T14:00:51Z</time>
      </trkpt>
      <trkpt lat="43.82841" lon="3.61745">
        <ele>184.23</ele>
        <time>2015-03-29T14:00:53Z</time>
      </trkpt>
      <trkpt lat="43.82844" lon="3.61747">
        <ele>184.23</ele>
        <time>2015-03-29T14:00:54Z</time>
      </trkpt>
      <trkpt lat="43.82846" lon="3.61747">
        <ele>183.27</ele>
        <time>2015-03-29T14:00:55Z</time>
      </trkpt>
      <trkpt lat="43.82847" lon="3.61746">
        <ele>181.35</ele>
        <time>2015-03-29T14:00:56Z</time>
      </trkpt>
      <trkpt lat="43.82848" lon="3.61743">
        <ele>180.38</ele>
        <time>2015-03-29T14:00:57Z</time>
      </trkpt>
      <trkpt lat="43.8285" lon="3.61739">
        <ele>180.38</ele>
        <time>2015-03-29T14:00:58Z</time>
      </trkpt>
      <trkpt lat="43.8285" lon="3.61734">
        <ele>180.87</ele>
        <time>2015-03-29T14:00:59Z</time>
      </trkpt>
      <trkpt lat="43.82852" lon="3.61729">
        <ele>180.87</ele>
        <time>2015-03-29T14:01:00Z</time>
      </trkpt>
      <trkpt lat="43.82864" lon="3.61676">
        <ele>177.98</ele>
        <time>2015-03-29T14:01:11Z</time>
      </trkpt>
      <trkpt lat="43.82863" lon="3.6167">
        <ele>178.94</ele>
        <time>2015-03-29T14:01:13Z</time>
      </trkpt>
      <trkpt lat="43.82856" lon="3.6163">
        <ele>177.02</ele>
        <time>2015-03-29T14:01:22Z</time>
      </trkpt>
      <trkpt lat="43.8285" lon="3.61623">
        <ele>176.54</ele>
        <time>2015-03-29T14:01:26Z</time>
      </trkpt>
      <trkpt lat="43.82849" lon="3.61623">
        <ele>176.54</ele>
        <time>2015-03-29T14:01:27Z</time>
      </trkpt>
      <trkpt lat="43.82847" lon="3.61624">
        <ele>176.06</ele>
        <time>2015-03-29T14:01:28Z</time>
      </trkpt>
      <trkpt lat="43.82846" lon="3.61625">
        <ele>176.06</ele>
        <time>2015-03-29T14:01:29Z</time>
      </trkpt>
      <trkpt lat="43.82845" lon="3.61626">
        <ele>175.58</ele>
        <time>2015-03-29T14:01:30Z</time>
      </trkpt>
      <trkpt lat="43.82845" lon="3.61627">
        <ele>175.58</ele>
        <time>2015-03-29T14:01:31Z</time>
      </trkpt>
      <trkpt lat="43.82844" lon="3.61629">
        <ele>175.1</ele>
        <time>2015-03-29T14:01:32Z</time>
      </trkpt>
      <trkpt lat="43.82845" lon="3.61631">
        <ele>174.62</ele>
        <time>2015-03-29T14:01:33Z</time>
      </trkpt>
      <trkpt lat="43.82845" lon="3.61634">
        <ele>174.62</ele>
        <time>2015-03-29T14:01:34Z</time>
      </trkpt>
      <trkpt lat="43.82845" lon="3.61637">
        <ele>174.14</ele>
        <time>2015-03-29T14:01:35Z</time>
      </trkpt>
      <trkpt lat="43.82846" lon="3.6164">
        <ele>173.66</ele>
        <time>2015-03-29T14:01:36Z</time>
      </trkpt>
      <trkpt lat="43.82846" lon="3.61642">
        <ele>173.17</ele>
        <time>2015-03-29T14:01:37Z</time>
      </trkpt>
      <trkpt lat="43.82846" lon="3.61643">
        <ele>173.17</ele>
        <time>2015-03-29T14:01:38Z</time>
      </trkpt>
      <trkpt lat="43.82847" lon="3.61648">
        <ele>170.29</ele>
        <time>2015-03-29T14:01:50Z</time>
      </trkpt>
      <trkpt lat="43.82849" lon="3.61647">
        <ele>171.25</ele>
        <time>2015-03-29T14:01:51Z</time>
      </trkpt>
      <trkpt lat="43.8285" lon="3.61646">
        <ele>170.29</ele>
        <time>2015-03-29T14:01:52Z</time>
      </trkpt>
      <trkpt lat="43.82851" lon="3.61645">
        <ele>170.29</ele>
        <time>2015-03-29T14:01:53Z</time>
      </trkpt>
      <trkpt lat="43.82852" lon="3.61644">
        <ele>169.81</ele>
        <time>2015-03-29T14:01:54Z</time>
      </trkpt>
      <trkpt lat="43.82853" lon="3.61642">
        <ele>169.81</ele>
        <time>2015-03-29T14:01:55Z</time>
      </trkpt>
      <trkpt lat="43.82854" lon="3.61639">
        <ele>169.81</ele>
        <time>2015-03-29T14:01:56Z</time>
      </trkpt>
      <trkpt lat="43.82854" lon="3.61636">
        <ele>169.81</ele>
        <time>2015-03-29T14:01:57Z</time>
      </trkpt>
      <trkpt lat="43.82853" lon="3.61633">
        <ele>169.81</ele>
        <time>2015-03-29T14:01:58Z</time>
      </trkpt>
      <trkpt lat="43.82852" lon="3.6163">
        <ele>169.81</ele>
        <time>2015-03-29T14:01:59Z</time>
      </trkpt>
      <trkpt lat="43.82844" lon="3.61609">
        <ele>170.29</ele>
        <time>2015-03-29T14:02:08Z</time>
      </trkpt>
      <trkpt lat="43.82843" lon="3.61611">
        <ele>166.45</ele>
        <time>2015-03-29T14:02:42Z</time>
      </trkpt>
      <trkpt lat="43.82845" lon="3.61611">
        <ele>173.66</ele>
        <time>2015-03-29T14:07:35Z</time>
      </trkpt>
      <trkpt lat="43.82849" lon="3.61612">
        <ele>173.66</ele>
        <time>2015-03-29T14:08:38Z</time>
      </trkpt>
      <trkpt lat="43.8285" lon="3.61625">
        <ele>172.69</ele>
        <time>2015-03-29T14:08:43Z</time>
      </trkpt>
      <trkpt lat="43.82859" lon="3.61679">
        <ele>165.48</ele>
        <time>2015-03-29T14:08:56Z</time>
      </trkpt>
      <trkpt lat="43.82841" lon="3.61735">
        <ele>165</ele>
        <time>2015-03-29T14:09:10Z</time>
      </trkpt>
      <trkpt lat="43.82838" lon="3.61767">
        <ele>165.96</ele>
        <time>2015-03-29T14:09:17Z</time>
      </trkpt>
      <trkpt lat="43.82868" lon="3.61777">
        <ele>167.89</ele>
        <time>2015-03-29T14:09:25Z</time>
      </trkpt>
      <trkpt lat="43.82873" lon="3.61778">
        <ele>167.41</ele>
        <time>2015-03-29T14:09:26Z</time>
      </trkpt>
      <trkpt lat="43.82878" lon="3.61777">
        <ele>167.41</ele>
        <time>2015-03-29T14:09:27Z</time>
      </trkpt>
      <trkpt lat="43.82884" lon="3.61775">
        <ele>166.45</ele>
        <time>2015-03-29T14:09:28Z</time>
      </trkpt>
      <trkpt lat="43.82889" lon="3.61772">
        <ele>166.93</ele>
        <time>2015-03-29T14:09:29Z</time>
      </trkpt>
      <trkpt lat="43.82894" lon="3.61768">
        <ele>166.93</ele>
        <time>2015-03-29T14:09:30Z</time>
      </trkpt>
      <trkpt lat="43.829" lon="3.61764">
        <ele>165.96</ele>
        <time>2015-03-29T14:09:31Z</time>
      </trkpt>
      <trkpt lat="43.82941" lon="3.61727">
        <ele>166.93</ele>
        <time>2015-03-29T14:09:40Z</time>
      </trkpt>
      <trkpt lat="43.83015" lon="3.61665">
        <ele>170.29</ele>
        <time>2015-03-29T14:09:53Z</time>
      </trkpt>
      <trkpt lat="43.83048" lon="3.61638">
        <ele>172.69</ele>
        <time>2015-03-29T14:09:57Z</time>
      </trkpt>
      <trkpt lat="43.83057" lon="3.61635">
        <ele>173.17</ele>
        <time>2015-03-29T14:09:58Z</time>
      </trkpt>
      <trkpt lat="43.83067" lon="3.61637">
        <ele>173.66</ele>
        <time>2015-03-29T14:09:59Z</time>
      </trkpt>
      <trkpt lat="43.83076" lon="3.61641">
        <ele>174.14</ele>
        <time>2015-03-29T14:10:00Z</time>
      </trkpt>
      <trkpt lat="43.83086" lon="3.61645">
        <ele>174.14</ele>
        <time>2015-03-29T14:10:01Z</time>
      </trkpt>
      <trkpt lat="43.83146" lon="3.61669">
        <ele>177.02</ele>
        <time>2015-03-29T14:10:07Z</time>
      </trkpt>
      <trkpt lat="43.83157" lon="3.6167">
        <ele>177.5</ele>
        <time>2015-03-29T14:10:08Z</time>
      </trkpt>
      <trkpt lat="43.83169" lon="3.61669">
        <ele>177.98</ele>
        <time>2015-03-29T14:10:09Z</time>
      </trkpt>
      <trkpt lat="43.83192" lon="3.61667">
        <ele>179.42</ele>
        <time>2015-03-29T14:10:11Z</time>
      </trkpt>
      <trkpt lat="43.83205" lon="3.61668">
        <ele>179.9</ele>
        <time>2015-03-29T14:10:12Z</time>
      </trkpt>
      <trkpt lat="43.83217" lon="3.61671">
        <ele>180.87</ele>
        <time>2015-03-29T14:10:13Z</time>
      </trkpt>
      <trkpt lat="43.8323" lon="3.61677">
        <ele>181.35</ele>
        <time>2015-03-29T14:10:14Z</time>
      </trkpt>
      <trkpt lat="43.83242" lon="3.61684">
        <ele>182.31</ele>
        <time>2015-03-29T14:10:15Z</time>
      </trkpt>
      <trkpt lat="43.83255" lon="3.61689">
        <ele>183.27</ele>
        <time>2015-03-29T14:10:16Z</time>
      </trkpt>
      <trkpt lat="43.83267" lon="3.61689">
        <ele>184.23</ele>
        <time>2015-03-29T14:10:17Z</time>
      </trkpt>
      <trkpt lat="43.8328" lon="3.61685">
        <ele>184.71</ele>
        <time>2015-03-29T14:10:18Z</time>
      </trkpt>
      <trkpt lat="43.83293" lon="3.61673">
        <ele>185.67</ele>
        <time>2015-03-29T14:10:19Z</time>
      </trkpt>
      <trkpt lat="43.83306" lon="3.61658">
        <ele>186.63</ele>
        <time>2015-03-29T14:10:20Z</time>
      </trkpt>
      <trkpt lat="43.83318" lon="3.61642">
        <ele>187.59</ele>
        <time>2015-03-29T14:10:21Z</time>
      </trkpt>
      <trkpt lat="43.8333" lon="3.61626">
        <ele>188.56</ele>
        <time>2015-03-29T14:10:22Z</time>
      </trkpt>
      <trkpt lat="43.83342" lon="3.61612">
        <ele>189.52</ele>
        <time>2015-03-29T14:10:23Z</time>
      </trkpt>
      <trkpt lat="43.83355" lon="3.61603">
        <ele>190.48</ele>
        <time>2015-03-29T14:10:24Z</time>
      </trkpt>
      <trkpt lat="43.8337" lon="3.61601">
        <ele>191.92</ele>
        <time>2015-03-29T14:10:25Z</time>
      </trkpt>
      <trkpt lat="43.83387" lon="3.61604">
        <ele>192.88</ele>
        <time>2015-03-29T14:10:26Z</time>
      </trkpt>
      <trkpt lat="43.83404" lon="3.61611">
        <ele>193.84</ele>
        <time>2015-03-29T14:10:27Z</time>
      </trkpt>
      <trkpt lat="43.83421" lon="3.61627">
        <ele>194.8</ele>
        <time>2015-03-29T14:10:28Z</time>
      </trkpt>
      <trkpt lat="43.83435" lon="3.61644">
        <ele>195.28</ele>
        <time>2015-03-29T14:10:29Z</time>
      </trkpt>
      <trkpt lat="43.83443" lon="3.61666">
        <ele>197.21</ele>
        <time>2015-03-29T14:10:30Z</time>
      </trkpt>
      <trkpt lat="43.83447" lon="3.61688">
        <ele>198.17</ele>
        <time>2015-03-29T14:10:31Z</time>
      </trkpt>
      <trkpt lat="43.8345" lon="3.61709">
        <ele>199.13</ele>
        <time>2015-03-29T14:10:32Z</time>
      </trkpt>
      <trkpt lat="43.83455" lon="3.61727">
        <ele>199.61</ele>
        <time>2015-03-29T14:10:33Z</time>
      </trkpt>
      <trkpt lat="43.83465" lon="3.61745">
        <ele>200.57</ele>
        <time>2015-03-29T14:10:34Z</time>
      </trkpt>
      <trkpt lat="43.83478" lon="3.61762">
        <ele>201.53</ele>
        <time>2015-03-29T14:10:35Z</time>
      </trkpt>
      <trkpt lat="43.83495" lon="3.61779">
        <ele>202.01</ele>
        <time>2015-03-29T14:10:36Z</time>
      </trkpt>
      <trkpt lat="43.83513" lon="3.61794">
        <ele>202.98</ele>
        <time>2015-03-29T14:10:37Z</time>
      </trkpt>
      <trkpt lat="43.8353" lon="3.6181">
        <ele>203.46</ele>
        <time>2015-03-29T14:10:38Z</time>
      </trkpt>
      <trkpt lat="43.83546" lon="3.61827">
        <ele>204.42</ele>
        <time>2015-03-29T14:10:39Z</time>
      </trkpt>
      <trkpt lat="43.83559" lon="3.61847">
        <ele>205.38</ele>
        <time>2015-03-29T14:10:40Z</time>
      </trkpt>
      <trkpt lat="43.8357" lon="3.61871">
        <ele>206.34</ele>
        <time>2015-03-29T14:10:41Z</time>
      </trkpt>
      <trkpt lat="43.83579" lon="3.61898">
        <ele>207.78</ele>
        <time>2015-03-29T14:10:42Z</time>
      </trkpt>
      <trkpt lat="43.83585" lon="3.61928">
        <ele>208.74</ele>
        <time>2015-03-29T14:10:43Z</time>
      </trkpt>
      <trkpt lat="43.8359" lon="3.61959">
        <ele>209.22</ele>
        <time>2015-03-29T14:10:44Z</time>
      </trkpt>
      <trkpt lat="43.83594" lon="3.61988">
        <ele>210.19</ele>
        <time>2015-03-29T14:10:45Z</time>
      </trkpt>
      <trkpt lat="43.83601" lon="3.62037">
        <ele>211.63</ele>
        <time>2015-03-29T14:10:47Z</time>
      </trkpt>
      <trkpt lat="43.8361" lon="3.62058">
        <ele>212.59</ele>
        <time>2015-03-29T14:10:48Z</time>
      </trkpt>
      <trkpt lat="43.83622" lon="3.62075">
        <ele>213.07</ele>
        <time>2015-03-29T14:10:49Z</time>
      </trkpt>
      <trkpt lat="43.83637" lon="3.62094">
        <ele>214.03</ele>
        <time>2015-03-29T14:10:50Z</time>
      </trkpt>
      <trkpt lat="43.83656" lon="3.62115">
        <ele>215.47</ele>
        <time>2015-03-29T14:10:51Z</time>
      </trkpt>
      <trkpt lat="43.83674" lon="3.62137">
        <ele>217.4</ele>
        <time>2015-03-29T14:10:52Z</time>
      </trkpt>
      <trkpt lat="43.83818" lon="3.62312">
        <ele>229.41</ele>
        <time>2015-03-29T14:10:59Z</time>
      </trkpt>
      <trkpt lat="43.83841" lon="3.62326">
        <ele>230.85</ele>
        <time>2015-03-29T14:11:00Z</time>
      </trkpt>
      <trkpt lat="43.83866" lon="3.62335">
        <ele>232.3</ele>
        <time>2015-03-29T14:11:01Z</time>
      </trkpt>
      <trkpt lat="43.83935" lon="3.6237">
        <ele>237.1</ele>
        <time>2015-03-29T14:11:04Z</time>
      </trkpt>
      <trkpt lat="43.83954" lon="3.62387">
        <ele>238.54</ele>
        <time>2015-03-29T14:11:05Z</time>
      </trkpt>
      <trkpt lat="43.8397" lon="3.62403">
        <ele>239.51</ele>
        <time>2015-03-29T14:11:06Z</time>
      </trkpt>
      <trkpt lat="43.83982" lon="3.62419">
        <ele>240.47</ele>
        <time>2015-03-29T14:11:07Z</time>
      </trkpt>
      <trkpt lat="43.83989" lon="3.62438">
        <ele>241.91</ele>
        <time>2015-03-29T14:11:08Z</time>
      </trkpt>
      <trkpt lat="43.83992" lon="3.62461">
        <ele>243.35</ele>
        <time>2015-03-29T14:11:09Z</time>
      </trkpt>
      <trkpt lat="43.83992" lon="3.62486">
        <ele>244.79</ele>
        <time>2015-03-29T14:11:10Z</time>
      </trkpt>
      <trkpt lat="43.83989" lon="3.62512">
        <ele>245.75</ele>
        <time>2015-03-29T14:11:11Z</time>
      </trkpt>
      <trkpt lat="43.83988" lon="3.6254">
        <ele>247.68</ele>
        <time>2015-03-29T14:11:12Z</time>
      </trkpt>
      <trkpt lat="43.83988" lon="3.62569">
        <ele>249.12</ele>
        <time>2015-03-29T14:11:13Z</time>
      </trkpt>
      <trkpt lat="43.83991" lon="3.62599">
        <ele>250.08</ele>
        <time>2015-03-29T14:11:14Z</time>
      </trkpt>
      <trkpt lat="43.84028" lon="3.62736">
        <ele>255.85</ele>
        <time>2015-03-29T14:11:19Z</time>
      </trkpt>
      <trkpt lat="43.84047" lon="3.62753">
        <ele>256.81</ele>
        <time>2015-03-29T14:11:20Z</time>
      </trkpt>
      <trkpt lat="43.84067" lon="3.62772">
        <ele>256.81</ele>
        <time>2015-03-29T14:11:21Z</time>
      </trkpt>
      <trkpt lat="43.84157" lon="3.62902">
        <ele>254.89</ele>
        <time>2015-03-29T14:11:26Z</time>
      </trkpt>
      <trkpt lat="43.84171" lon="3.62935">
        <ele>253.44</ele>
        <time>2015-03-29T14:11:27Z</time>
      </trkpt>
      <trkpt lat="43.84182" lon="3.62971">
        <ele>253.44</ele>
        <time>2015-03-29T14:11:28Z</time>
      </trkpt>
      <trkpt lat="43.8419" lon="3.63008">
        <ele>252</ele>
        <time>2015-03-29T14:11:29Z</time>
      </trkpt>
      <trkpt lat="43.84243" lon="3.63191">
        <ele>244.31</ele>
        <time>2015-03-29T14:11:35Z</time>
      </trkpt>
      <trkpt lat="43.84258" lon="3.63206">
        <ele>243.35</ele>
        <time>2015-03-29T14:11:36Z</time>
      </trkpt>
      <trkpt lat="43.84279" lon="3.63217">
        <ele>241.91</ele>
        <time>2015-03-29T14:11:37Z</time>
      </trkpt>
      <trkpt lat="43.84324" lon="3.63245">
        <ele>239.02</ele>
        <time>2015-03-29T14:11:39Z</time>
      </trkpt>
      <trkpt lat="43.84347" lon="3.63267">
        <ele>238.06</ele>
        <time>2015-03-29T14:11:40Z</time>
      </trkpt>
      <trkpt lat="43.8445" lon="3.63384">
        <ele>231.33</ele>
        <time>2015-03-29T14:11:45Z</time>
      </trkpt>
      <trkpt lat="43.84466" lon="3.63412">
        <ele>229.89</ele>
        <time>2015-03-29T14:11:46Z</time>
      </trkpt>
      <trkpt lat="43.8448" lon="3.63443">
        <ele>228.45</ele>
        <time>2015-03-29T14:11:47Z</time>
      </trkpt>
      <trkpt lat="43.84524" lon="3.63603">
        <ele>220.28</ele>
        <time>2015-03-29T14:11:52Z</time>
      </trkpt>
      <trkpt lat="43.84526" lon="3.63636">
        <ele>219.32</ele>
        <time>2015-03-29T14:11:53Z</time>
      </trkpt>
      <trkpt lat="43.84536" lon="3.63703">
        <ele>217.4</ele>
        <time>2015-03-29T14:11:55Z</time>
      </trkpt>
      <trkpt lat="43.84545" lon="3.63738">
        <ele>215.95</ele>
        <time>2015-03-29T14:11:56Z</time>
      </trkpt>
      <trkpt lat="43.84607" lon="3.63959">
        <ele>207.3</ele>
        <time>2015-03-29T14:12:02Z</time>
      </trkpt>
      <trkpt lat="43.84612" lon="3.63996">
        <ele>206.34</ele>
        <time>2015-03-29T14:12:03Z</time>
      </trkpt>
      <trkpt lat="43.84622" lon="3.64099">
        <ele>202.01</ele>
        <time>2015-03-29T14:12:06Z</time>
      </trkpt>
      <trkpt lat="43.84631" lon="3.64126">
        <ele>201.05</ele>
        <time>2015-03-29T14:12:07Z</time>
      </trkpt>
      <trkpt lat="43.84645" lon="3.64155">
        <ele>199.61</ele>
        <time>2015-03-29T14:12:08Z</time>
      </trkpt>
      <trkpt lat="43.84743" lon="3.64352">
        <ele>190.48</ele>
        <time>2015-03-29T14:12:14Z</time>
      </trkpt>
      <trkpt lat="43.84758" lon="3.6441">
        <ele>186.15</ele>
        <time>2015-03-29T14:12:16Z</time>
      </trkpt>
      <trkpt lat="43.8476" lon="3.64441">
        <ele>185.67</ele>
        <time>2015-03-29T14:12:17Z</time>
      </trkpt>
      <trkpt lat="43.8479" lon="3.64632">
        <ele>176.54</ele>
        <time>2015-03-29T14:12:23Z</time>
      </trkpt>
      <trkpt lat="43.84801" lon="3.64659">
        <ele>175.58</ele>
        <time>2015-03-29T14:12:24Z</time>
      </trkpt>
      <trkpt lat="43.84816" lon="3.64684">
        <ele>174.14</ele>
        <time>2015-03-29T14:12:25Z</time>
      </trkpt>
      <trkpt lat="43.84861" lon="3.64765">
        <ele>169.81</ele>
        <time>2015-03-29T14:12:28Z</time>
      </trkpt>
      <trkpt lat="43.84872" lon="3.64795">
        <ele>168.85</ele>
        <time>2015-03-29T14:12:29Z</time>
      </trkpt>
      <trkpt lat="43.84881" lon="3.64827">
        <ele>167.89</ele>
        <time>2015-03-29T14:12:30Z</time>
      </trkpt>
      <trkpt lat="43.84888" lon="3.6486">
        <ele>166.93</ele>
        <time>2015-03-29T14:12:31Z</time>
      </trkpt>
      <trkpt lat="43.84894" lon="3.64891">
        <ele>166.45</ele>
        <time>2015-03-29T14:12:32Z</time>
      </trkpt>
      <trkpt lat="43.84906" lon="3.64949">
        <ele>165.48</ele>
        <time>2015-03-29T14:12:34Z</time>
      </trkpt>
      <trkpt lat="43.84916" lon="3.64971">
        <ele>164.52</ele>
        <time>2015-03-29T14:12:35Z</time>
      </trkpt>
      <trkpt lat="43.84931" lon="3.64991">
        <ele>163.08</ele>
        <time>2015-03-29T14:12:36Z</time>
      </trkpt>
      <trkpt lat="43.84947" lon="3.65011">
        <ele>163.08</ele>
        <time>2015-03-29T14:12:37Z</time>
      </trkpt>
      <trkpt lat="43.84964" lon="3.65031">
        <ele>162.6</ele>
        <time>2015-03-29T14:12:38Z</time>
      </trkpt>
      <trkpt lat="43.85009" lon="3.65098">
        <ele>160.68</ele>
        <time>2015-03-29T14:12:41Z</time>
      </trkpt>
      <trkpt lat="43.85017" lon="3.65127">
        <ele>160.2</ele>
        <time>2015-03-29T14:12:42Z</time>
      </trkpt>
      <trkpt lat="43.85021" lon="3.65157">
        <ele>159.72</ele>
        <time>2015-03-29T14:12:43Z</time>
      </trkpt>
      <trkpt lat="43.85024" lon="3.65188">
        <ele>159.72</ele>
        <time>2015-03-29T14:12:44Z</time>
      </trkpt>
      <trkpt lat="43.85025" lon="3.6522">
        <ele>158.75</ele>
        <time>2015-03-29T14:12:45Z</time>
      </trkpt>
      <trkpt lat="43.85028" lon="3.65251">
        <ele>158.27</ele>
        <time>2015-03-29T14:12:46Z</time>
      </trkpt>
      <trkpt lat="43.85054" lon="3.65369">
        <ele>156.83</ele>
        <time>2015-03-29T14:12:50Z</time>
      </trkpt>
      <trkpt lat="43.85065" lon="3.65396">
        <ele>156.35</ele>
        <time>2015-03-29T14:12:51Z</time>
      </trkpt>
      <trkpt lat="43.85079" lon="3.65421">
        <ele>155.87</ele>
        <time>2015-03-29T14:12:52Z</time>
      </trkpt>
      <trkpt lat="43.85091" lon="3.65446">
        <ele>155.39</ele>
        <time>2015-03-29T14:12:53Z</time>
      </trkpt>
      <trkpt lat="43.85101" lon="3.65471">
        <ele>155.39</ele>
        <time>2015-03-29T14:12:54Z</time>
      </trkpt>
      <trkpt lat="43.85107" lon="3.655">
        <ele>154.91</ele>
        <time>2015-03-29T14:12:55Z</time>
      </trkpt>
      <trkpt lat="43.85111" lon="3.65531">
        <ele>155.39</ele>
        <time>2015-03-29T14:12:56Z</time>
      </trkpt>
      <trkpt lat="43.85115" lon="3.65563">
        <ele>155.39</ele>
        <time>2015-03-29T14:12:57Z</time>
      </trkpt>
      <trkpt lat="43.85165" lon="3.65859">
        <ele>148.66</ele>
        <time>2015-03-29T14:13:06Z</time>
      </trkpt>
      <trkpt lat="43.85174" lon="3.65891">
        <ele>147.7</ele>
        <time>2015-03-29T14:13:07Z</time>
      </trkpt>
      <trkpt lat="43.85199" lon="3.65982">
        <ele>145.3</ele>
        <time>2015-03-29T14:13:10Z</time>
      </trkpt>
      <trkpt lat="43.85203" lon="3.66013">
        <ele>144.34</ele>
        <time>2015-03-29T14:13:11Z</time>
      </trkpt>
      <trkpt lat="43.85204" lon="3.66045">
        <ele>143.85</ele>
        <time>2015-03-29T14:13:12Z</time>
      </trkpt>
      <trkpt lat="43.85204" lon="3.66076">
        <ele>143.37</ele>
        <time>2015-03-29T14:13:13Z</time>
      </trkpt>
      <trkpt lat="43.85203" lon="3.66106">
        <ele>142.41</ele>
        <time>2015-03-29T14:13:14Z</time>
      </trkpt>
      <trkpt lat="43.852" lon="3.66134">
        <ele>142.41</ele>
        <time>2015-03-29T14:13:15Z</time>
      </trkpt>
      <trkpt lat="43.85192" lon="3.66159">
        <ele>142.41</ele>
        <time>2015-03-29T14:13:16Z</time>
      </trkpt>
      <trkpt lat="43.85182" lon="3.66181">
        <ele>142.41</ele>
        <time>2015-03-29T14:13:17Z</time>
      </trkpt>
      <trkpt lat="43.85171" lon="3.66198">
        <ele>142.41</ele>
        <time>2015-03-29T14:13:18Z</time>
      </trkpt>
      <trkpt lat="43.85159" lon="3.66212">
        <ele>142.41</ele>
        <time>2015-03-29T14:13:19Z</time>
      </trkpt>
      <trkpt lat="43.85145" lon="3.66225">
        <ele>141.45</ele>
        <time>2015-03-29T14:13:20Z</time>
      </trkpt>
      <trkpt lat="43.85129" lon="3.66235">
        <ele>140.97</ele>
        <time>2015-03-29T14:13:21Z</time>
      </trkpt>
      <trkpt lat="43.85109" lon="3.66243">
        <ele>140.97</ele>
        <time>2015-03-29T14:13:22Z</time>
      </trkpt>
      <trkpt lat="43.85087" lon="3.66247">
        <ele>141.45</ele>
        <time>2015-03-29T14:13:23Z</time>
      </trkpt>
      <trkpt lat="43.85068" lon="3.66256">
        <ele>141.45</ele>
        <time>2015-03-29T14:13:24Z</time>
      </trkpt>
      <trkpt lat="43.8505" lon="3.66267">
        <ele>140.97</ele>
        <time>2015-03-29T14:13:25Z</time>
      </trkpt>
      <trkpt lat="43.85019" lon="3.66297">
        <ele>140.49</ele>
        <time>2015-03-29T14:13:27Z</time>
      </trkpt>
      <trkpt lat="43.85007" lon="3.66315">
        <ele>140.49</ele>
        <time>2015-03-29T14:13:28Z</time>
      </trkpt>
      <trkpt lat="43.84996" lon="3.66335">
        <ele>140.97</ele>
        <time>2015-03-29T14:13:29Z</time>
      </trkpt>
      <trkpt lat="43.8494" lon="3.66435">
        <ele>145.3</ele>
        <time>2015-03-29T14:13:34Z</time>
      </trkpt>
      <trkpt lat="43.84933" lon="3.66461">
        <ele>146.26</ele>
        <time>2015-03-29T14:13:35Z</time>
      </trkpt>
      <trkpt lat="43.84928" lon="3.66489">
        <ele>148.18</ele>
        <time>2015-03-29T14:13:36Z</time>
      </trkpt>
      <trkpt lat="43.84908" lon="3.66596">
        <ele>153.47</ele>
        <time>2015-03-29T14:13:40Z</time>
      </trkpt>
      <trkpt lat="43.84906" lon="3.66623">
        <ele>154.43</ele>
        <time>2015-03-29T14:13:41Z</time>
      </trkpt>
      <trkpt lat="43.84907" lon="3.66652">
        <ele>155.87</ele>
        <time>2015-03-29T14:13:42Z</time>
      </trkpt>
      <trkpt lat="43.8491" lon="3.66681">
        <ele>156.83</ele>
        <time>2015-03-29T14:13:43Z</time>
      </trkpt>
      <trkpt lat="43.84915" lon="3.66709">
        <ele>158.27</ele>
        <time>2015-03-29T14:13:44Z</time>
      </trkpt>
      <trkpt lat="43.84921" lon="3.66735">
        <ele>159.24</ele>
        <time>2015-03-29T14:13:45Z</time>
      </trkpt>
      <trkpt lat="43.84929" lon="3.6676">
        <ele>160.68</ele>
        <time>2015-03-29T14:13:46Z</time>
      </trkpt>
      <trkpt lat="43.84942" lon="3.6678">
        <ele>161.64</ele>
        <time>2015-03-29T14:13:47Z</time>
      </trkpt>
      <trkpt lat="43.84959" lon="3.66796">
        <ele>162.12</ele>
        <time>2015-03-29T14:13:48Z</time>
      </trkpt>
      <trkpt lat="43.84973" lon="3.66813">
        <ele>163.08</ele>
        <time>2015-03-29T14:13:49Z</time>
      </trkpt>
      <trkpt lat="43.84992" lon="3.66829">
        <ele>165.48</ele>
        <time>2015-03-29T14:13:50Z</time>
      </trkpt>
      <trkpt lat="43.85012" lon="3.66845">
        <ele>167.41</ele>
        <time>2015-03-29T14:13:51Z</time>
      </trkpt>
      <trkpt lat="43.85032" lon="3.6686">
        <ele>169.33</ele>
        <time>2015-03-29T14:13:52Z</time>
      </trkpt>
      <trkpt lat="43.85052" lon="3.66875">
        <ele>170.77</ele>
        <time>2015-03-29T14:13:53Z</time>
      </trkpt>
      <trkpt lat="43.85213" lon="3.67033">
        <ele>181.83</ele>
        <time>2015-03-29T14:14:02Z</time>
      </trkpt>
      <trkpt lat="43.85225" lon="3.67058">
        <ele>183.27</ele>
        <time>2015-03-29T14:14:03Z</time>
      </trkpt>
      <trkpt lat="43.85237" lon="3.67081">
        <ele>184.71</ele>
        <time>2015-03-29T14:14:04Z</time>
      </trkpt>
      <trkpt lat="43.85251" lon="3.67101">
        <ele>186.15</ele>
        <time>2015-03-29T14:14:05Z</time>
      </trkpt>
      <trkpt lat="43.85268" lon="3.67117">
        <ele>187.11</ele>
        <time>2015-03-29T14:14:06Z</time>
      </trkpt>
      <trkpt lat="43.85287" lon="3.67132">
        <ele>188.56</ele>
        <time>2015-03-29T14:14:07Z</time>
      </trkpt>
      <trkpt lat="43.85305" lon="3.67145">
        <ele>189.52</ele>
        <time>2015-03-29T14:14:08Z</time>
      </trkpt>
      <trkpt lat="43.85377" lon="3.67238">
        <ele>195.28</ele>
        <time>2015-03-29T14:14:13Z</time>
      </trkpt>
      <trkpt lat="43.85386" lon="3.67267">
        <ele>196.25</ele>
        <time>2015-03-29T14:14:14Z</time>
      </trkpt>
      <trkpt lat="43.85459" lon="3.67536">
        <ele>207.3</ele>
        <time>2015-03-29T14:14:23Z</time>
      </trkpt>
      <trkpt lat="43.85487" lon="3.67606">
        <ele>210.67</ele>
        <time>2015-03-29T14:14:26Z</time>
      </trkpt>
      <trkpt lat="43.85499" lon="3.67626">
        <ele>211.63</ele>
        <time>2015-03-29T14:14:27Z</time>
      </trkpt>
      <trkpt lat="43.85513" lon="3.67647">
        <ele>212.11</ele>
        <time>2015-03-29T14:14:28Z</time>
      </trkpt>
      <trkpt lat="43.85529" lon="3.67667">
        <ele>212.11</ele>
        <time>2015-03-29T14:14:29Z</time>
      </trkpt>
      <trkpt lat="43.85547" lon="3.67687">
        <ele>212.11</ele>
        <time>2015-03-29T14:14:30Z</time>
      </trkpt>
      <trkpt lat="43.85567" lon="3.67706">
        <ele>211.63</ele>
        <time>2015-03-29T14:14:31Z</time>
      </trkpt>
      <trkpt lat="43.85587" lon="3.67725">
        <ele>210.67</ele>
        <time>2015-03-29T14:14:32Z</time>
      </trkpt>
      <trkpt lat="43.85689" lon="3.67833">
        <ele>207.3</ele>
        <time>2015-03-29T14:14:37Z</time>
      </trkpt>
      <trkpt lat="43.85705" lon="3.67862">
        <ele>207.3</ele>
        <time>2015-03-29T14:14:38Z</time>
      </trkpt>
      <trkpt lat="43.85717" lon="3.67893">
        <ele>206.82</ele>
        <time>2015-03-29T14:14:39Z</time>
      </trkpt>
      <trkpt lat="43.85726" lon="3.67923">
        <ele>205.38</ele>
        <time>2015-03-29T14:14:40Z</time>
      </trkpt>
      <trkpt lat="43.85736" lon="3.67954">
        <ele>204.42</ele>
        <time>2015-03-29T14:14:41Z</time>
      </trkpt>
      <trkpt lat="43.85827" lon="3.68128">
        <ele>199.13</ele>
        <time>2015-03-29T14:14:47Z</time>
      </trkpt>
      <trkpt lat="43.85888" lon="3.68292">
        <ele>194.8</ele>
        <time>2015-03-29T14:14:53Z</time>
      </trkpt>
      <trkpt lat="43.85887" lon="3.68316">
        <ele>193.36</ele>
        <time>2015-03-29T14:14:54Z</time>
      </trkpt>
      <trkpt lat="43.85881" lon="3.68342">
        <ele>192.88</ele>
        <time>2015-03-29T14:14:55Z</time>
      </trkpt>
      <trkpt lat="43.85873" lon="3.68398">
        <ele>192.88</ele>
        <time>2015-03-29T14:14:57Z</time>
      </trkpt>
      <trkpt lat="43.85873" lon="3.68428">
        <ele>192.88</ele>
        <time>2015-03-29T14:14:58Z</time>
      </trkpt>
      <trkpt lat="43.85877" lon="3.68458">
        <ele>193.36</ele>
        <time>2015-03-29T14:14:59Z</time>
      </trkpt>
      <trkpt lat="43.85882" lon="3.68487">
        <ele>193.36</ele>
        <time>2015-03-29T14:15:00Z</time>
      </trkpt>
      <trkpt lat="43.85889" lon="3.68513">
        <ele>193.36</ele>
        <time>2015-03-29T14:15:01Z</time>
      </trkpt>
      <trkpt lat="43.859" lon="3.68534">
        <ele>193.36</ele>
        <time>2015-03-29T14:15:02Z</time>
      </trkpt>
      <trkpt lat="43.85911" lon="3.68555">
        <ele>193.36</ele>
        <time>2015-03-29T14:15:03Z</time>
      </trkpt>
      <trkpt lat="43.85919" lon="3.68577">
        <ele>193.36</ele>
        <time>2015-03-29T14:15:04Z</time>
      </trkpt>
      <trkpt lat="43.85925" lon="3.68603">
        <ele>192.4</ele>
        <time>2015-03-29T14:15:05Z</time>
      </trkpt>
      <trkpt lat="43.85948" lon="3.68727">
        <ele>189.04</ele>
        <time>2015-03-29T14:15:10Z</time>
      </trkpt>
      <trkpt lat="43.85957" lon="3.68748">
        <ele>188.08</ele>
        <time>2015-03-29T14:15:11Z</time>
      </trkpt>
      <trkpt lat="43.85969" lon="3.68767">
        <ele>187.59</ele>
        <time>2015-03-29T14:15:12Z</time>
      </trkpt>
      <trkpt lat="43.85986" lon="3.68781">
        <ele>187.11</ele>
        <time>2015-03-29T14:15:13Z</time>
      </trkpt>
      <trkpt lat="43.86005" lon="3.68794">
        <ele>186.63</ele>
        <time>2015-03-29T14:15:14Z</time>
      </trkpt>
      <trkpt lat="43.86025" lon="3.68806">
        <ele>186.63</ele>
        <time>2015-03-29T14:15:15Z</time>
      </trkpt>
      <trkpt lat="43.86046" lon="3.68817">
        <ele>186.63</ele>
        <time>2015-03-29T14:15:16Z</time>
      </trkpt>
      <trkpt lat="43.86105" lon="3.68844">
        <ele>185.67</ele>
        <time>2015-03-29T14:15:19Z</time>
      </trkpt>
      <trkpt lat="43.86127" lon="3.68845">
        <ele>185.19</ele>
        <time>2015-03-29T14:15:20Z</time>
      </trkpt>
      <trkpt lat="43.8615" lon="3.68842">
        <ele>184.71</ele>
        <time>2015-03-29T14:15:21Z</time>
      </trkpt>
      <trkpt lat="43.86221" lon="3.6884">
        <ele>183.27</ele>
        <time>2015-03-29T14:15:24Z</time>
      </trkpt>
      <trkpt lat="43.86243" lon="3.68849">
        <ele>182.79</ele>
        <time>2015-03-29T14:15:25Z</time>
      </trkpt>
      <trkpt lat="43.86265" lon="3.6886">
        <ele>181.83</ele>
        <time>2015-03-29T14:15:26Z</time>
      </trkpt>
      <trkpt lat="43.86286" lon="3.68874">
        <ele>181.35</ele>
        <time>2015-03-29T14:15:27Z</time>
      </trkpt>
      <trkpt lat="43.86308" lon="3.68891">
        <ele>180.38</ele>
        <time>2015-03-29T14:15:28Z</time>
      </trkpt>
      <trkpt lat="43.86523" lon="3.69026">
        <ele>177.5</ele>
        <time>2015-03-29T14:15:37Z</time>
      </trkpt>
      <trkpt lat="43.86585" lon="3.69093">
        <ele>177.98</ele>
        <time>2015-03-29T14:15:41Z</time>
      </trkpt>
      <trkpt lat="43.86593" lon="3.6912">
        <ele>178.46</ele>
        <time>2015-03-29T14:15:42Z</time>
      </trkpt>
      <trkpt lat="43.86603" lon="3.69147">
        <ele>178.46</ele>
        <time>2015-03-29T14:15:43Z</time>
      </trkpt>
      <trkpt lat="43.86687" lon="3.69339">
        <ele>177.02</ele>
        <time>2015-03-29T14:15:50Z</time>
      </trkpt>
      <trkpt lat="43.86704" lon="3.69358">
        <ele>176.54</ele>
        <time>2015-03-29T14:15:51Z</time>
      </trkpt>
      <trkpt lat="43.86722" lon="3.69376">
        <ele>176.54</ele>
        <time>2015-03-29T14:15:52Z</time>
      </trkpt>
      <trkpt lat="43.8674" lon="3.69395">
        <ele>176.54</ele>
        <time>2015-03-29T14:15:53Z</time>
      </trkpt>
      <trkpt lat="43.86755" lon="3.69417">
        <ele>175.58</ele>
        <time>2015-03-29T14:15:54Z</time>
      </trkpt>
      <trkpt lat="43.86768" lon="3.69442">
        <ele>176.06</ele>
        <time>2015-03-29T14:15:55Z</time>
      </trkpt>
      <trkpt lat="43.86779" lon="3.69465">
        <ele>176.54</ele>
        <time>2015-03-29T14:15:56Z</time>
      </trkpt>
      <trkpt lat="43.86814" lon="3.69544">
        <ele>178.46</ele>
        <time>2015-03-29T14:16:00Z</time>
      </trkpt>
      <trkpt lat="43.86827" lon="3.69562">
        <ele>178.46</ele>
        <time>2015-03-29T14:16:01Z</time>
      </trkpt>
      <trkpt lat="43.86855" lon="3.69604">
        <ele>177.98</ele>
        <time>2015-03-29T14:16:03Z</time>
      </trkpt>
      <trkpt lat="43.86866" lon="3.6963">
        <ele>177.02</ele>
        <time>2015-03-29T14:16:04Z</time>
      </trkpt>
      <trkpt lat="43.86874" lon="3.6966">
        <ele>176.54</ele>
        <time>2015-03-29T14:16:05Z</time>
      </trkpt>
      <trkpt lat="43.86879" lon="3.69692">
        <ele>175.58</ele>
        <time>2015-03-29T14:16:06Z</time>
      </trkpt>
      <trkpt lat="43.86881" lon="3.69727">
        <ele>176.06</ele>
        <time>2015-03-29T14:16:07Z</time>
      </trkpt>
      <trkpt lat="43.86881" lon="3.69762">
        <ele>176.54</ele>
        <time>2015-03-29T14:16:08Z</time>
      </trkpt>
      <trkpt lat="43.86881" lon="3.69798">
        <ele>177.02</ele>
        <time>2015-03-29T14:16:09Z</time>
      </trkpt>
      <trkpt lat="43.8689" lon="3.69951">
        <ele>177.5</ele>
        <time>2015-03-29T14:16:14Z</time>
      </trkpt>
      <trkpt lat="43.86898" lon="3.69975">
        <ele>177.5</ele>
        <time>2015-03-29T14:16:15Z</time>
      </trkpt>
      <trkpt lat="43.86912" lon="3.7">
        <ele>176.06</ele>
        <time>2015-03-29T14:16:16Z</time>
      </trkpt>
      <trkpt lat="43.86927" lon="3.70024">
        <ele>175.58</ele>
        <time>2015-03-29T14:16:17Z</time>
      </trkpt>
      <trkpt lat="43.86944" lon="3.70052">
        <ele>174.62</ele>
        <time>2015-03-29T14:16:18Z</time>
      </trkpt>
      <trkpt lat="43.87039" lon="3.70222">
        <ele>167.41</ele>
        <time>2015-03-29T14:16:24Z</time>
      </trkpt>
      <trkpt lat="43.87084" lon="3.70273">
        <ele>164.04</ele>
        <time>2015-03-29T14:16:27Z</time>
      </trkpt>
      <trkpt lat="43.87101" lon="3.70277">
        <ele>163.08</ele>
        <time>2015-03-29T14:16:28Z</time>
      </trkpt>
      <trkpt lat="43.87118" lon="3.70282">
        <ele>162.6</ele>
        <time>2015-03-29T14:16:29Z</time>
      </trkpt>
      <trkpt lat="43.87172" lon="3.70311">
        <ele>158.75</ele>
        <time>2015-03-29T14:16:33Z</time>
      </trkpt>
      <trkpt lat="43.8718" lon="3.70324">
        <ele>158.27</ele>
        <time>2015-03-29T14:16:34Z</time>
      </trkpt>
      <trkpt lat="43.87257" lon="3.70397">
        <ele>155.87</ele>
        <time>2015-03-29T14:16:43Z</time>
      </trkpt>
      <trkpt lat="43.87323" lon="3.70443">
        <ele>155.87</ele>
        <time>2015-03-29T14:16:52Z</time>
      </trkpt>
      <trkpt lat="43.87378" lon="3.70463">
        <ele>153.47</ele>
        <time>2015-03-29T14:16:57Z</time>
      </trkpt>
      <trkpt lat="43.87389" lon="3.70463">
        <ele>152.99</ele>
        <time>2015-03-29T14:16:58Z</time>
      </trkpt>
      <trkpt lat="43.87512" lon="3.70441">
        <ele>146.26</ele>
        <time>2015-03-29T14:17:09Z</time>
      </trkpt>
      <trkpt lat="43.87522" lon="3.70436">
        <ele>145.78</ele>
        <time>2015-03-29T14:17:10Z</time>
      </trkpt>
      <trkpt lat="43.87532" lon="3.70427">
        <ele>144.82</ele>
        <time>2015-03-29T14:17:11Z</time>
      </trkpt>
      <trkpt lat="43.87541" lon="3.70417">
        <ele>143.85</ele>
        <time>2015-03-29T14:17:12Z</time>
      </trkpt>
      <trkpt lat="43.87549" lon="3.70406">
        <ele>143.37</ele>
        <time>2015-03-29T14:17:13Z</time>
      </trkpt>
      <trkpt lat="43.87556" lon="3.70395">
        <ele>142.41</ele>
        <time>2015-03-29T14:17:14Z</time>
      </trkpt>
      <trkpt lat="43.87599" lon="3.70335">
        <ele>139.05</ele>
        <time>2015-03-29T14:17:22Z</time>
      </trkpt>
      <trkpt lat="43.87615" lon="3.70316">
        <ele>138.57</ele>
        <time>2015-03-29T14:17:26Z</time>
      </trkpt>
      <trkpt lat="43.8762" lon="3.70313">
        <ele>138.57</ele>
        <time>2015-03-29T14:17:27Z</time>
      </trkpt>
      <trkpt lat="43.87627" lon="3.70312">
        <ele>139.05</ele>
        <time>2015-03-29T14:17:28Z</time>
      </trkpt>
      <trkpt lat="43.87635" lon="3.70312">
        <ele>139.05</ele>
        <time>2015-03-29T14:17:29Z</time>
      </trkpt>
      <trkpt lat="43.87643" lon="3.70312">
        <ele>139.05</ele>
        <time>2015-03-29T14:17:30Z</time>
      </trkpt>
      <trkpt lat="43.87744" lon="3.70322">
        <ele>136.64</ele>
        <time>2015-03-29T14:17:43Z</time>
      </trkpt>
      <trkpt lat="43.87753" lon="3.70324">
        <ele>139.05</ele>
        <time>2015-03-29T14:17:50Z</time>
      </trkpt>
      <trkpt lat="43.87757" lon="3.70322">
        <ele>139.53</ele>
        <time>2015-03-29T14:17:57Z</time>
      </trkpt>
      <trkpt lat="43.87758" lon="3.70319">
        <ele>139.53</ele>
        <time>2015-03-29T14:17:58Z</time>
      </trkpt>
      <trkpt lat="43.87761" lon="3.70313">
        <ele>139.53</ele>
        <time>2015-03-29T14:17:59Z</time>
      </trkpt>
      <trkpt lat="43.87763" lon="3.70306">
        <ele>138.57</ele>
        <time>2015-03-29T14:18:00Z</time>
      </trkpt>
      <trkpt lat="43.87764" lon="3.70299">
        <ele>139.05</ele>
        <time>2015-03-29T14:18:01Z</time>
      </trkpt>
      <trkpt lat="43.87766" lon="3.70291">
        <ele>139.53</ele>
        <time>2015-03-29T14:18:02Z</time>
      </trkpt>
      <trkpt lat="43.87776" lon="3.70251">
        <ele>139.05</ele>
        <time>2015-03-29T14:18:06Z</time>
      </trkpt>
      <trkpt lat="43.8778" lon="3.70241">
        <ele>139.05</ele>
        <time>2015-03-29T14:18:07Z</time>
      </trkpt>
      <trkpt lat="43.87785" lon="3.70231">
        <ele>139.05</ele>
        <time>2015-03-29T14:18:08Z</time>
      </trkpt>
      <trkpt lat="43.87792" lon="3.70219">
        <ele>139.05</ele>
        <time>2015-03-29T14:18:09Z</time>
      </trkpt>
      <trkpt lat="43.87798" lon="3.7021">
        <ele>139.05</ele>
        <time>2015-03-29T14:18:10Z</time>
      </trkpt>
      <trkpt lat="43.87805" lon="3.70203">
        <ele>139.53</ele>
        <time>2015-03-29T14:18:11Z</time>
      </trkpt>
      <trkpt lat="43.87812" lon="3.70197">
        <ele>140.01</ele>
        <time>2015-03-29T14:18:12Z</time>
      </trkpt>
      <trkpt lat="43.87819" lon="3.70192">
        <ele>140.97</ele>
        <time>2015-03-29T14:18:13Z</time>
      </trkpt>
      <trkpt lat="43.87827" lon="3.70189">
        <ele>141.45</ele>
        <time>2015-03-29T14:18:14Z</time>
      </trkpt>
      <trkpt lat="43.87836" lon="3.70187">
        <ele>142.41</ele>
        <time>2015-03-29T14:18:15Z</time>
      </trkpt>
      <trkpt lat="43.87844" lon="3.70187">
        <ele>142.89</ele>
        <time>2015-03-29T14:18:16Z</time>
      </trkpt>
      <trkpt lat="43.87861" lon="3.70184">
        <ele>143.37</ele>
        <time>2015-03-29T14:18:18Z</time>
      </trkpt>
      <trkpt lat="43.87884" lon="3.70184">
        <ele>143.85</ele>
        <time>2015-03-29T14:18:21Z</time>
      </trkpt>
      <trkpt lat="43.87892" lon="3.70186">
        <ele>143.85</ele>
        <time>2015-03-29T14:18:22Z</time>
      </trkpt>
      <trkpt lat="43.87901" lon="3.70189">
        <ele>143.37</ele>
        <time>2015-03-29T14:18:23Z</time>
      </trkpt>
      <trkpt lat="43.87909" lon="3.70194">
        <ele>143.37</ele>
        <time>2015-03-29T14:18:24Z</time>
      </trkpt>
      <trkpt lat="43.87917" lon="3.702">
        <ele>143.37</ele>
        <time>2015-03-29T14:18:25Z</time>
      </trkpt>
      <trkpt lat="43.87971" lon="3.70238">
        <ele>143.37</ele>
        <time>2015-03-29T14:18:32Z</time>
      </trkpt>
      <trkpt lat="43.87979" lon="3.70242">
        <ele>143.85</ele>
        <time>2015-03-29T14:18:33Z</time>
      </trkpt>
      <trkpt lat="43.88062" lon="3.70267">
        <ele>144.82</ele>
        <time>2015-03-29T14:18:42Z</time>
      </trkpt>
      <trkpt lat="43.88176" lon="3.70289">
        <ele>143.85</ele>
        <time>2015-03-29T14:18:54Z</time>
      </trkpt>
      <trkpt lat="43.88324" lon="3.70316">
        <ele>145.78</ele>
        <time>2015-03-29T14:19:07Z</time>
      </trkpt>
      <trkpt lat="43.88535" lon="3.70355">
        <ele>149.62</ele>
        <time>2015-03-29T14:19:21Z</time>
      </trkpt>
      <trkpt lat="43.88736" lon="3.70388">
        <ele>154.91</ele>
        <time>2015-03-29T14:19:33Z</time>
      </trkpt>
      <trkpt lat="43.88907" lon="3.70382">
        <ele>160.2</ele>
        <time>2015-03-29T14:19:42Z</time>
      </trkpt>
      <trkpt lat="43.89094" lon="3.70322">
        <ele>167.41</ele>
        <time>2015-03-29T14:19:52Z</time>
      </trkpt>
      <trkpt lat="43.89276" lon="3.70245">
        <ele>170.77</ele>
        <time>2015-03-29T14:20:03Z</time>
      </trkpt>
      <trkpt lat="43.89457" lon="3.70189">
        <ele>169.33</ele>
        <time>2015-03-29T14:20:12Z</time>
      </trkpt>
      <trkpt lat="43.89718" lon="3.70113">
        <ele>166.45</ele>
        <time>2015-03-29T14:20:22Z</time>
      </trkpt>
      <trkpt lat="43.90038" lon="3.70018">
        <ele>164.52</ele>
        <time>2015-03-29T14:20:35Z</time>
      </trkpt>
      <trkpt lat="43.90172" lon="3.69978">
        <ele>167.89</ele>
        <time>2015-03-29T14:20:42Z</time>
      </trkpt>
      <trkpt lat="43.90205" lon="3.6997">
        <ele>168.85</ele>
        <time>2015-03-29T14:20:45Z</time>
      </trkpt>
      <trkpt lat="43.90209" lon="3.69973">
        <ele>169.33</ele>
        <time>2015-03-29T14:20:46Z</time>
      </trkpt>
      <trkpt lat="43.90211" lon="3.6998">
        <ele>169.33</ele>
        <time>2015-03-29T14:20:47Z</time>
      </trkpt>
      <trkpt lat="43.90212" lon="3.69991">
        <ele>169.33</ele>
        <time>2015-03-29T14:20:48Z</time>
      </trkpt>
      <trkpt lat="43.9021" lon="3.70005">
        <ele>169.33</ele>
        <time>2015-03-29T14:20:49Z</time>
      </trkpt>
      <trkpt lat="43.90205" lon="3.7002">
        <ele>168.37</ele>
        <time>2015-03-29T14:20:50Z</time>
      </trkpt>
      <trkpt lat="43.90196" lon="3.70034">
        <ele>168.37</ele>
        <time>2015-03-29T14:20:51Z</time>
      </trkpt>
      <trkpt lat="43.90185" lon="3.70049">
        <ele>167.89</ele>
        <time>2015-03-29T14:20:52Z</time>
      </trkpt>
      <trkpt lat="43.90174" lon="3.70064">
        <ele>167.89</ele>
        <time>2015-03-29T14:20:53Z</time>
      </trkpt>
      <trkpt lat="43.90154" lon="3.70099">
        <ele>166.93</ele>
        <time>2015-03-29T14:20:55Z</time>
      </trkpt>
      <trkpt lat="43.9015" lon="3.70121">
        <ele>166.93</ele>
        <time>2015-03-29T14:20:56Z</time>
      </trkpt>
      <trkpt lat="43.90147" lon="3.70145">
        <ele>166.45</ele>
        <time>2015-03-29T14:20:57Z</time>
      </trkpt>
      <trkpt lat="43.90126" lon="3.70334">
        <ele>164.52</ele>
        <time>2015-03-29T14:21:05Z</time>
      </trkpt>
      <trkpt lat="43.90126" lon="3.70354">
        <ele>164.04</ele>
        <time>2015-03-29T14:21:06Z</time>
      </trkpt>
      <trkpt lat="43.90128" lon="3.70372">
        <ele>163.56</ele>
        <time>2015-03-29T14:21:07Z</time>
      </trkpt>
      <trkpt lat="43.90129" lon="3.7039">
        <ele>163.08</ele>
        <time>2015-03-29T14:21:08Z</time>
      </trkpt>
      <trkpt lat="43.90129" lon="3.70409">
        <ele>162.6</ele>
        <time>2015-03-29T14:21:09Z</time>
      </trkpt>
      <trkpt lat="43.90127" lon="3.70427">
        <ele>162.12</ele>
        <time>2015-03-29T14:21:10Z</time>
      </trkpt>
      <trkpt lat="43.90123" lon="3.70446">
        <ele>161.64</ele>
        <time>2015-03-29T14:21:11Z</time>
      </trkpt>
      <trkpt lat="43.90117" lon="3.70464">
        <ele>161.16</ele>
        <time>2015-03-29T14:21:12Z</time>
      </trkpt>
      <trkpt lat="43.90109" lon="3.70482">
        <ele>161.16</ele>
        <time>2015-03-29T14:21:13Z</time>
      </trkpt>
      <trkpt lat="43.90099" lon="3.705">
        <ele>160.68</ele>
        <time>2015-03-29T14:21:14Z</time>
      </trkpt>
      <trkpt lat="43.90053" lon="3.70593">
        <ele>160.2</ele>
        <time>2015-03-29T14:21:19Z</time>
      </trkpt>
      <trkpt lat="43.90048" lon="3.70612">
        <ele>160.2</ele>
        <time>2015-03-29T14:21:20Z</time>
      </trkpt>
      <trkpt lat="43.90049" lon="3.70633">
        <ele>159.72</ele>
        <time>2015-03-29T14:21:21Z</time>
      </trkpt>
      <trkpt lat="43.90053" lon="3.70656">
        <ele>159.24</ele>
        <time>2015-03-29T14:21:22Z</time>
      </trkpt>
      <trkpt lat="43.9006" lon="3.70681">
        <ele>158.75</ele>
        <time>2015-03-29T14:21:23Z</time>
      </trkpt>
      <trkpt lat="43.90068" lon="3.70706">
        <ele>158.27</ele>
        <time>2015-03-29T14:21:24Z</time>
      </trkpt>
      <trkpt lat="43.90108" lon="3.70863">
        <ele>156.83</ele>
        <time>2015-03-29T14:21:30Z</time>
      </trkpt>
      <trkpt lat="43.90101" lon="3.70892">
        <ele>156.35</ele>
        <time>2015-03-29T14:21:31Z</time>
      </trkpt>
      <trkpt lat="43.90096" lon="3.70921">
        <ele>156.83</ele>
        <time>2015-03-29T14:21:32Z</time>
      </trkpt>
      <trkpt lat="43.90081" lon="3.7104">
        <ele>155.87</ele>
        <time>2015-03-29T14:21:36Z</time>
      </trkpt>
      <trkpt lat="43.90082" lon="3.71063">
        <ele>155.39</ele>
        <time>2015-03-29T14:21:37Z</time>
      </trkpt>
      <trkpt lat="43.90088" lon="3.71083">
        <ele>155.39</ele>
        <time>2015-03-29T14:21:38Z</time>
      </trkpt>
      <trkpt lat="43.90097" lon="3.71102">
        <ele>154.91</ele>
        <time>2015-03-29T14:21:39Z</time>
      </trkpt>
      <trkpt lat="43.90112" lon="3.71118">
        <ele>154.91</ele>
        <time>2015-03-29T14:21:40Z</time>
      </trkpt>
      <trkpt lat="43.90127" lon="3.71135">
        <ele>154.91</ele>
        <time>2015-03-29T14:21:41Z</time>
      </trkpt>
      <trkpt lat="43.90141" lon="3.71155">
        <ele>154.91</ele>
        <time>2015-03-29T14:21:42Z</time>
      </trkpt>
      <trkpt lat="43.90152" lon="3.7118">
        <ele>154.91</ele>
        <time>2015-03-29T14:21:43Z</time>
      </trkpt>
      <trkpt lat="43.9016" lon="3.71206">
        <ele>154.91</ele>
        <time>2015-03-29T14:21:44Z</time>
      </trkpt>
      <trkpt lat="43.90166" lon="3.71235">
        <ele>155.39</ele>
        <time>2015-03-29T14:21:45Z</time>
      </trkpt>
      <trkpt lat="43.90173" lon="3.71265">
        <ele>155.87</ele>
        <time>2015-03-29T14:21:46Z</time>
      </trkpt>
      <trkpt lat="43.90212" lon="3.71442">
        <ele>158.27</ele>
        <time>2015-03-29T14:21:52Z</time>
      </trkpt>
      <trkpt lat="43.90214" lon="3.71472">
        <ele>158.75</ele>
        <time>2015-03-29T14:21:53Z</time>
      </trkpt>
      <trkpt lat="43.90215" lon="3.71502">
        <ele>158.27</ele>
        <time>2015-03-29T14:21:54Z</time>
      </trkpt>
      <trkpt lat="43.90224" lon="3.71891">
        <ele>152.99</ele>
        <time>2015-03-29T14:22:07Z</time>
      </trkpt>
      <trkpt lat="43.90231" lon="3.71946">
        <ele>151.54</ele>
        <time>2015-03-29T14:22:09Z</time>
      </trkpt>
      <trkpt lat="43.90238" lon="3.71973">
        <ele>151.06</ele>
        <time>2015-03-29T14:22:10Z</time>
      </trkpt>
      <trkpt lat="43.90297" lon="3.72229">
        <ele>146.26</ele>
        <time>2015-03-29T14:22:19Z</time>
      </trkpt>
      <trkpt lat="43.90323" lon="3.72426">
        <ele>143.37</ele>
        <time>2015-03-29T14:22:26Z</time>
      </trkpt>
      <trkpt lat="43.90321" lon="3.72448">
        <ele>142.89</ele>
        <time>2015-03-29T14:22:27Z</time>
      </trkpt>
      <trkpt lat="43.90314" lon="3.72465">
        <ele>141.93</ele>
        <time>2015-03-29T14:22:28Z</time>
      </trkpt>
      <trkpt lat="43.90304" lon="3.72482">
        <ele>141.45</ele>
        <time>2015-03-29T14:22:29Z</time>
      </trkpt>
      <trkpt lat="43.90292" lon="3.72498">
        <ele>141.45</ele>
        <time>2015-03-29T14:22:30Z</time>
      </trkpt>
      <trkpt lat="43.9028" lon="3.72515">
        <ele>141.45</ele>
        <time>2015-03-29T14:22:31Z</time>
      </trkpt>
      <trkpt lat="43.90271" lon="3.72535">
        <ele>140.49</ele>
        <time>2015-03-29T14:22:32Z</time>
      </trkpt>
      <trkpt lat="43.90267" lon="3.72557">
        <ele>140.01</ele>
        <time>2015-03-29T14:22:33Z</time>
      </trkpt>
      <trkpt lat="43.90266" lon="3.7258">
        <ele>140.49</ele>
        <time>2015-03-29T14:22:34Z</time>
      </trkpt>
      <trkpt lat="43.90266" lon="3.72603">
        <ele>140.49</ele>
        <time>2015-03-29T14:22:35Z</time>
      </trkpt>
      <trkpt lat="43.90267" lon="3.72624">
        <ele>140.49</ele>
        <time>2015-03-29T14:22:36Z</time>
      </trkpt>
      <trkpt lat="43.90265" lon="3.72644">
        <ele>140.49</ele>
        <time>2015-03-29T14:22:37Z</time>
      </trkpt>
      <trkpt lat="43.90258" lon="3.72659">
        <ele>139.53</ele>
        <time>2015-03-29T14:22:38Z</time>
      </trkpt>
      <trkpt lat="43.90248" lon="3.72672">
        <ele>139.53</ele>
        <time>2015-03-29T14:22:39Z</time>
      </trkpt>
      <trkpt lat="43.90239" lon="3.72687">
        <ele>140.01</ele>
        <time>2015-03-29T14:22:40Z</time>
      </trkpt>
      <trkpt lat="43.9023" lon="3.72701">
        <ele>139.53</ele>
        <time>2015-03-29T14:22:41Z</time>
      </trkpt>
      <trkpt lat="43.90226" lon="3.72719">
        <ele>138.57</ele>
        <time>2015-03-29T14:22:42Z</time>
      </trkpt>
      <trkpt lat="43.90223" lon="3.72738">
        <ele>138.57</ele>
        <time>2015-03-29T14:22:43Z</time>
      </trkpt>
      <trkpt lat="43.90223" lon="3.72758">
        <ele>138.57</ele>
        <time>2015-03-29T14:22:44Z</time>
      </trkpt>
      <trkpt lat="43.90226" lon="3.72777">
        <ele>139.53</ele>
        <time>2015-03-29T14:22:45Z</time>
      </trkpt>
      <trkpt lat="43.90228" lon="3.72796">
        <ele>140.49</ele>
        <time>2015-03-29T14:22:46Z</time>
      </trkpt>
      <trkpt lat="43.9023" lon="3.72824">
        <ele>140.97</ele>
        <time>2015-03-29T14:22:48Z</time>
      </trkpt>
      <trkpt lat="43.90228" lon="3.72836">
        <ele>140.97</ele>
        <time>2015-03-29T14:22:49Z</time>
      </trkpt>
      <trkpt lat="43.90223" lon="3.72846">
        <ele>141.45</ele>
        <time>2015-03-29T14:22:50Z</time>
      </trkpt>
      <trkpt lat="43.90215" lon="3.72858">
        <ele>141.93</ele>
        <time>2015-03-29T14:22:51Z</time>
      </trkpt>
      <trkpt lat="43.90202" lon="3.72868">
        <ele>140.97</ele>
        <time>2015-03-29T14:22:52Z</time>
      </trkpt>
      <trkpt lat="43.90188" lon="3.72878">
        <ele>140.01</ele>
        <time>2015-03-29T14:22:53Z</time>
      </trkpt>
      <trkpt lat="43.90172" lon="3.72888">
        <ele>139.53</ele>
        <time>2015-03-29T14:22:54Z</time>
      </trkpt>
      <trkpt lat="43.90056" lon="3.72949">
        <ele>135.2</ele>
        <time>2015-03-29T14:23:01Z</time>
      </trkpt>
      <trkpt lat="43.90043" lon="3.72947">
        <ele>135.2</ele>
        <time>2015-03-29T14:23:02Z</time>
      </trkpt>
      <trkpt lat="43.90032" lon="3.72941">
        <ele>135.2</ele>
        <time>2015-03-29T14:23:03Z</time>
      </trkpt>
      <trkpt lat="43.9001" lon="3.72934">
        <ele>134.72</ele>
        <time>2015-03-29T14:23:05Z</time>
      </trkpt>
      <trkpt lat="43.89996" lon="3.72939">
        <ele>134.24</ele>
        <time>2015-03-29T14:23:06Z</time>
      </trkpt>
      <trkpt lat="43.89981" lon="3.72948">
        <ele>133.76</ele>
        <time>2015-03-29T14:23:07Z</time>
      </trkpt>
      <trkpt lat="43.89899" lon="3.72998">
        <ele>132.8</ele>
        <time>2015-03-29T14:23:12Z</time>
      </trkpt>
      <trkpt lat="43.89882" lon="3.72999">
        <ele>132.32</ele>
        <time>2015-03-29T14:23:13Z</time>
      </trkpt>
      <trkpt lat="43.89863" lon="3.72993">
        <ele>132.32</ele>
        <time>2015-03-29T14:23:14Z</time>
      </trkpt>
      <trkpt lat="43.89843" lon="3.72985">
        <ele>132.8</ele>
        <time>2015-03-29T14:23:15Z</time>
      </trkpt>
      <trkpt lat="43.89823" lon="3.72975">
        <ele>133.28</ele>
        <time>2015-03-29T14:23:16Z</time>
      </trkpt>
      <trkpt lat="43.89725" lon="3.72928">
        <ele>134.24</ele>
        <time>2015-03-29T14:23:22Z</time>
      </trkpt>
      <trkpt lat="43.8971" lon="3.72924">
        <ele>134.24</ele>
        <time>2015-03-29T14:23:23Z</time>
      </trkpt>
      <trkpt lat="43.89694" lon="3.72923">
        <ele>133.76</ele>
        <time>2015-03-29T14:23:24Z</time>
      </trkpt>
      <trkpt lat="43.89626" lon="3.72919">
        <ele>133.28</ele>
        <time>2015-03-29T14:23:28Z</time>
      </trkpt>
      <trkpt lat="43.89612" lon="3.72925">
        <ele>132.8</ele>
        <time>2015-03-29T14:23:29Z</time>
      </trkpt>
      <trkpt lat="43.89598" lon="3.72935">
        <ele>132.32</ele>
        <time>2015-03-29T14:23:30Z</time>
      </trkpt>
      <trkpt lat="43.89583" lon="3.72949">
        <ele>131.84</ele>
        <time>2015-03-29T14:23:31Z</time>
      </trkpt>
      <trkpt lat="43.89566" lon="3.72964">
        <ele>131.36</ele>
        <time>2015-03-29T14:23:32Z</time>
      </trkpt>
      <trkpt lat="43.89417" lon="3.73077">
        <ele>129.43</ele>
        <time>2015-03-29T14:23:40Z</time>
      </trkpt>
      <trkpt lat="43.89371" lon="3.7308">
        <ele>128.95</ele>
        <time>2015-03-29T14:23:43Z</time>
      </trkpt>
      <trkpt lat="43.89352" lon="3.73074">
        <ele>128.47</ele>
        <time>2015-03-29T14:23:44Z</time>
      </trkpt>
      <trkpt lat="43.89334" lon="3.73067">
        <ele>127.99</ele>
        <time>2015-03-29T14:23:45Z</time>
      </trkpt>
      <trkpt lat="43.89315" lon="3.73057">
        <ele>127.99</ele>
        <time>2015-03-29T14:23:46Z</time>
      </trkpt>
      <trkpt lat="43.89297" lon="3.73046">
        <ele>127.99</ele>
        <time>2015-03-29T14:23:47Z</time>
      </trkpt>
      <trkpt lat="43.8928" lon="3.73037">
        <ele>127.99</ele>
        <time>2015-03-29T14:23:48Z</time>
      </trkpt>
      <trkpt lat="43.89261" lon="3.73031">
        <ele>127.99</ele>
        <time>2015-03-29T14:23:49Z</time>
      </trkpt>
      <trkpt lat="43.89237" lon="3.73033">
        <ele>127.99</ele>
        <time>2015-03-29T14:23:50Z</time>
      </trkpt>
      <trkpt lat="43.89214" lon="3.73036">
        <ele>127.99</ele>
        <time>2015-03-29T14:23:51Z</time>
      </trkpt>
      <trkpt lat="43.89095" lon="3.73054">
        <ele>127.99</ele>
        <time>2015-03-29T14:23:58Z</time>
      </trkpt>
      <trkpt lat="43.89036" lon="3.73062">
        <ele>127.99</ele>
        <time>2015-03-29T14:24:04Z</time>
      </trkpt>
      <trkpt lat="43.89033" lon="3.73064">
        <ele>127.99</ele>
        <time>2015-03-29T14:24:05Z</time>
      </trkpt>
      <trkpt lat="43.89028" lon="3.73069">
        <ele>128.47</ele>
        <time>2015-03-29T14:24:08Z</time>
      </trkpt>
      <trkpt lat="43.89027" lon="3.73073">
        <ele>128.95</ele>
        <time>2015-03-29T14:24:09Z</time>
      </trkpt>
      <trkpt lat="43.89028" lon="3.73081">
        <ele>129.43</ele>
        <time>2015-03-29T14:24:10Z</time>
      </trkpt>
      <trkpt lat="43.89039" lon="3.7317">
        <ele>130.4</ele>
        <time>2015-03-29T14:24:15Z</time>
      </trkpt>
      <trkpt lat="43.89053" lon="3.73316">
        <ele>128.95</ele>
        <time>2015-03-29T14:24:23Z</time>
      </trkpt>
      <trkpt lat="43.89061" lon="3.73475">
        <ele>127.99</ele>
        <time>2015-03-29T14:24:32Z</time>
      </trkpt>
      <trkpt lat="43.89058" lon="3.73496">
        <ele>127.99</ele>
        <time>2015-03-29T14:24:33Z</time>
      </trkpt>
      <trkpt lat="43.89054" lon="3.73519">
        <ele>127.99</ele>
        <time>2015-03-29T14:24:34Z</time>
      </trkpt>
      <trkpt lat="43.89008" lon="3.73692">
        <ele>129.92</ele>
        <time>2015-03-29T14:24:43Z</time>
      </trkpt>
      <trkpt lat="43.88962" lon="3.73871">
        <ele>132.8</ele>
        <time>2015-03-29T14:24:55Z</time>
      </trkpt>
      <trkpt lat="43.88938" lon="3.73938">
        <ele>133.76</ele>
        <time>2015-03-29T14:25:03Z</time>
      </trkpt>
      <trkpt lat="43.88918" lon="3.73972">
        <ele>133.76</ele>
        <time>2015-03-29T14:25:07Z</time>
      </trkpt>
      <trkpt lat="43.88908" lon="3.73983">
        <ele>134.24</ele>
        <time>2015-03-29T14:25:08Z</time>
      </trkpt>
      <trkpt lat="43.88897" lon="3.73994">
        <ele>134.72</ele>
        <time>2015-03-29T14:25:09Z</time>
      </trkpt>
      <trkpt lat="43.88883" lon="3.74001">
        <ele>134.24</ele>
        <time>2015-03-29T14:25:10Z</time>
      </trkpt>
      <trkpt lat="43.88868" lon="3.74007">
        <ele>135.2</ele>
        <time>2015-03-29T14:25:11Z</time>
      </trkpt>
      <trkpt lat="43.88714" lon="3.74061">
        <ele>138.57</ele>
        <time>2015-03-29T14:25:21Z</time>
      </trkpt>
      <trkpt lat="43.88552" lon="3.74044">
        <ele>144.34</ele>
        <time>2015-03-29T14:25:29Z</time>
      </trkpt>
      <trkpt lat="43.88485" lon="3.74047">
        <ele>147.22</ele>
        <time>2015-03-29T14:25:32Z</time>
      </trkpt>
      <trkpt lat="43.88463" lon="3.74053">
        <ele>148.18</ele>
        <time>2015-03-29T14:25:33Z</time>
      </trkpt>
      <trkpt lat="43.88441" lon="3.74062">
        <ele>149.14</ele>
        <time>2015-03-29T14:25:34Z</time>
      </trkpt>
      <trkpt lat="43.88419" lon="3.74075">
        <ele>150.1</ele>
        <time>2015-03-29T14:25:35Z</time>
      </trkpt>
      <trkpt lat="43.88396" lon="3.7409">
        <ele>151.06</ele>
        <time>2015-03-29T14:25:36Z</time>
      </trkpt>
      <trkpt lat="43.88375" lon="3.74108">
        <ele>152.03</ele>
        <time>2015-03-29T14:25:37Z</time>
      </trkpt>
      <trkpt lat="43.88354" lon="3.74129">
        <ele>152.99</ele>
        <time>2015-03-29T14:25:38Z</time>
      </trkpt>
      <trkpt lat="43.88336" lon="3.74151">
        <ele>153.47</ele>
        <time>2015-03-29T14:25:39Z</time>
      </trkpt>
      <trkpt lat="43.8832" lon="3.74174">
        <ele>154.43</ele>
        <time>2015-03-29T14:25:40Z</time>
      </trkpt>
      <trkpt lat="43.88304" lon="3.74199">
        <ele>154.91</ele>
        <time>2015-03-29T14:25:41Z</time>
      </trkpt>
      <trkpt lat="43.8829" lon="3.74225">
        <ele>155.39</ele>
        <time>2015-03-29T14:25:42Z</time>
      </trkpt>
      <trkpt lat="43.88175" lon="3.74401">
        <ele>162.12</ele>
        <time>2015-03-29T14:25:49Z</time>
      </trkpt>
      <trkpt lat="43.88063" lon="3.74471">
        <ele>165</ele>
        <time>2015-03-29T14:25:54Z</time>
      </trkpt>
      <trkpt lat="43.87924" lon="3.74501">
        <ele>168.37</ele>
        <time>2015-03-29T14:26:00Z</time>
      </trkpt>
      <trkpt lat="43.87899" lon="3.74498">
        <ele>169.33</ele>
        <time>2015-03-29T14:26:01Z</time>
      </trkpt>
      <trkpt lat="43.87877" lon="3.7449">
        <ele>170.29</ele>
        <time>2015-03-29T14:26:02Z</time>
      </trkpt>
      <trkpt lat="43.87855" lon="3.74478">
        <ele>171.25</ele>
        <time>2015-03-29T14:26:03Z</time>
      </trkpt>
      <trkpt lat="43.87835" lon="3.74455">
        <ele>172.21</ele>
        <time>2015-03-29T14:26:04Z</time>
      </trkpt>
      <trkpt lat="43.87816" lon="3.74433">
        <ele>173.17</ele>
        <time>2015-03-29T14:26:05Z</time>
      </trkpt>
      <trkpt lat="43.87799" lon="3.74408">
        <ele>174.14</ele>
        <time>2015-03-29T14:26:06Z</time>
      </trkpt>
      <trkpt lat="43.87784" lon="3.74381">
        <ele>175.58</ele>
        <time>2015-03-29T14:26:07Z</time>
      </trkpt>
      <trkpt lat="43.87772" lon="3.74354">
        <ele>176.54</ele>
        <time>2015-03-29T14:26:08Z</time>
      </trkpt>
      <trkpt lat="43.87759" lon="3.74328">
        <ele>177.02</ele>
        <time>2015-03-29T14:26:09Z</time>
      </trkpt>
      <trkpt lat="43.87714" lon="3.74253">
        <ele>179.42</ele>
        <time>2015-03-29T14:26:12Z</time>
      </trkpt>
      <trkpt lat="43.87695" lon="3.74232">
        <ele>180.38</ele>
        <time>2015-03-29T14:26:13Z</time>
      </trkpt>
      <trkpt lat="43.87673" lon="3.74215">
        <ele>181.35</ele>
        <time>2015-03-29T14:26:14Z</time>
      </trkpt>
      <trkpt lat="43.87648" lon="3.74202">
        <ele>181.83</ele>
        <time>2015-03-29T14:26:15Z</time>
      </trkpt>
      <trkpt lat="43.87622" lon="3.74192">
        <ele>181.83</ele>
        <time>2015-03-29T14:26:16Z</time>
      </trkpt>
      <trkpt lat="43.87596" lon="3.74186">
        <ele>182.31</ele>
        <time>2015-03-29T14:26:17Z</time>
      </trkpt>
      <trkpt lat="43.8757" lon="3.74185">
        <ele>182.79</ele>
        <time>2015-03-29T14:26:18Z</time>
      </trkpt>
      <trkpt lat="43.87544" lon="3.74188">
        <ele>182.79</ele>
        <time>2015-03-29T14:26:19Z</time>
      </trkpt>
      <trkpt lat="43.8752" lon="3.74193">
        <ele>183.27</ele>
        <time>2015-03-29T14:26:20Z</time>
      </trkpt>
      <trkpt lat="43.87496" lon="3.742">
        <ele>183.27</ele>
        <time>2015-03-29T14:26:21Z</time>
      </trkpt>
      <trkpt lat="43.87473" lon="3.74208">
        <ele>183.75</ele>
        <time>2015-03-29T14:26:22Z</time>
      </trkpt>
      <trkpt lat="43.87271" lon="3.74247">
        <ele>187.11</ele>
        <time>2015-03-29T14:26:30Z</time>
      </trkpt>
      <trkpt lat="43.87071" lon="3.7422">
        <ele>192.88</ele>
        <time>2015-03-29T14:26:38Z</time>
      </trkpt>
      <trkpt lat="43.86882" lon="3.74134">
        <ele>200.09</ele>
        <time>2015-03-29T14:26:46Z</time>
      </trkpt>
      <trkpt lat="43.86718" lon="3.74036">
        <ele>207.3</ele>
        <time>2015-03-29T14:26:53Z</time>
      </trkpt>
      <trkpt lat="43.86695" lon="3.74031">
        <ele>208.26</ele>
        <time>2015-03-29T14:26:54Z</time>
      </trkpt>
      <trkpt lat="43.86671" lon="3.74029">
        <ele>209.22</ele>
        <time>2015-03-29T14:26:55Z</time>
      </trkpt>
      <trkpt lat="43.86648" lon="3.7403">
        <ele>209.7</ele>
        <time>2015-03-29T14:26:56Z</time>
      </trkpt>
      <trkpt lat="43.86624" lon="3.74034">
        <ele>210.67</ele>
        <time>2015-03-29T14:26:57Z</time>
      </trkpt>
      <trkpt lat="43.866" lon="3.74041">
        <ele>211.63</ele>
        <time>2015-03-29T14:26:58Z</time>
      </trkpt>
      <trkpt lat="43.86576" lon="3.74051">
        <ele>212.11</ele>
        <time>2015-03-29T14:26:59Z</time>
      </trkpt>
      <trkpt lat="43.86552" lon="3.74064">
        <ele>212.59</ele>
        <time>2015-03-29T14:27:00Z</time>
      </trkpt>
      <trkpt lat="43.86528" lon="3.74078">
        <ele>213.07</ele>
        <time>2015-03-29T14:27:01Z</time>
      </trkpt>
      <trkpt lat="43.86322" lon="3.74233">
        <ele>219.8</ele>
        <time>2015-03-29T14:27:10Z</time>
      </trkpt>
      <trkpt lat="43.86179" lon="3.74313">
        <ele>226.53</ele>
        <time>2015-03-29T14:27:15Z</time>
      </trkpt>
      <trkpt lat="43.86144" lon="3.74315">
        <ele>228.45</ele>
        <time>2015-03-29T14:27:16Z</time>
      </trkpt>
      <trkpt lat="43.86112" lon="3.74314">
        <ele>229.89</ele>
        <time>2015-03-29T14:27:17Z</time>
      </trkpt>
      <trkpt lat="43.86076" lon="3.74302">
        <ele>231.81</ele>
        <time>2015-03-29T14:27:18Z</time>
      </trkpt>
      <trkpt lat="43.86041" lon="3.7428">
        <ele>235.66</ele>
        <time>2015-03-29T14:27:19Z</time>
      </trkpt>
      <trkpt lat="43.86009" lon="3.74254">
        <ele>239.99</ele>
        <time>2015-03-29T14:27:20Z</time>
      </trkpt>
      <trkpt lat="43.85978" lon="3.74231">
        <ele>243.83</ele>
        <time>2015-03-29T14:27:21Z</time>
      </trkpt>
      <trkpt lat="43.85913" lon="3.74192">
        <ele>250.56</ele>
        <time>2015-03-29T14:27:23Z</time>
      </trkpt>
      <trkpt lat="43.85879" lon="3.74181">
        <ele>253.44</ele>
        <time>2015-03-29T14:27:24Z</time>
      </trkpt>
      <trkpt lat="43.85843" lon="3.74175">
        <ele>256.33</ele>
        <time>2015-03-29T14:27:25Z</time>
      </trkpt>
      <trkpt lat="43.85805" lon="3.74174">
        <ele>258.73</ele>
        <time>2015-03-29T14:27:26Z</time>
      </trkpt>
      <trkpt lat="43.85768" lon="3.74179">
        <ele>262.1</ele>
        <time>2015-03-29T14:27:27Z</time>
      </trkpt>
      <trkpt lat="43.85728" lon="3.74187">
        <ele>266.42</ele>
        <time>2015-03-29T14:27:28Z</time>
      </trkpt>
      <trkpt lat="43.85462" lon="3.74215">
        <ele>290.94</ele>
        <time>2015-03-29T14:27:35Z</time>
      </trkpt>
      <trkpt lat="43.85279" lon="3.74167">
        <ele>306.8</ele>
        <time>2015-03-29T14:27:40Z</time>
      </trkpt>
      <trkpt lat="43.85145" lon="3.74098">
        <ele>321.22</ele>
        <time>2015-03-29T14:27:45Z</time>
      </trkpt>
      <trkpt lat="43.85036" lon="3.74038">
        <ele>329.87</ele>
        <time>2015-03-29T14:27:51Z</time>
      </trkpt>
      <trkpt lat="43.84882" lon="3.73986">
        <ele>327.47</ele>
        <time>2015-03-29T14:28:00Z</time>
      </trkpt>
      <trkpt lat="43.84741" lon="3.74021">
        <ele>316.41</ele>
        <time>2015-03-29T14:28:07Z</time>
      </trkpt>
      <trkpt lat="43.8455" lon="3.74117">
        <ele>305.36</ele>
        <time>2015-03-29T14:28:17Z</time>
      </trkpt>
      <trkpt lat="43.84375" lon="3.74218">
        <ele>295.74</ele>
        <time>2015-03-29T14:28:27Z</time>
      </trkpt>
      <trkpt lat="43.84097" lon="3.74371">
        <ele>267.86</ele>
        <time>2015-03-29T14:28:42Z</time>
      </trkpt>
      <trkpt lat="43.83912" lon="3.74429">
        <ele>254.89</ele>
        <time>2015-03-29T14:28:51Z</time>
      </trkpt>
      <trkpt lat="43.83758" lon="3.74395">
        <ele>247.2</ele>
        <time>2015-03-29T14:28:58Z</time>
      </trkpt>
      <trkpt lat="43.83626" lon="3.74313">
        <ele>242.87</ele>
        <time>2015-03-29T14:29:05Z</time>
      </trkpt>
      <trkpt lat="43.83475" lon="3.74241">
        <ele>237.1</ele>
        <time>2015-03-29T14:29:14Z</time>
      </trkpt>
      <trkpt lat="43.83437" lon="3.74234">
        <ele>235.66</ele>
        <time>2015-03-29T14:29:16Z</time>
      </trkpt>
      <trkpt lat="43.83418" lon="3.74234">
        <ele>234.7</ele>
        <time>2015-03-29T14:29:17Z</time>
      </trkpt>
      <trkpt lat="43.83398" lon="3.74238">
        <ele>233.74</ele>
        <time>2015-03-29T14:29:18Z</time>
      </trkpt>
      <trkpt lat="43.83378" lon="3.74243">
        <ele>232.78</ele>
        <time>2015-03-29T14:29:19Z</time>
      </trkpt>
      <trkpt lat="43.83359" lon="3.7425">
        <ele>231.81</ele>
        <time>2015-03-29T14:29:20Z</time>
      </trkpt>
      <trkpt lat="43.83341" lon="3.7426">
        <ele>230.85</ele>
        <time>2015-03-29T14:29:21Z</time>
      </trkpt>
      <trkpt lat="43.83324" lon="3.74273">
        <ele>230.37</ele>
        <time>2015-03-29T14:29:22Z</time>
      </trkpt>
      <trkpt lat="43.83307" lon="3.74287">
        <ele>229.41</ele>
        <time>2015-03-29T14:29:23Z</time>
      </trkpt>
      <trkpt lat="43.83291" lon="3.74302">
        <ele>228.45</ele>
        <time>2015-03-29T14:29:24Z</time>
      </trkpt>
      <trkpt lat="43.83182" lon="3.74417">
        <ele>223.64</ele>
        <time>2015-03-29T14:29:30Z</time>
      </trkpt>
      <trkpt lat="43.83086" lon="3.74497">
        <ele>219.8</ele>
        <time>2015-03-29T14:29:35Z</time>
      </trkpt>
      <trkpt lat="43.83068" lon="3.74506">
        <ele>219.32</ele>
        <time>2015-03-29T14:29:36Z</time>
      </trkpt>
      <trkpt lat="43.83049" lon="3.74511">
        <ele>218.36</ele>
        <time>2015-03-29T14:29:37Z</time>
      </trkpt>
      <trkpt lat="43.8303" lon="3.74513">
        <ele>217.88</ele>
        <time>2015-03-29T14:29:38Z</time>
      </trkpt>
      <trkpt lat="43.8301" lon="3.74514">
        <ele>217.4</ele>
        <time>2015-03-29T14:29:39Z</time>
      </trkpt>
      <trkpt lat="43.8299" lon="3.74513">
        <ele>216.91</ele>
        <time>2015-03-29T14:29:40Z</time>
      </trkpt>
      <trkpt lat="43.82839" lon="3.74501">
        <ele>213.07</ele>
        <time>2015-03-29T14:29:46Z</time>
      </trkpt>
      <trkpt lat="43.82665" lon="3.74482">
        <ele>211.63</ele>
        <time>2015-03-29T14:29:53Z</time>
      </trkpt>
      <trkpt lat="43.82335" lon="3.74457">
        <ele>214.03</ele>
        <time>2015-03-29T14:30:08Z</time>
      </trkpt>
      <trkpt lat="43.82069" lon="3.74463">
        <ele>206.34</ele>
        <time>2015-03-29T14:30:20Z</time>
      </trkpt>
      <trkpt lat="43.81923" lon="3.74445">
        <ele>200.09</ele>
        <time>2015-03-29T14:30:27Z</time>
      </trkpt>
      <trkpt lat="43.81816" lon="3.74457">
        <ele>195.77</ele>
        <time>2015-03-29T14:30:32Z</time>
      </trkpt>
      <trkpt lat="43.81794" lon="3.74455">
        <ele>194.8</ele>
        <time>2015-03-29T14:30:33Z</time>
      </trkpt>
      <trkpt lat="43.81773" lon="3.74449">
        <ele>193.84</ele>
        <time>2015-03-29T14:30:34Z</time>
      </trkpt>
      <trkpt lat="43.81752" lon="3.7444">
        <ele>192.88</ele>
        <time>2015-03-29T14:30:35Z</time>
      </trkpt>
      <trkpt lat="43.81732" lon="3.74429">
        <ele>191.92</ele>
        <time>2015-03-29T14:30:36Z</time>
      </trkpt>
      <trkpt lat="43.81565" lon="3.74343">
        <ele>185.67</ele>
        <time>2015-03-29T14:30:45Z</time>
      </trkpt>
      <trkpt lat="43.81546" lon="3.74341">
        <ele>184.71</ele>
        <time>2015-03-29T14:30:46Z</time>
      </trkpt>
      <trkpt lat="43.81527" lon="3.74341">
        <ele>184.23</ele>
        <time>2015-03-29T14:30:47Z</time>
      </trkpt>
      <trkpt lat="43.81507" lon="3.74344">
        <ele>183.27</ele>
        <time>2015-03-29T14:30:48Z</time>
      </trkpt>
      <trkpt lat="43.81488" lon="3.74349">
        <ele>182.79</ele>
        <time>2015-03-29T14:30:49Z</time>
      </trkpt>
      <trkpt lat="43.8132" lon="3.74388">
        <ele>175.58</ele>
        <time>2015-03-29T14:30:58Z</time>
      </trkpt>
      <trkpt lat="43.81303" lon="3.74383">
        <ele>174.62</ele>
        <time>2015-03-29T14:30:59Z</time>
      </trkpt>
      <trkpt lat="43.81287" lon="3.74374">
        <ele>174.14</ele>
        <time>2015-03-29T14:31:00Z</time>
      </trkpt>
      <trkpt lat="43.81273" lon="3.74362">
        <ele>174.14</ele>
        <time>2015-03-29T14:31:01Z</time>
      </trkpt>
      <trkpt lat="43.81259" lon="3.74348">
        <ele>173.66</ele>
        <time>2015-03-29T14:31:02Z</time>
      </trkpt>
      <trkpt lat="43.81246" lon="3.74331">
        <ele>173.66</ele>
        <time>2015-03-29T14:31:03Z</time>
      </trkpt>
      <trkpt lat="43.81236" lon="3.74312">
        <ele>173.17</ele>
        <time>2015-03-29T14:31:04Z</time>
      </trkpt>
      <trkpt lat="43.81226" lon="3.74292">
        <ele>173.17</ele>
        <time>2015-03-29T14:31:05Z</time>
      </trkpt>
      <trkpt lat="43.81163" lon="3.74172">
        <ele>173.17</ele>
        <time>2015-03-29T14:31:11Z</time>
      </trkpt>
      <trkpt lat="43.81148" lon="3.74158">
        <ele>173.17</ele>
        <time>2015-03-29T14:31:12Z</time>
      </trkpt>
      <trkpt lat="43.81131" lon="3.74146">
        <ele>173.17</ele>
        <time>2015-03-29T14:31:13Z</time>
      </trkpt>
      <trkpt lat="43.81113" lon="3.74136">
        <ele>173.17</ele>
        <time>2015-03-29T14:31:14Z</time>
      </trkpt>
      <trkpt lat="43.81094" lon="3.74128">
        <ele>173.17</ele>
        <time>2015-03-29T14:31:15Z</time>
      </trkpt>
      <trkpt lat="43.81074" lon="3.74123">
        <ele>173.66</ele>
        <time>2015-03-29T14:31:16Z</time>
      </trkpt>
      <trkpt lat="43.81052" lon="3.74124">
        <ele>174.14</ele>
        <time>2015-03-29T14:31:17Z</time>
      </trkpt>
      <trkpt lat="43.81029" lon="3.74129">
        <ele>174.62</ele>
        <time>2015-03-29T14:31:18Z</time>
      </trkpt>
      <trkpt lat="43.81007" lon="3.74135">
        <ele>175.1</ele>
        <time>2015-03-29T14:31:19Z</time>
      </trkpt>
      <trkpt lat="43.80985" lon="3.74143">
        <ele>175.58</ele>
        <time>2015-03-29T14:31:20Z</time>
      </trkpt>
      <trkpt lat="43.80917" lon="3.74162">
        <ele>177.5</ele>
        <time>2015-03-29T14:31:23Z</time>
      </trkpt>
      <trkpt lat="43.80893" lon="3.74163">
        <ele>178.46</ele>
        <time>2015-03-29T14:31:24Z</time>
      </trkpt>
      <trkpt lat="43.80869" lon="3.74157">
        <ele>178.94</ele>
        <time>2015-03-29T14:31:25Z</time>
      </trkpt>
      <trkpt lat="43.80845" lon="3.74147">
        <ele>179.42</ele>
        <time>2015-03-29T14:31:26Z</time>
      </trkpt>
      <trkpt lat="43.80822" lon="3.74131">
        <ele>180.38</ele>
        <time>2015-03-29T14:31:27Z</time>
      </trkpt>
      <trkpt lat="43.80799" lon="3.74113">
        <ele>180.87</ele>
        <time>2015-03-29T14:31:28Z</time>
      </trkpt>
      <trkpt lat="43.80776" lon="3.74092">
        <ele>181.83</ele>
        <time>2015-03-29T14:31:29Z</time>
      </trkpt>
      <trkpt lat="43.80498" lon="3.73846">
        <ele>193.36</ele>
        <time>2015-03-29T14:31:41Z</time>
      </trkpt>
      <trkpt lat="43.80473" lon="3.73834">
        <ele>194.32</ele>
        <time>2015-03-29T14:31:42Z</time>
      </trkpt>
      <trkpt lat="43.80446" lon="3.73825">
        <ele>194.8</ele>
        <time>2015-03-29T14:31:43Z</time>
      </trkpt>
      <trkpt lat="43.80165" lon="3.73786">
        <ele>202.01</ele>
        <time>2015-03-29T14:31:53Z</time>
      </trkpt>
      <trkpt lat="43.79988" lon="3.73843">
        <ele>201.53</ele>
        <time>2015-03-29T14:31:59Z</time>
      </trkpt>
      <trkpt lat="43.7982" lon="3.73949">
        <ele>195.28</ele>
        <time>2015-03-29T14:32:06Z</time>
      </trkpt>
      <trkpt lat="43.79671" lon="3.73995">
        <ele>186.15</ele>
        <time>2015-03-29T14:32:13Z</time>
      </trkpt>
      <trkpt lat="43.79536" lon="3.73966">
        <ele>181.83</ele>
        <time>2015-03-29T14:32:19Z</time>
      </trkpt>
      <trkpt lat="43.79417" lon="3.73872">
        <ele>185.19</ele>
        <time>2015-03-29T14:32:25Z</time>
      </trkpt>
      <trkpt lat="43.79226" lon="3.73703">
        <ele>190</ele>
        <time>2015-03-29T14:32:35Z</time>
      </trkpt>
      <trkpt lat="43.79107" lon="3.7367">
        <ele>190.96</ele>
        <time>2015-03-29T14:32:41Z</time>
      </trkpt>
      <trkpt lat="43.78974" lon="3.73665">
        <ele>190.48</ele>
        <time>2015-03-29T14:32:50Z</time>
      </trkpt>
      <trkpt lat="43.78964" lon="3.73662">
        <ele>190.48</ele>
        <time>2015-03-29T14:32:51Z</time>
      </trkpt>
      <trkpt lat="43.78957" lon="3.73657">
        <ele>190.48</ele>
        <time>2015-03-29T14:32:52Z</time>
      </trkpt>
      <trkpt lat="43.78943" lon="3.73646">
        <ele>190.48</ele>
        <time>2015-03-29T14:32:54Z</time>
      </trkpt>
      <trkpt lat="43.78937" lon="3.73646">
        <ele>190.48</ele>
        <time>2015-03-29T14:32:55Z</time>
      </trkpt>
      <trkpt lat="43.78932" lon="3.73652">
        <ele>190.48</ele>
        <time>2015-03-29T14:32:56Z</time>
      </trkpt>
      <trkpt lat="43.78927" lon="3.73662">
        <ele>190.48</ele>
        <time>2015-03-29T14:32:57Z</time>
      </trkpt>
      <trkpt lat="43.78927" lon="3.73676">
        <ele>190</ele>
        <time>2015-03-29T14:32:58Z</time>
      </trkpt>
      <trkpt lat="43.78932" lon="3.73689">
        <ele>190</ele>
        <time>2015-03-29T14:32:59Z</time>
      </trkpt>
      <trkpt lat="43.78937" lon="3.73702">
        <ele>189.52</ele>
        <time>2015-03-29T14:33:00Z</time>
      </trkpt>
      <trkpt lat="43.7894" lon="3.73719">
        <ele>189.52</ele>
        <time>2015-03-29T14:33:01Z</time>
      </trkpt>
      <trkpt lat="43.78942" lon="3.73739">
        <ele>189.52</ele>
        <time>2015-03-29T14:33:02Z</time>
      </trkpt>
      <trkpt lat="43.78942" lon="3.73761">
        <ele>190</ele>
        <time>2015-03-29T14:33:03Z</time>
      </trkpt>
      <trkpt lat="43.78932" lon="3.73864">
        <ele>190.96</ele>
        <time>2015-03-29T14:33:07Z</time>
      </trkpt>
      <trkpt lat="43.78922" lon="3.7389">
        <ele>191.44</ele>
        <time>2015-03-29T14:33:08Z</time>
      </trkpt>
      <trkpt lat="43.78907" lon="3.73914">
        <ele>191.92</ele>
        <time>2015-03-29T14:33:09Z</time>
      </trkpt>
      <trkpt lat="43.7889" lon="3.73936">
        <ele>192.4</ele>
        <time>2015-03-29T14:33:10Z</time>
      </trkpt>
      <trkpt lat="43.7887" lon="3.73957">
        <ele>192.88</ele>
        <time>2015-03-29T14:33:11Z</time>
      </trkpt>
      <trkpt lat="43.78849" lon="3.73978">
        <ele>194.32</ele>
        <time>2015-03-29T14:33:12Z</time>
      </trkpt>
      <trkpt lat="43.78829" lon="3.73996">
        <ele>194.8</ele>
        <time>2015-03-29T14:33:13Z</time>
      </trkpt>
      <trkpt lat="43.78807" lon="3.74012">
        <ele>195.28</ele>
        <time>2015-03-29T14:33:14Z</time>
      </trkpt>
      <trkpt lat="43.78784" lon="3.74025">
        <ele>196.73</ele>
        <time>2015-03-29T14:33:15Z</time>
      </trkpt>
      <trkpt lat="43.78739" lon="3.74048">
        <ele>198.65</ele>
        <time>2015-03-29T14:33:17Z</time>
      </trkpt>
      <trkpt lat="43.78717" lon="3.74068">
        <ele>199.13</ele>
        <time>2015-03-29T14:33:18Z</time>
      </trkpt>
      <trkpt lat="43.78695" lon="3.74091">
        <ele>199.61</ele>
        <time>2015-03-29T14:33:19Z</time>
      </trkpt>
      <trkpt lat="43.78676" lon="3.74118">
        <ele>200.09</ele>
        <time>2015-03-29T14:33:20Z</time>
      </trkpt>
      <trkpt lat="43.78661" lon="3.74146">
        <ele>200.09</ele>
        <time>2015-03-29T14:33:21Z</time>
      </trkpt>
      <trkpt lat="43.78648" lon="3.74181">
        <ele>200.09</ele>
        <time>2015-03-29T14:33:22Z</time>
      </trkpt>
      <trkpt lat="43.78634" lon="3.74216">
        <ele>199.61</ele>
        <time>2015-03-29T14:33:23Z</time>
      </trkpt>
      <trkpt lat="43.78561" lon="3.74469">
        <ele>199.13</ele>
        <time>2015-03-29T14:33:29Z</time>
      </trkpt>
      <trkpt lat="43.78488" lon="3.74828">
        <ele>201.05</ele>
        <time>2015-03-29T14:33:37Z</time>
      </trkpt>
      <trkpt lat="43.7848" lon="3.74863">
        <ele>202.01</ele>
        <time>2015-03-29T14:33:38Z</time>
      </trkpt>
      <trkpt lat="43.78468" lon="3.74895">
        <ele>202.98</ele>
        <time>2015-03-29T14:33:39Z</time>
      </trkpt>
      <trkpt lat="43.78433" lon="3.74987">
        <ele>205.86</ele>
        <time>2015-03-29T14:33:42Z</time>
      </trkpt>
      <trkpt lat="43.78429" lon="3.75019">
        <ele>206.34</ele>
        <time>2015-03-29T14:33:43Z</time>
      </trkpt>
      <trkpt lat="43.78431" lon="3.75048">
        <ele>206.34</ele>
        <time>2015-03-29T14:33:44Z</time>
      </trkpt>
      <trkpt lat="43.78438" lon="3.75081">
        <ele>206.34</ele>
        <time>2015-03-29T14:33:45Z</time>
      </trkpt>
      <trkpt lat="43.78447" lon="3.75116">
        <ele>205.38</ele>
        <time>2015-03-29T14:33:46Z</time>
      </trkpt>
      <trkpt lat="43.78456" lon="3.75152">
        <ele>204.42</ele>
        <time>2015-03-29T14:33:47Z</time>
      </trkpt>
      <trkpt lat="43.78496" lon="3.75337">
        <ele>202.49</ele>
        <time>2015-03-29T14:33:53Z</time>
      </trkpt>
      <trkpt lat="43.78519" lon="3.75472">
        <ele>202.98</ele>
        <time>2015-03-29T14:34:00Z</time>
      </trkpt>
      <trkpt lat="43.78532" lon="3.75564">
        <ele>202.01</ele>
        <time>2015-03-29T14:34:06Z</time>
      </trkpt>
      <trkpt lat="43.78535" lon="3.75578">
        <ele>202.01</ele>
        <time>2015-03-29T14:34:07Z</time>
      </trkpt>
      <trkpt lat="43.7854" lon="3.75593">
        <ele>202.49</ele>
        <time>2015-03-29T14:34:08Z</time>
      </trkpt>
      <trkpt lat="43.78585" lon="3.75728">
        <ele>204.42</ele>
        <time>2015-03-29T14:34:18Z</time>
      </trkpt>
      <trkpt lat="43.78599" lon="3.75763">
        <ele>203.94</ele>
        <time>2015-03-29T14:34:21Z</time>
      </trkpt>
      <trkpt lat="43.78607" lon="3.75773">
        <ele>203.46</ele>
        <time>2015-03-29T14:34:22Z</time>
      </trkpt>
      <trkpt lat="43.78616" lon="3.75783">
        <ele>202.98</ele>
        <time>2015-03-29T14:34:23Z</time>
      </trkpt>
      <trkpt lat="43.78627" lon="3.75791">
        <ele>202.49</ele>
        <time>2015-03-29T14:34:24Z</time>
      </trkpt>
      <trkpt lat="43.78638" lon="3.75798">
        <ele>202.01</ele>
        <time>2015-03-29T14:34:25Z</time>
      </trkpt>
      <trkpt lat="43.78648" lon="3.75804">
        <ele>201.53</ele>
        <time>2015-03-29T14:34:26Z</time>
      </trkpt>
      <trkpt lat="43.78763" lon="3.75865">
        <ele>197.69</ele>
        <time>2015-03-29T14:34:37Z</time>
      </trkpt>
      <trkpt lat="43.78872" lon="3.75936">
        <ele>194.32</ele>
        <time>2015-03-29T14:34:45Z</time>
      </trkpt>
      <trkpt lat="43.78994" lon="3.7604">
        <ele>191.44</ele>
        <time>2015-03-29T14:34:52Z</time>
      </trkpt>
      <trkpt lat="43.79109" lon="3.76119">
        <ele>187.59</ele>
        <time>2015-03-29T14:34:57Z</time>
      </trkpt>
      <trkpt lat="43.7913" lon="3.76145">
        <ele>186.63</ele>
        <time>2015-03-29T14:34:58Z</time>
      </trkpt>
      <trkpt lat="43.79149" lon="3.76176">
        <ele>185.67</ele>
        <time>2015-03-29T14:34:59Z</time>
      </trkpt>
      <trkpt lat="43.79166" lon="3.76209">
        <ele>185.19</ele>
        <time>2015-03-29T14:35:00Z</time>
      </trkpt>
      <trkpt lat="43.79182" lon="3.76243">
        <ele>184.71</ele>
        <time>2015-03-29T14:35:01Z</time>
      </trkpt>
      <trkpt lat="43.79276" lon="3.76507">
        <ele>184.71</ele>
        <time>2015-03-29T14:35:08Z</time>
      </trkpt>
      <trkpt lat="43.7938" lon="3.76777">
        <ele>182.79</ele>
        <time>2015-03-29T14:35:15Z</time>
      </trkpt>
      <trkpt lat="43.79399" lon="3.76854">
        <ele>182.31</ele>
        <time>2015-03-29T14:35:17Z</time>
      </trkpt>
      <trkpt lat="43.79403" lon="3.76898">
        <ele>181.83</ele>
        <time>2015-03-29T14:35:18Z</time>
      </trkpt>
      <trkpt lat="43.79405" lon="3.76943">
        <ele>181.83</ele>
        <time>2015-03-29T14:35:19Z</time>
      </trkpt>
      <trkpt lat="43.79448" lon="3.77225">
        <ele>182.31</ele>
        <time>2015-03-29T14:35:25Z</time>
      </trkpt>
      <trkpt lat="43.79535" lon="3.77669">
        <ele>188.08</ele>
        <time>2015-03-29T14:35:35Z</time>
      </trkpt>
      <trkpt lat="43.79537" lon="3.77703">
        <ele>188.08</ele>
        <time>2015-03-29T14:35:36Z</time>
      </trkpt>
      <trkpt lat="43.79533" lon="3.77737">
        <ele>188.08</ele>
        <time>2015-03-29T14:35:37Z</time>
      </trkpt>
      <trkpt lat="43.79524" lon="3.77773">
        <ele>188.08</ele>
        <time>2015-03-29T14:35:38Z</time>
      </trkpt>
      <trkpt lat="43.79512" lon="3.77809">
        <ele>188.08</ele>
        <time>2015-03-29T14:35:39Z</time>
      </trkpt>
      <trkpt lat="43.795" lon="3.77847">
        <ele>188.56</ele>
        <time>2015-03-29T14:35:40Z</time>
      </trkpt>
      <trkpt lat="43.79465" lon="3.78067">
        <ele>189.52</ele>
        <time>2015-03-29T14:35:45Z</time>
      </trkpt>
      <trkpt lat="43.79467" lon="3.78146">
        <ele>189.52</ele>
        <time>2015-03-29T14:35:47Z</time>
      </trkpt>
      <trkpt lat="43.79472" lon="3.78182">
        <ele>189.52</ele>
        <time>2015-03-29T14:35:48Z</time>
      </trkpt>
      <trkpt lat="43.79477" lon="3.78248">
        <ele>189.52</ele>
        <time>2015-03-29T14:35:50Z</time>
      </trkpt>
      <trkpt lat="43.79472" lon="3.78279">
        <ele>189.52</ele>
        <time>2015-03-29T14:35:51Z</time>
      </trkpt>
      <trkpt lat="43.79459" lon="3.78309">
        <ele>189.52</ele>
        <time>2015-03-29T14:35:52Z</time>
      </trkpt>
      <trkpt lat="43.79441" lon="3.78338">
        <ele>189.52</ele>
        <time>2015-03-29T14:35:53Z</time>
      </trkpt>
      <trkpt lat="43.7942" lon="3.78363">
        <ele>189.52</ele>
        <time>2015-03-29T14:35:54Z</time>
      </trkpt>
      <trkpt lat="43.79398" lon="3.78387">
        <ele>189.52</ele>
        <time>2015-03-29T14:35:55Z</time>
      </trkpt>
      <trkpt lat="43.79377" lon="3.7841">
        <ele>190.48</ele>
        <time>2015-03-29T14:35:56Z</time>
      </trkpt>
      <trkpt lat="43.79323" lon="3.78489">
        <ele>190.96</ele>
        <time>2015-03-29T14:35:59Z</time>
      </trkpt>
      <trkpt lat="43.79308" lon="3.78522">
        <ele>190.96</ele>
        <time>2015-03-29T14:36:00Z</time>
      </trkpt>
      <trkpt lat="43.79294" lon="3.78558">
        <ele>191.44</ele>
        <time>2015-03-29T14:36:01Z</time>
      </trkpt>
      <trkpt lat="43.79227" lon="3.78783">
        <ele>188.56</ele>
        <time>2015-03-29T14:36:07Z</time>
      </trkpt>
      <trkpt lat="43.79224" lon="3.78824">
        <ele>188.08</ele>
        <time>2015-03-29T14:36:08Z</time>
      </trkpt>
      <trkpt lat="43.79225" lon="3.78868">
        <ele>187.59</ele>
        <time>2015-03-29T14:36:09Z</time>
      </trkpt>
      <trkpt lat="43.79229" lon="3.78913">
        <ele>187.59</ele>
        <time>2015-03-29T14:36:10Z</time>
      </trkpt>
      <trkpt lat="43.79234" lon="3.78959">
        <ele>187.11</ele>
        <time>2015-03-29T14:36:11Z</time>
      </trkpt>
      <trkpt lat="43.79245" lon="3.79124">
        <ele>187.59</ele>
        <time>2015-03-29T14:36:15Z</time>
      </trkpt>
      <trkpt lat="43.79239" lon="3.79164">
        <ele>187.59</ele>
        <time>2015-03-29T14:36:16Z</time>
      </trkpt>
      <trkpt lat="43.79231" lon="3.79204">
        <ele>187.59</ele>
        <time>2015-03-29T14:36:17Z</time>
      </trkpt>
      <trkpt lat="43.79184" lon="3.79433">
        <ele>189.52</ele>
        <time>2015-03-29T14:36:23Z</time>
      </trkpt>
      <trkpt lat="43.79186" lon="3.79467">
        <ele>189.04</ele>
        <time>2015-03-29T14:36:24Z</time>
      </trkpt>
      <trkpt lat="43.79192" lon="3.79501">
        <ele>189.04</ele>
        <time>2015-03-29T14:36:25Z</time>
      </trkpt>
      <trkpt lat="43.79202" lon="3.79536">
        <ele>189.04</ele>
        <time>2015-03-29T14:36:26Z</time>
      </trkpt>
      <trkpt lat="43.79216" lon="3.79568">
        <ele>189.04</ele>
        <time>2015-03-29T14:36:27Z</time>
      </trkpt>
      <trkpt lat="43.79234" lon="3.796">
        <ele>188.56</ele>
        <time>2015-03-29T14:36:28Z</time>
      </trkpt>
      <trkpt lat="43.79255" lon="3.7963">
        <ele>189.04</ele>
        <time>2015-03-29T14:36:29Z</time>
      </trkpt>
      <trkpt lat="43.79276" lon="3.79659">
        <ele>189.04</ele>
        <time>2015-03-29T14:36:30Z</time>
      </trkpt>
      <trkpt lat="43.79312" lon="3.79722">
        <ele>188.56</ele>
        <time>2015-03-29T14:36:32Z</time>
      </trkpt>
      <trkpt lat="43.79325" lon="3.79759">
        <ele>188.56</ele>
        <time>2015-03-29T14:36:33Z</time>
      </trkpt>
      <trkpt lat="43.79334" lon="3.79799">
        <ele>188.56</ele>
        <time>2015-03-29T14:36:34Z</time>
      </trkpt>
      <trkpt lat="43.79342" lon="3.79841">
        <ele>188.08</ele>
        <time>2015-03-29T14:36:35Z</time>
      </trkpt>
      <trkpt lat="43.79348" lon="3.79883">
        <ele>188.08</ele>
        <time>2015-03-29T14:36:36Z</time>
      </trkpt>
      <trkpt lat="43.79368" lon="3.80154">
        <ele>190.96</ele>
        <time>2015-03-29T14:36:43Z</time>
      </trkpt>
      <trkpt lat="43.79356" lon="3.80188">
        <ele>192.4</ele>
        <time>2015-03-29T14:36:44Z</time>
      </trkpt>
      <trkpt lat="43.79341" lon="3.80219">
        <ele>193.36</ele>
        <time>2015-03-29T14:36:45Z</time>
      </trkpt>
      <trkpt lat="43.79324" lon="3.80248">
        <ele>195.28</ele>
        <time>2015-03-29T14:36:46Z</time>
      </trkpt>
      <trkpt lat="43.79305" lon="3.80271">
        <ele>196.73</ele>
        <time>2015-03-29T14:36:47Z</time>
      </trkpt>
      <trkpt lat="43.79285" lon="3.8029">
        <ele>198.17</ele>
        <time>2015-03-29T14:36:48Z</time>
      </trkpt>
      <trkpt lat="43.79266" lon="3.80305">
        <ele>199.61</ele>
        <time>2015-03-29T14:36:49Z</time>
      </trkpt>
      <trkpt lat="43.79248" lon="3.80317">
        <ele>200.57</ele>
        <time>2015-03-29T14:36:50Z</time>
      </trkpt>
      <trkpt lat="43.79231" lon="3.80328">
        <ele>202.01</ele>
        <time>2015-03-29T14:36:51Z</time>
      </trkpt>
      <trkpt lat="43.79171" lon="3.80366">
        <ele>205.38</ele>
        <time>2015-03-29T14:36:56Z</time>
      </trkpt>
      <trkpt lat="43.79142" lon="3.80386">
        <ele>208.26</ele>
        <time>2015-03-29T14:37:02Z</time>
      </trkpt>
      <trkpt lat="43.79097" lon="3.80426">
        <ele>212.11</ele>
        <time>2015-03-29T14:37:08Z</time>
      </trkpt>
      <trkpt lat="43.79088" lon="3.80439">
        <ele>212.59</ele>
        <time>2015-03-29T14:37:09Z</time>
      </trkpt>
      <trkpt lat="43.7908" lon="3.80454">
        <ele>213.07</ele>
        <time>2015-03-29T14:37:10Z</time>
      </trkpt>
      <trkpt lat="43.79014" lon="3.80549">
        <ele>217.4</ele>
        <time>2015-03-29T14:37:17Z</time>
      </trkpt>
      <trkpt lat="43.79002" lon="3.80555">
        <ele>217.88</ele>
        <time>2015-03-29T14:37:18Z</time>
      </trkpt>
      <trkpt lat="43.7899" lon="3.80556">
        <ele>218.36</ele>
        <time>2015-03-29T14:37:19Z</time>
      </trkpt>
      <trkpt lat="43.78976" lon="3.80548">
        <ele>219.32</ele>
        <time>2015-03-29T14:37:20Z</time>
      </trkpt>
      <trkpt lat="43.78965" lon="3.80538">
        <ele>219.8</ele>
        <time>2015-03-29T14:37:21Z</time>
      </trkpt>
      <trkpt lat="43.78955" lon="3.80526">
        <ele>220.76</ele>
        <time>2015-03-29T14:37:22Z</time>
      </trkpt>
      <trkpt lat="43.78946" lon="3.80513">
        <ele>221.24</ele>
        <time>2015-03-29T14:37:23Z</time>
      </trkpt>
      <trkpt lat="43.78938" lon="3.80501">
        <ele>222.2</ele>
        <time>2015-03-29T14:37:24Z</time>
      </trkpt>
      <trkpt lat="43.78847" lon="3.80401">
        <ele>228.93</ele>
        <time>2015-03-29T14:37:34Z</time>
      </trkpt>
      <trkpt lat="43.78838" lon="3.80397">
        <ele>228.93</ele>
        <time>2015-03-29T14:37:35Z</time>
      </trkpt>
      <trkpt lat="43.7883" lon="3.80401">
        <ele>229.41</ele>
        <time>2015-03-29T14:37:36Z</time>
      </trkpt>
      <trkpt lat="43.78824" lon="3.8041">
        <ele>229.41</ele>
        <time>2015-03-29T14:37:37Z</time>
      </trkpt>
      <trkpt lat="43.78821" lon="3.80421">
        <ele>229.89</ele>
        <time>2015-03-29T14:37:38Z</time>
      </trkpt>
      <trkpt lat="43.78822" lon="3.80434">
        <ele>229.89</ele>
        <time>2015-03-29T14:37:39Z</time>
      </trkpt>
      <trkpt lat="43.78827" lon="3.80448">
        <ele>230.37</ele>
        <time>2015-03-29T14:37:40Z</time>
      </trkpt>
      <trkpt lat="43.78832" lon="3.80462">
        <ele>230.85</ele>
        <time>2015-03-29T14:37:41Z</time>
      </trkpt>
      <trkpt lat="43.78839" lon="3.80477">
        <ele>231.33</ele>
        <time>2015-03-29T14:37:42Z</time>
      </trkpt>
      <trkpt lat="43.78869" lon="3.80527">
        <ele>234.22</ele>
        <time>2015-03-29T14:37:46Z</time>
      </trkpt>
      <trkpt lat="43.78878" lon="3.80537">
        <ele>234.7</ele>
        <time>2015-03-29T14:37:47Z</time>
      </trkpt>
      <trkpt lat="43.78926" lon="3.80584">
        <ele>237.58</ele>
        <time>2015-03-29T14:37:53Z</time>
      </trkpt>
      <trkpt lat="43.78928" lon="3.80592">
        <ele>237.58</ele>
        <time>2015-03-29T14:37:54Z</time>
      </trkpt>
      <trkpt lat="43.78927" lon="3.806">
        <ele>238.06</ele>
        <time>2015-03-29T14:37:55Z</time>
      </trkpt>
      <trkpt lat="43.78914" lon="3.80601">
        <ele>238.54</ele>
        <time>2015-03-29T14:37:57Z</time>
      </trkpt>
      <trkpt lat="43.78907" lon="3.80595">
        <ele>239.02</ele>
        <time>2015-03-29T14:37:58Z</time>
      </trkpt>
      <trkpt lat="43.78898" lon="3.80589">
        <ele>239.51</ele>
        <time>2015-03-29T14:37:59Z</time>
      </trkpt>
      <trkpt lat="43.78889" lon="3.80583">
        <ele>240.47</ele>
        <time>2015-03-29T14:38:00Z</time>
      </trkpt>
      <trkpt lat="43.7888" lon="3.80579">
        <ele>240.95</ele>
        <time>2015-03-29T14:38:01Z</time>
      </trkpt>
      <trkpt lat="43.7887" lon="3.80576">
        <ele>241.43</ele>
        <time>2015-03-29T14:38:02Z</time>
      </trkpt>
      <trkpt lat="43.78861" lon="3.80575">
        <ele>241.91</ele>
        <time>2015-03-29T14:38:03Z</time>
      </trkpt>
      <trkpt lat="43.78852" lon="3.80577">
        <ele>242.39</ele>
        <time>2015-03-29T14:38:04Z</time>
      </trkpt>
      <trkpt lat="43.78844" lon="3.8058">
        <ele>243.35</ele>
        <time>2015-03-29T14:38:05Z</time>
      </trkpt>
      <trkpt lat="43.78836" lon="3.80583">
        <ele>243.83</ele>
        <time>2015-03-29T14:38:06Z</time>
      </trkpt>
      <trkpt lat="43.78818" lon="3.80592">
        <ele>244.79</ele>
        <time>2015-03-29T14:38:09Z</time>
      </trkpt>
      <trkpt lat="43.78812" lon="3.80597">
        <ele>245.27</ele>
        <time>2015-03-29T14:38:10Z</time>
      </trkpt>
      <trkpt lat="43.78808" lon="3.80603">
        <ele>245.27</ele>
        <time>2015-03-29T14:38:11Z</time>
      </trkpt>
      <trkpt lat="43.78808" lon="3.80613">
        <ele>245.27</ele>
        <time>2015-03-29T14:38:12Z</time>
      </trkpt>
      <trkpt lat="43.7881" lon="3.80622">
        <ele>245.27</ele>
        <time>2015-03-29T14:38:13Z</time>
      </trkpt>
      <trkpt lat="43.78817" lon="3.80631">
        <ele>245.27</ele>
        <time>2015-03-29T14:38:14Z</time>
      </trkpt>
      <trkpt lat="43.78827" lon="3.80638">
        <ele>245.27</ele>
        <time>2015-03-29T14:38:15Z</time>
      </trkpt>
      <trkpt lat="43.78838" lon="3.80645">
        <ele>245.75</ele>
        <time>2015-03-29T14:38:16Z</time>
      </trkpt>
      <trkpt lat="43.78849" lon="3.8065">
        <ele>245.75</ele>
        <time>2015-03-29T14:38:17Z</time>
      </trkpt>
      <trkpt lat="43.7887" lon="3.80665">
        <ele>245.75</ele>
        <time>2015-03-29T14:38:19Z</time>
      </trkpt>
      <trkpt lat="43.78879" lon="3.80676">
        <ele>245.27</ele>
        <time>2015-03-29T14:38:20Z</time>
      </trkpt>
      <trkpt lat="43.78886" lon="3.80689">
        <ele>245.27</ele>
        <time>2015-03-29T14:38:21Z</time>
      </trkpt>
      <trkpt lat="43.78892" lon="3.80705">
        <ele>244.79</ele>
        <time>2015-03-29T14:38:22Z</time>
      </trkpt>
      <trkpt lat="43.78897" lon="3.80721">
        <ele>244.31</ele>
        <time>2015-03-29T14:38:23Z</time>
      </trkpt>
      <trkpt lat="43.78907" lon="3.80753">
        <ele>243.35</ele>
        <time>2015-03-29T14:38:25Z</time>
      </trkpt>
      <trkpt lat="43.78915" lon="3.80767">
        <ele>242.87</ele>
        <time>2015-03-29T14:38:26Z</time>
      </trkpt>
      <trkpt lat="43.78923" lon="3.80781">
        <ele>242.39</ele>
        <time>2015-03-29T14:38:27Z</time>
      </trkpt>
      <trkpt lat="43.78933" lon="3.80795">
        <ele>241.91</ele>
        <time>2015-03-29T14:38:28Z</time>
      </trkpt>
      <trkpt lat="43.78944" lon="3.80807">
        <ele>240.95</ele>
        <time>2015-03-29T14:38:29Z</time>
      </trkpt>
      <trkpt lat="43.78957" lon="3.80818">
        <ele>240.47</ele>
        <time>2015-03-29T14:38:30Z</time>
      </trkpt>
      <trkpt lat="43.79014" lon="3.80878">
        <ele>238.06</ele>
        <time>2015-03-29T14:38:35Z</time>
      </trkpt>
      <trkpt lat="43.79023" lon="3.80893">
        <ele>237.1</ele>
        <time>2015-03-29T14:38:36Z</time>
      </trkpt>
      <trkpt lat="43.79031" lon="3.8091">
        <ele>236.62</ele>
        <time>2015-03-29T14:38:37Z</time>
      </trkpt>
      <trkpt lat="43.79038" lon="3.80927">
        <ele>236.14</ele>
        <time>2015-03-29T14:38:38Z</time>
      </trkpt>
      <trkpt lat="43.79044" lon="3.80945">
        <ele>235.18</ele>
        <time>2015-03-29T14:38:39Z</time>
      </trkpt>
      <trkpt lat="43.79049" lon="3.80965">
        <ele>234.22</ele>
        <time>2015-03-29T14:38:40Z</time>
      </trkpt>
      <trkpt lat="43.79054" lon="3.8099">
        <ele>233.74</ele>
        <time>2015-03-29T14:38:41Z</time>
      </trkpt>
      <trkpt lat="43.79084" lon="3.81162">
        <ele>227.97</ele>
        <time>2015-03-29T14:38:46Z</time>
      </trkpt>
      <trkpt lat="43.79108" lon="3.81465">
        <ele>218.36</ele>
        <time>2015-03-29T14:38:54Z</time>
      </trkpt>
      <trkpt lat="43.79106" lon="3.81925">
        <ele>205.86</ele>
        <time>2015-03-29T14:39:06Z</time>
      </trkpt>
      <trkpt lat="43.79075" lon="3.82268">
        <ele>195.28</ele>
        <time>2015-03-29T14:39:15Z</time>
      </trkpt>
      <trkpt lat="43.78989" lon="3.82684">
        <ele>183.27</ele>
        <time>2015-03-29T14:39:26Z</time>
      </trkpt>
      <trkpt lat="43.78895" lon="3.82944">
        <ele>174.14</ele>
        <time>2015-03-29T14:39:33Z</time>
      </trkpt>
      <trkpt lat="43.78859" lon="3.83044">
        <ele>171.25</ele>
        <time>2015-03-29T14:39:36Z</time>
      </trkpt>
      <trkpt lat="43.78851" lon="3.8308">
        <ele>169.81</ele>
        <time>2015-03-29T14:39:37Z</time>
      </trkpt>
      <trkpt lat="43.78818" lon="3.83345">
        <ele>162.6</ele>
        <time>2015-03-29T14:39:44Z</time>
      </trkpt>
      <trkpt lat="43.78787" lon="3.83525">
        <ele>157.79</ele>
        <time>2015-03-29T14:39:49Z</time>
      </trkpt>
      <trkpt lat="43.78787" lon="3.83557">
        <ele>157.31</ele>
        <time>2015-03-29T14:39:50Z</time>
      </trkpt>
      <trkpt lat="43.78791" lon="3.83591">
        <ele>155.87</ele>
        <time>2015-03-29T14:39:51Z</time>
      </trkpt>
      <trkpt lat="43.78797" lon="3.83628">
        <ele>154.91</ele>
        <time>2015-03-29T14:39:52Z</time>
      </trkpt>
      <trkpt lat="43.78804" lon="3.83668">
        <ele>154.43</ele>
        <time>2015-03-29T14:39:53Z</time>
      </trkpt>
      <trkpt lat="43.78854" lon="3.83954">
        <ele>143.85</ele>
        <time>2015-03-29T14:40:01Z</time>
      </trkpt>
      <trkpt lat="43.78883" lon="3.8412">
        <ele>139.05</ele>
        <time>2015-03-29T14:40:07Z</time>
      </trkpt>
      <trkpt lat="43.78946" lon="3.84446">
        <ele>130.88</ele>
        <time>2015-03-29T14:40:16Z</time>
      </trkpt>
      <trkpt lat="43.79071" lon="3.8491">
        <ele>126.55</ele>
        <time>2015-03-29T14:40:28Z</time>
      </trkpt>
      <trkpt lat="43.791" lon="3.85054">
        <ele>126.55</ele>
        <time>2015-03-29T14:40:32Z</time>
      </trkpt>
      <trkpt lat="43.79101" lon="3.85092">
        <ele>126.07</ele>
        <time>2015-03-29T14:40:33Z</time>
      </trkpt>
      <trkpt lat="43.79098" lon="3.85131">
        <ele>126.07</ele>
        <time>2015-03-29T14:40:34Z</time>
      </trkpt>
      <trkpt lat="43.79066" lon="3.85491">
        <ele>124.63</ele>
        <time>2015-03-29T14:40:43Z</time>
      </trkpt>
      <trkpt lat="43.79042" lon="3.85588">
        <ele>123.19</ele>
        <time>2015-03-29T14:40:46Z</time>
      </trkpt>
      <trkpt lat="43.78989" lon="3.85656">
        <ele>121.74</ele>
        <time>2015-03-29T14:40:49Z</time>
      </trkpt>
      <trkpt lat="43.78969" lon="3.85672">
        <ele>121.74</ele>
        <time>2015-03-29T14:40:50Z</time>
      </trkpt>
      <trkpt lat="43.78949" lon="3.85683">
        <ele>121.74</ele>
        <time>2015-03-29T14:40:51Z</time>
      </trkpt>
      <trkpt lat="43.7893" lon="3.85693">
        <ele>121.74</ele>
        <time>2015-03-29T14:40:52Z</time>
      </trkpt>
      <trkpt lat="43.78906" lon="3.857">
        <ele>121.26</ele>
        <time>2015-03-29T14:40:53Z</time>
      </trkpt>
      <trkpt lat="43.78884" lon="3.85708">
        <ele>119.82</ele>
        <time>2015-03-29T14:40:54Z</time>
      </trkpt>
      <trkpt lat="43.78858" lon="3.85714">
        <ele>119.34</ele>
        <time>2015-03-29T14:40:55Z</time>
      </trkpt>
      <trkpt lat="43.78829" lon="3.85718">
        <ele>118.86</ele>
        <time>2015-03-29T14:40:56Z</time>
      </trkpt>
      <trkpt lat="43.78799" lon="3.85721">
        <ele>119.34</ele>
        <time>2015-03-29T14:40:57Z</time>
      </trkpt>
      <trkpt lat="43.78438" lon="3.85802">
        <ele>118.38</ele>
        <time>2015-03-29T14:41:10Z</time>
      </trkpt>
      <trkpt lat="43.78387" lon="3.85808">
        <ele>117.9</ele>
        <time>2015-03-29T14:41:12Z</time>
      </trkpt>
      <trkpt lat="43.78193" lon="3.8577">
        <ele>116.46</ele>
        <time>2015-03-29T14:41:19Z</time>
      </trkpt>
      <trkpt lat="43.78008" lon="3.85702">
        <ele>114.05</ele>
        <time>2015-03-29T14:41:26Z</time>
      </trkpt>
      <trkpt lat="43.77931" lon="3.8567">
        <ele>114.05</ele>
        <time>2015-03-29T14:41:30Z</time>
      </trkpt>
      <trkpt lat="43.77913" lon="3.8567">
        <ele>114.05</ele>
        <time>2015-03-29T14:41:31Z</time>
      </trkpt>
      <trkpt lat="43.77896" lon="3.85678">
        <ele>113.57</ele>
        <time>2015-03-29T14:41:32Z</time>
      </trkpt>
      <trkpt lat="43.77882" lon="3.857">
        <ele>113.09</ele>
        <time>2015-03-29T14:41:33Z</time>
      </trkpt>
      <trkpt lat="43.77864" lon="3.85719">
        <ele>113.57</ele>
        <time>2015-03-29T14:41:34Z</time>
      </trkpt>
      <trkpt lat="43.77848" lon="3.85739">
        <ele>113.57</ele>
        <time>2015-03-29T14:41:35Z</time>
      </trkpt>
      <trkpt lat="43.77833" lon="3.85757">
        <ele>113.09</ele>
        <time>2015-03-29T14:41:36Z</time>
      </trkpt>
      <trkpt lat="43.77768" lon="3.85836">
        <ele>112.13</ele>
        <time>2015-03-29T14:41:41Z</time>
      </trkpt>
      <trkpt lat="43.77758" lon="3.85857">
        <ele>111.65</ele>
        <time>2015-03-29T14:41:42Z</time>
      </trkpt>
      <trkpt lat="43.7775" lon="3.85881">
        <ele>110.69</ele>
        <time>2015-03-29T14:41:43Z</time>
      </trkpt>
      <trkpt lat="43.77744" lon="3.85909">
        <ele>110.21</ele>
        <time>2015-03-29T14:41:44Z</time>
      </trkpt>
      <trkpt lat="43.77737" lon="3.85937">
        <ele>109.73</ele>
        <time>2015-03-29T14:41:45Z</time>
      </trkpt>
      <trkpt lat="43.77676" lon="3.86141">
        <ele>105.4</ele>
        <time>2015-03-29T14:41:51Z</time>
      </trkpt>
      <trkpt lat="43.77531" lon="3.86617">
        <ele>104.44</ele>
        <time>2015-03-29T14:42:04Z</time>
      </trkpt>
      <trkpt lat="43.77461" lon="3.86845">
        <ele>108.29</ele>
        <time>2015-03-29T14:42:11Z</time>
      </trkpt>
      <trkpt lat="43.77443" lon="3.8692">
        <ele>110.69</ele>
        <time>2015-03-29T14:42:15Z</time>
      </trkpt>
      <trkpt lat="43.77438" lon="3.86928">
        <ele>110.69</ele>
        <time>2015-03-29T14:42:16Z</time>
      </trkpt>
      <trkpt lat="43.7743" lon="3.86934">
        <ele>111.17</ele>
        <time>2015-03-29T14:42:17Z</time>
      </trkpt>
      <trkpt lat="43.77421" lon="3.86939">
        <ele>111.17</ele>
        <time>2015-03-29T14:42:18Z</time>
      </trkpt>
      <trkpt lat="43.77409" lon="3.86945">
        <ele>111.65</ele>
        <time>2015-03-29T14:42:19Z</time>
      </trkpt>
      <trkpt lat="43.77395" lon="3.86948">
        <ele>111.65</ele>
        <time>2015-03-29T14:42:20Z</time>
      </trkpt>
      <trkpt lat="43.77379" lon="3.86947">
        <ele>111.65</ele>
        <time>2015-03-29T14:42:21Z</time>
      </trkpt>
      <trkpt lat="43.77363" lon="3.86945">
        <ele>111.17</ele>
        <time>2015-03-29T14:42:22Z</time>
      </trkpt>
      <trkpt lat="43.77348" lon="3.86942">
        <ele>110.69</ele>
        <time>2015-03-29T14:42:23Z</time>
      </trkpt>
      <trkpt lat="43.77234" lon="3.86906">
        <ele>105.4</ele>
        <time>2015-03-29T14:42:32Z</time>
      </trkpt>
      <trkpt lat="43.77118" lon="3.86863">
        <ele>100.11</ele>
        <time>2015-03-29T14:42:44Z</time>
      </trkpt>
      <trkpt lat="43.77012" lon="3.86822">
        <ele>98.67</ele>
        <time>2015-03-29T14:42:56Z</time>
      </trkpt>
      <trkpt lat="43.76947" lon="3.86798">
        <ele>98.67</ele>
        <time>2015-03-29T14:43:08Z</time>
      </trkpt>
      <trkpt lat="43.76867" lon="3.86768">
        <ele>98.19</ele>
        <time>2015-03-29T14:43:18Z</time>
      </trkpt>
      <trkpt lat="43.76801" lon="3.86746">
        <ele>98.67</ele>
        <time>2015-03-29T14:43:29Z</time>
      </trkpt>
      <trkpt lat="43.76741" lon="3.86725">
        <ele>99.63</ele>
        <time>2015-03-29T14:43:40Z</time>
      </trkpt>
      <trkpt lat="43.76705" lon="3.8671">
        <ele>99.15</ele>
        <time>2015-03-29T14:43:50Z</time>
      </trkpt>
      <trkpt lat="43.76636" lon="3.8667">
        <ele>98.19</ele>
        <time>2015-03-29T14:44:00Z</time>
      </trkpt>
      <trkpt lat="43.76594" lon="3.86636">
        <ele>97.71</ele>
        <time>2015-03-29T14:44:07Z</time>
      </trkpt>
      <trkpt lat="43.76587" lon="3.86632">
        <ele>97.71</ele>
        <time>2015-03-29T14:44:08Z</time>
      </trkpt>
      <trkpt lat="43.76569" lon="3.86624">
        <ele>97.23</ele>
        <time>2015-03-29T14:44:10Z</time>
      </trkpt>
      <trkpt lat="43.7646" lon="3.86552">
        <ele>94.35</ele>
        <time>2015-03-29T14:44:22Z</time>
      </trkpt>
      <trkpt lat="43.76353" lon="3.86482">
        <ele>93.39</ele>
        <time>2015-03-29T14:44:33Z</time>
      </trkpt>
      <trkpt lat="43.76242" lon="3.86409">
        <ele>90.98</ele>
        <time>2015-03-29T14:44:43Z</time>
      </trkpt>
      <trkpt lat="43.76167" lon="3.86356">
        <ele>90.5</ele>
        <time>2015-03-29T14:44:52Z</time>
      </trkpt>
      <trkpt lat="43.76162" lon="3.8635">
        <ele>90.5</ele>
        <time>2015-03-29T14:44:53Z</time>
      </trkpt>
      <trkpt lat="43.76158" lon="3.86343">
        <ele>90.98</ele>
        <time>2015-03-29T14:44:54Z</time>
      </trkpt>
      <trkpt lat="43.76155" lon="3.86334">
        <ele>90.98</ele>
        <time>2015-03-29T14:44:55Z</time>
      </trkpt>
      <trkpt lat="43.7615" lon="3.86325">
        <ele>90.98</ele>
        <time>2015-03-29T14:44:56Z</time>
      </trkpt>
      <trkpt lat="43.76144" lon="3.86317">
        <ele>90.98</ele>
        <time>2015-03-29T14:44:57Z</time>
      </trkpt>
      <trkpt lat="43.76136" lon="3.86312">
        <ele>90.5</ele>
        <time>2015-03-29T14:44:58Z</time>
      </trkpt>
      <trkpt lat="43.76126" lon="3.86311">
        <ele>90.5</ele>
        <time>2015-03-29T14:44:59Z</time>
      </trkpt>
      <trkpt lat="43.76115" lon="3.86312">
        <ele>90.02</ele>
        <time>2015-03-29T14:45:00Z</time>
      </trkpt>
      <trkpt lat="43.76104" lon="3.86312">
        <ele>90.02</ele>
        <time>2015-03-29T14:45:01Z</time>
      </trkpt>
      <trkpt lat="43.76094" lon="3.86308">
        <ele>90.02</ele>
        <time>2015-03-29T14:45:02Z</time>
      </trkpt>
      <trkpt lat="43.76083" lon="3.86302">
        <ele>90.02</ele>
        <time>2015-03-29T14:45:03Z</time>
      </trkpt>
      <trkpt lat="43.76072" lon="3.86295">
        <ele>90.02</ele>
        <time>2015-03-29T14:45:04Z</time>
      </trkpt>
      <trkpt lat="43.7595" lon="3.86215">
        <ele>89.06</ele>
        <time>2015-03-29T14:45:13Z</time>
      </trkpt>
      <trkpt lat="43.75787" lon="3.86103">
        <ele>88.1</ele>
        <time>2015-03-29T14:45:23Z</time>
      </trkpt>
      <trkpt lat="43.75615" lon="3.86002">
        <ele>88.1</ele>
        <time>2015-03-29T14:45:32Z</time>
      </trkpt>
      <trkpt lat="43.75593" lon="3.85996">
        <ele>87.62</ele>
        <time>2015-03-29T14:45:33Z</time>
      </trkpt>
      <trkpt lat="43.7539" lon="3.85957">
        <ele>86.18</ele>
        <time>2015-03-29T14:45:43Z</time>
      </trkpt>
      <trkpt lat="43.7499" lon="3.85881">
        <ele>82.33</ele>
        <time>2015-03-29T14:46:02Z</time>
      </trkpt>
      <trkpt lat="43.74842" lon="3.85864">
        <ele>81.37</ele>
        <time>2015-03-29T14:46:09Z</time>
      </trkpt>
      <trkpt lat="43.74821" lon="3.85868">
        <ele>81.37</ele>
        <time>2015-03-29T14:46:10Z</time>
      </trkpt>
      <trkpt lat="43.748" lon="3.85875">
        <ele>81.37</ele>
        <time>2015-03-29T14:46:11Z</time>
      </trkpt>
      <trkpt lat="43.7478" lon="3.85885">
        <ele>81.85</ele>
        <time>2015-03-29T14:46:12Z</time>
      </trkpt>
      <trkpt lat="43.74761" lon="3.85897">
        <ele>81.85</ele>
        <time>2015-03-29T14:46:13Z</time>
      </trkpt>
      <trkpt lat="43.74741" lon="3.85911">
        <ele>82.33</ele>
        <time>2015-03-29T14:46:14Z</time>
      </trkpt>
      <trkpt lat="43.74586" lon="3.86061">
        <ele>81.37</ele>
        <time>2015-03-29T14:46:23Z</time>
      </trkpt>
      <trkpt lat="43.74406" lon="3.86238">
        <ele>81.37</ele>
        <time>2015-03-29T14:46:33Z</time>
      </trkpt>
      <trkpt lat="43.74132" lon="3.86496">
        <ele>82.81</ele>
        <time>2015-03-29T14:46:45Z</time>
      </trkpt>
      <trkpt lat="43.74008" lon="3.86581">
        <ele>81.37</ele>
        <time>2015-03-29T14:46:51Z</time>
      </trkpt>
      <trkpt lat="43.73873" lon="3.86671">
        <ele>78.97</ele>
        <time>2015-03-29T14:46:57Z</time>
      </trkpt>
      <trkpt lat="43.73737" lon="3.86731">
        <ele>77.52</ele>
        <time>2015-03-29T14:47:03Z</time>
      </trkpt>
      <trkpt lat="43.73576" lon="3.86744">
        <ele>77.04</ele>
        <time>2015-03-29T14:47:10Z</time>
      </trkpt>
      <trkpt lat="43.73436" lon="3.8675">
        <ele>78</ele>
        <time>2015-03-29T14:47:17Z</time>
      </trkpt>
      <trkpt lat="43.73357" lon="3.8676">
        <ele>78</ele>
        <time>2015-03-29T14:47:21Z</time>
      </trkpt>
      <trkpt lat="43.73338" lon="3.86767">
        <ele>78</ele>
        <time>2015-03-29T14:47:22Z</time>
      </trkpt>
      <trkpt lat="43.73319" lon="3.86776">
        <ele>78</ele>
        <time>2015-03-29T14:47:23Z</time>
      </trkpt>
      <trkpt lat="43.7315" lon="3.86884">
        <ele>78.97</ele>
        <time>2015-03-29T14:47:33Z</time>
      </trkpt>
      <trkpt lat="43.73069" lon="3.86936">
        <ele>82.81</ele>
        <time>2015-03-29T14:47:40Z</time>
      </trkpt>
      <trkpt lat="43.7306" lon="3.86939">
        <ele>83.29</ele>
        <time>2015-03-29T14:47:41Z</time>
      </trkpt>
      <trkpt lat="43.73052" lon="3.8694">
        <ele>83.29</ele>
        <time>2015-03-29T14:47:42Z</time>
      </trkpt>
      <trkpt lat="43.73044" lon="3.86939">
        <ele>83.77</ele>
        <time>2015-03-29T14:47:43Z</time>
      </trkpt>
      <trkpt lat="43.73035" lon="3.86938">
        <ele>84.25</ele>
        <time>2015-03-29T14:47:44Z</time>
      </trkpt>
      <trkpt lat="43.73029" lon="3.86938">
        <ele>84.25</ele>
        <time>2015-03-29T14:47:45Z</time>
      </trkpt>
      <trkpt lat="43.73023" lon="3.86944">
        <ele>84.73</ele>
        <time>2015-03-29T14:47:46Z</time>
      </trkpt>
      <trkpt lat="43.73016" lon="3.86952">
        <ele>84.73</ele>
        <time>2015-03-29T14:47:47Z</time>
      </trkpt>
      <trkpt lat="43.73007" lon="3.86959">
        <ele>84.73</ele>
        <time>2015-03-29T14:47:48Z</time>
      </trkpt>
      <trkpt lat="43.72997" lon="3.86964">
        <ele>85.21</ele>
        <time>2015-03-29T14:47:49Z</time>
      </trkpt>
      <trkpt lat="43.72986" lon="3.86968">
        <ele>85.21</ele>
        <time>2015-03-29T14:47:50Z</time>
      </trkpt>
      <trkpt lat="43.72875" lon="3.86989">
        <ele>85.69</ele>
        <time>2015-03-29T14:48:00Z</time>
      </trkpt>
      <trkpt lat="43.72858" lon="3.86989">
        <ele>85.21</ele>
        <time>2015-03-29T14:48:06Z</time>
      </trkpt>
      <trkpt lat="43.72852" lon="3.86986">
        <ele>85.21</ele>
        <time>2015-03-29T14:48:07Z</time>
      </trkpt>
      <trkpt lat="43.7284" lon="3.86981">
        <ele>85.21</ele>
        <time>2015-03-29T14:48:09Z</time>
      </trkpt>
      <trkpt lat="43.72833" lon="3.86982">
        <ele>84.73</ele>
        <time>2015-03-29T14:48:10Z</time>
      </trkpt>
      <trkpt lat="43.72825" lon="3.86988">
        <ele>84.25</ele>
        <time>2015-03-29T14:48:11Z</time>
      </trkpt>
      <trkpt lat="43.72805" lon="3.87002">
        <ele>83.77</ele>
        <time>2015-03-29T14:48:13Z</time>
      </trkpt>
      <trkpt lat="43.72793" lon="3.87006">
        <ele>82.81</ele>
        <time>2015-03-29T14:48:14Z</time>
      </trkpt>
      <trkpt lat="43.72781" lon="3.87008">
        <ele>82.33</ele>
        <time>2015-03-29T14:48:15Z</time>
      </trkpt>
      <trkpt lat="43.72682" lon="3.86989">
        <ele>78</ele>
        <time>2015-03-29T14:48:22Z</time>
      </trkpt>
      <trkpt lat="43.72555" lon="3.86913">
        <ele>77.04</ele>
        <time>2015-03-29T14:48:30Z</time>
      </trkpt>
      <trkpt lat="43.72394" lon="3.86879">
        <ele>73.68</ele>
        <time>2015-03-29T14:48:39Z</time>
      </trkpt>
      <trkpt lat="43.72192" lon="3.86856">
        <ele>77.52</ele>
        <time>2015-03-29T14:48:50Z</time>
      </trkpt>
      <trkpt lat="43.72173" lon="3.86864">
        <ele>78</ele>
        <time>2015-03-29T14:48:51Z</time>
      </trkpt>
      <trkpt lat="43.72086" lon="3.86904">
        <ele>78</ele>
        <time>2015-03-29T14:48:56Z</time>
      </trkpt>
      <trkpt lat="43.72067" lon="3.86905">
        <ele>77.52</ele>
        <time>2015-03-29T14:48:57Z</time>
      </trkpt>
      <trkpt lat="43.72048" lon="3.86903">
        <ele>77.04</ele>
        <time>2015-03-29T14:48:58Z</time>
      </trkpt>
      <trkpt lat="43.72029" lon="3.86898">
        <ele>76.56</ele>
        <time>2015-03-29T14:48:59Z</time>
      </trkpt>
      <trkpt lat="43.72009" lon="3.86892">
        <ele>76.08</ele>
        <time>2015-03-29T14:49:00Z</time>
      </trkpt>
      <trkpt lat="43.71989" lon="3.86885">
        <ele>75.6</ele>
        <time>2015-03-29T14:49:01Z</time>
      </trkpt>
      <trkpt lat="43.71761" lon="3.86778">
        <ele>73.68</ele>
        <time>2015-03-29T14:49:13Z</time>
      </trkpt>
      <trkpt lat="43.71552" lon="3.86682">
        <ele>71.27</ele>
        <time>2015-03-29T14:49:24Z</time>
      </trkpt>
      <trkpt lat="43.71395" lon="3.86664">
        <ele>70.79</ele>
        <time>2015-03-29T14:49:32Z</time>
      </trkpt>
      <trkpt lat="43.71129" lon="3.8672">
        <ele>69.35</ele>
        <time>2015-03-29T14:49:45Z</time>
      </trkpt>
      <trkpt lat="43.70812" lon="3.86787">
        <ele>67.91</ele>
        <time>2015-03-29T14:50:01Z</time>
      </trkpt>
      <trkpt lat="43.70652" lon="3.86787">
        <ele>67.43</ele>
        <time>2015-03-29T14:50:09Z</time>
      </trkpt>
      <trkpt lat="43.7045" lon="3.86797">
        <ele>66.95</ele>
        <time>2015-03-29T14:50:20Z</time>
      </trkpt>
      <trkpt lat="43.70435" lon="3.86792">
        <ele>67.43</ele>
        <time>2015-03-29T14:50:21Z</time>
      </trkpt>
      <trkpt lat="43.7042" lon="3.86785">
        <ele>67.91</ele>
        <time>2015-03-29T14:50:22Z</time>
      </trkpt>
      <trkpt lat="43.70407" lon="3.86777">
        <ele>67.91</ele>
        <time>2015-03-29T14:50:23Z</time>
      </trkpt>
      <trkpt lat="43.70394" lon="3.86768">
        <ele>68.39</ele>
        <time>2015-03-29T14:50:24Z</time>
      </trkpt>
      <trkpt lat="43.70383" lon="3.86758">
        <ele>68.39</ele>
        <time>2015-03-29T14:50:25Z</time>
      </trkpt>
      <trkpt lat="43.70371" lon="3.86747">
        <ele>68.39</ele>
        <time>2015-03-29T14:50:26Z</time>
      </trkpt>
      <trkpt lat="43.70361" lon="3.86734">
        <ele>68.87</ele>
        <time>2015-03-29T14:50:27Z</time>
      </trkpt>
      <trkpt lat="43.70352" lon="3.86721">
        <ele>68.87</ele>
        <time>2015-03-29T14:50:28Z</time>
      </trkpt>
      <trkpt lat="43.70344" lon="3.86708">
        <ele>68.87</ele>
        <time>2015-03-29T14:50:29Z</time>
      </trkpt>
      <trkpt lat="43.70337" lon="3.86694">
        <ele>68.87</ele>
        <time>2015-03-29T14:50:30Z</time>
      </trkpt>
      <trkpt lat="43.7033" lon="3.8668">
        <ele>68.87</ele>
        <time>2015-03-29T14:50:31Z</time>
      </trkpt>
      <trkpt lat="43.70271" lon="3.86523">
        <ele>68.39</ele>
        <time>2015-03-29T14:50:43Z</time>
      </trkpt>
      <trkpt lat="43.70246" lon="3.86452">
        <ele>69.83</ele>
        <time>2015-03-29T14:50:52Z</time>
      </trkpt>
      <trkpt lat="43.70224" lon="3.86385">
        <ele>70.79</ele>
        <time>2015-03-29T14:50:59Z</time>
      </trkpt>
      <trkpt lat="43.7022" lon="3.86375">
        <ele>70.79</ele>
        <time>2015-03-29T14:51:00Z</time>
      </trkpt>
      <trkpt lat="43.70176" lon="3.86312">
        <ele>69.35</ele>
        <time>2015-03-29T14:51:09Z</time>
      </trkpt>
      <trkpt lat="43.70118" lon="3.86272">
        <ele>66.95</ele>
        <time>2015-03-29T14:51:16Z</time>
      </trkpt>
      <trkpt lat="43.70079" lon="3.86252">
        <ele>66.47</ele>
        <time>2015-03-29T14:51:23Z</time>
      </trkpt>
      <trkpt lat="43.70076" lon="3.86246">
        <ele>66.47</ele>
        <time>2015-03-29T14:51:24Z</time>
      </trkpt>
      <trkpt lat="43.70072" lon="3.86238">
        <ele>65.99</ele>
        <time>2015-03-29T14:51:25Z</time>
      </trkpt>
      <trkpt lat="43.7007" lon="3.86227">
        <ele>65.99</ele>
        <time>2015-03-29T14:51:26Z</time>
      </trkpt>
      <trkpt lat="43.7007" lon="3.86216">
        <ele>65.51</ele>
        <time>2015-03-29T14:51:27Z</time>
      </trkpt>
      <trkpt lat="43.70071" lon="3.86203">
        <ele>65.51</ele>
        <time>2015-03-29T14:51:28Z</time>
      </trkpt>
      <trkpt lat="43.70073" lon="3.86189">
        <ele>65.51</ele>
        <time>2015-03-29T14:51:29Z</time>
      </trkpt>
      <trkpt lat="43.70104" lon="3.86009">
        <ele>65.51</ele>
        <time>2015-03-29T14:51:41Z</time>
      </trkpt>
      <trkpt lat="43.7014" lon="3.85803">
        <ele>66.95</ele>
        <time>2015-03-29T14:51:55Z</time>
      </trkpt>
      <trkpt lat="43.70173" lon="3.856">
        <ele>66.95</ele>
        <time>2015-03-29T14:52:11Z</time>
      </trkpt>
      <trkpt lat="43.70193" lon="3.8548">
        <ele>66.47</ele>
        <time>2015-03-29T14:52:19Z</time>
      </trkpt>
      <trkpt lat="43.70198" lon="3.85435">
        <ele>67.43</ele>
        <time>2015-03-29T14:52:23Z</time>
      </trkpt>
      <trkpt lat="43.70198" lon="3.85427">
        <ele>67.43</ele>
        <time>2015-03-29T14:52:24Z</time>
      </trkpt>
      <trkpt lat="43.70197" lon="3.85418">
        <ele>67.91</ele>
        <time>2015-03-29T14:52:25Z</time>
      </trkpt>
      <trkpt lat="43.70198" lon="3.8541">
        <ele>67.91</ele>
        <time>2015-03-29T14:52:26Z</time>
      </trkpt>
      <trkpt lat="43.702" lon="3.85402">
        <ele>68.39</ele>
        <time>2015-03-29T14:52:27Z</time>
      </trkpt>
      <trkpt lat="43.70202" lon="3.85394">
        <ele>68.39</ele>
        <time>2015-03-29T14:52:28Z</time>
      </trkpt>
      <trkpt lat="43.70204" lon="3.85385">
        <ele>68.87</ele>
        <time>2015-03-29T14:52:29Z</time>
      </trkpt>
      <trkpt lat="43.70204" lon="3.85378">
        <ele>68.87</ele>
        <time>2015-03-29T14:52:30Z</time>
      </trkpt>
      <trkpt lat="43.70201" lon="3.85372">
        <ele>68.87</ele>
        <time>2015-03-29T14:52:31Z</time>
      </trkpt>
      <trkpt lat="43.70195" lon="3.85369">
        <ele>68.87</ele>
        <time>2015-03-29T14:52:32Z</time>
      </trkpt>
      <trkpt lat="43.70188" lon="3.85368">
        <ele>68.87</ele>
        <time>2015-03-29T14:52:33Z</time>
      </trkpt>
      <trkpt lat="43.70176" lon="3.85369">
        <ele>68.87</ele>
        <time>2015-03-29T14:52:34Z</time>
      </trkpt>
      <trkpt lat="43.7009" lon="3.85355">
        <ele>67.91</ele>
        <time>2015-03-29T14:52:41Z</time>
      </trkpt>
      <trkpt lat="43.7004" lon="3.85349">
        <ele>67.43</ele>
        <time>2015-03-29T14:52:44Z</time>
      </trkpt>
      <trkpt lat="43.70021" lon="3.85352">
        <ele>67.43</ele>
        <time>2015-03-29T14:52:45Z</time>
      </trkpt>
      <trkpt lat="43.70003" lon="3.85359">
        <ele>67.43</ele>
        <time>2015-03-29T14:52:46Z</time>
      </trkpt>
      <trkpt lat="43.69929" lon="3.8539">
        <ele>67.91</ele>
        <time>2015-03-29T14:52:50Z</time>
      </trkpt>
      <trkpt lat="43.69909" lon="3.85389">
        <ele>66.95</ele>
        <time>2015-03-29T14:52:51Z</time>
      </trkpt>
      <trkpt lat="43.6989" lon="3.85387">
        <ele>66.95</ele>
        <time>2015-03-29T14:52:52Z</time>
      </trkpt>
      <trkpt lat="43.69746" lon="3.85379">
        <ele>64.55</ele>
        <time>2015-03-29T14:52:58Z</time>
      </trkpt>
      <trkpt lat="43.69515" lon="3.85371">
        <ele>63.1</ele>
        <time>2015-03-29T14:53:06Z</time>
      </trkpt>
      <trkpt lat="43.69382" lon="3.8535">
        <ele>62.62</ele>
        <time>2015-03-29T14:53:11Z</time>
      </trkpt>
      <trkpt lat="43.69224" lon="3.85311">
        <ele>64.07</ele>
        <time>2015-03-29T14:53:19Z</time>
      </trkpt>
      <trkpt lat="43.69147" lon="3.85277">
        <ele>64.07</ele>
        <time>2015-03-29T14:53:24Z</time>
      </trkpt>
      <trkpt lat="43.69132" lon="3.85276">
        <ele>64.07</ele>
        <time>2015-03-29T14:53:25Z</time>
      </trkpt>
      <trkpt lat="43.69115" lon="3.85279">
        <ele>63.58</ele>
        <time>2015-03-29T14:53:26Z</time>
      </trkpt>
      <trkpt lat="43.69099" lon="3.85287">
        <ele>63.58</ele>
        <time>2015-03-29T14:53:27Z</time>
      </trkpt>
      <trkpt lat="43.69081" lon="3.85298">
        <ele>63.58</ele>
        <time>2015-03-29T14:53:28Z</time>
      </trkpt>
      <trkpt lat="43.69064" lon="3.85312">
        <ele>63.58</ele>
        <time>2015-03-29T14:53:29Z</time>
      </trkpt>
      <trkpt lat="43.69047" lon="3.85326">
        <ele>64.07</ele>
        <time>2015-03-29T14:53:30Z</time>
      </trkpt>
      <trkpt lat="43.68931" lon="3.85446">
        <ele>64.55</ele>
        <time>2015-03-29T14:53:38Z</time>
      </trkpt>
      <trkpt lat="43.68776" lon="3.85583">
        <ele>62.14</ele>
        <time>2015-03-29T14:53:47Z</time>
      </trkpt>
      <trkpt lat="43.68636" lon="3.85638">
        <ele>60.7</ele>
        <time>2015-03-29T14:53:52Z</time>
      </trkpt>
      <trkpt lat="43.68521" lon="3.85658">
        <ele>59.26</ele>
        <time>2015-03-29T14:53:56Z</time>
      </trkpt>
      <trkpt lat="43.68496" lon="3.85651">
        <ele>58.78</ele>
        <time>2015-03-29T14:53:57Z</time>
      </trkpt>
      <trkpt lat="43.68446" lon="3.85643">
        <ele>59.26</ele>
        <time>2015-03-29T14:53:59Z</time>
      </trkpt>
      <trkpt lat="43.6842" lon="3.85644">
        <ele>59.26</ele>
        <time>2015-03-29T14:54:00Z</time>
      </trkpt>
      <trkpt lat="43.68265" lon="3.85669">
        <ele>61.18</ele>
        <time>2015-03-29T14:54:07Z</time>
      </trkpt>
      <trkpt lat="43.68083" lon="3.85699">
        <ele>61.66</ele>
        <time>2015-03-29T14:54:16Z</time>
      </trkpt>
      <trkpt lat="43.68061" lon="3.85697">
        <ele>61.66</ele>
        <time>2015-03-29T14:54:17Z</time>
      </trkpt>
      <trkpt lat="43.67905" lon="3.85659">
        <ele>62.62</ele>
        <time>2015-03-29T14:54:23Z</time>
      </trkpt>
      <trkpt lat="43.67791" lon="3.85617">
        <ele>64.55</ele>
        <time>2015-03-29T14:54:28Z</time>
      </trkpt>
      <trkpt lat="43.67736" lon="3.85591">
        <ele>65.03</ele>
        <time>2015-03-29T14:54:32Z</time>
      </trkpt>
      <trkpt lat="43.67729" lon="3.85591">
        <ele>64.55</ele>
        <time>2015-03-29T14:54:33Z</time>
      </trkpt>
      <trkpt lat="43.67721" lon="3.85597">
        <ele>64.07</ele>
        <time>2015-03-29T14:54:34Z</time>
      </trkpt>
      <trkpt lat="43.67709" lon="3.85608">
        <ele>63.58</ele>
        <time>2015-03-29T14:54:35Z</time>
      </trkpt>
      <trkpt lat="43.67694" lon="3.85623">
        <ele>63.1</ele>
        <time>2015-03-29T14:54:36Z</time>
      </trkpt>
      <trkpt lat="43.67584" lon="3.85735">
        <ele>61.66</ele>
        <time>2015-03-29T14:54:42Z</time>
      </trkpt>
      <trkpt lat="43.674" lon="3.85922">
        <ele>62.14</ele>
        <time>2015-03-29T14:54:52Z</time>
      </trkpt>
      <trkpt lat="43.67369" lon="3.85947">
        <ele>62.14</ele>
        <time>2015-03-29T14:54:54Z</time>
      </trkpt>
      <trkpt lat="43.67351" lon="3.85957">
        <ele>62.14</ele>
        <time>2015-03-29T14:54:55Z</time>
      </trkpt>
      <trkpt lat="43.67293" lon="3.85991">
        <ele>61.18</ele>
        <time>2015-03-29T14:54:58Z</time>
      </trkpt>
      <trkpt lat="43.67274" lon="3.86006">
        <ele>61.18</ele>
        <time>2015-03-29T14:54:59Z</time>
      </trkpt>
      <trkpt lat="43.67132" lon="3.86104">
        <ele>58.78</ele>
        <time>2015-03-29T14:55:06Z</time>
      </trkpt>
      <trkpt lat="43.671" lon="3.86125">
        <ele>58.3</ele>
        <time>2015-03-29T14:55:08Z</time>
      </trkpt>
      <trkpt lat="43.67089" lon="3.86137">
        <ele>57.82</ele>
        <time>2015-03-29T14:55:09Z</time>
      </trkpt>
      <trkpt lat="43.67071" lon="3.86159">
        <ele>57.34</ele>
        <time>2015-03-29T14:55:11Z</time>
      </trkpt>
      <trkpt lat="43.67062" lon="3.86164">
        <ele>56.86</ele>
        <time>2015-03-29T14:55:12Z</time>
      </trkpt>
      <trkpt lat="43.67052" lon="3.86166">
        <ele>56.86</ele>
        <time>2015-03-29T14:55:13Z</time>
      </trkpt>
      <trkpt lat="43.67041" lon="3.86167">
        <ele>56.86</ele>
        <time>2015-03-29T14:55:14Z</time>
      </trkpt>
      <trkpt lat="43.67028" lon="3.86166">
        <ele>56.86</ele>
        <time>2015-03-29T14:55:15Z</time>
      </trkpt>
      <trkpt lat="43.67014" lon="3.86165">
        <ele>56.86</ele>
        <time>2015-03-29T14:55:16Z</time>
      </trkpt>
      <trkpt lat="43.67" lon="3.86166">
        <ele>57.34</ele>
        <time>2015-03-29T14:55:17Z</time>
      </trkpt>
      <trkpt lat="43.66986" lon="3.86171">
        <ele>57.34</ele>
        <time>2015-03-29T14:55:18Z</time>
      </trkpt>
      <trkpt lat="43.66974" lon="3.86179">
        <ele>57.34</ele>
        <time>2015-03-29T14:55:19Z</time>
      </trkpt>
      <trkpt lat="43.66962" lon="3.86188">
        <ele>56.86</ele>
        <time>2015-03-29T14:55:20Z</time>
      </trkpt>
      <trkpt lat="43.66952" lon="3.86198">
        <ele>56.86</ele>
        <time>2015-03-29T14:55:21Z</time>
      </trkpt>
      <trkpt lat="43.66943" lon="3.86209">
        <ele>56.37</ele>
        <time>2015-03-29T14:55:22Z</time>
      </trkpt>
      <trkpt lat="43.6688" lon="3.86274">
        <ele>54.45</ele>
        <time>2015-03-29T14:55:30Z</time>
      </trkpt>
      <trkpt lat="43.66817" lon="3.86335">
        <ele>53.49</ele>
        <time>2015-03-29T14:55:36Z</time>
      </trkpt>
      <trkpt lat="43.66803" lon="3.86342">
        <ele>52.53</ele>
        <time>2015-03-29T14:55:37Z</time>
      </trkpt>
      <trkpt lat="43.66788" lon="3.86346">
        <ele>51.57</ele>
        <time>2015-03-29T14:55:38Z</time>
      </trkpt>
      <trkpt lat="43.66772" lon="3.86348">
        <ele>51.09</ele>
        <time>2015-03-29T14:55:39Z</time>
      </trkpt>
      <trkpt lat="43.66756" lon="3.86349">
        <ele>50.61</ele>
        <time>2015-03-29T14:55:40Z</time>
      </trkpt>
      <trkpt lat="43.66741" lon="3.8635">
        <ele>49.65</ele>
        <time>2015-03-29T14:55:41Z</time>
      </trkpt>
      <trkpt lat="43.66695" lon="3.86348">
        <ele>49.16</ele>
        <time>2015-03-29T14:55:44Z</time>
      </trkpt>
      <trkpt lat="43.6668" lon="3.86343">
        <ele>49.16</ele>
        <time>2015-03-29T14:55:45Z</time>
      </trkpt>
      <trkpt lat="43.66666" lon="3.86336">
        <ele>49.16</ele>
        <time>2015-03-29T14:55:46Z</time>
      </trkpt>
      <trkpt lat="43.66561" lon="3.86319">
        <ele>47.24</ele>
        <time>2015-03-29T14:55:53Z</time>
      </trkpt>
      <trkpt lat="43.66463" lon="3.86343">
        <ele>50.61</ele>
        <time>2015-03-29T14:56:01Z</time>
      </trkpt>
      <trkpt lat="43.66404" lon="3.86356">
        <ele>50.13</ele>
        <time>2015-03-29T14:56:07Z</time>
      </trkpt>
      <trkpt lat="43.6639" lon="3.86354">
        <ele>50.13</ele>
        <time>2015-03-29T14:56:08Z</time>
      </trkpt>
      <trkpt lat="43.66376" lon="3.86348">
        <ele>49.65</ele>
        <time>2015-03-29T14:56:09Z</time>
      </trkpt>
      <trkpt lat="43.66363" lon="3.8634">
        <ele>49.65</ele>
        <time>2015-03-29T14:56:10Z</time>
      </trkpt>
      <trkpt lat="43.6635" lon="3.8633">
        <ele>49.65</ele>
        <time>2015-03-29T14:56:11Z</time>
      </trkpt>
      <trkpt lat="43.6631" lon="3.86304">
        <ele>48.68</ele>
        <time>2015-03-29T14:56:14Z</time>
      </trkpt>
      <trkpt lat="43.66296" lon="3.86298">
        <ele>48.2</ele>
        <time>2015-03-29T14:56:15Z</time>
      </trkpt>
      <trkpt lat="43.6628" lon="3.86294">
        <ele>48.2</ele>
        <time>2015-03-29T14:56:16Z</time>
      </trkpt>
      <trkpt lat="43.66264" lon="3.86291">
        <ele>48.2</ele>
        <time>2015-03-29T14:56:17Z</time>
      </trkpt>
      <trkpt lat="43.66249" lon="3.8629">
        <ele>48.2</ele>
        <time>2015-03-29T14:56:18Z</time>
      </trkpt>
      <trkpt lat="43.66179" lon="3.86294">
        <ele>45.32</ele>
        <time>2015-03-29T14:56:24Z</time>
      </trkpt>
      <trkpt lat="43.66107" lon="3.86305">
        <ele>45.32</ele>
        <time>2015-03-29T14:56:30Z</time>
      </trkpt>
      <trkpt lat="43.6599" lon="3.86323">
        <ele>45.8</ele>
        <time>2015-03-29T14:56:38Z</time>
      </trkpt>
      <trkpt lat="43.6585" lon="3.86336">
        <ele>44.84</ele>
        <time>2015-03-29T14:56:47Z</time>
      </trkpt>
      <trkpt lat="43.65743" lon="3.86364">
        <ele>44.36</ele>
        <time>2015-03-29T14:56:56Z</time>
      </trkpt>
      <trkpt lat="43.65633" lon="3.86403">
        <ele>43.4</ele>
        <time>2015-03-29T14:57:04Z</time>
      </trkpt>
      <trkpt lat="43.65525" lon="3.86445">
        <ele>42.44</ele>
        <time>2015-03-29T14:57:12Z</time>
      </trkpt>
      <trkpt lat="43.65417" lon="3.86488">
        <ele>42.44</ele>
        <time>2015-03-29T14:57:21Z</time>
      </trkpt>
      <trkpt lat="43.65305" lon="3.86518">
        <ele>44.84</ele>
        <time>2015-03-29T14:57:28Z</time>
      </trkpt>
      <trkpt lat="43.65209" lon="3.86568">
        <ele>45.32</ele>
        <time>2015-03-29T14:57:35Z</time>
      </trkpt>
      <trkpt lat="43.65161" lon="3.86601">
        <ele>48.2</ele>
        <time>2015-03-29T14:57:42Z</time>
      </trkpt>
      <trkpt lat="43.65163" lon="3.866">
        <ele>49.16</ele>
        <time>2015-03-29T14:57:57Z</time>
      </trkpt>
      <trkpt lat="43.65144" lon="3.8661">
        <ele>49.16</ele>
        <time>2015-03-29T14:58:12Z</time>
      </trkpt>
      <trkpt lat="43.65138" lon="3.86608">
        <ele>48.2</ele>
        <time>2015-03-29T14:58:21Z</time>
      </trkpt>
      <trkpt lat="43.65134" lon="3.86605">
        <ele>48.2</ele>
        <time>2015-03-29T14:58:22Z</time>
      </trkpt>
      <trkpt lat="43.65125" lon="3.86597">
        <ele>48.68</ele>
        <time>2015-03-29T14:58:24Z</time>
      </trkpt>
      <trkpt lat="43.6512" lon="3.86595">
        <ele>48.2</ele>
        <time>2015-03-29T14:58:25Z</time>
      </trkpt>
      <trkpt lat="43.65115" lon="3.86593">
        <ele>48.2</ele>
        <time>2015-03-29T14:58:26Z</time>
      </trkpt>
      <trkpt lat="43.65109" lon="3.86592">
        <ele>48.2</ele>
        <time>2015-03-29T14:58:27Z</time>
      </trkpt>
      <trkpt lat="43.65103" lon="3.86585">
        <ele>48.2</ele>
        <time>2015-03-29T14:58:28Z</time>
      </trkpt>
      <trkpt lat="43.65098" lon="3.86576">
        <ele>47.72</ele>
        <time>2015-03-29T14:58:29Z</time>
      </trkpt>
      <trkpt lat="43.65095" lon="3.86564">
        <ele>47.72</ele>
        <time>2015-03-29T14:58:30Z</time>
      </trkpt>
      <trkpt lat="43.65093" lon="3.86552">
        <ele>46.76</ele>
        <time>2015-03-29T14:58:31Z</time>
      </trkpt>
      <trkpt lat="43.65092" lon="3.86538">
        <ele>46.28</ele>
        <time>2015-03-29T14:58:32Z</time>
      </trkpt>
      <trkpt lat="43.65082" lon="3.86446">
        <ele>46.28</ele>
        <time>2015-03-29T14:58:40Z</time>
      </trkpt>
      <trkpt lat="43.65079" lon="3.86439">
        <ele>46.28</ele>
        <time>2015-03-29T14:58:41Z</time>
      </trkpt>
      <trkpt lat="43.65075" lon="3.86432">
        <ele>46.76</ele>
        <time>2015-03-29T14:58:42Z</time>
      </trkpt>
      <trkpt lat="43.65061" lon="3.86409">
        <ele>46.28</ele>
        <time>2015-03-29T14:58:45Z</time>
      </trkpt>
      <trkpt lat="43.65059" lon="3.864">
        <ele>46.28</ele>
        <time>2015-03-29T14:58:46Z</time>
      </trkpt>
      <trkpt lat="43.65057" lon="3.8639">
        <ele>46.28</ele>
        <time>2015-03-29T14:58:47Z</time>
      </trkpt>
      <trkpt lat="43.6505" lon="3.86281">
        <ele>46.28</ele>
        <time>2015-03-29T14:58:56Z</time>
      </trkpt>
      <trkpt lat="43.65052" lon="3.8627">
        <ele>46.76</ele>
        <time>2015-03-29T14:58:57Z</time>
      </trkpt>
      <trkpt lat="43.65056" lon="3.86236">
        <ele>47.24</ele>
        <time>2015-03-29T14:59:00Z</time>
      </trkpt>
      <trkpt lat="43.65057" lon="3.86218">
        <ele>47.72</ele>
        <time>2015-03-29T14:59:01Z</time>
      </trkpt>
      <trkpt lat="43.65055" lon="3.86198">
        <ele>48.2</ele>
        <time>2015-03-29T14:59:02Z</time>
      </trkpt>
      <trkpt lat="43.65032" lon="3.86008">
        <ele>53.97</ele>
        <time>2015-03-29T14:59:10Z</time>
      </trkpt>
      <trkpt lat="43.64986" lon="3.8576">
        <ele>58.78</ele>
        <time>2015-03-29T14:59:18Z</time>
      </trkpt>
      <trkpt lat="43.64914" lon="3.85586">
        <ele>58.3</ele>
        <time>2015-03-29T14:59:24Z</time>
      </trkpt>
      <trkpt lat="43.64793" lon="3.8546">
        <ele>60.7</ele>
        <time>2015-03-29T14:59:30Z</time>
      </trkpt>
      <trkpt lat="43.64643" lon="3.85388">
        <ele>66.47</ele>
        <time>2015-03-29T14:59:36Z</time>
      </trkpt>
      <trkpt lat="43.6455" lon="3.85309">
        <ele>70.31</ele>
        <time>2015-03-29T14:59:41Z</time>
      </trkpt>
      <trkpt lat="43.6454" lon="3.85294">
        <ele>71.27</ele>
        <time>2015-03-29T14:59:42Z</time>
      </trkpt>
      <trkpt lat="43.64534" lon="3.85279">
        <ele>72.24</ele>
        <time>2015-03-29T14:59:43Z</time>
      </trkpt>
      <trkpt lat="43.64531" lon="3.85266">
        <ele>72.24</ele>
        <time>2015-03-29T14:59:44Z</time>
      </trkpt>
      <trkpt lat="43.64529" lon="3.85251">
        <ele>71.76</ele>
        <time>2015-03-29T14:59:45Z</time>
      </trkpt>
      <trkpt lat="43.64526" lon="3.85237">
        <ele>71.76</ele>
        <time>2015-03-29T14:59:46Z</time>
      </trkpt>
      <trkpt lat="43.64521" lon="3.85225">
        <ele>72.24</ele>
        <time>2015-03-29T14:59:47Z</time>
      </trkpt>
      <trkpt lat="43.64514" lon="3.85218">
        <ele>72.24</ele>
        <time>2015-03-29T14:59:48Z</time>
      </trkpt>
      <trkpt lat="43.64504" lon="3.85212">
        <ele>72.24</ele>
        <time>2015-03-29T14:59:49Z</time>
      </trkpt>
      <trkpt lat="43.64493" lon="3.85203">
        <ele>72.24</ele>
        <time>2015-03-29T14:59:50Z</time>
      </trkpt>
      <trkpt lat="43.64481" lon="3.8519">
        <ele>72.72</ele>
        <time>2015-03-29T14:59:51Z</time>
      </trkpt>
      <trkpt lat="43.64469" lon="3.85172">
        <ele>72.24</ele>
        <time>2015-03-29T14:59:52Z</time>
      </trkpt>
      <trkpt lat="43.64456" lon="3.85151">
        <ele>72.24</ele>
        <time>2015-03-29T14:59:53Z</time>
      </trkpt>
      <trkpt lat="43.64353" lon="3.84944">
        <ele>77.04</ele>
        <time>2015-03-29T15:00:01Z</time>
      </trkpt>
      <trkpt lat="43.64276" lon="3.84803">
        <ele>74.16</ele>
        <time>2015-03-29T15:00:07Z</time>
      </trkpt>
      <trkpt lat="43.64259" lon="3.84785">
        <ele>73.2</ele>
        <time>2015-03-29T15:00:08Z</time>
      </trkpt>
      <trkpt lat="43.6424" lon="3.84769">
        <ele>71.76</ele>
        <time>2015-03-29T15:00:09Z</time>
      </trkpt>
      <trkpt lat="43.6422" lon="3.84756">
        <ele>70.31</ele>
        <time>2015-03-29T15:00:10Z</time>
      </trkpt>
      <trkpt lat="43.64198" lon="3.84745">
        <ele>68.39</ele>
        <time>2015-03-29T15:00:11Z</time>
      </trkpt>
      <trkpt lat="43.64175" lon="3.84735">
        <ele>66.47</ele>
        <time>2015-03-29T15:00:12Z</time>
      </trkpt>
      <trkpt lat="43.64152" lon="3.84726">
        <ele>65.03</ele>
        <time>2015-03-29T15:00:13Z</time>
      </trkpt>
      <trkpt lat="43.63978" lon="3.8467">
        <ele>56.86</ele>
        <time>2015-03-29T15:00:20Z</time>
      </trkpt>
      <trkpt lat="43.6383" lon="3.84623">
        <ele>56.37</ele>
        <time>2015-03-29T15:00:27Z</time>
      </trkpt>
      <trkpt lat="43.63743" lon="3.8455">
        <ele>56.86</ele>
        <time>2015-03-29T15:00:34Z</time>
      </trkpt>
      <trkpt lat="43.63713" lon="3.8452">
        <ele>56.37</ele>
        <time>2015-03-29T15:00:40Z</time>
      </trkpt>
      <trkpt lat="43.63706" lon="3.84513">
        <ele>56.37</ele>
        <time>2015-03-29T15:00:48Z</time>
      </trkpt>
      <trkpt lat="43.63689" lon="3.84494">
        <ele>55.89</ele>
        <time>2015-03-29T15:00:57Z</time>
      </trkpt>
      <trkpt lat="43.63624" lon="3.84444">
        <ele>53.01</ele>
        <time>2015-03-29T15:01:04Z</time>
      </trkpt>
      <trkpt lat="43.63496" lon="3.84375">
        <ele>55.41</ele>
        <time>2015-03-29T15:01:14Z</time>
      </trkpt>
      <trkpt lat="43.63356" lon="3.84312">
        <ele>56.37</ele>
        <time>2015-03-29T15:01:23Z</time>
      </trkpt>
      <trkpt lat="43.63219" lon="3.84269">
        <ele>54.45</ele>
        <time>2015-03-29T15:01:31Z</time>
      </trkpt>
      <trkpt lat="43.63183" lon="3.84241">
        <ele>54.45</ele>
        <time>2015-03-29T15:01:36Z</time>
      </trkpt>
      <trkpt lat="43.63169" lon="3.84224">
        <ele>55.41</ele>
        <time>2015-03-29T15:01:40Z</time>
      </trkpt>
      <trkpt lat="43.63166" lon="3.84217">
        <ele>55.89</ele>
        <time>2015-03-29T15:01:41Z</time>
      </trkpt>
      <trkpt lat="43.63164" lon="3.84206">
        <ele>55.89</ele>
        <time>2015-03-29T15:01:42Z</time>
      </trkpt>
      <trkpt lat="43.63161" lon="3.84194">
        <ele>56.37</ele>
        <time>2015-03-29T15:01:43Z</time>
      </trkpt>
      <trkpt lat="43.63157" lon="3.84183">
        <ele>56.37</ele>
        <time>2015-03-29T15:01:44Z</time>
      </trkpt>
      <trkpt lat="43.63152" lon="3.84173">
        <ele>56.86</ele>
        <time>2015-03-29T15:01:45Z</time>
      </trkpt>
      <trkpt lat="43.63145" lon="3.84165">
        <ele>56.86</ele>
        <time>2015-03-29T15:01:46Z</time>
      </trkpt>
      <trkpt lat="43.63136" lon="3.84159">
        <ele>57.34</ele>
        <time>2015-03-29T15:01:47Z</time>
      </trkpt>
      <trkpt lat="43.63127" lon="3.84155">
        <ele>57.34</ele>
        <time>2015-03-29T15:01:48Z</time>
      </trkpt>
      <trkpt lat="43.63118" lon="3.84154">
        <ele>57.34</ele>
        <time>2015-03-29T15:01:49Z</time>
      </trkpt>
      <trkpt lat="43.63108" lon="3.84155">
        <ele>57.34</ele>
        <time>2015-03-29T15:01:50Z</time>
      </trkpt>
      <trkpt lat="43.63099" lon="3.8416">
        <ele>57.34</ele>
        <time>2015-03-29T15:01:51Z</time>
      </trkpt>
      <trkpt lat="43.6309" lon="3.84167">
        <ele>57.34</ele>
        <time>2015-03-29T15:01:52Z</time>
      </trkpt>
      <trkpt lat="43.63081" lon="3.84174">
        <ele>57.34</ele>
        <time>2015-03-29T15:01:53Z</time>
      </trkpt>
      <trkpt lat="43.63069" lon="3.84181">
        <ele>57.82</ele>
        <time>2015-03-29T15:01:54Z</time>
      </trkpt>
      <trkpt lat="43.63055" lon="3.84183">
        <ele>57.82</ele>
        <time>2015-03-29T15:01:55Z</time>
      </trkpt>
      <trkpt lat="43.63039" lon="3.84182">
        <ele>57.34</ele>
        <time>2015-03-29T15:01:56Z</time>
      </trkpt>
      <trkpt lat="43.63021" lon="3.84179">
        <ele>57.34</ele>
        <time>2015-03-29T15:01:57Z</time>
      </trkpt>
      <trkpt lat="43.63002" lon="3.84175">
        <ele>57.34</ele>
        <time>2015-03-29T15:01:58Z</time>
      </trkpt>
      <trkpt lat="43.62939" lon="3.84159">
        <ele>57.82</ele>
        <time>2015-03-29T15:02:01Z</time>
      </trkpt>
      <trkpt lat="43.62915" lon="3.84145">
        <ele>57.82</ele>
        <time>2015-03-29T15:02:02Z</time>
      </trkpt>
      <trkpt lat="43.62894" lon="3.8413">
        <ele>58.3</ele>
        <time>2015-03-29T15:02:03Z</time>
      </trkpt>
      <trkpt lat="43.6274" lon="3.83969">
        <ele>64.07</ele>
        <time>2015-03-29T15:02:11Z</time>
      </trkpt>
      <trkpt lat="43.62609" lon="3.83762">
        <ele>70.31</ele>
        <time>2015-03-29T15:02:20Z</time>
      </trkpt>
      <trkpt lat="43.62555" lon="3.83673">
        <ele>73.68</ele>
        <time>2015-03-29T15:02:26Z</time>
      </trkpt>
      <trkpt lat="43.62552" lon="3.83661">
        <ele>74.16</ele>
        <time>2015-03-29T15:02:27Z</time>
      </trkpt>
      <trkpt lat="43.62554" lon="3.8365">
        <ele>74.16</ele>
        <time>2015-03-29T15:02:28Z</time>
      </trkpt>
      <trkpt lat="43.62556" lon="3.83635">
        <ele>73.68</ele>
        <time>2015-03-29T15:02:29Z</time>
      </trkpt>
      <trkpt lat="43.62556" lon="3.8362">
        <ele>74.16</ele>
        <time>2015-03-29T15:02:30Z</time>
      </trkpt>
      <trkpt lat="43.62553" lon="3.83604">
        <ele>74.16</ele>
        <time>2015-03-29T15:02:31Z</time>
      </trkpt>
      <trkpt lat="43.62546" lon="3.8359">
        <ele>74.16</ele>
        <time>2015-03-29T15:02:32Z</time>
      </trkpt>
      <trkpt lat="43.62536" lon="3.83578">
        <ele>74.16</ele>
        <time>2015-03-29T15:02:33Z</time>
      </trkpt>
      <trkpt lat="43.62519" lon="3.83577">
        <ele>74.16</ele>
        <time>2015-03-29T15:02:34Z</time>
      </trkpt>
      <trkpt lat="43.62505" lon="3.83579">
        <ele>74.16</ele>
        <time>2015-03-29T15:02:35Z</time>
      </trkpt>
      <trkpt lat="43.62492" lon="3.83587">
        <ele>74.16</ele>
        <time>2015-03-29T15:02:36Z</time>
      </trkpt>
      <trkpt lat="43.62482" lon="3.836">
        <ele>74.16</ele>
        <time>2015-03-29T15:02:37Z</time>
      </trkpt>
      <trkpt lat="43.62476" lon="3.83616">
        <ele>74.64</ele>
        <time>2015-03-29T15:02:38Z</time>
      </trkpt>
      <trkpt lat="43.6247" lon="3.8363">
        <ele>73.68</ele>
        <time>2015-03-29T15:02:39Z</time>
      </trkpt>
      <trkpt lat="43.62462" lon="3.83642">
        <ele>73.68</ele>
        <time>2015-03-29T15:02:40Z</time>
      </trkpt>
      <trkpt lat="43.62453" lon="3.83646">
        <ele>74.16</ele>
        <time>2015-03-29T15:02:41Z</time>
      </trkpt>
      <trkpt lat="43.62444" lon="3.83649">
        <ele>74.64</ele>
        <time>2015-03-29T15:02:42Z</time>
      </trkpt>
      <trkpt lat="43.62437" lon="3.83649">
        <ele>75.12</ele>
        <time>2015-03-29T15:02:43Z</time>
      </trkpt>
      <trkpt lat="43.62429" lon="3.8365">
        <ele>75.6</ele>
        <time>2015-03-29T15:02:44Z</time>
      </trkpt>
      <trkpt lat="43.62422" lon="3.83651">
        <ele>75.6</ele>
        <time>2015-03-29T15:02:45Z</time>
      </trkpt>
      <trkpt lat="43.62416" lon="3.83656">
        <ele>76.08</ele>
        <time>2015-03-29T15:02:46Z</time>
      </trkpt>
      <trkpt lat="43.62411" lon="3.83663">
        <ele>75.6</ele>
        <time>2015-03-29T15:02:47Z</time>
      </trkpt>
      <trkpt lat="43.62409" lon="3.83671">
        <ele>75.6</ele>
        <time>2015-03-29T15:02:48Z</time>
      </trkpt>
      <trkpt lat="43.62409" lon="3.83679">
        <ele>75.6</ele>
        <time>2015-03-29T15:02:49Z</time>
      </trkpt>
      <trkpt lat="43.62412" lon="3.83686">
        <ele>75.12</ele>
        <time>2015-03-29T15:02:50Z</time>
      </trkpt>
      <trkpt lat="43.62415" lon="3.83692">
        <ele>74.64</ele>
        <time>2015-03-29T15:02:51Z</time>
      </trkpt>
      <trkpt lat="43.6242" lon="3.83697">
        <ele>74.16</ele>
        <time>2015-03-29T15:02:52Z</time>
      </trkpt>
      <trkpt lat="43.62424" lon="3.83702">
        <ele>74.16</ele>
        <time>2015-03-29T15:02:53Z</time>
      </trkpt>
      <trkpt lat="43.62427" lon="3.8371">
        <ele>74.16</ele>
        <time>2015-03-29T15:02:54Z</time>
      </trkpt>
      <trkpt lat="43.6243" lon="3.83721">
        <ele>73.68</ele>
        <time>2015-03-29T15:02:55Z</time>
      </trkpt>
      <trkpt lat="43.62437" lon="3.83745">
        <ele>73.2</ele>
        <time>2015-03-29T15:02:57Z</time>
      </trkpt>
      <trkpt lat="43.62443" lon="3.83777">
        <ele>73.2</ele>
        <time>2015-03-29T15:03:00Z</time>
      </trkpt>
      <trkpt lat="43.62445" lon="3.83784">
        <ele>73.2</ele>
        <time>2015-03-29T15:03:01Z</time>
      </trkpt>
      <trkpt lat="43.62445" lon="3.8379">
        <ele>73.2</ele>
        <time>2015-03-29T15:03:02Z</time>
      </trkpt>
      <trkpt lat="43.62443" lon="3.83794">
        <ele>72.72</ele>
        <time>2015-03-29T15:03:03Z</time>
      </trkpt>
      <trkpt lat="43.62437" lon="3.83805">
        <ele>76.56</ele>
        <time>2015-03-29T15:03:14Z</time>
      </trkpt>
      <trkpt lat="43.62437" lon="3.83805">
        <ele>78.48</ele>
        <time>2015-03-29T15:03:16Z</time>
      </trkpt>
      <trkpt lat="43.62439" lon="3.83802">
        <ele>80.41</ele>
        <time>2015-03-29T15:04:17Z</time>
      </trkpt>
      <trkpt lat="43.6244" lon="3.838">
        <ele>79.45</ele>
        <time>2015-03-29T15:04:20Z</time>
      </trkpt>
      <trkpt lat="43.62442" lon="3.83778">
        <ele>81.37</ele>
        <time>2015-03-29T15:04:25Z</time>
      </trkpt>
      <trkpt lat="43.62442" lon="3.83771">
        <ele>81.37</ele>
        <time>2015-03-29T15:04:26Z</time>
      </trkpt>
      <trkpt lat="43.62441" lon="3.83762">
        <ele>81.37</ele>
        <time>2015-03-29T15:04:27Z</time>
      </trkpt>
      <trkpt lat="43.62431" lon="3.83712">
        <ele>80.41</ele>
        <time>2015-03-29T15:04:32Z</time>
      </trkpt>
      <trkpt lat="43.6243" lon="3.83703">
        <ele>79.93</ele>
        <time>2015-03-29T15:04:33Z</time>
      </trkpt>
      <trkpt lat="43.62432" lon="3.83696">
        <ele>79.45</ele>
        <time>2015-03-29T15:04:34Z</time>
      </trkpt>
      <trkpt lat="43.62436" lon="3.83691">
        <ele>78.48</ele>
        <time>2015-03-29T15:04:35Z</time>
      </trkpt>
      <trkpt lat="43.62441" lon="3.83685">
        <ele>77.52</ele>
        <time>2015-03-29T15:04:36Z</time>
      </trkpt>
      <trkpt lat="43.62447" lon="3.8368">
        <ele>77.04</ele>
        <time>2015-03-29T15:04:37Z</time>
      </trkpt>
      <trkpt lat="43.62454" lon="3.83676">
        <ele>76.56</ele>
        <time>2015-03-29T15:04:38Z</time>
      </trkpt>
      <trkpt lat="43.62462" lon="3.83673">
        <ele>76.56</ele>
        <time>2015-03-29T15:04:39Z</time>
      </trkpt>
      <trkpt lat="43.62469" lon="3.83672">
        <ele>75.6</ele>
        <time>2015-03-29T15:04:40Z</time>
      </trkpt>
      <trkpt lat="43.62474" lon="3.83672">
        <ele>75.6</ele>
        <time>2015-03-29T15:04:41Z</time>
      </trkpt>
      <trkpt lat="43.62477" lon="3.83671">
        <ele>75.12</ele>
        <time>2015-03-29T15:04:42Z</time>
      </trkpt>
      <trkpt lat="43.62476" lon="3.83672">
        <ele>74.16</ele>
        <time>2015-03-29T15:04:53Z</time>
      </trkpt>
      <trkpt lat="43.62477" lon="3.83672">
        <ele>74.16</ele>
        <time>2015-03-29T15:04:58Z</time>
      </trkpt>
      <trkpt lat="43.62479" lon="3.83673">
        <ele>74.16</ele>
        <time>2015-03-29T15:04:59Z</time>
      </trkpt>
      <trkpt lat="43.62483" lon="3.83676">
        <ele>74.16</ele>
        <time>2015-03-29T15:05:00Z</time>
      </trkpt>
      <trkpt lat="43.62489" lon="3.83681">
        <ele>74.16</ele>
        <time>2015-03-29T15:05:01Z</time>
      </trkpt>
      <trkpt lat="43.62498" lon="3.83688">
        <ele>74.64</ele>
        <time>2015-03-29T15:05:02Z</time>
      </trkpt>
      <trkpt lat="43.62508" lon="3.83692">
        <ele>74.16</ele>
        <time>2015-03-29T15:05:03Z</time>
      </trkpt>
      <trkpt lat="43.62521" lon="3.83693">
        <ele>73.68</ele>
        <time>2015-03-29T15:05:04Z</time>
      </trkpt>
      <trkpt lat="43.62535" lon="3.83689">
        <ele>73.68</ele>
        <time>2015-03-29T15:05:05Z</time>
      </trkpt>
      <trkpt lat="43.62547" lon="3.8368">
        <ele>73.2</ele>
        <time>2015-03-29T15:05:06Z</time>
      </trkpt>
      <trkpt lat="43.62556" lon="3.83665">
        <ele>74.16</ele>
        <time>2015-03-29T15:05:07Z</time>
      </trkpt>
      <trkpt lat="43.62562" lon="3.83649">
        <ele>74.64</ele>
        <time>2015-03-29T15:05:08Z</time>
      </trkpt>
      <trkpt lat="43.62565" lon="3.83634">
        <ele>74.16</ele>
        <time>2015-03-29T15:05:09Z</time>
      </trkpt>
      <trkpt lat="43.62564" lon="3.83619">
        <ele>74.16</ele>
        <time>2015-03-29T15:05:10Z</time>
      </trkpt>
      <trkpt lat="43.62561" lon="3.83602">
        <ele>74.16</ele>
        <time>2015-03-29T15:05:11Z</time>
      </trkpt>
      <trkpt lat="43.62548" lon="3.83583">
        <ele>74.16</ele>
        <time>2015-03-29T15:05:12Z</time>
      </trkpt>
      <trkpt lat="43.62536" lon="3.8357">
        <ele>74.16</ele>
        <time>2015-03-29T15:05:13Z</time>
      </trkpt>
      <trkpt lat="43.62521" lon="3.83558">
        <ele>74.16</ele>
        <time>2015-03-29T15:05:14Z</time>
      </trkpt>
      <trkpt lat="43.6251" lon="3.83544">
        <ele>74.16</ele>
        <time>2015-03-29T15:05:15Z</time>
      </trkpt>
      <trkpt lat="43.62501" lon="3.83528">
        <ele>74.64</ele>
        <time>2015-03-29T15:05:16Z</time>
      </trkpt>
      <trkpt lat="43.62492" lon="3.83511">
        <ele>75.12</ele>
        <time>2015-03-29T15:05:17Z</time>
      </trkpt>
      <trkpt lat="43.62425" lon="3.8342">
        <ele>74.16</ele>
        <time>2015-03-29T15:05:23Z</time>
      </trkpt>
      <trkpt lat="43.62411" lon="3.8341">
        <ele>74.16</ele>
        <time>2015-03-29T15:05:24Z</time>
      </trkpt>
      <trkpt lat="43.62397" lon="3.83402">
        <ele>74.16</ele>
        <time>2015-03-29T15:05:25Z</time>
      </trkpt>
      <trkpt lat="43.62361" lon="3.83382">
        <ele>74.16</ele>
        <time>2015-03-29T15:05:28Z</time>
      </trkpt>
      <trkpt lat="43.62353" lon="3.83374">
        <ele>74.16</ele>
        <time>2015-03-29T15:05:29Z</time>
      </trkpt>
      <trkpt lat="43.62348" lon="3.83363">
        <ele>74.16</ele>
        <time>2015-03-29T15:05:30Z</time>
      </trkpt>
      <trkpt lat="43.62343" lon="3.8335">
        <ele>74.16</ele>
        <time>2015-03-29T15:05:31Z</time>
      </trkpt>
      <trkpt lat="43.62337" lon="3.83337">
        <ele>74.16</ele>
        <time>2015-03-29T15:05:32Z</time>
      </trkpt>
      <trkpt lat="43.62328" lon="3.83328">
        <ele>73.68</ele>
        <time>2015-03-29T15:05:33Z</time>
      </trkpt>
      <trkpt lat="43.62318" lon="3.83326">
        <ele>73.68</ele>
        <time>2015-03-29T15:05:34Z</time>
      </trkpt>
      <trkpt lat="43.62307" lon="3.83329">
        <ele>73.2</ele>
        <time>2015-03-29T15:05:35Z</time>
      </trkpt>
      <trkpt lat="43.62298" lon="3.83339">
        <ele>73.2</ele>
        <time>2015-03-29T15:05:36Z</time>
      </trkpt>
      <trkpt lat="43.62291" lon="3.83352">
        <ele>73.2</ele>
        <time>2015-03-29T15:05:37Z</time>
      </trkpt>
      <trkpt lat="43.62289" lon="3.83368">
        <ele>73.2</ele>
        <time>2015-03-29T15:05:38Z</time>
      </trkpt>
      <trkpt lat="43.6229" lon="3.83388">
        <ele>74.16</ele>
        <time>2015-03-29T15:05:39Z</time>
      </trkpt>
      <trkpt lat="43.62291" lon="3.83409">
        <ele>74.64</ele>
        <time>2015-03-29T15:05:40Z</time>
      </trkpt>
      <trkpt lat="43.62288" lon="3.8343">
        <ele>74.64</ele>
        <time>2015-03-29T15:05:41Z</time>
      </trkpt>
      <trkpt lat="43.62281" lon="3.83452">
        <ele>75.6</ele>
        <time>2015-03-29T15:05:42Z</time>
      </trkpt>
      <trkpt lat="43.62273" lon="3.83472">
        <ele>76.56</ele>
        <time>2015-03-29T15:05:43Z</time>
      </trkpt>
      <trkpt lat="43.62265" lon="3.83491">
        <ele>77.04</ele>
        <time>2015-03-29T15:05:44Z</time>
      </trkpt>
      <trkpt lat="43.62255" lon="3.83512">
        <ele>79.45</ele>
        <time>2015-03-29T15:05:48Z</time>
      </trkpt>
      <trkpt lat="43.62258" lon="3.83509">
        <ele>78.48</ele>
        <time>2015-03-29T15:06:06Z</time>
      </trkpt>
      <trkpt lat="43.62243" lon="3.83541">
        <ele>78.97</ele>
        <time>2015-03-29T15:06:20Z</time>
      </trkpt>
      <trkpt lat="43.62181" lon="3.83619">
        <ele>79.93</ele>
        <time>2015-03-29T15:06:25Z</time>
      </trkpt>
      <trkpt lat="43.62163" lon="3.83632">
        <ele>79.93</ele>
        <time>2015-03-29T15:06:26Z</time>
      </trkpt>
      <trkpt lat="43.62042" lon="3.83727">
        <ele>79.93</ele>
        <time>2015-03-29T15:06:34Z</time>
      </trkpt>
      <trkpt lat="43.61988" lon="3.8377">
        <ele>79.93</ele>
        <time>2015-03-29T15:06:40Z</time>
      </trkpt>
      <trkpt lat="43.61986" lon="3.83771">
        <ele>79.45</ele>
        <time>2015-03-29T15:06:46Z</time>
      </trkpt>
      <trkpt lat="43.61978" lon="3.83781">
        <ele>79.45</ele>
        <time>2015-03-29T15:07:40Z</time>
      </trkpt>
      <trkpt lat="43.61976" lon="3.83787">
        <ele>79.45</ele>
        <time>2015-03-29T15:07:41Z</time>
      </trkpt>
      <trkpt lat="43.61976" lon="3.83794">
        <ele>79.45</ele>
        <time>2015-03-29T15:07:42Z</time>
      </trkpt>
      <trkpt lat="43.61979" lon="3.83802">
        <ele>78.97</ele>
        <time>2015-03-29T15:07:43Z</time>
      </trkpt>
      <trkpt lat="43.61984" lon="3.83809">
        <ele>78.97</ele>
        <time>2015-03-29T15:07:44Z</time>
      </trkpt>
      <trkpt lat="43.61991" lon="3.83816">
        <ele>78.97</ele>
        <time>2015-03-29T15:07:45Z</time>
      </trkpt>
      <trkpt lat="43.61999" lon="3.83825">
        <ele>79.45</ele>
        <time>2015-03-29T15:07:46Z</time>
      </trkpt>
      <trkpt lat="43.62086" lon="3.83929">
        <ele>77.04</ele>
        <time>2015-03-29T15:07:57Z</time>
      </trkpt>
      <trkpt lat="43.62101" lon="3.83961">
        <ele>74.16</ele>
        <time>2015-03-29T15:08:00Z</time>
      </trkpt>
      <trkpt lat="43.62103" lon="3.83973">
        <ele>73.68</ele>
        <time>2015-03-29T15:08:01Z</time>
      </trkpt>
      <trkpt lat="43.62113" lon="3.84034">
        <ele>68.39</ele>
        <time>2015-03-29T15:08:07Z</time>
      </trkpt>
      <trkpt lat="43.62111" lon="3.8404">
        <ele>67.91</ele>
        <time>2015-03-29T15:08:08Z</time>
      </trkpt>
      <trkpt lat="43.62106" lon="3.84044">
        <ele>67.43</ele>
        <time>2015-03-29T15:08:09Z</time>
      </trkpt>
      <trkpt lat="43.62102" lon="3.84046">
        <ele>66.95</ele>
        <time>2015-03-29T15:08:10Z</time>
      </trkpt>
      <trkpt lat="43.62097" lon="3.84048">
        <ele>66.95</ele>
        <time>2015-03-29T15:08:11Z</time>
      </trkpt>
      <trkpt lat="43.62092" lon="3.8405">
        <ele>66.95</ele>
        <time>2015-03-29T15:08:12Z</time>
      </trkpt>
      <trkpt lat="43.62085" lon="3.84048">
        <ele>66.95</ele>
        <time>2015-03-29T15:08:14Z</time>
      </trkpt>
      <trkpt lat="43.62083" lon="3.84044">
        <ele>66.95</ele>
        <time>2015-03-29T15:08:15Z</time>
      </trkpt>
      <trkpt lat="43.62083" lon="3.84041">
        <ele>66.95</ele>
        <time>2015-03-29T15:08:16Z</time>
      </trkpt>
      <trkpt lat="43.62084" lon="3.84039">
        <ele>66.95</ele>
        <time>2015-03-29T15:08:17Z</time>
      </trkpt>
      <trkpt lat="43.62084" lon="3.84041">
        <ele>76.56</ele>
        <time>2015-03-29T15:08:36Z</time>
      </trkpt>
      <trkpt lat="43.6209" lon="3.84024">
        <ele>74.64</ele>
        <time>2015-03-29T15:08:47Z</time>
      </trkpt>
      <trkpt lat="43.6209" lon="3.84021">
        <ele>74.16</ele>
        <time>2015-03-29T15:08:48Z</time>
      </trkpt>
      <trkpt lat="43.62088" lon="3.8402">
        <ele>68.87</ele>
        <time>2015-03-29T15:09:05Z</time>
      </trkpt>
      <trkpt lat="43.62086" lon="3.84017">
        <ele>67.91</ele>
        <time>2015-03-29T15:09:10Z</time>
      </trkpt>
      <trkpt lat="43.6209" lon="3.84015">
        <ele>70.79</ele>
        <time>2015-03-29T15:09:14Z</time>
      </trkpt>
    </trkseg>
  </trk>
</gpx>